Elk River (Missouri), Tiff City (07189000)

StateMissouriLatestHigh (1720 cfs)
RiverElk RiverRatingObservedEstimated
Updated2026-04-27 11:30 (1 week ago)Flood - The river is flooding. Obstacles can be treacherous or deadly. The river should be avoided at this stage for casual trips and definitely for the inexperienced. Trips should be attempted only with protective gear and equipment.Flood(none)3569
Discharge1720 cfs (median: 839 cfs)High - The river is high and potentially dangerous, especially for the young and / or inexperienced. Normal stream obstacles are sometimes difficult to navigate. Extended distances can be attempted, but canoe travel may not be advisable.High(none)818
Height5.3 feetGood - Conditions are ideal for a canoe or kayak. Boats typically will drag on fewer than one-quarter of riffles, if at all, and portages are unnecessary or rare. Normal float lengths can be attempted without a problem.Good(none)482
TrendRising (falling over 24 hours)Low - River is low but can still be floated. Some riffles are okay but most come with significant dragging and might need a portage. Float lengths should be reduced to accommodate low flow, dragging, and portages.Low250258
USGSExternal icon USGS Site (External icon Duck Duck Go Maps)Poor - River is too low to float comfortably. Most or all riffles will drag or must be portaged and some obstacles (such as slick shelf rock) cause undue problems. Avoid the river at this stage for casual paddling trips.Poor(none)66

Trending Data

Plot Image

Trips for Elk River (Missouri), Tiff City (07189000)

DateStartEndDistanceConditionDischargeHeightFishingDetails
Click for details2010-08-07 Rt DD MO 43 Total trip distance: 9.0 miles9.0 Low 238 3.56 None NoneNone Bowe, Michelle
Edmond, Brian
Bowe, Michelle; Edmond, Brian
The water level was okay along this stretch but we couldn't get through all riffles. I wouldn't want to do this section with any less water. We were on the river from approximately 1200 to 1900 hours. Mostly cloudy and very hot (sun only peaked through occasionally) and it rained for 20-30 minutes towards the end of our trip even though it stayed warm.The water level was okay along this stretch but we couldn't get through all riffles. I wouldn't want to do this section with any less water. We were on the river from approximately 1200 to 1900 hours. Mostly cloudy and very hot (sun only peaked through occasionally) and it rained for 20-30 minutes towards the end of our trip even though it stayed warm. USGS Gauge Data:
Tiff City (07189000)
Discharge: 238
Height: 3.56
<b>USGS Gauge Data:</b></br />Tiff City (07189000)<br />Discharge: 238<br />Height: 3.56
Source: EdmondSource: Edmond

A total of 1 rows are displayed.

Trip Summary for Elk River (Missouri), Tiff City (07189000)

Miles9
Trips1
People2
Dates1
Years1
Months1
Rows1
Sources1

Condition Descriptions

Fishing Conditions

Fish Species

Notes

Classic Trip List

The classic River Trips application is still available for use. It is updated with the new system using a data retrofit. It is no longer maintained. The original River Trips application is no longer updated (as of 1 Dec 2016) but can be checked for errors or for the condition of the data before it was converted to the new system.

Gauge Data Table

ObservationHeightDischargeMaximum
Discharge
Minimum
Discharge
Mean
Discharge
P05P10P20P25P50
(Median)
P75P80P90P95
2026-04-27 11:30 5.30 1720 11500 (2011) 76 (1956) 1410 264 323 461 571 844 1440 1870 3330 4400
2026-04-27 10:30 5.33 1570 11500 (2011) 76 (1956) 1410 264 323 461 571 844 1440 1870 3330 4400
2026-04-27 09:30 5.34 1580 11500 (2011) 76 (1956) 1410 264 323 461 571 844 1440 1870 3330 4400
2026-04-27 08:30 5.36 1600 11500 (2011) 76 (1956) 1410 264 323 461 571 844 1440 1870 3330 4400
2026-04-27 07:30 5.37 1610 11500 (2011) 76 (1956) 1410 264 323 461 571 844 1440 1870 3330 4400
2026-04-27 06:30 5.39 1630 11500 (2011) 76 (1956) 1410 264 323 461 571 844 1440 1870 3330 4400
2026-04-27 05:30 5.40 1640 11500 (2011) 76 (1956) 1410 264 323 461 571 844 1440 1870 3330 4400
2026-04-27 04:30 5.41 1650 11500 (2011) 76 (1956) 1410 264 323 461 571 844 1440 1870 3330 4400
2026-04-27 03:30 5.43 1670 11500 (2011) 76 (1956) 1410 264 323 461 571 844 1440 1870 3330 4400
2026-04-27 02:30 5.45 1690 11500 (2011) 76 (1956) 1410 264 323 461 571 844 1440 1870 3330 4400
2026-04-27 01:30 5.46 1700 11500 (2011) 76 (1956) 1410 264 323 461 571 844 1440 1870 3330 4400
2026-04-27 00:30 5.47 1710 11500 (2011) 76 (1956) 1410 264 323 461 571 844 1440 1870 3330 4400
2026-04-26 23:30 5.50 1740 11500 (2011) 76 (1956) 1410 264 323 461 571 844 1440 1870 3330 4400
2026-04-26 22:30 5.52 1760 46400 (2011) 81 (1956) 1920 275 314 444 499 883 1640 2120 3560 5070
2026-04-26 21:30 5.54 1780 46400 (2011) 81 (1956) 1920 275 314 444 499 883 1640 2120 3560 5070
2026-04-26 20:30 5.55 1790 46400 (2011) 81 (1956) 1920 275 314 444 499 883 1640 2120 3560 5070
2026-04-26 19:30 5.57 1820 46400 (2011) 81 (1956) 1920 275 314 444 499 883 1640 2120 3560 5070
2026-04-26 18:30 5.59 1840 46400 (2011) 81 (1956) 1920 275 314 444 499 883 1640 2120 3560 5070
2026-04-26 17:30 5.61 1860 46400 (2011) 81 (1956) 1920 275 314 444 499 883 1640 2120 3560 5070
2026-04-26 16:30 5.64 1890 46400 (2011) 81 (1956) 1920 275 314 444 499 883 1640 2120 3560 5070
2026-04-26 15:30 5.66 1910 46400 (2011) 81 (1956) 1920 275 314 444 499 883 1640 2120 3560 5070
2026-04-26 14:30 5.67 1920 46400 (2011) 81 (1956) 1920 275 314 444 499 883 1640 2120 3560 5070
2026-04-26 13:30 5.70 1950 46400 (2011) 81 (1956) 1920 275 314 444 499 883 1640 2120 3560 5070
2026-04-26 12:30 5.71 1960 46400 (2011) 81 (1956) 1920 275 314 444 499 883 1640 2120 3560 5070
2026-04-26 11:30 5.73 1990 46400 (2011) 81 (1956) 1920 275 314 444 499 883 1640 2120 3560 5070
2026-04-26 10:30 5.75 2010 46400 (2011) 81 (1956) 1920 275 314 444 499 883 1640 2120 3560 5070
2026-04-26 09:30 5.77 2030 46400 (2011) 81 (1956) 1920 275 314 444 499 883 1640 2120 3560 5070
2026-04-26 08:30 5.79 2050 46400 (2011) 81 (1956) 1920 275 314 444 499 883 1640 2120 3560 5070
2026-04-26 07:30 5.81 2070 46400 (2011) 81 (1956) 1920 275 314 444 499 883 1640 2120 3560 5070
2026-04-26 06:30 5.83 2100 46400 (2011) 81 (1956) 1920 275 314 444 499 883 1640 2120 3560 5070
2026-04-26 05:30 5.84 2110 46400 (2011) 81 (1956) 1920 275 314 444 499 883 1640 2120 3560 5070
2026-04-26 04:30 5.87 2140 46400 (2011) 81 (1956) 1920 275 314 444 499 883 1640 2120 3560 5070
2026-04-26 03:30 5.88 2150 46400 (2011) 81 (1956) 1920 275 314 444 499 883 1640 2120 3560 5070
2026-04-26 02:30 5.90 2180 46400 (2011) 81 (1956) 1920 275 314 444 499 883 1640 2120 3560 5070
2026-04-26 01:30 5.92 2200 46400 (2011) 81 (1956) 1920 275 314 444 499 883 1640 2120 3560 5070
2026-04-26 00:30 5.94 2220 46400 (2011) 81 (1956) 1920 275 314 444 499 883 1640 2120 3560 5070
2026-04-25 23:30 5.96 2240 46400 (2011) 81 (1956) 1920 275 314 444 499 883 1640 2120 3560 5070
2026-04-25 22:30 5.98 2270 52600 (2011) 84 (1956) 2250 255 304 442 485 883 1770 2150 4220 5550
2026-04-25 21:30 5.99 2280 52600 (2011) 84 (1956) 2250 255 304 442 485 883 1770 2150 4220 5550
2026-04-25 20:30 6.00 2290 52600 (2011) 84 (1956) 2250 255 304 442 485 883 1770 2150 4220 5550
2026-04-25 19:30 6.02 2320 52600 (2011) 84 (1956) 2250 255 304 442 485 883 1770 2150 4220 5550
2026-04-25 18:30 6.04 2340 52600 (2011) 84 (1956) 2250 255 304 442 485 883 1770 2150 4220 5550
2026-04-25 17:30 6.06 2360 52600 (2011) 84 (1956) 2250 255 304 442 485 883 1770 2150 4220 5550
2026-04-25 16:30 6.09 2400 52600 (2011) 84 (1956) 2250 255 304 442 485 883 1770 2150 4220 5550
2026-04-25 15:30 6.11 2420 52600 (2011) 84 (1956) 2250 255 304 442 485 883 1770 2150 4220 5550
2026-04-25 14:30 6.12 2430 52600 (2011) 84 (1956) 2250 255 304 442 485 883 1770 2150 4220 5550
2026-04-25 13:30 6.14 2460 52600 (2011) 84 (1956) 2250 255 304 442 485 883 1770 2150 4220 5550
2026-04-25 12:30 6.15 2470 52600 (2011) 84 (1956) 2250 255 304 442 485 883 1770 2150 4220 5550
2026-04-25 11:30 6.16 2480 52600 (2011) 84 (1956) 2250 255 304 442 485 883 1770 2150 4220 5550
2026-04-25 10:30 6.15 2470 52600 (2011) 84 (1956) 2250 255 304 442 485 883 1770 2150 4220 5550
2026-04-25 09:30 6.15 2470 52600 (2011) 84 (1956) 2250 255 304 442 485 883 1770 2150 4220 5550
2026-04-25 08:30 6.15 2470 52600 (2011) 84 (1956) 2250 255 304 442 485 883 1770 2150 4220 5550
2026-04-25 07:30 6.13 2450 52600 (2011) 84 (1956) 2250 255 304 442 485 883 1770 2150 4220 5550
2026-04-25 06:30 6.12 2430 52600 (2011) 84 (1956) 2250 255 304 442 485 883 1770 2150 4220 5550
2026-04-25 05:30 6.10 2410 52600 (2011) 84 (1956) 2250 255 304 442 485 883 1770 2150 4220 5550
2026-04-25 04:30 6.09 2400 52600 (2011) 84 (1956) 2250 255 304 442 485 883 1770 2150 4220 5550
2026-04-25 03:30 6.07 2370 52600 (2011) 84 (1956) 2250 255 304 442 485 883 1770 2150 4220 5550
2026-04-25 02:30 6.05 2350 52600 (2011) 84 (1956) 2250 255 304 442 485 883 1770 2150 4220 5550
2026-04-25 01:30 6.03 2330 52600 (2011) 84 (1956) 2250 255 304 442 485 883 1770 2150 4220 5550
2026-04-25 00:30 6.00 2290 52600 (2011) 84 (1956) 2250 255 304 442 485 883 1770 2150 4220 5550
2026-04-24 23:30 5.97 2260 52600 (2011) 84 (1956) 2250 255 304 442 485 883 1770 2150 4220 5550
2026-04-24 22:30 5.90 2180 18900 (2004) 84 (1956) 1760 254 307 414 482 875 1880 2160 4580 6460
2026-04-24 21:30 5.84 2110 18900 (2004) 84 (1956) 1760 254 307 414 482 875 1880 2160 4580 6460
2026-04-24 20:30 5.77 2030 18900 (2004) 84 (1956) 1760 254 307 414 482 875 1880 2160 4580 6460
2026-04-24 19:30 5.71 1960 18900 (2004) 84 (1956) 1760 254 307 414 482 875 1880 2160 4580 6460
2026-04-24 18:30 5.67 1920 18900 (2004) 84 (1956) 1760 254 307 414 482 875 1880 2160 4580 6460
2026-04-24 17:30 5.63 1880 18900 (2004) 84 (1956) 1760 254 307 414 482 875 1880 2160 4580 6460
2026-04-24 16:30 5.61 1860 18900 (2004) 84 (1956) 1760 254 307 414 482 875 1880 2160 4580 6460
2026-04-24 15:30 5.58 1830 18900 (2004) 84 (1956) 1760 254 307 414 482 875 1880 2160 4580 6460
2026-04-24 14:30 5.56 1810 18900 (2004) 84 (1956) 1760 254 307 414 482 875 1880 2160 4580 6460
2026-04-24 13:30 5.53 1770 18900 (2004) 84 (1956) 1760 254 307 414 482 875 1880 2160 4580 6460
2026-04-24 12:30 5.51 1750 18900 (2004) 84 (1956) 1760 254 307 414 482 875 1880 2160 4580 6460
2026-04-24 11:30 5.46 1700 18900 (2004) 84 (1956) 1760 254 307 414 482 875 1880 2160 4580 6460
2026-04-24 10:30 5.37 1610 18900 (2004) 84 (1956) 1760 254 307 414 482 875 1880 2160 4580 6460
2026-04-24 09:30 5.22 1470 18900 (2004) 84 (1956) 1760 254 307 414 482 875 1880 2160 4580 6460
2026-04-24 08:30 5.02 1280 18900 (2004) 84 (1956) 1760 254 307 414 482 875 1880 2160 4580 6460
2026-04-24 07:30 4.82 1110 18900 (2004) 84 (1956) 1760 254 307 414 482 875 1880 2160 4580 6460
2026-04-24 06:30 4.72 1030 18900 (2004) 84 (1956) 1760 254 307 414 482 875 1880 2160 4580 6460
2026-04-24 05:30 4.67 996 18900 (2004) 84 (1956) 1760 254 307 414 482 875 1880 2160 4580 6460
2026-04-24 04:30 4.62 958 18900 (2004) 84 (1956) 1760 254 307 414 482 875 1880 2160 4580 6460
2026-04-24 03:30 4.58 928 18900 (2004) 84 (1956) 1760 254 307 414 482 875 1880 2160 4580 6460
2026-04-24 02:30 4.57 921 18900 (2004) 84 (1956) 1760 254 307 414 482 875 1880 2160 4580 6460
2026-04-24 01:30 4.54 899 18900 (2004) 84 (1956) 1760 254 307 414 482 875 1880 2160 4580 6460
2026-04-24 00:30 4.49 864 18900 (2004) 84 (1956) 1760 254 307 414 482 875 1880 2160 4580 6460
2026-04-23 23:30 4.50 871 18900 (2004) 84 (1956) 1760 254 307 414 482 875 1880 2160 4580 6460
2026-04-23 22:30 4.51 878 8030 (1973) 91 (1956) 1520 261 293 403 494 908 1810 2370 3890 5490
2026-04-23 21:30 4.52 885 8030 (1973) 91 (1956) 1520 261 293 403 494 908 1810 2370 3890 5490
2026-04-23 20:30 4.53 892 8030 (1973) 91 (1956) 1520 261 293 403 494 908 1810 2370 3890 5490
2026-04-23 19:30 4.55 907 8030 (1973) 91 (1956) 1520 261 293 403 494 908 1810 2370 3890 5490
2026-04-23 18:30 4.57 921 8030 (1973) 91 (1956) 1520 261 293 403 494 908 1810 2370 3890 5490
2026-04-23 17:30 4.58 928 8030 (1973) 91 (1956) 1520 261 293 403 494 908 1810 2370 3890 5490
2026-04-23 16:30 4.60 943 8030 (1973) 91 (1956) 1520 261 293 403 494 908 1810 2370 3890 5490
2026-04-23 15:30 4.61 951 8030 (1973) 91 (1956) 1520 261 293 403 494 908 1810 2370 3890 5490
2026-04-23 14:30 4.62 958 8030 (1973) 91 (1956) 1520 261 293 403 494 908 1810 2370 3890 5490
2026-04-23 13:30 4.65 980 8030 (1973) 91 (1956) 1520 261 293 403 494 908 1810 2370 3890 5490
2026-04-23 12:30 4.67 996 8030 (1973) 91 (1956) 1520 261 293 403 494 908 1810 2370 3890 5490
2026-04-23 11:30 4.68 1000 8030 (1973) 91 (1956) 1520 261 293 403 494 908 1810 2370 3890 5490
2026-04-23 10:30 4.70 1020 8030 (1973) 91 (1956) 1520 261 293 403 494 908 1810 2370 3890 5490
2026-04-23 09:30 4.73 1040 8030 (1973) 91 (1956) 1520 261 293 403 494 908 1810 2370 3890 5490
2026-04-23 08:30 4.75 1060 8030 (1973) 91 (1956) 1520 261 293 403 494 908 1810 2370 3890 5490
2026-04-23 07:30 4.76 1070 8030 (1973) 91 (1956) 1520 261 293 403 494 908 1810 2370 3890 5490
2026-04-23 06:30 4.78 1080 8030 (1973) 91 (1956) 1520 261 293 403 494 908 1810 2370 3890 5490
2026-04-23 05:30 4.79 1090 8030 (1973) 91 (1956) 1520 261 293 403 494 908 1810 2370 3890 5490
2026-04-23 04:30 4.81 1110 8030 (1973) 91 (1956) 1520 261 293 403 494 908 1810 2370 3890 5490
2026-04-23 03:30 4.82 1110 8030 (1973) 91 (1956) 1520 261 293 403 494 908 1810 2370 3890 5490
2026-04-23 02:30 4.83 1120 8030 (1973) 91 (1956) 1520 261 293 403 494 908 1810 2370 3890 5490
2026-04-23 01:30 4.85 1140 8030 (1973) 91 (1956) 1520 261 293 403 494 908 1810 2370 3890 5490
2026-04-23 00:30 4.86 1150 8030 (1973) 91 (1956) 1520 261 293 403 494 908 1810 2370 3890 5490
2026-04-22 23:30 4.87 1160 8030 (1973) 91 (1956) 1520 261 293 403 494 908 1810 2370 3890 5490
2026-04-22 22:30 4.88 1160 20000 (2017) 94 (1956) 1690 251 281 418 487 937 1690 1940 4100 6520
2026-04-22 21:30 4.90 1180 20000 (2017) 94 (1956) 1690 251 281 418 487 937 1690 1940 4100 6520
2026-04-22 20:30 4.91 1190 20000 (2017) 94 (1956) 1690 251 281 418 487 937 1690 1940 4100 6520
2026-04-22 19:30 4.93 1210 20000 (2017) 94 (1956) 1690 251 281 418 487 937 1690 1940 4100 6520
2026-04-22 18:30 4.95 1220 20000 (2017) 94 (1956) 1690 251 281 418 487 937 1690 1940 4100 6520
2026-04-22 17:30 4.96 1230 20000 (2017) 94 (1956) 1690 251 281 418 487 937 1690 1940 4100 6520
2026-04-22 16:30 4.98 1250 20000 (2017) 94 (1956) 1690 251 281 418 487 937 1690 1940 4100 6520
2026-04-22 15:30 5.00 1270 20000 (2017) 94 (1956) 1690 251 281 418 487 937 1690 1940 4100 6520
2026-04-22 14:30 5.01 1280 20000 (2017) 94 (1956) 1690 251 281 418 487 937 1690 1940 4100 6520
2026-04-22 13:30 5.03 1290 20000 (2017) 94 (1956) 1690 251 281 418 487 937 1690 1940 4100 6520
2026-04-22 12:30 5.05 1310 20000 (2017) 94 (1956) 1690 251 281 418 487 937 1690 1940 4100 6520
2026-04-22 11:30 5.06 1320 20000 (2017) 94 (1956) 1690 251 281 418 487 937 1690 1940 4100 6520
2026-04-22 10:30 5.08 1340 20000 (2017) 94 (1956) 1690 251 281 418 487 937 1690 1940 4100 6520
2026-04-22 09:30 5.09 1350 20000 (2017) 94 (1956) 1690 251 281 418 487 937 1690 1940 4100 6520
2026-04-22 08:30 5.11 1360 20000 (2017) 94 (1956) 1690 251 281 418 487 937 1690 1940 4100 6520
2026-04-22 07:30 5.12 1370 20000 (2017) 94 (1956) 1690 251 281 418 487 937 1690 1940 4100 6520
2026-04-22 06:30 5.14 1390 20000 (2017) 94 (1956) 1690 251 281 418 487 937 1690 1940 4100 6520
2026-04-22 05:30 5.15 1400 20000 (2017) 94 (1956) 1690 251 281 418 487 937 1690 1940 4100 6520
2026-04-22 04:30 5.17 1420 20000 (2017) 94 (1956) 1690 251 281 418 487 937 1690 1940 4100 6520
2026-04-22 03:30 5.19 1440 20000 (2017) 94 (1956) 1690 251 281 418 487 937 1690 1940 4100 6520
2026-04-22 02:30 5.20 1450 20000 (2017) 94 (1956) 1690 251 281 418 487 937 1690 1940 4100 6520
2026-04-22 01:30 5.22 1470 20000 (2017) 94 (1956) 1690 251 281 418 487 937 1690 1940 4100 6520
2026-04-22 00:30 5.24 1480 20000 (2017) 94 (1956) 1690 251 281 418 487 937 1690 1940 4100 6520
2026-04-21 23:30 5.25 1490 20000 (2017) 94 (1956) 1690 251 281 418 487 937 1690 1940 4100 6520
2026-04-21 22:30 5.27 1510 19200 (2025) 101 (1956) 1750 228 287 429 500 906 1640 2020 3630 6030
2026-04-21 21:30 5.29 1530 19200 (2025) 101 (1956) 1750 228 287 429 500 906 1640 2020 3630 6030
2026-04-21 20:30 5.32 1560 19200 (2025) 101 (1956) 1750 228 287 429 500 906 1640 2020 3630 6030
2026-04-21 19:30 5.33 1570 19200 (2025) 101 (1956) 1750 228 287 429 500 906 1640 2020 3630 6030
2026-04-21 18:30 5.35 1590 19200 (2025) 101 (1956) 1750 228 287 429 500 906 1640 2020 3630 6030
2026-04-21 17:30 5.37 1610 19200 (2025) 101 (1956) 1750 228 287 429 500 906 1640 2020 3630 6030
2026-04-21 16:30 5.39 1630 19200 (2025) 101 (1956) 1750 228 287 429 500 906 1640 2020 3630 6030
2026-04-21 15:30 5.41 1650 19200 (2025) 101 (1956) 1750 228 287 429 500 906 1640 2020 3630 6030
2026-04-21 14:30 5.43 1670 19200 (2025) 101 (1956) 1750 228 287 429 500 906 1640 2020 3630 6030
2026-04-21 13:30 5.45 1690 19200 (2025) 101 (1956) 1750 228 287 429 500 906 1640 2020 3630 6030
2026-04-21 12:30 5.47 1710 19200 (2025) 101 (1956) 1750 228 287 429 500 906 1640 2020 3630 6030
2026-04-21 11:30 5.49 1730 19200 (2025) 101 (1956) 1750 228 287 429 500 906 1640 2020 3630 6030
2026-04-21 10:30 5.51 1750 19200 (2025) 101 (1956) 1750 228 287 429 500 906 1640 2020 3630 6030
2026-04-21 09:30 5.53 1770 19200 (2025) 101 (1956) 1750 228 287 429 500 906 1640 2020 3630 6030
2026-04-21 08:30 5.54 1780 19200 (2025) 101 (1956) 1750 228 287 429 500 906 1640 2020 3630 6030
2026-04-21 07:30 5.57 1820 19200 (2025) 101 (1956) 1750 228 287 429 500 906 1640 2020 3630 6030
2026-04-21 06:30 5.58 1830 19200 (2025) 101 (1956) 1750 228 287 429 500 906 1640 2020 3630 6030
2026-04-21 05:30 5.61 1860 19200 (2025) 101 (1956) 1750 228 287 429 500 906 1640 2020 3630 6030
2026-04-21 04:30 5.63 1880 19200 (2025) 101 (1956) 1750 228 287 429 500 906 1640 2020 3630 6030
2026-04-21 03:30 5.65 1900 19200 (2025) 101 (1956) 1750 228 287 429 500 906 1640 2020 3630 6030
2026-04-21 02:30 5.68 1930 19200 (2025) 101 (1956) 1750 228 287 429 500 906 1640 2020 3630 6030
2026-04-21 01:30 5.70 1950 19200 (2025) 101 (1956) 1750 228 287 429 500 906 1640 2020 3630 6030
2026-04-21 00:30 5.72 1970 19200 (2025) 101 (1956) 1750 228 287 429 500 906 1640 2020 3630 6030
2026-04-20 23:30 5.75 2010 19200 (2025) 101 (1956) 1750 228 287 429 500 906 1640 2020 3630 6030
2026-04-20 22:30 5.78 2040 24100 (2025) 103 (2006) 1850 205 306 431 507 864 1390 1910 4010 6200
2026-04-20 21:30 5.80 2060 24100 (2025) 103 (2006) 1850 205 306 431 507 864 1390 1910 4010 6200
2026-04-20 20:30 5.82 2080 24100 (2025) 103 (2006) 1850 205 306 431 507 864 1390 1910 4010 6200
2026-04-20 19:30 5.85 2120 24100 (2025) 103 (2006) 1850 205 306 431 507 864 1390 1910 4010 6200
2026-04-20 18:30 5.88 2150 24100 (2025) 103 (2006) 1850 205 306 431 507 864 1390 1910 4010 6200
2026-04-20 17:30 5.91 2190 24100 (2025) 103 (2006) 1850 205 306 431 507 864 1390 1910 4010 6200
2026-04-20 16:30 5.94 2220 24100 (2025) 103 (2006) 1850 205 306 431 507 864 1390 1910 4010 6200
2026-04-20 15:30 5.96 2240 24100 (2025) 103 (2006) 1850 205 306 431 507 864 1390 1910 4010 6200
2026-04-20 14:30 5.99 2280 24100 (2025) 103 (2006) 1850 205 306 431 507 864 1390 1910 4010 6200
2026-04-20 13:30 6.03 2330 24100 (2025) 103 (2006) 1850 205 306 431 507 864 1390 1910 4010 6200
2026-04-20 12:30 6.06 2360 24100 (2025) 103 (2006) 1850 205 306 431 507 864 1390 1910 4010 6200
2026-04-20 11:30 6.09 2400 24100 (2025) 103 (2006) 1850 205 306 431 507 864 1390 1910 4010 6200
2026-04-20 10:30 6.12 2430 24100 (2025) 103 (2006) 1850 205 306 431 507 864 1390 1910 4010 6200
2026-04-20 09:30 6.15 2470 24100 (2025) 103 (2006) 1850 205 306 431 507 864 1390 1910 4010 6200
2026-04-20 08:30 6.18 2510 24100 (2025) 103 (2006) 1850 205 306 431 507 864 1390 1910 4010 6200
2026-04-20 07:30 6.22 2560 24100 (2025) 103 (2006) 1850 205 306 431 507 864 1390 1910 4010 6200
2026-04-20 06:30 6.25 2600 24100 (2025) 103 (2006) 1850 205 306 431 507 864 1390 1910 4010 6200
2026-04-20 05:30 6.28 2630 24100 (2025) 103 (2006) 1850 205 306 431 507 864 1390 1910 4010 6200
2026-04-20 04:30 6.33 2700 24100 (2025) 103 (2006) 1850 205 306 431 507 864 1390 1910 4010 6200
2026-04-20 03:30 6.36 2740 24100 (2025) 103 (2006) 1850 205 306 431 507 864 1390 1910 4010 6200
2026-04-20 02:30 6.41 2800 24100 (2025) 103 (2006) 1850 205 306 431 507 864 1390 1910 4010 6200
2026-04-20 01:30 6.45 2850 24100 (2025) 103 (2006) 1850 205 306 431 507 864 1390 1910 4010 6200
2026-04-20 00:30 6.49 2910 24100 (2025) 103 (2006) 1850 205 306 431 507 864 1390 1910 4010 6200
2026-04-19 23:30 6.53 2960 24100 (2025) 103 (2006) 1850 205 306 431 507 864 1390 1910 4010 6200
2026-04-19 22:30 6.58 3030 68600 (1941) 107 (2006) 2170 186 309 391 508 881 1590 2200 3770 4510
2026-04-19 21:30 6.62 3080 68600 (1941) 107 (2006) 2170 186 309 391 508 881 1590 2200 3770 4510
2026-04-19 20:30 6.67 3150 68600 (1941) 107 (2006) 2170 186 309 391 508 881 1590 2200 3770 4510
2026-04-19 19:30 6.71 3210 68600 (1941) 107 (2006) 2170 186 309 391 508 881 1590 2200 3770 4510
2026-04-19 18:30 6.76 3270 68600 (1941) 107 (2006) 2170 186 309 391 508 881 1590 2200 3770 4510
2026-04-19 17:30 6.82 3360 68600 (1941) 107 (2006) 2170 186 309 391 508 881 1590 2200 3770 4510
2026-04-19 16:30 6.84 3390 68600 (1941) 107 (2006) 2170 186 309 391 508 881 1590 2200 3770 4510
2026-04-19 15:30 6.89 3460 68600 (1941) 107 (2006) 2170 186 309 391 508 881 1590 2200 3770 4510
2026-04-19 14:30 6.93 3510 68600 (1941) 107 (2006) 2170 186 309 391 508 881 1590 2200 3770 4510
2026-04-19 13:30 6.98 3580 68600 (1941) 107 (2006) 2170 186 309 391 508 881 1590 2200 3770 4510
2026-04-19 12:30 7.01 3630 68600 (1941) 107 (2006) 2170 186 309 391 508 881 1590 2200 3770 4510
2026-04-19 11:30 7.05 3680 68600 (1941) 107 (2006) 2170 186 309 391 508 881 1590 2200 3770 4510
2026-04-19 10:30 7.09 3740 68600 (1941) 107 (2006) 2170 186 309 391 508 881 1590 2200 3770 4510
2026-04-19 09:30 7.12 3780 68600 (1941) 107 (2006) 2170 186 309 391 508 881 1590 2200 3770 4510
2026-04-19 08:30 7.15 3830 68600 (1941) 107 (2006) 2170 186 309 391 508 881 1590 2200 3770 4510
2026-04-19 07:30 7.18 3870 68600 (1941) 107 (2006) 2170 186 309 391 508 881 1590 2200 3770 4510
2026-04-19 06:30 7.19 3880 68600 (1941) 107 (2006) 2170 186 309 391 508 881 1590 2200 3770 4510
2026-04-19 05:30 7.19 3880 68600 (1941) 107 (2006) 2170 186 309 391 508 881 1590 2200 3770 4510
2026-04-19 04:30 7.18 3870 68600 (1941) 107 (2006) 2170 186 309 391 508 881 1590 2200 3770 4510
2026-04-19 03:30 7.14 3810 68600 (1941) 107 (2006) 2170 186 309 391 508 881 1590 2200 3770 4510
2026-04-19 02:30 7.08 3730 68600 (1941) 107 (2006) 2170 186 309 391 508 881 1590 2200 3770 4510
2026-04-19 01:30 6.99 3600 68600 (1941) 107 (2006) 2170 186 309 391 508 881 1590 2200 3770 4510
2026-04-19 00:30 6.89 3460 68600 (1941) 107 (2006) 2170 186 309 391 508 881 1590 2200 3770 4510
2026-04-18 23:30 6.79 3320 68600 (1941) 107 (2006) 2170 186 309 391 508 881 1590 2200 3770 4510
2026-04-18 22:30 6.69 3180 7490 (2013) 114 (2006) 1350 186 316 405 531 890 1520 1790 2870 5170
2026-04-18 21:30 6.59 3040 7490 (2013) 114 (2006) 1350 186 316 405 531 890 1520 1790 2870 5170
2026-04-18 20:30 6.49 2910 7490 (2013) 114 (2006) 1350 186 316 405 531 890 1520 1790 2870 5170
2026-04-18 19:30 6.40 2790 7490 (2013) 114 (2006) 1350 186 316 405 531 890 1520 1790 2870 5170
2026-04-18 18:30 6.30 2660 7490 (2013) 114 (2006) 1350 186 316 405 531 890 1520 1790 2870 5170
2026-04-18 17:30 6.18 2510 7490 (2013) 114 (2006) 1350 186 316 405 531 890 1520 1790 2870 5170
2026-04-18 16:30 6.06 2360 7490 (2013) 114 (2006) 1350 186 316 405 531 890 1520 1790 2870 5170
2026-04-18 15:30 5.92 2200 7490 (2013) 114 (2006) 1350 186 316 405 531 890 1520 1790 2870 5170
2026-04-18 14:30 5.79 2050 7490 (2013) 114 (2006) 1350 186 316 405 531 890 1520 1790 2870 5170
2026-04-18 13:30 5.65 1900 7490 (2013) 114 (2006) 1350 186 316 405 531 890 1520 1790 2870 5170
2026-04-18 12:30 5.53 1770 7490 (2013) 114 (2006) 1350 186 316 405 531 890 1520 1790 2870 5170
2026-04-18 11:30 5.41 1650 7490 (2013) 114 (2006) 1350 186 316 405 531 890 1520 1790 2870 5170
2026-04-18 10:30 5.32 1560 7490 (2013) 114 (2006) 1350 186 316 405 531 890 1520 1790 2870 5170
2026-04-18 09:30 5.24 1480 7490 (2013) 114 (2006) 1350 186 316 405 531 890 1520 1790 2870 5170
2026-04-18 08:30 5.18 1430 7490 (2013) 114 (2006) 1350 186 316 405 531 890 1520 1790 2870 5170
2026-04-18 07:30 5.14 1390 7490 (2013) 114 (2006) 1350 186 316 405 531 890 1520 1790 2870 5170
2026-04-18 06:30 5.10 1360 7490 (2013) 114 (2006) 1350 186 316 405 531 890 1520 1790 2870 5170
2026-04-18 05:30 5.08 1340 7490 (2013) 114 (2006) 1350 186 316 405 531 890 1520 1790 2870 5170
2026-04-18 04:30 5.08 1340 7490 (2013) 114 (2006) 1350 186 316 405 531 890 1520 1790 2870 5170
2026-04-18 03:30 5.07 1330 7490 (2013) 114 (2006) 1350 186 316 405 531 890 1520 1790 2870 5170
2026-04-18 02:30 5.04 1300 7490 (2013) 114 (2006) 1350 186 316 405 531 890 1520 1790 2870 5170
2026-04-18 01:30 5.03 1290 7490 (2013) 114 (2006) 1350 186 316 405 531 890 1520 1790 2870 5170
2026-04-18 00:30 5.03 1290 7490 (2013) 114 (2006) 1350 186 316 405 531 890 1520 1790 2870 5170
2026-04-17 23:30 5.02 1280 7490 (2013) 114 (2006) 1350 186 316 405 531 890 1520 1790 2870 5170
2026-04-17 22:30 5.02 1280 14700 (1941) 120 (2006) 1450 192 318 374 449 908 1520 1750 2780 5090
2026-04-17 21:30 5.04 1300 14700 (1941) 120 (2006) 1450 192 318 374 449 908 1520 1750 2780 5090
2026-04-17 20:30 5.05 1310 14700 (1941) 120 (2006) 1450 192 318 374 449 908 1520 1750 2780 5090
2026-04-17 19:30 5.06 1320 14700 (1941) 120 (2006) 1450 192 318 374 449 908 1520 1750 2780 5090
2026-04-17 18:30 5.08 1340 14700 (1941) 120 (2006) 1450 192 318 374 449 908 1520 1750 2780 5090
2026-04-17 17:30 5.10 1360 14700 (1941) 120 (2006) 1450 192 318 374 449 908 1520 1750 2780 5090
2026-04-17 16:30 5.11 1360 14700 (1941) 120 (2006) 1450 192 318 374 449 908 1520 1750 2780 5090
2026-04-17 15:30 5.12 1370 14700 (1941) 120 (2006) 1450 192 318 374 449 908 1520 1750 2780 5090
2026-04-17 14:30 5.13 1380 14700 (1941) 120 (2006) 1450 192 318 374 449 908 1520 1750 2780 5090
2026-04-17 13:30 5.14 1390 14700 (1941) 120 (2006) 1450 192 318 374 449 908 1520 1750 2780 5090
2026-04-17 12:30 5.15 1400 14700 (1941) 120 (2006) 1450 192 318 374 449 908 1520 1750 2780 5090
2026-04-17 11:30 5.17 1420 14700 (1941) 120 (2006) 1450 192 318 374 449 908 1520 1750 2780 5090
2026-04-17 10:30 5.18 1430 14700 (1941) 120 (2006) 1450 192 318 374 449 908 1520 1750 2780 5090
2026-04-17 09:30 5.18 1430 14700 (1941) 120 (2006) 1450 192 318 374 449 908 1520 1750 2780 5090
2026-04-17 08:30 5.19 1440 14700 (1941) 120 (2006) 1450 192 318 374 449 908 1520 1750 2780 5090
2026-04-17 07:30 5.19 1440 14700 (1941) 120 (2006) 1450 192 318 374 449 908 1520 1750 2780 5090
2026-04-17 06:30 5.20 1450 14700 (1941) 120 (2006) 1450 192 318 374 449 908 1520 1750 2780 5090
2026-04-17 05:30 5.21 1460 14700 (1941) 120 (2006) 1450 192 318 374 449 908 1520 1750 2780 5090
2026-04-17 04:30 5.22 1470 14700 (1941) 120 (2006) 1450 192 318 374 449 908 1520 1750 2780 5090
2026-04-17 03:30 5.22 1470 14700 (1941) 120 (2006) 1450 192 318 374 449 908 1520 1750 2780 5090
2026-04-17 02:30 5.24 1480 14700 (1941) 120 (2006) 1450 192 318 374 449 908 1520 1750 2780 5090
2026-04-17 01:30 5.24 1480 14700 (1941) 120 (2006) 1450 192 318 374 449 908 1520 1750 2780 5090
2026-04-17 00:30 5.25 1490 14700 (1941) 120 (2006) 1450 192 318 374 449 908 1520 1750 2780 5090
2026-04-16 23:30 5.26 1500 14700 (1941) 120 (2006) 1450 192 318 374 449 908 1520 1750 2780 5090
2026-04-16 22:30 5.27 1510 24800 (1945) 115 (1956) 1770 173 328 384 440 856 1710 1930 3150 5760
2026-04-16 21:30 5.28 1520 24800 (1945) 115 (1956) 1770 173 328 384 440 856 1710 1930 3150 5760
2026-04-16 20:30 5.29 1530 24800 (1945) 115 (1956) 1770 173 328 384 440 856 1710 1930 3150 5760
2026-04-16 19:30 5.30 1540 24800 (1945) 115 (1956) 1770 173 328 384 440 856 1710 1930 3150 5760
2026-04-16 18:30 5.30 1540 24800 (1945) 115 (1956) 1770 173 328 384 440 856 1710 1930 3150 5760
2026-04-16 17:30 5.30 1540 24800 (1945) 115 (1956) 1770 173 328 384 440 856 1710 1930 3150 5760
2026-04-16 16:30 5.30 1540 24800 (1945) 115 (1956) 1770 173 328 384 440 856 1710 1930 3150 5760
2026-04-16 15:30 5.28 1520 24800 (1945) 115 (1956) 1770 173 328 384 440 856 1710 1930 3150 5760
2026-04-16 14:30 5.25 1490 24800 (1945) 115 (1956) 1770 173 328 384 440 856 1710 1930 3150 5760
2026-04-16 13:30 5.21 1460 24800 (1945) 115 (1956) 1770 173 328 384 440 856 1710 1930 3150 5760
2026-04-16 12:30 5.17 1420 24800 (1945) 115 (1956) 1770 173 328 384 440 856 1710 1930 3150 5760
2026-04-16 11:30 5.14 1390 24800 (1945) 115 (1956) 1770 173 328 384 440 856 1710 1930 3150 5760
2026-04-16 10:30 5.11 1360 24800 (1945) 115 (1956) 1770 173 328 384 440 856 1710 1930 3150 5760
2026-04-16 09:30 5.09 1350 24800 (1945) 115 (1956) 1770 173 328 384 440 856 1710 1930 3150 5760
2026-04-16 08:30 5.07 1330 24800 (1945) 115 (1956) 1770 173 328 384 440 856 1710 1930 3150 5760
2026-04-16 07:30 5.06 1320 24800 (1945) 115 (1956) 1770 173 328 384 440 856 1710 1930 3150 5760
2026-04-16 06:30 5.03 1290 24800 (1945) 115 (1956) 1770 173 328 384 440 856 1710 1930 3150 5760
2026-04-16 05:30 4.97 1240 24800 (1945) 115 (1956) 1770 173 328 384 440 856 1710 1930 3150 5760
2026-04-16 04:30 4.86 1150 24800 (1945) 115 (1956) 1770 173 328 384 440 856 1710 1930 3150 5760
2026-04-16 03:30 4.73 1040 24800 (1945) 115 (1956) 1770 173 328 384 440 856 1710 1930 3150 5760
2026-04-16 02:30 4.63 965 24800 (1945) 115 (1956) 1770 173 328 384 440 856 1710 1930 3150 5760
2026-04-16 01:30 4.52 885 24800 (1945) 115 (1956) 1770 173 328 384 440 856 1710 1930 3150 5760
2026-04-16 00:30 4.43 822 24800 (1945) 115 (1956) 1770 173 328 384 440 856 1710 1930 3150 5760
2026-04-15 23:30 4.35 769 24800 (1945) 115 (1956) 1770 173 328 384 440 856 1710 1930 3150 5760
2026-04-15 22:30 4.32 749 45900 (1945) 94 (1956) 1830 172 341 401 437 906 1860 2080 2790 4480
2026-04-15 21:30 4.29 730 45900 (1945) 94 (1956) 1830 172 341 401 437 906 1860 2080 2790 4480
2026-04-15 20:30 4.27 717 45900 (1945) 94 (1956) 1830 172 341 401 437 906 1860 2080 2790 4480
2026-04-15 19:30 4.25 705 45900 (1945) 94 (1956) 1830 172 341 401 437 906 1860 2080 2790 4480
2026-04-15 18:30 4.23 692 45900 (1945) 94 (1956) 1830 172 341 401 437 906 1860 2080 2790 4480
2026-04-15 17:30 4.20 674 45900 (1945) 94 (1956) 1830 172 341 401 437 906 1860 2080 2790 4480
2026-04-15 16:30 4.17 656 45900 (1945) 94 (1956) 1830 172 341 401 437 906 1860 2080 2790 4480
2026-04-15 15:30 4.12 627 45900 (1945) 94 (1956) 1830 172 341 401 437 906 1860 2080 2790 4480
2026-04-15 14:30 4.05 587 45900 (1945) 94 (1956) 1830 172 341 401 437 906 1860 2080 2790 4480
2026-04-15 13:30 3.98 548 45900 (1945) 94 (1956) 1830 172 341 401 437 906 1860 2080 2790 4480
2026-04-15 12:30 3.91 511 45900 (1945) 94 (1956) 1830 172 341 401 437 906 1860 2080 2790 4480
2026-04-15 11:30 3.85 481 45900 (1945) 94 (1956) 1830 172 341 401 437 906 1860 2080 2790 4480
2026-04-15 10:30 3.80 456 45900 (1945) 94 (1956) 1830 172 341 401 437 906 1860 2080 2790 4480
2026-04-15 09:30 3.75 433 45900 (1945) 94 (1956) 1830 172 341 401 437 906 1860 2080 2790 4480
2026-04-15 08:30 3.69 405 45900 (1945) 94 (1956) 1830 172 341 401 437 906 1860 2080 2790 4480
2026-04-15 07:30 3.64 383 45900 (1945) 94 (1956) 1830 172 341 401 437 906 1860 2080 2790 4480
2026-04-15 06:30 3.62 374 45900 (1945) 94 (1956) 1830 172 341 401 437 906 1860 2080 2790 4480
2026-04-15 05:30 3.61 370 45900 (1945) 94 (1956) 1830 172 341 401 437 906 1860 2080 2790 4480
2026-04-15 04:30 3.59 361 45900 (1945) 94 (1956) 1830 172 341 401 437 906 1860 2080 2790 4480
2026-04-15 03:30 3.59 361 45900 (1945) 94 (1956) 1830 172 341 401 437 906 1860 2080 2790 4480
2026-04-15 02:30 3.58 357 45900 (1945) 94 (1956) 1830 172 341 401 437 906 1860 2080 2790 4480
2026-04-15 01:30 3.57 353 45900 (1945) 94 (1956) 1830 172 341 401 437 906 1860 2080 2790 4480
2026-04-15 00:30 3.56 349 45900 (1945) 94 (1956) 1830 172 341 401 437 906 1860 2080 2790 4480
2026-04-14 23:30 3.53 337 45900 (1945) 94 (1956) 1830 172 341 401 437 906 1860 2080 2790 4480
2026-04-14 22:30 3.53 337 19200 (1945) 64 (1956) 1640 174 332 416 454 850 1750 2080 3230 5150
2026-04-14 21:30 3.54 341 19200 (1945) 64 (1956) 1640 174 332 416 454 850 1750 2080 3230 5150
2026-04-14 20:30 3.54 341 19200 (1945) 64 (1956) 1640 174 332 416 454 850 1750 2080 3230 5150
2026-04-14 19:30 3.54 341 19200 (1945) 64 (1956) 1640 174 332 416 454 850 1750 2080 3230 5150
2026-04-14 18:30 3.55 345 19200 (1945) 64 (1956) 1640 174 332 416 454 850 1750 2080 3230 5150
2026-04-14 17:30 3.55 345 19200 (1945) 64 (1956) 1640 174 332 416 454 850 1750 2080 3230 5150
2026-04-14 16:30 3.56 349 19200 (1945) 64 (1956) 1640 174 332 416 454 850 1750 2080 3230 5150
2026-04-14 15:30 3.56 349 19200 (1945) 64 (1956) 1640 174 332 416 454 850 1750 2080 3230 5150
2026-04-14 14:30 3.56 349 19200 (1945) 64 (1956) 1640 174 332 416 454 850 1750 2080 3230 5150
2026-04-14 13:30 3.57 353 19200 (1945) 64 (1956) 1640 174 332 416 454 850 1750 2080 3230 5150
2026-04-14 12:30 3.57 353 19200 (1945) 64 (1956) 1640 174 332 416 454 850 1750 2080 3230 5150
2026-04-14 11:30 3.57 353 19200 (1945) 64 (1956) 1640 174 332 416 454 850 1750 2080 3230 5150
2026-04-14 09:30 3.57 353 19200 (1945) 64 (1956) 1640 174 332 416 454 850 1750 2080 3230 5150
2026-04-14 08:30 3.58 357 19200 (1945) 64 (1956) 1640 174 332 416 454 850 1750 2080 3230 5150
2026-04-14 07:30 3.58 357 19200 (1945) 64 (1956) 1640 174 332 416 454 850 1750 2080 3230 5150
2026-04-14 06:30 3.58 357 19200 (1945) 64 (1956) 1640 174 332 416 454 850 1750 2080 3230 5150
2026-04-14 05:30 3.59 361 19200 (1945) 64 (1956) 1640 174 332 416 454 850 1750 2080 3230 5150
2026-04-14 04:30 3.59 361 19200 (1945) 64 (1956) 1640 174 332 416 454 850 1750 2080 3230 5150
2026-04-14 03:30 3.59 361 19200 (1945) 64 (1956) 1640 174 332 416 454 850 1750 2080 3230 5150
2026-04-14 02:30 3.59 361 19200 (1945) 64 (1956) 1640 174 332 416 454 850 1750 2080 3230 5150
2026-04-14 01:30 3.60 366 19200 (1945) 64 (1956) 1640 174 332 416 454 850 1750 2080 3230 5150
2026-04-14 00:30 3.60 366 19200 (1945) 64 (1956) 1640 174 332 416 454 850 1750 2080 3230 5150
2026-04-13 23:30 3.60 366 19200 (1945) 64 (1956) 1640 174 332 416 454 850 1750 2080 3230 5150
2026-04-13 22:30 3.60 366 13400 (1945) 67 (1956) 1580 180 297 402 439 800 1740 2370 4170 5270
2026-04-13 21:30 3.61 370 13400 (1945) 67 (1956) 1580 180 297 402 439 800 1740 2370 4170 5270
2026-04-13 20:30 3.61 370 13400 (1945) 67 (1956) 1580 180 297 402 439 800 1740 2370 4170 5270
2026-04-13 19:30 3.62 374 13400 (1945) 67 (1956) 1580 180 297 402 439 800 1740 2370 4170 5270
2026-04-13 18:30 3.62 374 13400 (1945) 67 (1956) 1580 180 297 402 439 800 1740 2370 4170 5270
2026-04-13 17:30 3.62 374 13400 (1945) 67 (1956) 1580 180 297 402 439 800 1740 2370 4170 5270
2026-04-13 16:30 3.63 378 13400 (1945) 67 (1956) 1580 180 297 402 439 800 1740 2370 4170 5270
2026-04-13 15:30 3.63 378 13400 (1945) 67 (1956) 1580 180 297 402 439 800 1740 2370 4170 5270
2026-04-13 14:30 3.63 378 13400 (1945) 67 (1956) 1580 180 297 402 439 800 1740 2370 4170 5270
2026-04-13 13:30 3.63 378 13400 (1945) 67 (1956) 1580 180 297 402 439 800 1740 2370 4170 5270
2026-04-13 12:30 3.63 378 13400 (1945) 67 (1956) 1580 180 297 402 439 800 1740 2370 4170 5270
2026-04-13 11:30 3.64 383 13400 (1945) 67 (1956) 1580 180 297 402 439 800 1740 2370 4170 5270
2026-04-13 10:30 3.64 383 13400 (1945) 67 (1956) 1580 180 297 402 439 800 1740 2370 4170 5270
2026-04-13 09:30 3.64 383 13400 (1945) 67 (1956) 1580 180 297 402 439 800 1740 2370 4170 5270
2026-04-13 08:30 3.65 387 13400 (1945) 67 (1956) 1580 180 297 402 439 800 1740 2370 4170 5270
2026-04-13 07:30 3.65 387 13400 (1945) 67 (1956) 1580 180 297 402 439 800 1740 2370 4170 5270
2026-04-13 06:30 3.65 387 13400 (1945) 67 (1956) 1580 180 297 402 439 800 1740 2370 4170 5270
2026-04-13 05:30 3.65 387 13400 (1945) 67 (1956) 1580 180 297 402 439 800 1740 2370 4170 5270
2026-04-13 04:30 3.66 392 13400 (1945) 67 (1956) 1580 180 297 402 439 800 1740 2370 4170 5270
2026-04-13 03:30 3.66 392 13400 (1945) 67 (1956) 1580 180 297 402 439 800 1740 2370 4170 5270
2026-04-13 02:30 3.66 392 13400 (1945) 67 (1956) 1580 180 297 402 439 800 1740 2370 4170 5270
2026-04-13 01:30 3.66 392 13400 (1945) 67 (1956) 1580 180 297 402 439 800 1740 2370 4170 5270
2026-04-13 00:30 3.67 396 13400 (1945) 67 (1956) 1580 180 297 402 439 800 1740 2370 4170 5270
2026-04-12 23:30 3.67 396 13400 (1945) 67 (1956) 1580 180 297 402 439 800 1740 2370 4170 5270
2026-04-12 22:30 3.68 400 23100 (1994) 70 (1956) 1860 163 269 406 452 811 1720 2370 5160 6750
2026-04-12 21:30 3.69 405 23100 (1994) 70 (1956) 1860 163 269 406 452 811 1720 2370 5160 6750
2026-04-12 20:30 3.69 405 23100 (1994) 70 (1956) 1860 163 269 406 452 811 1720 2370 5160 6750
2026-04-12 19:30 3.69 405 23100 (1994) 70 (1956) 1860 163 269 406 452 811 1720 2370 5160 6750
2026-04-12 18:30 3.69 405 23100 (1994) 70 (1956) 1860 163 269 406 452 811 1720 2370 5160 6750
2026-04-12 17:30 3.70 410 23100 (1994) 70 (1956) 1860 163 269 406 452 811 1720 2370 5160 6750
2026-04-12 16:30 3.70 410 23100 (1994) 70 (1956) 1860 163 269 406 452 811 1720 2370 5160 6750
2026-04-12 15:30 3.70 410 23100 (1994) 70 (1956) 1860 163 269 406 452 811 1720 2370 5160 6750
2026-04-12 14:30 3.70 410 23100 (1994) 70 (1956) 1860 163 269 406 452 811 1720 2370 5160 6750
2026-04-12 13:30 3.71 414 23100 (1994) 70 (1956) 1860 163 269 406 452 811 1720 2370 5160 6750
2026-04-12 12:30 3.71 414 23100 (1994) 70 (1956) 1860 163 269 406 452 811 1720 2370 5160 6750
2026-04-12 11:30 3.71 414 23100 (1994) 70 (1956) 1860 163 269 406 452 811 1720 2370 5160 6750
2026-04-12 10:30 3.71 414 23100 (1994) 70 (1956) 1860 163 269 406 452 811 1720 2370 5160 6750
2026-04-12 09:30 3.71 414 23100 (1994) 70 (1956) 1860 163 269 406 452 811 1720 2370 5160 6750
2026-04-12 08:30 3.72 419 23100 (1994) 70 (1956) 1860 163 269 406 452 811 1720 2370 5160 6750
2026-04-12 07:30 3.72 419 23100 (1994) 70 (1956) 1860 163 269 406 452 811 1720 2370 5160 6750
2026-04-12 06:30 3.73 423 23100 (1994) 70 (1956) 1860 163 269 406 452 811 1720 2370 5160 6750
2026-04-12 05:30 3.73 423 23100 (1994) 70 (1956) 1860 163 269 406 452 811 1720 2370 5160 6750
2026-04-12 04:30 3.73 423 23100 (1994) 70 (1956) 1860 163 269 406 452 811 1720 2370 5160 6750
2026-04-12 03:30 3.74 428 23100 (1994) 70 (1956) 1860 163 269 406 452 811 1720 2370 5160 6750
2026-04-12 02:30 3.74 428 23100 (1994) 70 (1956) 1860 163 269 406 452 811 1720 2370 5160 6750
2026-04-12 01:30 3.75 433 23100 (1994) 70 (1956) 1860 163 269 406 452 811 1720 2370 5160 6750
2026-04-12 00:30 3.75 433 23100 (1994) 70 (1956) 1860 163 269 406 452 811 1720 2370 5160 6750
2026-04-11 23:30 3.75 433 23100 (1994) 70 (1956) 1860 163 269 406 452 811 1720 2370 5160 6750
2026-04-11 22:30 3.76 437 23500 (2008) 64 (1956) 1990 145 261 416 467 805 1530 1900 4420 12200
2026-04-11 21:30 3.76 437 23500 (2008) 64 (1956) 1990 145 261 416 467 805 1530 1900 4420 12200
2026-04-11 20:30 3.77 442 23500 (2008) 64 (1956) 1990 145 261 416 467 805 1530 1900 4420 12200
2026-04-11 19:30 3.78 447 23500 (2008) 64 (1956) 1990 145 261 416 467 805 1530 1900 4420 12200
2026-04-11 18:30 3.78 447 23500 (2008) 64 (1956) 1990 145 261 416 467 805 1530 1900 4420 12200
2026-04-11 17:30 3.78 447 23500 (2008) 64 (1956) 1990 145 261 416 467 805 1530 1900 4420 12200
2026-04-11 16:30 3.79 452 23500 (2008) 64 (1956) 1990 145 261 416 467 805 1530 1900 4420 12200
2026-04-11 15:30 3.79 452 23500 (2008) 64 (1956) 1990 145 261 416 467 805 1530 1900 4420 12200
2026-04-11 14:30 3.79 452 23500 (2008) 64 (1956) 1990 145 261 416 467 805 1530 1900 4420 12200
2026-04-11 13:30 3.79 452 23500 (2008) 64 (1956) 1990 145 261 416 467 805 1530 1900 4420 12200
2026-04-11 12:30 3.80 456 23500 (2008) 64 (1956) 1990 145 261 416 467 805 1530 1900 4420 12200
2026-04-11 11:30 3.80 456 23500 (2008) 64 (1956) 1990 145 261 416 467 805 1530 1900 4420 12200
2026-04-11 10:30 3.80 456 23500 (2008) 64 (1956) 1990 145 261 416 467 805 1530 1900 4420 12200
2026-04-11 09:30 3.80 456 23500 (2008) 64 (1956) 1990 145 261 416 467 805 1530 1900 4420 12200
2026-04-11 08:30 3.80 456 23500 (2008) 64 (1956) 1990 145 261 416 467 805 1530 1900 4420 12200
2026-04-11 07:30 3.80 456 23500 (2008) 64 (1956) 1990 145 261 416 467 805 1530 1900 4420 12200
2026-04-11 06:30 3.81 461 23500 (2008) 64 (1956) 1990 145 261 416 467 805 1530 1900 4420 12200
2026-04-11 05:30 3.81 461 23500 (2008) 64 (1956) 1990 145 261 416 467 805 1530 1900 4420 12200
2026-04-11 04:30 3.81 461 23500 (2008) 64 (1956) 1990 145 261 416 467 805 1530 1900 4420 12200
2026-04-11 03:30 3.82 466 23500 (2008) 64 (1956) 1990 145 261 416 467 805 1530 1900 4420 12200
2026-04-11 02:30 3.82 466 23500 (2008) 64 (1956) 1990 145 261 416 467 805 1530 1900 4420 12200
2026-04-11 01:30 3.83 471 23500 (2008) 64 (1956) 1990 145 261 416 467 805 1530 1900 4420 12200
2026-04-11 00:30 3.83 471 23500 (2008) 64 (1956) 1990 145 261 416 467 805 1530 1900 4420 12200
2026-04-10 23:30 3.84 476 23500 (2008) 64 (1956) 1990 145 261 416 467 805 1530 1900 4420 12200
2026-04-10 22:30 3.84 476 22100 (2008) 56 (1956) 1700 163 271 418 471 811 1410 1600 3540 6490
2026-04-10 21:30 3.84 476 22100 (2008) 56 (1956) 1700 163 271 418 471 811 1410 1600 3540 6490
2026-04-10 20:30 3.84 476 22100 (2008) 56 (1956) 1700 163 271 418 471 811 1410 1600 3540 6490
2026-04-10 19:30 3.84 476 22100 (2008) 56 (1956) 1700 163 271 418 471 811 1410 1600 3540 6490
2026-04-10 18:30 3.84 476 22100 (2008) 56 (1956) 1700 163 271 418 471 811 1410 1600 3540 6490
2026-04-10 17:30 3.83 471 22100 (2008) 56 (1956) 1700 163 271 418 471 811 1410 1600 3540 6490
2026-04-10 16:30 3.83 471 22100 (2008) 56 (1956) 1700 163 271 418 471 811 1410 1600 3540 6490
2026-04-10 15:30 3.83 471 22100 (2008) 56 (1956) 1700 163 271 418 471 811 1410 1600 3540 6490
2026-04-10 14:30 3.85 481 22100 (2008) 56 (1956) 1700 163 271 418 471 811 1410 1600 3540 6490
2026-04-10 13:30 3.84 476 22100 (2008) 56 (1956) 1700 163 271 418 471 811 1410 1600 3540 6490
2026-04-10 12:30 3.80 456 22100 (2008) 56 (1956) 1700 163 271 418 471 811 1410 1600 3540 6490
2026-04-10 11:30 3.82 466 22100 (2008) 56 (1956) 1700 163 271 418 471 811 1410 1600 3540 6490
2026-04-10 10:30 3.82 466 22100 (2008) 56 (1956) 1700 163 271 418 471 811 1410 1600 3540 6490
2026-04-10 09:30 3.83 471 22100 (2008) 56 (1956) 1700 163 271 418 471 811 1410 1600 3540 6490
2026-04-10 08:30 3.83 471 22100 (2008) 56 (1956) 1700 163 271 418 471 811 1410 1600 3540 6490
2026-04-10 07:30 3.83 471 22100 (2008) 56 (1956) 1700 163 271 418 471 811 1410 1600 3540 6490
2026-04-10 06:30 3.84 476 22100 (2008) 56 (1956) 1700 163 271 418 471 811 1410 1600 3540 6490
2026-04-10 05:30 3.85 481 22100 (2008) 56 (1956) 1700 163 271 418 471 811 1410 1600 3540 6490
2026-04-10 04:30 3.85 481 22100 (2008) 56 (1956) 1700 163 271 418 471 811 1410 1600 3540 6490
2026-04-10 03:30 3.85 481 22100 (2008) 56 (1956) 1700 163 271 418 471 811 1410 1600 3540 6490
2026-04-10 02:30 3.86 486 22100 (2008) 56 (1956) 1700 163 271 418 471 811 1410 1600 3540 6490
2026-04-10 01:30 3.86 486 22100 (2008) 56 (1956) 1700 163 271 418 471 811 1410 1600 3540 6490
2026-04-10 00:30 3.87 491 22100 (2008) 56 (1956) 1700 163 271 418 471 811 1410 1600 3540 6490
2026-04-09 23:30 3.88 496 22100 (2008) 56 (1956) 1700 163 271 418 471 811 1410 1600 3540 6490
2026-04-09 22:30 3.88 496 13100 (1986) 48 (1956) 1300 157 283 418 491 790 1330 1700 2500 4030
2026-04-09 21:30 3.89 501 13100 (1986) 48 (1956) 1300 157 283 418 491 790 1330 1700 2500 4030
2026-04-09 20:30 3.90 506 13100 (1986) 48 (1956) 1300 157 283 418 491 790 1330 1700 2500 4030
2026-04-09 19:30 3.90 506 13100 (1986) 48 (1956) 1300 157 283 418 491 790 1330 1700 2500 4030
2026-04-09 18:30 3.91 511 13100 (1986) 48 (1956) 1300 157 283 418 491 790 1330 1700 2500 4030
2026-04-09 17:30 3.92 516 13100 (1986) 48 (1956) 1300 157 283 418 491 790 1330 1700 2500 4030
2026-04-09 16:30 3.92 516 13100 (1986) 48 (1956) 1300 157 283 418 491 790 1330 1700 2500 4030
2026-04-09 15:30 3.93 522 13100 (1986) 48 (1956) 1300 157 283 418 491 790 1330 1700 2500 4030
2026-04-09 14:30 3.94 527 13100 (1986) 48 (1956) 1300 157 283 418 491 790 1330 1700 2500 4030
2026-04-09 13:30 3.95 532 13100 (1986) 48 (1956) 1300 157 283 418 491 790 1330 1700 2500 4030
2026-04-09 12:30 3.95 532 13100 (1986) 48 (1956) 1300 157 283 418 491 790 1330 1700 2500 4030
2026-04-09 11:30 3.96 537 13100 (1986) 48 (1956) 1300 157 283 418 491 790 1330 1700 2500 4030
2026-04-09 10:30 3.96 537 13100 (1986) 48 (1956) 1300 157 283 418 491 790 1330 1700 2500 4030
2026-04-09 09:30 3.96 537 13100 (1986) 48 (1956) 1300 157 283 418 491 790 1330 1700 2500 4030
2026-04-09 08:30 3.97 543 13100 (1986) 48 (1956) 1300 157 283 418 491 790 1330 1700 2500 4030
2026-04-09 07:30 3.97 543 13100 (1986) 48 (1956) 1300 157 283 418 491 790 1330 1700 2500 4030
2026-04-09 06:30 3.98 548 13100 (1986) 48 (1956) 1300 157 283 418 491 790 1330 1700 2500 4030
2026-04-09 05:30 3.99 554 13100 (1986) 48 (1956) 1300 157 283 418 491 790 1330 1700 2500 4030
2026-04-09 04:30 3.99 554 13100 (1986) 48 (1956) 1300 157 283 418 491 790 1330 1700 2500 4030
2026-04-09 03:30 4.00 559 13100 (1986) 48 (1956) 1300 157 283 418 491 790 1330 1700 2500 4030
2026-04-09 02:30 4.01 564 13100 (1986) 48 (1956) 1300 157 283 418 491 790 1330 1700 2500 4030
2026-04-09 01:30 4.02 570 13100 (1986) 48 (1956) 1300 157 283 418 491 790 1330 1700 2500 4030
2026-04-09 00:30 4.02 570 13100 (1986) 48 (1956) 1300 157 283 418 491 790 1330 1700 2500 4030
2026-04-08 23:30 4.03 575 13100 (1986) 48 (1956) 1300 157 283 418 491 790 1330 1700 2500 4030
2026-04-08 22:30 4.04 581 33700 (1986) 43 (1956) 1440 158 285 425 516 847 1440 1740 2280 2790
2026-04-08 21:30 4.04 581 33700 (1986) 43 (1956) 1440 158 285 425 516 847 1440 1740 2280 2790
2026-04-08 20:30 4.05 587 33700 (1986) 43 (1956) 1440 158 285 425 516 847 1440 1740 2280 2790
2026-04-08 19:30 4.06 592 33700 (1986) 43 (1956) 1440 158 285 425 516 847 1440 1740 2280 2790
2026-04-08 18:30 4.07 598 33700 (1986) 43 (1956) 1440 158 285 425 516 847 1440 1740 2280 2790
2026-04-08 17:30 4.08 604 33700 (1986) 43 (1956) 1440 158 285 425 516 847 1440 1740 2280 2790
2026-04-08 16:30 4.09 609 33700 (1986) 43 (1956) 1440 158 285 425 516 847 1440 1740 2280 2790
2026-04-08 15:30 4.10 615 33700 (1986) 43 (1956) 1440 158 285 425 516 847 1440 1740 2280 2790
2026-04-08 14:30 4.11 621 33700 (1986) 43 (1956) 1440 158 285 425 516 847 1440 1740 2280 2790
2026-04-08 13:30 4.12 627 33700 (1986) 43 (1956) 1440 158 285 425 516 847 1440 1740 2280 2790
2026-04-08 12:30 4.13 632 33700 (1986) 43 (1956) 1440 158 285 425 516 847 1440 1740 2280 2790
2026-04-08 11:30 4.14 638 33700 (1986) 43 (1956) 1440 158 285 425 516 847 1440 1740 2280 2790
2026-04-08 10:30 4.15 644 33700 (1986) 43 (1956) 1440 158 285 425 516 847 1440 1740 2280 2790
2026-04-08 09:30 4.15 644 33700 (1986) 43 (1956) 1440 158 285 425 516 847 1440 1740 2280 2790
2026-04-08 08:30 4.16 650 33700 (1986) 43 (1956) 1440 158 285 425 516 847 1440 1740 2280 2790
2026-04-08 06:30 4.17 656 33700 (1986) 43 (1956) 1440 158 285 425 516 847 1440 1740 2280 2790
2026-04-08 05:30 4.19 668 33700 (1986) 43 (1956) 1440 158 285 425 516 847 1440 1740 2280 2790
2026-04-08 04:30 4.20 674 33700 (1986) 43 (1956) 1440 158 285 425 516 847 1440 1740 2280 2790
2026-04-08 03:30 4.21 680 33700 (1986) 43 (1956) 1440 158 285 425 516 847 1440 1740 2280 2790
2026-04-08 02:30 4.22 686 33700 (1986) 43 (1956) 1440 158 285 425 516 847 1440 1740 2280 2790
2026-04-08 01:30 4.23 692 33700 (1986) 43 (1956) 1440 158 285 425 516 847 1440 1740 2280 2790
2026-04-08 00:30 4.24 699 33700 (1986) 43 (1956) 1440 158 285 425 516 847 1440 1740 2280 2790
2026-04-07 23:30 4.25 705 33700 (1986) 43 (1956) 1440 158 285 425 516 847 1440 1740 2280 2790
2026-04-07 22:30 4.26 711 7660 (1965) 46 (1956) 1160 145 293 432 525 801 1410 1760 2490 2940
2026-04-07 21:30 4.27 717 7660 (1965) 46 (1956) 1160 145 293 432 525 801 1410 1760 2490 2940
2026-04-07 20:30 4.29 730 7660 (1965) 46 (1956) 1160 145 293 432 525 801 1410 1760 2490 2940
2026-04-07 19:30 4.31 743 7660 (1965) 46 (1956) 1160 145 293 432 525 801 1410 1760 2490 2940
2026-04-07 18:30 4.33 756 7660 (1965) 46 (1956) 1160 145 293 432 525 801 1410 1760 2490 2940
2026-04-07 17:30 4.34 762 7660 (1965) 46 (1956) 1160 145 293 432 525 801 1410 1760 2490 2940
2026-04-07 16:30 4.36 775 7660 (1965) 46 (1956) 1160 145 293 432 525 801 1410 1760 2490 2940
2026-04-07 15:30 4.37 782 7660 (1965) 46 (1956) 1160 145 293 432 525 801 1410 1760 2490 2940
2026-04-07 14:30 4.38 789 7660 (1965) 46 (1956) 1160 145 293 432 525 801 1410 1760 2490 2940
2026-04-07 13:30 4.40 802 7660 (1965) 46 (1956) 1160 145 293 432 525 801 1410 1760 2490 2940
2026-04-07 12:30 4.41 809 7660 (1965) 46 (1956) 1160 145 293 432 525 801 1410 1760 2490 2940
2026-04-07 11:30 4.43 822 7660 (1965) 46 (1956) 1160 145 293 432 525 801 1410 1760 2490 2940
2026-04-07 10:30 4.43 822 7660 (1965) 46 (1956) 1160 145 293 432 525 801 1410 1760 2490 2940
2026-04-07 09:30 4.45 836 7660 (1965) 46 (1956) 1160 145 293 432 525 801 1410 1760 2490 2940
2026-04-07 08:30 4.46 843 7660 (1965) 46 (1956) 1160 145 293 432 525 801 1410 1760 2490 2940
2026-04-07 07:30 4.48 857 7660 (1965) 46 (1956) 1160 145 293 432 525 801 1410 1760 2490 2940
2026-04-07 06:30 4.49 864 7660 (1965) 46 (1956) 1160 145 293 432 525 801 1410 1760 2490 2940
2026-04-07 05:30 4.51 878 7660 (1965) 46 (1956) 1160 145 293 432 525 801 1410 1760 2490 2940
2026-04-07 04:30 4.52 885 7660 (1965) 46 (1956) 1160 145 293 432 525 801 1410 1760 2490 2940
2026-04-07 03:30 4.54 899 7660 (1965) 46 (1956) 1160 145 293 432 525 801 1410 1760 2490 2940
2026-04-07 02:30 4.56 914 7660 (1965) 46 (1956) 1160 145 293 432 525 801 1410 1760 2490 2940
2026-04-07 01:30 4.58 928 7660 (1965) 46 (1956) 1160 145 293 432 525 801 1410 1760 2490 2940
2026-04-07 00:30 4.59 936 7660 (1965) 46 (1956) 1160 145 293 432 525 801 1410 1760 2490 2940
2026-04-06 23:30 4.62 958 7660 (1965) 46 (1956) 1160 145 293 432 525 801 1410 1760 2490 2940
2026-04-06 22:30 4.64 973 14300 (1965) 50 (1956) 1420 148 292 428 458 827 1430 2060 3050 3640
2026-04-06 21:30 4.67 996 14300 (1965) 50 (1956) 1420 148 292 428 458 827 1430 2060 3050 3640
2026-04-06 20:30 4.70 1020 14300 (1965) 50 (1956) 1420 148 292 428 458 827 1430 2060 3050 3640
2026-04-06 19:30 4.72 1030 14300 (1965) 50 (1956) 1420 148 292 428 458 827 1430 2060 3050 3640
2026-04-06 18:30 4.75 1060 14300 (1965) 50 (1956) 1420 148 292 428 458 827 1430 2060 3050 3640
2026-04-06 17:30 4.78 1080 14300 (1965) 50 (1956) 1420 148 292 428 458 827 1430 2060 3050 3640
2026-04-06 16:30 4.81 1110 14300 (1965) 50 (1956) 1420 148 292 428 458 827 1430 2060 3050 3640
2026-04-06 15:30 4.84 1130 14300 (1965) 50 (1956) 1420 148 292 428 458 827 1430 2060 3050 3640
2026-04-06 14:30 4.87 1160 14300 (1965) 50 (1956) 1420 148 292 428 458 827 1430 2060 3050 3640
2026-04-06 13:30 4.90 1180 14300 (1965) 50 (1956) 1420 148 292 428 458 827 1430 2060 3050 3640
2026-04-06 12:30 4.92 1200 14300 (1965) 50 (1956) 1420 148 292 428 458 827 1430 2060 3050 3640
2026-04-06 11:30 4.94 1210 14300 (1965) 50 (1956) 1420 148 292 428 458 827 1430 2060 3050 3640
2026-04-06 10:30 4.96 1230 14300 (1965) 50 (1956) 1420 148 292 428 458 827 1430 2060 3050 3640
2026-04-06 09:30 4.98 1250 14300 (1965) 50 (1956) 1420 148 292 428 458 827 1430 2060 3050 3640
2026-04-06 08:30 5.00 1270 14300 (1965) 50 (1956) 1420 148 292 428 458 827 1430 2060 3050 3640
2026-04-06 07:30 5.02 1280 14300 (1965) 50 (1956) 1420 148 292 428 458 827 1430 2060 3050 3640
2026-04-06 06:30 5.04 1300 14300 (1965) 50 (1956) 1420 148 292 428 458 827 1430 2060 3050 3640
2026-04-06 05:30 5.06 1320 14300 (1965) 50 (1956) 1420 148 292 428 458 827 1430 2060 3050 3640
2026-04-06 04:30 5.08 1340 14300 (1965) 50 (1956) 1420 148 292 428 458 827 1430 2060 3050 3640
2026-04-06 03:30 5.10 1360 14300 (1965) 50 (1956) 1420 148 292 428 458 827 1430 2060 3050 3640
2026-04-06 02:30 5.12 1370 14300 (1965) 50 (1956) 1420 148 292 428 458 827 1430 2060 3050 3640
2026-04-06 01:30 5.14 1390 14300 (1965) 50 (1956) 1420 148 292 428 458 827 1430 2060 3050 3640
2026-04-06 00:30 5.17 1420 14300 (1965) 50 (1956) 1420 148 292 428 458 827 1430 2060 3050 3640
2026-04-05 23:30 5.19 1440 14300 (1965) 50 (1956) 1420 148 292 428 458 827 1430 2060 3050 3640
2026-04-05 22:30 5.21 1460 12500 (2025) 56 (1956) 1520 151 290 440 464 849 1590 2160 3260 5690
2026-04-05 21:30 5.23 1480 12500 (2025) 56 (1956) 1520 151 290 440 464 849 1590 2160 3260 5690
2026-04-05 20:30 5.25 1490 12500 (2025) 56 (1956) 1520 151 290 440 464 849 1590 2160 3260 5690
2026-04-05 19:30 5.27 1510 12500 (2025) 56 (1956) 1520 151 290 440 464 849 1590 2160 3260 5690
2026-04-05 18:30 5.29 1530 12500 (2025) 56 (1956) 1520 151 290 440 464 849 1590 2160 3260 5690
2026-04-05 17:30 5.31 1550 12500 (2025) 56 (1956) 1520 151 290 440 464 849 1590 2160 3260 5690
2026-04-05 16:30 5.33 1570 12500 (2025) 56 (1956) 1520 151 290 440 464 849 1590 2160 3260 5690
2026-04-05 15:30 5.36 1600 12500 (2025) 56 (1956) 1520 151 290 440 464 849 1590 2160 3260 5690
2026-04-05 14:30 5.37 1610 12500 (2025) 56 (1956) 1520 151 290 440 464 849 1590 2160 3260 5690
2026-04-05 13:30 5.39 1630 12500 (2025) 56 (1956) 1520 151 290 440 464 849 1590 2160 3260 5690
2026-04-05 12:30 5.41 1650 12500 (2025) 56 (1956) 1520 151 290 440 464 849 1590 2160 3260 5690
2026-04-05 11:30 5.44 1680 12500 (2025) 56 (1956) 1520 151 290 440 464 849 1590 2160 3260 5690
2026-04-05 10:30 5.45 1690 12500 (2025) 56 (1956) 1520 151 290 440 464 849 1590 2160 3260 5690
2026-04-05 09:30 5.46 1700 12500 (2025) 56 (1956) 1520 151 290 440 464 849 1590 2160 3260 5690
2026-04-05 08:30 5.47 1710 12500 (2025) 56 (1956) 1520 151 290 440 464 849 1590 2160 3260 5690
2026-04-05 07:30 5.47 1710 12500 (2025) 56 (1956) 1520 151 290 440 464 849 1590 2160 3260 5690
2026-04-05 06:30 5.46 1700 12500 (2025) 56 (1956) 1520 151 290 440 464 849 1590 2160 3260 5690
2026-04-05 05:30 5.43 1670 12500 (2025) 56 (1956) 1520 151 290 440 464 849 1590 2160 3260 5690
2026-04-05 04:30 5.41 1650 12500 (2025) 56 (1956) 1520 151 290 440 464 849 1590 2160 3260 5690
2026-04-05 03:30 5.37 1610 12500 (2025) 56 (1956) 1520 151 290 440 464 849 1590 2160 3260 5690
2026-04-05 02:30 5.35 1590 12500 (2025) 56 (1956) 1520 151 290 440 464 849 1590 2160 3260 5690
2026-04-05 01:30 5.33 1570 12500 (2025) 56 (1956) 1520 151 290 440 464 849 1590 2160 3260 5690
2026-04-05 00:30 5.31 1550 12500 (2025) 56 (1956) 1520 151 290 440 464 849 1590 2160 3260 5690
2026-04-04 23:30 5.29 1530 12500 (2025) 56 (1956) 1520 151 290 440 464 849 1590 2160 3260 5690
2026-04-04 22:30 5.27 1510 19700 (1965) 59 (1956) 1630 156 249 425 466 833 1570 1820 3430 4700
2026-04-04 21:30 5.25 1490 19700 (1965) 59 (1956) 1630 156 249 425 466 833 1570 1820 3430 4700
2026-04-04 20:30 5.23 1480 19700 (1965) 59 (1956) 1630 156 249 425 466 833 1570 1820 3430 4700
2026-04-04 19:30 5.20 1450 19700 (1965) 59 (1956) 1630 156 249 425 466 833 1570 1820 3430 4700
2026-04-04 18:30 5.17 1420 19700 (1965) 59 (1956) 1630 156 249 425 466 833 1570 1820 3430 4700
2026-04-04 17:30 5.14 1390 19700 (1965) 59 (1956) 1630 156 249 425 466 833 1570 1820 3430 4700
2026-04-04 16:30 5.12 1370 19700 (1965) 59 (1956) 1630 156 249 425 466 833 1570 1820 3430 4700
2026-04-04 15:30 5.11 1360 19700 (1965) 59 (1956) 1630 156 249 425 466 833 1570 1820 3430 4700
2026-04-04 14:30 5.10 1360 19700 (1965) 59 (1956) 1630 156 249 425 466 833 1570 1820 3430 4700
2026-04-04 13:30 5.05 1310 19700 (1965) 59 (1956) 1630 156 249 425 466 833 1570 1820 3430 4700
2026-04-04 12:30 4.95 1220 19700 (1965) 59 (1956) 1630 156 249 425 466 833 1570 1820 3430 4700
2026-04-04 11:30 4.82 1110 19700 (1965) 59 (1956) 1630 156 249 425 466 833 1570 1820 3430 4700
2026-04-04 10:30 4.68 1000 19700 (1965) 59 (1956) 1630 156 249 425 466 833 1570 1820 3430 4700
2026-04-04 09:30 4.53 892 19700 (1965) 59 (1956) 1630 156 249 425 466 833 1570 1820 3430 4700
2026-04-04 08:30 4.30 736 19700 (1965) 59 (1956) 1630 156 249 425 466 833 1570 1820 3430 4700
2026-04-04 07:30 4.03 575 19700 (1965) 59 (1956) 1630 156 249 425 466 833 1570 1820 3430 4700
2026-04-04 06:30 3.78 447 19700 (1965) 59 (1956) 1630 156 249 425 466 833 1570 1820 3430 4700
2026-04-04 05:30 3.65 387 19700 (1965) 59 (1956) 1630 156 249 425 466 833 1570 1820 3430 4700
2026-04-04 04:30 3.58 357 19700 (1965) 59 (1956) 1630 156 249 425 466 833 1570 1820 3430 4700
2026-04-04 03:30 3.54 341 19700 (1965) 59 (1956) 1630 156 249 425 466 833 1570 1820 3430 4700
2026-04-04 02:30 3.52 333 19700 (1965) 59 (1956) 1630 156 249 425 466 833 1570 1820 3430 4700
2026-04-04 01:30 3.51 329 19700 (1965) 59 (1956) 1630 156 249 425 466 833 1570 1820 3430 4700
2026-04-04 00:30 3.50 325 19700 (1965) 59 (1956) 1630 156 249 425 466 833 1570 1820 3430 4700
2026-04-03 23:30 3.44 301 19700 (1965) 59 (1956) 1630 156 249 425 466 833 1570 1820 3430 4700
2026-04-03 22:30 3.45 305 23700 (1965) 64 (1956) 1540 138 246 399 468 868 1670 1810 3120 5660
2026-04-03 21:30 3.45 305 23700 (1965) 64 (1956) 1540 138 246 399 468 868 1670 1810 3120 5660
2026-04-03 20:30 3.46 309 23700 (1965) 64 (1956) 1540 138 246 399 468 868 1670 1810 3120 5660
2026-04-03 19:30 3.46 309 23700 (1965) 64 (1956) 1540 138 246 399 468 868 1670 1810 3120 5660
2026-04-03 18:30 3.46 309 23700 (1965) 64 (1956) 1540 138 246 399 468 868 1670 1810 3120 5660
2026-04-03 17:30 3.47 313 23700 (1965) 64 (1956) 1540 138 246 399 468 868 1670 1810 3120 5660
2026-04-03 16:30 3.47 313 23700 (1965) 64 (1956) 1540 138 246 399 468 868 1670 1810 3120 5660
2026-04-03 15:30 3.48 317 23700 (1965) 64 (1956) 1540 138 246 399 468 868 1670 1810 3120 5660
2026-04-03 14:30 3.48 317 23700 (1965) 64 (1956) 1540 138 246 399 468 868 1670 1810 3120 5660
2026-04-03 13:30 3.48 317 23700 (1965) 64 (1956) 1540 138 246 399 468 868 1670 1810 3120 5660
2026-04-03 12:30 3.49 321 23700 (1965) 64 (1956) 1540 138 246 399 468 868 1670 1810 3120 5660
2026-04-03 11:30 3.49 321 23700 (1965) 64 (1956) 1540 138 246 399 468 868 1670 1810 3120 5660
2026-04-03 10:30 3.49 321 23700 (1965) 64 (1956) 1540 138 246 399 468 868 1670 1810 3120 5660
2026-04-03 09:30 3.49 321 23700 (1965) 64 (1956) 1540 138 246 399 468 868 1670 1810 3120 5660
2026-04-03 08:30 3.49 321 23700 (1965) 64 (1956) 1540 138 246 399 468 868 1670 1810 3120 5660
2026-04-03 07:30 3.49 321 23700 (1965) 64 (1956) 1540 138 246 399 468 868 1670 1810 3120 5660
2026-04-03 06:30 3.49 321 23700 (1965) 64 (1956) 1540 138 246 399 468 868 1670 1810 3120 5660
2026-04-03 05:30 3.49 321 23700 (1965) 64 (1956) 1540 138 246 399 468 868 1670 1810 3120 5660
2026-04-03 04:30 3.49 321 23700 (1965) 64 (1956) 1540 138 246 399 468 868 1670 1810 3120 5660
2026-04-03 03:30 3.48 317 23700 (1965) 64 (1956) 1540 138 246 399 468 868 1670 1810 3120 5660
2026-04-03 02:30 3.49 321 23700 (1965) 64 (1956) 1540 138 246 399 468 868 1670 1810 3120 5660
2026-04-03 01:30 3.48 317 23700 (1965) 64 (1956) 1540 138 246 399 468 868 1670 1810 3120 5660
2026-04-03 00:30 3.48 317 23700 (1965) 64 (1956) 1540 138 246 399 468 868 1670 1810 3120 5660
2026-04-02 23:30 3.48 317 23700 (1965) 64 (1956) 1540 138 246 399 468 868 1670 1810 3120 5660
2026-04-02 22:30 3.48 317 7190 (1988) 59 (1956) 1290 142 244 407 469 924 1710 2040 2780 4240
2026-04-02 21:30 3.47 313 7190 (1988) 59 (1956) 1290 142 244 407 469 924 1710 2040 2780 4240
2026-04-02 20:30 3.47 313 7190 (1988) 59 (1956) 1290 142 244 407 469 924 1710 2040 2780 4240
2026-04-02 19:30 3.46 309 7190 (1988) 59 (1956) 1290 142 244 407 469 924 1710 2040 2780 4240
2026-04-02 18:30 3.46 309 7190 (1988) 59 (1956) 1290 142 244 407 469 924 1710 2040 2780 4240
2026-04-02 17:30 3.46 309 7190 (1988) 59 (1956) 1290 142 244 407 469 924 1710 2040 2780 4240
2026-04-02 16:30 3.45 305 7190 (1988) 59 (1956) 1290 142 244 407 469 924 1710 2040 2780 4240
2026-04-02 15:30 3.44 301 7190 (1988) 59 (1956) 1290 142 244 407 469 924 1710 2040 2780 4240
2026-04-02 14:30 3.42 294 7190 (1988) 59 (1956) 1290 142 244 407 469 924 1710 2040 2780 4240
2026-04-02 13:30 3.42 294 7190 (1988) 59 (1956) 1290 142 244 407 469 924 1710 2040 2780 4240
2026-04-02 12:30 3.42 294 7190 (1988) 59 (1956) 1290 142 244 407 469 924 1710 2040 2780 4240
2026-04-02 11:30 3.40 286 7190 (1988) 59 (1956) 1290 142 244 407 469 924 1710 2040 2780 4240
2026-04-02 09:30 3.37 276 7190 (1988) 59 (1956) 1290 142 244 407 469 924 1710 2040 2780 4240
2026-04-02 08:30 3.33 261 7190 (1988) 59 (1956) 1290 142 244 407 469 924 1710 2040 2780 4240
2026-04-02 07:30 3.30 251 7190 (1988) 59 (1956) 1290 142 244 407 469 924 1710 2040 2780 4240
2026-04-02 06:30 3.28 244 7190 (1988) 59 (1956) 1290 142 244 407 469 924 1710 2040 2780 4240
2026-04-02 05:30 3.24 231 7190 (1988) 59 (1956) 1290 142 244 407 469 924 1710 2040 2780 4240
2026-04-02 04:30 3.21 221 7190 (1988) 59 (1956) 1290 142 244 407 469 924 1710 2040 2780 4240
2026-04-02 03:30 3.17 209 7190 (1988) 59 (1956) 1290 142 244 407 469 924 1710 2040 2780 4240
2026-04-02 02:30 3.16 206 7190 (1988) 59 (1956) 1290 142 244 407 469 924 1710 2040 2780 4240
2026-04-02 01:30 3.17 209 7190 (1988) 59 (1956) 1290 142 244 407 469 924 1710 2040 2780 4240
2026-04-02 00:30 3.17 209 7190 (1988) 59 (1956) 1290 142 244 407 469 924 1710 2040 2780 4240
2026-04-01 23:30 3.16 206 7190 (1988) 59 (1956) 1290 142 244 407 469 924 1710 2040 2780 4240
2026-04-01 22:30 3.17 209 6920 (2008) 59 (1956) 1360 150 251 381 458 911 1660 2080 2980 5450
2026-04-01 21:30 3.17 209 6920 (2008) 59 (1956) 1360 150 251 381 458 911 1660 2080 2980 5450
2026-04-01 20:30 3.17 209 6920 (2008) 59 (1956) 1360 150 251 381 458 911 1660 2080 2980 5450
2026-04-01 19:30 3.17 209 6920 (2008) 59 (1956) 1360 150 251 381 458 911 1660 2080 2980 5450
2026-04-01 18:30 3.17 209 6920 (2008) 59 (1956) 1360 150 251 381 458 911 1660 2080 2980 5450
2026-04-01 17:30 3.18 212 6920 (2008) 59 (1956) 1360 150 251 381 458 911 1660 2080 2980 5450
2026-04-01 16:30 3.18 212 6920 (2008) 59 (1956) 1360 150 251 381 458 911 1660 2080 2980 5450
2026-04-01 15:30 3.17 209 6920 (2008) 59 (1956) 1360 150 251 381 458 911 1660 2080 2980 5450
2026-04-01 14:30 3.17 209 6920 (2008) 59 (1956) 1360 150 251 381 458 911 1660 2080 2980 5450
2026-04-01 13:30 3.17 209 6920 (2008) 59 (1956) 1360 150 251 381 458 911 1660 2080 2980 5450
2026-04-01 12:30 3.17 209 6920 (2008) 59 (1956) 1360 150 251 381 458 911 1660 2080 2980 5450
2026-04-01 11:30 3.18 212 6920 (2008) 59 (1956) 1360 150 251 381 458 911 1660 2080 2980 5450
2026-04-01 10:30 3.18 212 6920 (2008) 59 (1956) 1360 150 251 381 458 911 1660 2080 2980 5450
2026-04-01 09:30 3.18 212 6920 (2008) 59 (1956) 1360 150 251 381 458 911 1660 2080 2980 5450
2026-04-01 08:30 3.18 212 6920 (2008) 59 (1956) 1360 150 251 381 458 911 1660 2080 2980 5450
2026-04-01 07:30 3.18 212 6920 (2008) 59 (1956) 1360 150 251 381 458 911 1660 2080 2980 5450
2026-04-01 06:30 3.18 212 6920 (2008) 59 (1956) 1360 150 251 381 458 911 1660 2080 2980 5450
2026-04-01 05:30 3.18 212 6920 (2008) 59 (1956) 1360 150 251 381 458 911 1660 2080 2980 5450
2026-04-01 04:30 3.18 212 6920 (2008) 59 (1956) 1360 150 251 381 458 911 1660 2080 2980 5450
2026-04-01 03:30 3.18 212 6920 (2008) 59 (1956) 1360 150 251 381 458 911 1660 2080 2980 5450
2026-04-01 02:30 3.18 212 6920 (2008) 59 (1956) 1360 150 251 381 458 911 1660 2080 2980 5450
2026-04-01 01:30 3.19 215 6920 (2008) 59 (1956) 1360 150 251 381 458 911 1660 2080 2980 5450
2026-04-01 00:30 3.19 215 6920 (2008) 59 (1956) 1360 150 251 381 458 911 1660 2080 2980 5450
2026-03-31 23:30 3.19 215 6920 (2008) 59 (1956) 1360 150 251 381 458 911 1660 2080 2980 5450
2026-03-31 22:30 3.19 215 13700 (1985) 59 (1956) 1410 159 254 391 462 948 1690 1960 2960 3860
2026-03-31 21:30 3.19 215 13700 (1985) 59 (1956) 1410 159 254 391 462 948 1690 1960 2960 3860
2026-03-31 20:30 3.19 215 13700 (1985) 59 (1956) 1410 159 254 391 462 948 1690 1960 2960 3860
2026-03-31 19:30 3.19 215 13700 (1985) 59 (1956) 1410 159 254 391 462 948 1690 1960 2960 3860
2026-03-31 18:30 3.20 218 13700 (1985) 59 (1956) 1410 159 254 391 462 948 1690 1960 2960 3860
2026-03-31 17:30 3.19 215 13700 (1985) 59 (1956) 1410 159 254 391 462 948 1690 1960 2960 3860
2026-03-31 16:30 3.20 218 13700 (1985) 59 (1956) 1410 159 254 391 462 948 1690 1960 2960 3860
2026-03-31 15:30 3.20 218 13700 (1985) 59 (1956) 1410 159 254 391 462 948 1690 1960 2960 3860
2026-03-31 14:30 3.20 218 13700 (1985) 59 (1956) 1410 159 254 391 462 948 1690 1960 2960 3860
2026-03-31 13:30 3.20 218 13700 (1985) 59 (1956) 1410 159 254 391 462 948 1690 1960 2960 3860
2026-03-31 12:30 3.21 221 13700 (1985) 59 (1956) 1410 159 254 391 462 948 1690 1960 2960 3860
2026-03-31 11:30 3.22 225 13700 (1985) 59 (1956) 1410 159 254 391 462 948 1690 1960 2960 3860
2026-03-31 10:30 3.21 221 13700 (1985) 59 (1956) 1410 159 254 391 462 948 1690 1960 2960 3860
2026-03-31 09:30 3.21 221 13700 (1985) 59 (1956) 1410 159 254 391 462 948 1690 1960 2960 3860
2026-03-31 08:30 3.20 218 13700 (1985) 59 (1956) 1410 159 254 391 462 948 1690 1960 2960 3860
2026-03-31 07:30 3.21 221 13700 (1985) 59 (1956) 1410 159 254 391 462 948 1690 1960 2960 3860
2026-03-31 06:30 3.20 218 13700 (1985) 59 (1956) 1410 159 254 391 462 948 1690 1960 2960 3860
2026-03-31 05:30 3.20 218 13700 (1985) 59 (1956) 1410 159 254 391 462 948 1690 1960 2960 3860
2026-03-31 04:30 3.21 221 13700 (1985) 59 (1956) 1410 159 254 391 462 948 1690 1960 2960 3860
2026-03-31 03:30 3.21 221 13700 (1985) 59 (1956) 1410 159 254 391 462 948 1690 1960 2960 3860
2026-03-31 02:30 3.21 221 13700 (1985) 59 (1956) 1410 159 254 391 462 948 1690 1960 2960 3860
2026-03-31 01:30 3.21 221 13700 (1985) 59 (1956) 1410 159 254 391 462 948 1690 1960 2960 3860
2026-03-31 00:30 3.21 221 13700 (1985) 59 (1956) 1410 159 254 391 462 948 1690 1960 2960 3860
2026-03-30 23:30 3.21 221 13700 (1985) 59 (1956) 1410 159 254 391 462 948 1690 1960 2960 3860
2026-03-30 22:30 3.21 221 19100 (1985) 59 (1956) 1570 169 242 406 447 914 1940 2070 2720 4500
2026-03-30 21:30 3.21 221 19100 (1985) 59 (1956) 1570 169 242 406 447 914 1940 2070 2720 4500
2026-03-30 20:30 3.21 221 19100 (1985) 59 (1956) 1570 169 242 406 447 914 1940 2070 2720 4500
2026-03-30 19:30 3.22 225 19100 (1985) 59 (1956) 1570 169 242 406 447 914 1940 2070 2720 4500
2026-03-30 18:30 3.22 225 19100 (1985) 59 (1956) 1570 169 242 406 447 914 1940 2070 2720 4500
2026-03-30 17:30 3.22 225 19100 (1985) 59 (1956) 1570 169 242 406 447 914 1940 2070 2720 4500
2026-03-30 16:30 3.23 228 19100 (1985) 59 (1956) 1570 169 242 406 447 914 1940 2070 2720 4500
2026-03-30 15:30 3.23 228 19100 (1985) 59 (1956) 1570 169 242 406 447 914 1940 2070 2720 4500
2026-03-30 14:30 3.23 228 19100 (1985) 59 (1956) 1570 169 242 406 447 914 1940 2070 2720 4500
2026-03-30 13:30 3.23 228 19100 (1985) 59 (1956) 1570 169 242 406 447 914 1940 2070 2720 4500
2026-03-30 12:30 3.23 228 19100 (1985) 59 (1956) 1570 169 242 406 447 914 1940 2070 2720 4500
2026-03-30 11:30 3.24 231 19100 (1985) 59 (1956) 1570 169 242 406 447 914 1940 2070 2720 4500
2026-03-30 10:30 3.23 228 19100 (1985) 59 (1956) 1570 169 242 406 447 914 1940 2070 2720 4500
2026-03-30 09:30 3.23 228 19100 (1985) 59 (1956) 1570 169 242 406 447 914 1940 2070 2720 4500
2026-03-30 08:30 3.23 228 19100 (1985) 59 (1956) 1570 169 242 406 447 914 1940 2070 2720 4500
2026-03-30 07:30 3.23 228 19100 (1985) 59 (1956) 1570 169 242 406 447 914 1940 2070 2720 4500
2026-03-30 06:30 3.23 228 19100 (1985) 59 (1956) 1570 169 242 406 447 914 1940 2070 2720 4500
2026-03-30 05:30 3.23 228 19100 (1985) 59 (1956) 1570 169 242 406 447 914 1940 2070 2720 4500
2026-03-30 04:30 3.23 228 19100 (1985) 59 (1956) 1570 169 242 406 447 914 1940 2070 2720 4500
2026-03-30 03:30 3.23 228 19100 (1985) 59 (1956) 1570 169 242 406 447 914 1940 2070 2720 4500
2026-03-30 02:30 3.23 228 19100 (1985) 59 (1956) 1570 169 242 406 447 914 1940 2070 2720 4500
2026-03-30 01:30 3.23 228 19100 (1985) 59 (1956) 1570 169 242 406 447 914 1940 2070 2720 4500
2026-03-30 00:30 3.24 231 19100 (1985) 59 (1956) 1570 169 242 406 447 914 1940 2070 2720 4500
2026-03-29 23:30 3.24 231 19100 (1985) 59 (1956) 1570 169 242 406 447 914 1940 2070 2720 4500
2026-03-29 22:30 3.24 231 7610 (1984) 59 (1956) 1410 154 243 397 449 893 1930 2310 2830 5550
2026-03-29 21:30 3.24 231 7610 (1984) 59 (1956) 1410 154 243 397 449 893 1930 2310 2830 5550
2026-03-29 20:30 3.24 231 7610 (1984) 59 (1956) 1410 154 243 397 449 893 1930 2310 2830 5550
2026-03-29 19:30 3.25 234 7610 (1984) 59 (1956) 1410 154 243 397 449 893 1930 2310 2830 5550
2026-03-29 18:30 3.25 234 7610 (1984) 59 (1956) 1410 154 243 397 449 893 1930 2310 2830 5550
2026-03-29 17:30 3.25 234 7610 (1984) 59 (1956) 1410 154 243 397 449 893 1930 2310 2830 5550
2026-03-29 16:30 3.26 238 7610 (1984) 59 (1956) 1410 154 243 397 449 893 1930 2310 2830 5550
2026-03-29 15:30 3.26 238 7610 (1984) 59 (1956) 1410 154 243 397 449 893 1930 2310 2830 5550
2026-03-29 14:30 3.25 234 7610 (1984) 59 (1956) 1410 154 243 397 449 893 1930 2310 2830 5550
2026-03-29 13:30 3.26 238 7610 (1984) 59 (1956) 1410 154 243 397 449 893 1930 2310 2830 5550
2026-03-29 12:30 3.26 238 7610 (1984) 59 (1956) 1410 154 243 397 449 893 1930 2310 2830 5550
2026-03-29 11:30 3.26 238 7610 (1984) 59 (1956) 1410 154 243 397 449 893 1930 2310 2830 5550
2026-03-29 10:30 3.26 238 7610 (1984) 59 (1956) 1410 154 243 397 449 893 1930 2310 2830 5550
2026-03-29 09:30 3.26 238 7610 (1984) 59 (1956) 1410 154 243 397 449 893 1930 2310 2830 5550
2026-03-29 08:30 3.26 238 7610 (1984) 59 (1956) 1410 154 243 397 449 893 1930 2310 2830 5550
2026-03-29 07:30 3.26 238 7610 (1984) 59 (1956) 1410 154 243 397 449 893 1930 2310 2830 5550
2026-03-29 06:30 3.26 238 7610 (1984) 59 (1956) 1410 154 243 397 449 893 1930 2310 2830 5550
2026-03-29 05:30 3.26 238 7610 (1984) 59 (1956) 1410 154 243 397 449 893 1930 2310 2830 5550
2026-03-29 04:30 3.27 241 7610 (1984) 59 (1956) 1410 154 243 397 449 893 1930 2310 2830 5550
2026-03-29 03:30 3.27 241 7610 (1984) 59 (1956) 1410 154 243 397 449 893 1930 2310 2830 5550
2026-03-29 02:30 3.27 241 7610 (1984) 59 (1956) 1410 154 243 397 449 893 1930 2310 2830 5550
2026-03-29 01:30 3.27 241 7610 (1984) 59 (1956) 1410 154 243 397 449 893 1930 2310 2830 5550
2026-03-29 00:30 3.27 241 7610 (1984) 59 (1956) 1410 154 243 397 449 893 1930 2310 2830 5550
2026-03-28 23:30 3.27 241 7610 (1984) 59 (1956) 1410 154 243 397 449 893 1930 2310 2830 5550
2026-03-28 22:30 3.28 244 13800 (2018) 64 (1956) 1430 147 238 384 457 820 1700 1950 3110 3520
2026-03-28 21:30 3.28 244 13800 (2018) 64 (1956) 1430 147 238 384 457 820 1700 1950 3110 3520
2026-03-28 20:30 3.28 244 13800 (2018) 64 (1956) 1430 147 238 384 457 820 1700 1950 3110 3520
2026-03-28 19:30 3.28 244 13800 (2018) 64 (1956) 1430 147 238 384 457 820 1700 1950 3110 3520
2026-03-28 18:30 3.29 248 13800 (2018) 64 (1956) 1430 147 238 384 457 820 1700 1950 3110 3520
2026-03-28 17:30 3.29 248 13800 (2018) 64 (1956) 1430 147 238 384 457 820 1700 1950 3110 3520
2026-03-28 16:30 3.29 248 13800 (2018) 64 (1956) 1430 147 238 384 457 820 1700 1950 3110 3520
2026-03-28 15:30 3.30 251 13800 (2018) 64 (1956) 1430 147 238 384 457 820 1700 1950 3110 3520
2026-03-28 14:30 3.29 248 13800 (2018) 64 (1956) 1430 147 238 384 457 820 1700 1950 3110 3520
2026-03-28 13:30 3.29 248 13800 (2018) 64 (1956) 1430 147 238 384 457 820 1700 1950 3110 3520
2026-03-28 12:30 3.29 248 13800 (2018) 64 (1956) 1430 147 238 384 457 820 1700 1950 3110 3520
2026-03-28 11:30 3.30 251 13800 (2018) 64 (1956) 1430 147 238 384 457 820 1700 1950 3110 3520
2026-03-28 10:30 3.29 248 13800 (2018) 64 (1956) 1430 147 238 384 457 820 1700 1950 3110 3520
2026-03-28 09:30 3.30 251 13800 (2018) 64 (1956) 1430 147 238 384 457 820 1700 1950 3110 3520
2026-03-28 08:30 3.30 251 13800 (2018) 64 (1956) 1430 147 238 384 457 820 1700 1950 3110 3520
2026-03-28 07:30 3.30 251 13800 (2018) 64 (1956) 1430 147 238 384 457 820 1700 1950 3110 3520
2026-03-28 06:30 3.31 254 13800 (2018) 64 (1956) 1430 147 238 384 457 820 1700 1950 3110 3520
2026-03-28 05:30 3.31 254 13800 (2018) 64 (1956) 1430 147 238 384 457 820 1700 1950 3110 3520
2026-03-28 04:30 3.31 254 13800 (2018) 64 (1956) 1430 147 238 384 457 820 1700 1950 3110 3520
2026-03-28 03:30 3.31 254 13800 (2018) 64 (1956) 1430 147 238 384 457 820 1700 1950 3110 3520
2026-03-28 02:30 3.31 254 13800 (2018) 64 (1956) 1430 147 238 384 457 820 1700 1950 3110 3520
2026-03-28 01:30 3.32 258 13800 (2018) 64 (1956) 1430 147 238 384 457 820 1700 1950 3110 3520
2026-03-28 00:30 3.32 258 13800 (2018) 64 (1956) 1430 147 238 384 457 820 1700 1950 3110 3520
2026-03-27 23:30 3.32 258 13800 (2018) 64 (1956) 1430 147 238 384 457 820 1700 1950 3110 3520
2026-03-27 22:30 3.32 258 6140 (2015) 67 (1956) 1400 151 241 378 449 776 1820 1940 3780 4780
2026-03-27 21:30 3.32 258 6140 (2015) 67 (1956) 1400 151 241 378 449 776 1820 1940 3780 4780
2026-03-27 20:30 3.32 258 6140 (2015) 67 (1956) 1400 151 241 378 449 776 1820 1940 3780 4780
2026-03-27 19:30 3.33 261 6140 (2015) 67 (1956) 1400 151 241 378 449 776 1820 1940 3780 4780
2026-03-27 18:30 3.33 261 6140 (2015) 67 (1956) 1400 151 241 378 449 776 1820 1940 3780 4780
2026-03-27 17:30 3.33 261 6140 (2015) 67 (1956) 1400 151 241 378 449 776 1820 1940 3780 4780
2026-03-27 16:30 3.33 261 6140 (2015) 67 (1956) 1400 151 241 378 449 776 1820 1940 3780 4780
2026-03-27 15:30 3.33 261 6140 (2015) 67 (1956) 1400 151 241 378 449 776 1820 1940 3780 4780
2026-03-27 14:30 3.33 261 6140 (2015) 67 (1956) 1400 151 241 378 449 776 1820 1940 3780 4780
2026-03-27 13:30 3.33 261 6140 (2015) 67 (1956) 1400 151 241 378 449 776 1820 1940 3780 4780
2026-03-27 12:30 3.33 261 6140 (2015) 67 (1956) 1400 151 241 378 449 776 1820 1940 3780 4780
2026-03-27 11:30 3.34 265 6140 (2015) 67 (1956) 1400 151 241 378 449 776 1820 1940 3780 4780
2026-03-27 10:30 3.34 265 6140 (2015) 67 (1956) 1400 151 241 378 449 776 1820 1940 3780 4780
2026-03-27 09:30 3.34 265 6140 (2015) 67 (1956) 1400 151 241 378 449 776 1820 1940 3780 4780
2026-03-27 08:30 3.34 265 6140 (2015) 67 (1956) 1400 151 241 378 449 776 1820 1940 3780 4780
2026-03-27 07:30 3.35 268 6140 (2015) 67 (1956) 1400 151 241 378 449 776 1820 1940 3780 4780
2026-03-27 06:30 3.35 268 6140 (2015) 67 (1956) 1400 151 241 378 449 776 1820 1940 3780 4780
2026-03-27 05:30 3.35 268 6140 (2015) 67 (1956) 1400 151 241 378 449 776 1820 1940 3780 4780
2026-03-27 04:30 3.35 268 6140 (2015) 67 (1956) 1400 151 241 378 449 776 1820 1940 3780 4780
2026-03-27 03:30 3.36 272 6140 (2015) 67 (1956) 1400 151 241 378 449 776 1820 1940 3780 4780
2026-03-27 02:30 3.35 268 6140 (2015) 67 (1956) 1400 151 241 378 449 776 1820 1940 3780 4780
2026-03-27 01:30 3.36 272 6140 (2015) 67 (1956) 1400 151 241 378 449 776 1820 1940 3780 4780
2026-03-27 00:30 3.36 272 6140 (2015) 67 (1956) 1400 151 241 378 449 776 1820 1940 3780 4780
2026-03-26 23:30 3.36 272 6140 (2015) 67 (1956) 1400 151 241 378 449 776 1820 1940 3780 4780
2026-03-26 22:30 3.37 276 11300 (2010) 67 (1956) 1560 150 238 379 407 822 1880 2110 3760 6930
2026-03-26 21:30 3.36 272 11300 (2010) 67 (1956) 1560 150 238 379 407 822 1880 2110 3760 6930
2026-03-26 20:30 3.37 276 11300 (2010) 67 (1956) 1560 150 238 379 407 822 1880 2110 3760 6930
2026-03-26 19:30 3.37 276 11300 (2010) 67 (1956) 1560 150 238 379 407 822 1880 2110 3760 6930
2026-03-26 18:30 3.38 279 11300 (2010) 67 (1956) 1560 150 238 379 407 822 1880 2110 3760 6930
2026-03-26 17:30 3.39 283 11300 (2010) 67 (1956) 1560 150 238 379 407 822 1880 2110 3760 6930
2026-03-26 16:30 3.38 279 11300 (2010) 67 (1956) 1560 150 238 379 407 822 1880 2110 3760 6930
2026-03-26 15:30 3.39 283 11300 (2010) 67 (1956) 1560 150 238 379 407 822 1880 2110 3760 6930
2026-03-26 14:30 3.40 286 11300 (2010) 67 (1956) 1560 150 238 379 407 822 1880 2110 3760 6930
2026-03-26 13:30 3.40 286 11300 (2010) 67 (1956) 1560 150 238 379 407 822 1880 2110 3760 6930
2026-03-26 12:30 3.40 286 11300 (2010) 67 (1956) 1560 150 238 379 407 822 1880 2110 3760 6930
2026-03-26 11:30 3.40 286 11300 (2010) 67 (1956) 1560 150 238 379 407 822 1880 2110 3760 6930
2026-03-26 10:30 3.40 286 11300 (2010) 67 (1956) 1560 150 238 379 407 822 1880 2110 3760 6930
2026-03-26 09:30 3.39 283 11300 (2010) 67 (1956) 1560 150 238 379 407 822 1880 2110 3760 6930
2026-03-26 08:30 3.39 283 11300 (2010) 67 (1956) 1560 150 238 379 407 822 1880 2110 3760 6930
2026-03-26 07:30 3.39 283 11300 (2010) 67 (1956) 1560 150 238 379 407 822 1880 2110 3760 6930
2026-03-26 06:30 3.39 283 11300 (2010) 67 (1956) 1560 150 238 379 407 822 1880 2110 3760 6930
2026-03-26 05:30 3.39 283 11300 (2010) 67 (1956) 1560 150 238 379 407 822 1880 2110 3760 6930
2026-03-26 04:30 3.40 286 11300 (2010) 67 (1956) 1560 150 238 379 407 822 1880 2110 3760 6930
2026-03-26 03:30 3.39 283 11300 (2010) 67 (1956) 1560 150 238 379 407 822 1880 2110 3760 6930
2026-03-26 02:30 3.40 286 11300 (2010) 67 (1956) 1560 150 238 379 407 822 1880 2110 3760 6930
2026-03-26 01:30 3.40 286 11300 (2010) 67 (1956) 1560 150 238 379 407 822 1880 2110 3760 6930
2026-03-26 00:30 3.40 286 11300 (2010) 67 (1956) 1560 150 238 379 407 822 1880 2110 3760 6930
2026-03-25 23:30 3.40 286 11300 (2010) 67 (1956) 1560 150 238 379 407 822 1880 2110 3760 6930
2026-03-25 22:30 3.40 286 17800 (2023) 70 (1956) 1830 148 234 403 415 852 2080 2300 4500 7990
2026-03-25 21:30 3.40 286 17800 (2023) 70 (1956) 1830 148 234 403 415 852 2080 2300 4500 7990
2026-03-25 20:30 3.40 286 17800 (2023) 70 (1956) 1830 148 234 403 415 852 2080 2300 4500 7990
2026-03-25 19:30 3.41 290 17800 (2023) 70 (1956) 1830 148 234 403 415 852 2080 2300 4500 7990
2026-03-25 18:30 3.42 294 17800 (2023) 70 (1956) 1830 148 234 403 415 852 2080 2300 4500 7990
2026-03-25 17:30 3.42 294 17800 (2023) 70 (1956) 1830 148 234 403 415 852 2080 2300 4500 7990
2026-03-25 16:30 3.42 294 17800 (2023) 70 (1956) 1830 148 234 403 415 852 2080 2300 4500 7990
2026-03-25 15:30 3.44 301 17800 (2023) 70 (1956) 1830 148 234 403 415 852 2080 2300 4500 7990
2026-03-25 14:30 3.42 294 17800 (2023) 70 (1956) 1830 148 234 403 415 852 2080 2300 4500 7990
2026-03-25 13:30 3.43 298 17800 (2023) 70 (1956) 1830 148 234 403 415 852 2080 2300 4500 7990
2026-03-25 12:30 3.42 294 17800 (2023) 70 (1956) 1830 148 234 403 415 852 2080 2300 4500 7990
2026-03-25 11:30 3.43 298 17800 (2023) 70 (1956) 1830 148 234 403 415 852 2080 2300 4500 7990
2026-03-25 10:30 3.43 298 17800 (2023) 70 (1956) 1830 148 234 403 415 852 2080 2300 4500 7990
2026-03-25 09:30 3.43 298 17800 (2023) 70 (1956) 1830 148 234 403 415 852 2080 2300 4500 7990
2026-03-25 08:30 3.42 294 17800 (2023) 70 (1956) 1830 148 234 403 415 852 2080 2300 4500 7990
2026-03-25 07:30 3.42 294 17800 (2023) 70 (1956) 1830 148 234 403 415 852 2080 2300 4500 7990
2026-03-25 06:30 3.43 298 17800 (2023) 70 (1956) 1830 148 234 403 415 852 2080 2300 4500 7990
2026-03-25 05:30 3.43 298 17800 (2023) 70 (1956) 1830 148 234 403 415 852 2080 2300 4500 7990
2026-03-25 04:30 3.43 298 17800 (2023) 70 (1956) 1830 148 234 403 415 852 2080 2300 4500 7990
2026-03-25 03:30 3.43 298 17800 (2023) 70 (1956) 1830 148 234 403 415 852 2080 2300 4500 7990
2026-03-25 02:30 3.43 298 17800 (2023) 70 (1956) 1830 148 234 403 415 852 2080 2300 4500 7990
2026-03-25 01:30 3.44 301 17800 (2023) 70 (1956) 1830 148 234 403 415 852 2080 2300 4500 7990
2026-03-25 00:30 3.44 301 17800 (2023) 70 (1956) 1830 148 234 403 415 852 2080 2300 4500 7990
2026-03-24 23:30 3.44 301 17800 (2023) 70 (1956) 1830 148 234 403 415 852 2080 2300 4500 7990
2026-03-24 22:30 3.44 301 44200 (2023) 70 (1956) 2050 120 228 401 432 884 2050 2500 3400 7800
2026-03-24 21:30 3.45 305 44200 (2023) 70 (1956) 2050 120 228 401 432 884 2050 2500 3400 7800
2026-03-24 20:30 3.45 305 44200 (2023) 70 (1956) 2050 120 228 401 432 884 2050 2500 3400 7800
2026-03-24 19:30 3.45 305 44200 (2023) 70 (1956) 2050 120 228 401 432 884 2050 2500 3400 7800
2026-03-24 18:30 3.47 313 44200 (2023) 70 (1956) 2050 120 228 401 432 884 2050 2500 3400 7800
2026-03-24 17:30 3.46 309 44200 (2023) 70 (1956) 2050 120 228 401 432 884 2050 2500 3400 7800
2026-03-24 16:30 3.46 309 44200 (2023) 70 (1956) 2050 120 228 401 432 884 2050 2500 3400 7800
2026-03-24 15:30 3.45 305 44200 (2023) 70 (1956) 2050 120 228 401 432 884 2050 2500 3400 7800
2026-03-24 14:30 3.46 309 44200 (2023) 70 (1956) 2050 120 228 401 432 884 2050 2500 3400 7800
2026-03-24 13:30 3.45 305 44200 (2023) 70 (1956) 2050 120 228 401 432 884 2050 2500 3400 7800
2026-03-24 12:30 3.46 309 44200 (2023) 70 (1956) 2050 120 228 401 432 884 2050 2500 3400 7800
2026-03-24 11:30 3.46 309 44200 (2023) 70 (1956) 2050 120 228 401 432 884 2050 2500 3400 7800
2026-03-24 10:30 3.46 309 44200 (2023) 70 (1956) 2050 120 228 401 432 884 2050 2500 3400 7800
2026-03-24 09:30 3.47 313 44200 (2023) 70 (1956) 2050 120 228 401 432 884 2050 2500 3400 7800
2026-03-24 08:30 3.47 313 44200 (2023) 70 (1956) 2050 120 228 401 432 884 2050 2500 3400 7800
2026-03-24 07:30 3.47 313 44200 (2023) 70 (1956) 2050 120 228 401 432 884 2050 2500 3400 7800
2026-03-24 06:30 3.47 313 44200 (2023) 70 (1956) 2050 120 228 401 432 884 2050 2500 3400 7800
2026-03-24 05:30 3.48 317 44200 (2023) 70 (1956) 2050 120 228 401 432 884 2050 2500 3400 7800
2026-03-24 04:30 3.48 317 44200 (2023) 70 (1956) 2050 120 228 401 432 884 2050 2500 3400 7800
2026-03-24 03:30 3.48 317 44200 (2023) 70 (1956) 2050 120 228 401 432 884 2050 2500 3400 7800
2026-03-24 02:30 3.49 321 44200 (2023) 70 (1956) 2050 120 228 401 432 884 2050 2500 3400 7800
2026-03-24 01:30 3.49 321 44200 (2023) 70 (1956) 2050 120 228 401 432 884 2050 2500 3400 7800
2026-03-24 00:30 3.49 321 44200 (2023) 70 (1956) 2050 120 228 401 432 884 2050 2500 3400 7800
2026-03-23 23:30 3.49 321 44200 (2023) 70 (1956) 2050 120 228 401 432 884 2050 2500 3400 7800
2026-03-23 22:30 3.50 325 5350 (2012) 57 (1954) 1330 123 236 409 443 941 1690 2320 3340 4350
2026-03-23 21:30 3.50 325 5350 (2012) 57 (1954) 1330 123 236 409 443 941 1690 2320 3340 4350
2026-03-23 20:30 3.50 325 5350 (2012) 57 (1954) 1330 123 236 409 443 941 1690 2320 3340 4350
2026-03-23 19:30 3.51 329 5350 (2012) 57 (1954) 1330 123 236 409 443 941 1690 2320 3340 4350
2026-03-23 18:30 3.51 329 5350 (2012) 57 (1954) 1330 123 236 409 443 941 1690 2320 3340 4350
2026-03-23 17:30 3.51 329 5350 (2012) 57 (1954) 1330 123 236 409 443 941 1690 2320 3340 4350
2026-03-23 16:30 3.52 333 5350 (2012) 57 (1954) 1330 123 236 409 443 941 1690 2320 3340 4350
2026-03-23 15:30 3.52 333 5350 (2012) 57 (1954) 1330 123 236 409 443 941 1690 2320 3340 4350
2026-03-23 14:30 3.52 333 5350 (2012) 57 (1954) 1330 123 236 409 443 941 1690 2320 3340 4350
2026-03-23 13:30 3.52 333 5350 (2012) 57 (1954) 1330 123 236 409 443 941 1690 2320 3340 4350
2026-03-23 12:30 3.52 333 5350 (2012) 57 (1954) 1330 123 236 409 443 941 1690 2320 3340 4350
2026-03-23 11:30 3.53 337 5350 (2012) 57 (1954) 1330 123 236 409 443 941 1690 2320 3340 4350
2026-03-23 10:30 3.53 337 5350 (2012) 57 (1954) 1330 123 236 409 443 941 1690 2320 3340 4350
2026-03-23 09:30 3.53 337 5350 (2012) 57 (1954) 1330 123 236 409 443 941 1690 2320 3340 4350
2026-03-23 08:30 3.53 337 5350 (2012) 57 (1954) 1330 123 236 409 443 941 1690 2320 3340 4350
2026-03-23 07:30 3.54 341 5350 (2012) 57 (1954) 1330 123 236 409 443 941 1690 2320 3340 4350
2026-03-23 06:30 3.54 341 5350 (2012) 57 (1954) 1330 123 236 409 443 941 1690 2320 3340 4350
2026-03-23 05:30 3.55 345 5350 (2012) 57 (1954) 1330 123 236 409 443 941 1690 2320 3340 4350
2026-03-23 04:30 3.55 345 5350 (2012) 57 (1954) 1330 123 236 409 443 941 1690 2320 3340 4350
2026-03-23 03:30 3.56 349 5350 (2012) 57 (1954) 1330 123 236 409 443 941 1690 2320 3340 4350
2026-03-23 02:30 3.56 349 5350 (2012) 57 (1954) 1330 123 236 409 443 941 1690 2320 3340 4350
2026-03-23 01:30 3.56 349 5350 (2012) 57 (1954) 1330 123 236 409 443 941 1690 2320 3340 4350
2026-03-23 00:30 3.56 349 5350 (2012) 57 (1954) 1330 123 236 409 443 941 1690 2320 3340 4350
2026-03-22 23:30 3.56 349 5350 (2012) 57 (1954) 1330 123 236 409 443 941 1690 2320 3340 4350
2026-03-22 22:30 3.57 353 8950 (2012) 53 (1954) 1410 126 239 398 463 772 1740 1920 4030 4610
2026-03-22 21:30 3.57 353 8950 (2012) 53 (1954) 1410 126 239 398 463 772 1740 1920 4030 4610
2026-03-22 20:30 3.57 353 8950 (2012) 53 (1954) 1410 126 239 398 463 772 1740 1920 4030 4610
2026-03-22 19:30 3.58 357 8950 (2012) 53 (1954) 1410 126 239 398 463 772 1740 1920 4030 4610
2026-03-22 18:30 3.57 353 8950 (2012) 53 (1954) 1410 126 239 398 463 772 1740 1920 4030 4610
2026-03-22 17:30 3.57 353 8950 (2012) 53 (1954) 1410 126 239 398 463 772 1740 1920 4030 4610
2026-03-22 16:30 3.58 357 8950 (2012) 53 (1954) 1410 126 239 398 463 772 1740 1920 4030 4610
2026-03-22 15:30 3.60 366 8950 (2012) 53 (1954) 1410 126 239 398 463 772 1740 1920 4030 4610
2026-03-22 14:30 3.60 366 8950 (2012) 53 (1954) 1410 126 239 398 463 772 1740 1920 4030 4610
2026-03-22 13:30 3.61 370 8950 (2012) 53 (1954) 1410 126 239 398 463 772 1740 1920 4030 4610
2026-03-22 12:30 3.62 374 8950 (2012) 53 (1954) 1410 126 239 398 463 772 1740 1920 4030 4610
2026-03-22 11:30 3.61 370 8950 (2012) 53 (1954) 1410 126 239 398 463 772 1740 1920 4030 4610
2026-03-22 10:30 3.62 374 8950 (2012) 53 (1954) 1410 126 239 398 463 772 1740 1920 4030 4610
2026-03-22 09:30 3.60 366 8950 (2012) 53 (1954) 1410 126 239 398 463 772 1740 1920 4030 4610
2026-03-22 08:30 3.61 370 8950 (2012) 53 (1954) 1410 126 239 398 463 772 1740 1920 4030 4610
2026-03-22 07:30 3.61 370 8950 (2012) 53 (1954) 1410 126 239 398 463 772 1740 1920 4030 4610
2026-03-22 06:30 3.61 370 8950 (2012) 53 (1954) 1410 126 239 398 463 772 1740 1920 4030 4610
2026-03-22 05:30 3.61 370 8950 (2012) 53 (1954) 1410 126 239 398 463 772 1740 1920 4030 4610
2026-03-22 04:30 3.62 374 8950 (2012) 53 (1954) 1410 126 239 398 463 772 1740 1920 4030 4610
2026-03-22 03:30 3.62 374 8950 (2012) 53 (1954) 1410 126 239 398 463 772 1740 1920 4030 4610
2026-03-22 02:30 3.62 374 8950 (2012) 53 (1954) 1410 126 239 398 463 772 1740 1920 4030 4610
2026-03-22 01:30 3.63 378 8950 (2012) 53 (1954) 1410 126 239 398 463 772 1740 1920 4030 4610
2026-03-22 00:30 3.63 378 8950 (2012) 53 (1954) 1410 126 239 398 463 772 1740 1920 4030 4610
2026-03-21 23:30 3.63 378 8950 (2012) 53 (1954) 1410 126 239 398 463 772 1740 1920 4030 4610
2026-03-21 22:30 3.64 383 7960 (1968) 52 (1954) 1540 125 245 387 455 716 1710 2120 4350 6610
2026-03-21 21:30 3.64 383 7960 (1968) 52 (1954) 1540 125 245 387 455 716 1710 2120 4350 6610
2026-03-21 20:30 3.64 383 7960 (1968) 52 (1954) 1540 125 245 387 455 716 1710 2120 4350 6610
2026-03-21 19:30 3.65 387 7960 (1968) 52 (1954) 1540 125 245 387 455 716 1710 2120 4350 6610
2026-03-21 18:30 3.65 387 7960 (1968) 52 (1954) 1540 125 245 387 455 716 1710 2120 4350 6610
2026-03-21 17:30 3.65 387 7960 (1968) 52 (1954) 1540 125 245 387 455 716 1710 2120 4350 6610
2026-03-21 16:30 3.66 392 7960 (1968) 52 (1954) 1540 125 245 387 455 716 1710 2120 4350 6610
2026-03-21 15:30 3.66 392 7960 (1968) 52 (1954) 1540 125 245 387 455 716 1710 2120 4350 6610
2026-03-21 14:30 3.66 392 7960 (1968) 52 (1954) 1540 125 245 387 455 716 1710 2120 4350 6610
2026-03-21 13:30 3.66 392 7960 (1968) 52 (1954) 1540 125 245 387 455 716 1710 2120 4350 6610
2026-03-21 12:30 3.67 396 7960 (1968) 52 (1954) 1540 125 245 387 455 716 1710 2120 4350 6610
2026-03-21 11:30 3.66 392 7960 (1968) 52 (1954) 1540 125 245 387 455 716 1710 2120 4350 6610
2026-03-21 10:30 3.67 396 7960 (1968) 52 (1954) 1540 125 245 387 455 716 1710 2120 4350 6610
2026-03-21 09:30 3.66 392 7960 (1968) 52 (1954) 1540 125 245 387 455 716 1710 2120 4350 6610
2026-03-21 08:30 3.67 396 7960 (1968) 52 (1954) 1540 125 245 387 455 716 1710 2120 4350 6610
2026-03-21 07:30 3.67 396 7960 (1968) 52 (1954) 1540 125 245 387 455 716 1710 2120 4350 6610
2026-03-21 06:30 3.67 396 7960 (1968) 52 (1954) 1540 125 245 387 455 716 1710 2120 4350 6610
2026-03-21 05:30 3.68 400 7960 (1968) 52 (1954) 1540 125 245 387 455 716 1710 2120 4350 6610
2026-03-21 04:30 3.68 400 7960 (1968) 52 (1954) 1540 125 245 387 455 716 1710 2120 4350 6610
2026-03-21 03:30 3.68 400 7960 (1968) 52 (1954) 1540 125 245 387 455 716 1710 2120 4350 6610
2026-03-21 02:30 3.69 405 7960 (1968) 52 (1954) 1540 125 245 387 455 716 1710 2120 4350 6610
2026-03-21 01:30 3.69 405 7960 (1968) 52 (1954) 1540 125 245 387 455 716 1710 2120 4350 6610
2026-03-21 00:30 3.69 405 7960 (1968) 52 (1954) 1540 125 245 387 455 716 1710 2120 4350 6610
2026-03-20 23:30 3.69 405 7960 (1968) 52 (1954) 1540 125 245 387 455 716 1710 2120 4350 6610
2026-03-20 22:30 3.70 410 18500 (2020) 52 (1954) 1920 131 250 389 475 741 1610 1920 5010 11100
2026-03-20 21:30 3.70 410 18500 (2020) 52 (1954) 1920 131 250 389 475 741 1610 1920 5010 11100
2026-03-20 20:30 3.70 410 18500 (2020) 52 (1954) 1920 131 250 389 475 741 1610 1920 5010 11100
2026-03-20 19:30 3.71 414 18500 (2020) 52 (1954) 1920 131 250 389 475 741 1610 1920 5010 11100
2026-03-20 18:30 3.71 414 18500 (2020) 52 (1954) 1920 131 250 389 475 741 1610 1920 5010 11100
2026-03-20 17:30 3.72 419 18500 (2020) 52 (1954) 1920 131 250 389 475 741 1610 1920 5010 11100
2026-03-20 16:30 3.72 419 18500 (2020) 52 (1954) 1920 131 250 389 475 741 1610 1920 5010 11100
2026-03-20 15:30 3.72 419 18500 (2020) 52 (1954) 1920 131 250 389 475 741 1610 1920 5010 11100
2026-03-20 14:30 3.73 423 18500 (2020) 52 (1954) 1920 131 250 389 475 741 1610 1920 5010 11100
2026-03-20 13:30 3.73 423 18500 (2020) 52 (1954) 1920 131 250 389 475 741 1610 1920 5010 11100
2026-03-20 12:30 3.73 423 18500 (2020) 52 (1954) 1920 131 250 389 475 741 1610 1920 5010 11100
2026-03-20 11:30 3.74 428 18500 (2020) 52 (1954) 1920 131 250 389 475 741 1610 1920 5010 11100
2026-03-20 10:30 3.73 423 18500 (2020) 52 (1954) 1920 131 250 389 475 741 1610 1920 5010 11100
2026-03-20 09:30 3.74 428 18500 (2020) 52 (1954) 1920 131 250 389 475 741 1610 1920 5010 11100
2026-03-20 08:30 3.74 428 18500 (2020) 52 (1954) 1920 131 250 389 475 741 1610 1920 5010 11100
2026-03-20 07:30 3.74 428 18500 (2020) 52 (1954) 1920 131 250 389 475 741 1610 1920 5010 11100
2026-03-20 06:30 3.74 428 18500 (2020) 52 (1954) 1920 131 250 389 475 741 1610 1920 5010 11100
2026-03-20 05:30 3.75 433 18500 (2020) 52 (1954) 1920 131 250 389 475 741 1610 1920 5010 11100
2026-03-20 04:30 3.75 433 18500 (2020) 52 (1954) 1920 131 250 389 475 741 1610 1920 5010 11100
2026-03-20 03:30 3.76 437 18500 (2020) 52 (1954) 1920 131 250 389 475 741 1610 1920 5010 11100
2026-03-20 02:30 3.76 437 18500 (2020) 52 (1954) 1920 131 250 389 475 741 1610 1920 5010 11100
2026-03-20 01:30 3.76 437 18500 (2020) 52 (1954) 1920 131 250 389 475 741 1610 1920 5010 11100
2026-03-20 00:30 3.77 442 18500 (2020) 52 (1954) 1920 131 250 389 475 741 1610 1920 5010 11100
2026-03-19 23:30 3.77 442 18500 (2020) 52 (1954) 1920 131 250 389 475 741 1610 1920 5010 11100
2026-03-19 22:30 3.78 447 53300 (2008) 52 (1954) 2100 136 253 359 400 713 1430 1750 4530 7980
2026-03-19 21:30 3.78 447 53300 (2008) 52 (1954) 2100 136 253 359 400 713 1430 1750 4530 7980
2026-03-19 20:30 3.79 452 53300 (2008) 52 (1954) 2100 136 253 359 400 713 1430 1750 4530 7980
2026-03-19 19:30 3.79 452 53300 (2008) 52 (1954) 2100 136 253 359 400 713 1430 1750 4530 7980
2026-03-19 18:30 3.79 452 53300 (2008) 52 (1954) 2100 136 253 359 400 713 1430 1750 4530 7980
2026-03-19 17:30 3.80 456 53300 (2008) 52 (1954) 2100 136 253 359 400 713 1430 1750 4530 7980
2026-03-19 16:30 3.80 456 53300 (2008) 52 (1954) 2100 136 253 359 400 713 1430 1750 4530 7980
2026-03-19 15:30 3.80 456 53300 (2008) 52 (1954) 2100 136 253 359 400 713 1430 1750 4530 7980
2026-03-19 14:30 3.81 461 53300 (2008) 52 (1954) 2100 136 253 359 400 713 1430 1750 4530 7980
2026-03-19 13:30 3.81 461 53300 (2008) 52 (1954) 2100 136 253 359 400 713 1430 1750 4530 7980
2026-03-19 12:30 3.81 461 53300 (2008) 52 (1954) 2100 136 253 359 400 713 1430 1750 4530 7980
2026-03-19 11:30 3.82 466 53300 (2008) 52 (1954) 2100 136 253 359 400 713 1430 1750 4530 7980
2026-03-19 10:30 3.82 466 53300 (2008) 52 (1954) 2100 136 253 359 400 713 1430 1750 4530 7980
2026-03-19 09:30 3.82 466 53300 (2008) 52 (1954) 2100 136 253 359 400 713 1430 1750 4530 7980
2026-03-19 08:30 3.82 466 53300 (2008) 52 (1954) 2100 136 253 359 400 713 1430 1750 4530 7980
2026-03-19 07:30 3.83 471 53300 (2008) 52 (1954) 2100 136 253 359 400 713 1430 1750 4530 7980
2026-03-19 06:30 3.83 471 53300 (2008) 52 (1954) 2100 136 253 359 400 713 1430 1750 4530 7980
2026-03-19 05:30 3.84 476 53300 (2008) 52 (1954) 2100 136 253 359 400 713 1430 1750 4530 7980
2026-03-19 04:30 3.84 476 53300 (2008) 52 (1954) 2100 136 253 359 400 713 1430 1750 4530 7980
2026-03-19 03:30 3.84 476 53300 (2008) 52 (1954) 2100 136 253 359 400 713 1430 1750 4530 7980
2026-03-19 02:30 3.85 481 53300 (2008) 52 (1954) 2100 136 253 359 400 713 1430 1750 4530 7980
2026-03-19 01:30 3.85 481 53300 (2008) 52 (1954) 2100 136 253 359 400 713 1430 1750 4530 7980
2026-03-19 00:30 3.85 481 53300 (2008) 52 (1954) 2100 136 253 359 400 713 1430 1750 4530 7980
2026-03-18 23:30 3.86 486 53300 (2008) 52 (1954) 2100 136 253 359 400 713 1430 1750 4530 7980
2026-03-18 22:30 3.86 486 19400 (2008) 53 (1954) 1500 150 242 355 400 763 1460 1870 3640 6170
2026-03-18 21:30 3.87 491 19400 (2008) 53 (1954) 1500 150 242 355 400 763 1460 1870 3640 6170
2026-03-18 20:30 3.87 491 19400 (2008) 53 (1954) 1500 150 242 355 400 763 1460 1870 3640 6170
2026-03-18 19:30 3.88 496 19400 (2008) 53 (1954) 1500 150 242 355 400 763 1460 1870 3640 6170
2026-03-18 18:30 3.88 496 19400 (2008) 53 (1954) 1500 150 242 355 400 763 1460 1870 3640 6170
2026-03-18 17:30 3.89 501 19400 (2008) 53 (1954) 1500 150 242 355 400 763 1460 1870 3640 6170
2026-03-18 16:30 3.89 501 19400 (2008) 53 (1954) 1500 150 242 355 400 763 1460 1870 3640 6170
2026-03-18 15:30 3.89 501 19400 (2008) 53 (1954) 1500 150 242 355 400 763 1460 1870 3640 6170
2026-03-18 14:30 3.90 506 19400 (2008) 53 (1954) 1500 150 242 355 400 763 1460 1870 3640 6170
2026-03-18 13:30 3.90 506 19400 (2008) 53 (1954) 1500 150 242 355 400 763 1460 1870 3640 6170
2026-03-18 12:30 3.91 511 19400 (2008) 53 (1954) 1500 150 242 355 400 763 1460 1870 3640 6170
2026-03-18 11:30 3.92 516 19400 (2008) 53 (1954) 1500 150 242 355 400 763 1460 1870 3640 6170
2026-03-18 10:30 3.92 516 19400 (2008) 53 (1954) 1500 150 242 355 400 763 1460 1870 3640 6170
2026-03-18 09:30 3.92 516 19400 (2008) 53 (1954) 1500 150 242 355 400 763 1460 1870 3640 6170
2026-03-18 08:30 3.93 522 19400 (2008) 53 (1954) 1500 150 242 355 400 763 1460 1870 3640 6170
2026-03-18 07:30 3.93 522 19400 (2008) 53 (1954) 1500 150 242 355 400 763 1460 1870 3640 6170
2026-03-18 06:30 3.93 522 19400 (2008) 53 (1954) 1500 150 242 355 400 763 1460 1870 3640 6170
2026-03-18 05:30 3.94 527 19400 (2008) 53 (1954) 1500 150 242 355 400 763 1460 1870 3640 6170
2026-03-18 04:30 3.94 527 19400 (2008) 53 (1954) 1500 150 242 355 400 763 1460 1870 3640 6170
2026-03-18 03:30 3.94 527 19400 (2008) 53 (1954) 1500 150 242 355 400 763 1460 1870 3640 6170
2026-03-18 02:30 3.95 532 19400 (2008) 53 (1954) 1500 150 242 355 400 763 1460 1870 3640 6170
2026-03-18 01:30 3.95 532 19400 (2008) 53 (1954) 1500 150 242 355 400 763 1460 1870 3640 6170
2026-03-18 00:30 3.96 537 19400 (2008) 53 (1954) 1500 150 242 355 400 763 1460 1870 3640 6170
2026-03-17 23:30 3.97 543 19400 (2008) 53 (1954) 1500 150 242 355 400 763 1460 1870 3640 6170
2026-03-17 22:30 3.97 543 8270 (1999) 53 (1954) 1290 142 233 362 400 721 1470 1730 2820 5290
2026-03-17 21:30 3.98 548 8270 (1999) 53 (1954) 1290 142 233 362 400 721 1470 1730 2820 5290
2026-03-17 20:30 4.00 559 8270 (1999) 53 (1954) 1290 142 233 362 400 721 1470 1730 2820 5290
2026-03-17 19:30 3.99 554 8270 (1999) 53 (1954) 1290 142 233 362 400 721 1470 1730 2820 5290
2026-03-17 18:30 3.99 554 8270 (1999) 53 (1954) 1290 142 233 362 400 721 1470 1730 2820 5290
2026-03-17 17:30 4.00 559 8270 (1999) 53 (1954) 1290 142 233 362 400 721 1470 1730 2820 5290
2026-03-17 16:30 4.01 564 8270 (1999) 53 (1954) 1290 142 233 362 400 721 1470 1730 2820 5290
2026-03-17 15:30 4.02 570 8270 (1999) 53 (1954) 1290 142 233 362 400 721 1470 1730 2820 5290
2026-03-17 14:30 4.03 575 8270 (1999) 53 (1954) 1290 142 233 362 400 721 1470 1730 2820 5290
2026-03-17 13:30 4.03 575 8270 (1999) 53 (1954) 1290 142 233 362 400 721 1470 1730 2820 5290
2026-03-17 12:30 4.04 581 8270 (1999) 53 (1954) 1290 142 233 362 400 721 1470 1730 2820 5290
2026-03-17 11:30 4.04 581 8270 (1999) 53 (1954) 1290 142 233 362 400 721 1470 1730 2820 5290
2026-03-17 10:30 4.05 587 8270 (1999) 53 (1954) 1290 142 233 362 400 721 1470 1730 2820 5290
2026-03-17 09:30 4.05 587 8270 (1999) 53 (1954) 1290 142 233 362 400 721 1470 1730 2820 5290
2026-03-17 08:30 4.06 592 8270 (1999) 53 (1954) 1290 142 233 362 400 721 1470 1730 2820 5290
2026-03-17 07:30 4.07 598 8270 (1999) 53 (1954) 1290 142 233 362 400 721 1470 1730 2820 5290
2026-03-17 06:30 4.07 598 8270 (1999) 53 (1954) 1290 142 233 362 400 721 1470 1730 2820 5290
2026-03-17 05:30 4.08 604 8270 (1999) 53 (1954) 1290 142 233 362 400 721 1470 1730 2820 5290
2026-03-17 04:30 4.09 609 8270 (1999) 53 (1954) 1290 142 233 362 400 721 1470 1730 2820 5290
2026-03-17 03:30 4.09 609 8270 (1999) 53 (1954) 1290 142 233 362 400 721 1470 1730 2820 5290
2026-03-17 02:30 4.10 615 8270 (1999) 53 (1954) 1290 142 233 362 400 721 1470 1730 2820 5290
2026-03-17 01:30 4.11 621 8270 (1999) 53 (1954) 1290 142 233 362 400 721 1470 1730 2820 5290
2026-03-17 00:30 4.12 627 8270 (1999) 53 (1954) 1290 142 233 362 400 721 1470 1730 2820 5290
2026-03-16 23:30 4.13 632 8270 (1999) 53 (1954) 1290 142 233 362 400 721 1470 1730 2820 5290
2026-03-16 22:30 4.14 638 9680 (1990) 53 (1954) 1300 151 224 363 393 745 1410 1700 3070 4930
2026-03-16 21:30 4.15 644 9680 (1990) 53 (1954) 1300 151 224 363 393 745 1410 1700 3070 4930
2026-03-16 20:30 4.15 644 9680 (1990) 53 (1954) 1300 151 224 363 393 745 1410 1700 3070 4930
2026-03-16 19:30 4.16 650 9680 (1990) 53 (1954) 1300 151 224 363 393 745 1410 1700 3070 4930
2026-03-16 18:30 4.17 656 9680 (1990) 53 (1954) 1300 151 224 363 393 745 1410 1700 3070 4930
2026-03-16 17:30 4.18 662 9680 (1990) 53 (1954) 1300 151 224 363 393 745 1410 1700 3070 4930
2026-03-16 16:30 4.19 668 9680 (1990) 53 (1954) 1300 151 224 363 393 745 1410 1700 3070 4930
2026-03-16 15:30 4.20 674 9680 (1990) 53 (1954) 1300 151 224 363 393 745 1410 1700 3070 4930
2026-03-16 14:30 4.19 668 9680 (1990) 53 (1954) 1300 151 224 363 393 745 1410 1700 3070 4930
2026-03-16 13:30 4.19 668 9680 (1990) 53 (1954) 1300 151 224 363 393 745 1410 1700 3070 4930
2026-03-16 12:30 4.21 680 9680 (1990) 53 (1954) 1300 151 224 363 393 745 1410 1700 3070 4930
2026-03-16 11:30 4.22 686 9680 (1990) 53 (1954) 1300 151 224 363 393 745 1410 1700 3070 4930
2026-03-16 10:30 4.22 686 9680 (1990) 53 (1954) 1300 151 224 363 393 745 1410 1700 3070 4930
2026-03-16 09:30 4.23 692 9680 (1990) 53 (1954) 1300 151 224 363 393 745 1410 1700 3070 4930
2026-03-16 08:30 4.24 699 9680 (1990) 53 (1954) 1300 151 224 363 393 745 1410 1700 3070 4930
2026-03-16 07:30 4.25 705 9680 (1990) 53 (1954) 1300 151 224 363 393 745 1410 1700 3070 4930
2026-03-16 06:30 4.26 711 9680 (1990) 53 (1954) 1300 151 224 363 393 745 1410 1700 3070 4930
2026-03-16 05:30 4.25 705 9680 (1990) 53 (1954) 1300 151 224 363 393 745 1410 1700 3070 4930
2026-03-16 04:30 4.27 717 9680 (1990) 53 (1954) 1300 151 224 363 393 745 1410 1700 3070 4930
2026-03-16 03:30 4.27 717 9680 (1990) 53 (1954) 1300 151 224 363 393 745 1410 1700 3070 4930
2026-03-16 02:30 4.27 717 9680 (1990) 53 (1954) 1300 151 224 363 393 745 1410 1700 3070 4930
2026-03-16 01:30 4.29 730 9680 (1990) 53 (1954) 1300 151 224 363 393 745 1410 1700 3070 4930
2026-03-16 00:30 4.29 730 9680 (1990) 53 (1954) 1300 151 224 363 393 745 1410 1700 3070 4930
2026-03-15 23:30 4.29 730 9680 (1990) 53 (1954) 1300 151 224 363 393 745 1410 1700 3070 4930
2026-03-15 22:30 4.30 736 23900 (1990) 53 (1954) 1510 154 227 368 407 749 1320 1700 2960 4710
2026-03-15 21:30 4.31 743 23900 (1990) 53 (1954) 1510 154 227 368 407 749 1320 1700 2960 4710
2026-03-15 20:30 4.33 756 23900 (1990) 53 (1954) 1510 154 227 368 407 749 1320 1700 2960 4710
2026-03-15 19:30 4.33 756 23900 (1990) 53 (1954) 1510 154 227 368 407 749 1320 1700 2960 4710
2026-03-15 18:30 4.34 762 23900 (1990) 53 (1954) 1510 154 227 368 407 749 1320 1700 2960 4710
2026-03-15 17:30 4.34 762 23900 (1990) 53 (1954) 1510 154 227 368 407 749 1320 1700 2960 4710
2026-03-15 16:30 4.35 769 23900 (1990) 53 (1954) 1510 154 227 368 407 749 1320 1700 2960 4710
2026-03-15 15:30 4.35 769 23900 (1990) 53 (1954) 1510 154 227 368 407 749 1320 1700 2960 4710
2026-03-15 14:30 4.36 775 23900 (1990) 53 (1954) 1510 154 227 368 407 749 1320 1700 2960 4710
2026-03-15 13:30 4.37 782 23900 (1990) 53 (1954) 1510 154 227 368 407 749 1320 1700 2960 4710
2026-03-15 12:30 4.38 789 23900 (1990) 53 (1954) 1510 154 227 368 407 749 1320 1700 2960 4710
2026-03-15 11:30 4.40 802 23900 (1990) 53 (1954) 1510 154 227 368 407 749 1320 1700 2960 4710
2026-03-15 10:30 4.41 809 23900 (1990) 53 (1954) 1510 154 227 368 407 749 1320 1700 2960 4710
2026-03-15 09:30 4.41 809 23900 (1990) 53 (1954) 1510 154 227 368 407 749 1320 1700 2960 4710
2026-03-15 08:30 4.42 816 23900 (1990) 53 (1954) 1510 154 227 368 407 749 1320 1700 2960 4710
2026-03-15 07:30 4.43 822 23900 (1990) 53 (1954) 1510 154 227 368 407 749 1320 1700 2960 4710
2026-03-15 06:30 4.43 822 23900 (1990) 53 (1954) 1510 154 227 368 407 749 1320 1700 2960 4710
2026-03-15 05:30 4.45 836 23900 (1990) 53 (1954) 1510 154 227 368 407 749 1320 1700 2960 4710
2026-03-15 04:30 4.45 836 23900 (1990) 53 (1954) 1510 154 227 368 407 749 1320 1700 2960 4710
2026-03-15 03:30 4.47 850 23900 (1990) 53 (1954) 1510 154 227 368 407 749 1320 1700 2960 4710
2026-03-15 02:30 4.48 857 23900 (1990) 53 (1954) 1510 154 227 368 407 749 1320 1700 2960 4710
2026-03-15 01:30 4.49 864 23900 (1990) 53 (1954) 1510 154 227 368 407 749 1320 1700 2960 4710
2026-03-15 00:30 4.49 864 23900 (1990) 53 (1954) 1510 154 227 368 407 749 1320 1700 2960 4710
2026-03-14 23:30 4.50 871 23900 (1990) 53 (1954) 1510 154 227 368 407 749 1320 1700 2960 4710
2026-03-14 22:30 4.51 878 13900 (2021) 55 (1954) 1330 152 230 364 400 767 1300 1470 3310 4190
2026-03-14 21:30 4.52 885 13900 (2021) 55 (1954) 1330 152 230 364 400 767 1300 1470 3310 4190
2026-03-14 20:30 4.53 892 13900 (2021) 55 (1954) 1330 152 230 364 400 767 1300 1470 3310 4190
2026-03-14 19:30 4.55 907 13900 (2021) 55 (1954) 1330 152 230 364 400 767 1300 1470 3310 4190
2026-03-14 18:30 4.56 914 13900 (2021) 55 (1954) 1330 152 230 364 400 767 1300 1470 3310 4190
2026-03-14 17:30 4.58 928 13900 (2021) 55 (1954) 1330 152 230 364 400 767 1300 1470 3310 4190
2026-03-14 16:30 4.59 936 13900 (2021) 55 (1954) 1330 152 230 364 400 767 1300 1470 3310 4190
2026-03-14 15:30 4.61 951 13900 (2021) 55 (1954) 1330 152 230 364 400 767 1300 1470 3310 4190
2026-03-14 14:30 4.62 958 13900 (2021) 55 (1954) 1330 152 230 364 400 767 1300 1470 3310 4190
2026-03-14 13:30 4.64 973 13900 (2021) 55 (1954) 1330 152 230 364 400 767 1300 1470 3310 4190
2026-03-14 12:30 4.65 980 13900 (2021) 55 (1954) 1330 152 230 364 400 767 1300 1470 3310 4190
2026-03-14 11:30 4.66 988 13900 (2021) 55 (1954) 1330 152 230 364 400 767 1300 1470 3310 4190
2026-03-14 10:30 4.67 996 13900 (2021) 55 (1954) 1330 152 230 364 400 767 1300 1470 3310 4190
2026-03-14 09:30 4.69 1010 13900 (2021) 55 (1954) 1330 152 230 364 400 767 1300 1470 3310 4190
2026-03-14 08:30 4.71 1030 13900 (2021) 55 (1954) 1330 152 230 364 400 767 1300 1470 3310 4190
2026-03-14 07:30 4.73 1040 13900 (2021) 55 (1954) 1330 152 230 364 400 767 1300 1470 3310 4190
2026-03-14 06:30 4.74 1050 13900 (2021) 55 (1954) 1330 152 230 364 400 767 1300 1470 3310 4190
2026-03-14 05:30 4.76 1070 13900 (2021) 55 (1954) 1330 152 230 364 400 767 1300 1470 3310 4190
2026-03-14 04:30 4.77 1070 13900 (2021) 55 (1954) 1330 152 230 364 400 767 1300 1470 3310 4190
2026-03-14 03:30 4.79 1090 13900 (2021) 55 (1954) 1330 152 230 364 400 767 1300 1470 3310 4190
2026-03-14 02:30 4.80 1100 13900 (2021) 55 (1954) 1330 152 230 364 400 767 1300 1470 3310 4190
2026-03-14 01:30 4.81 1110 13900 (2021) 55 (1954) 1330 152 230 364 400 767 1300 1470 3310 4190
2026-03-14 00:30 4.82 1110 13900 (2021) 55 (1954) 1330 152 230 364 400 767 1300 1470 3310 4190
2026-03-13 23:30 4.83 1120 13900 (2021) 55 (1954) 1330 152 230 364 400 767 1300 1470 3310 4190
2026-03-13 22:30 4.84 1130 13900 (2021) 55 (1954) 1330 143 233 354 392 745 1310 1440 3760 5770
2026-03-13 21:30 4.84 1130 13900 (2021) 55 (1954) 1330 143 233 354 392 745 1310 1440 3760 5770
2026-03-13 20:30 4.86 1150 13900 (2021) 55 (1954) 1330 143 233 354 392 745 1310 1440 3760 5770
2026-03-13 19:30 4.86 1150 13900 (2021) 55 (1954) 1330 143 233 354 392 745 1310 1440 3760 5770
2026-03-13 18:30 4.88 1160 13900 (2021) 55 (1954) 1330 143 233 354 392 745 1310 1440 3760 5770
2026-03-13 17:30 4.89 1170 13900 (2021) 55 (1954) 1330 143 233 354 392 745 1310 1440 3760 5770
2026-03-13 16:30 4.90 1180 13900 (2021) 55 (1954) 1330 143 233 354 392 745 1310 1440 3760 5770
2026-03-13 15:30 4.91 1190 13900 (2021) 55 (1954) 1330 143 233 354 392 745 1310 1440 3760 5770
2026-03-13 14:30 4.92 1200 13900 (2021) 55 (1954) 1330 143 233 354 392 745 1310 1440 3760 5770
2026-03-13 13:30 4.93 1210 13900 (2021) 55 (1954) 1330 143 233 354 392 745 1310 1440 3760 5770
2026-03-13 12:30 4.94 1210 13900 (2021) 55 (1954) 1330 143 233 354 392 745 1310 1440 3760 5770
2026-03-13 11:30 4.95 1220 13900 (2021) 55 (1954) 1330 143 233 354 392 745 1310 1440 3760 5770
2026-03-13 10:30 4.97 1240 13900 (2021) 55 (1954) 1330 143 233 354 392 745 1310 1440 3760 5770
2026-03-13 09:30 4.97 1240 13900 (2021) 55 (1954) 1330 143 233 354 392 745 1310 1440 3760 5770
2026-03-13 08:30 4.98 1250 13900 (2021) 55 (1954) 1330 143 233 354 392 745 1310 1440 3760 5770
2026-03-13 07:30 5.00 1270 13900 (2021) 55 (1954) 1330 143 233 354 392 745 1310 1440 3760 5770
2026-03-13 06:30 5.01 1280 13900 (2021) 55 (1954) 1330 143 233 354 392 745 1310 1440 3760 5770
2026-03-13 05:30 5.03 1290 13900 (2021) 55 (1954) 1330 143 233 354 392 745 1310 1440 3760 5770
2026-03-13 04:30 5.04 1300 13900 (2021) 55 (1954) 1330 143 233 354 392 745 1310 1440 3760 5770
2026-03-13 03:30 5.06 1320 13900 (2021) 55 (1954) 1330 143 233 354 392 745 1310 1440 3760 5770
2026-03-13 02:30 5.08 1340 13900 (2021) 55 (1954) 1330 143 233 354 392 745 1310 1440 3760 5770
2026-03-13 01:30 5.09 1350 13900 (2021) 55 (1954) 1330 143 233 354 392 745 1310 1440 3760 5770
2026-03-13 00:30 5.11 1360 13900 (2021) 55 (1954) 1330 143 233 354 392 745 1310 1440 3760 5770
2026-03-12 23:30 5.12 1370 13900 (2021) 55 (1954) 1330 143 233 354 392 745 1310 1440 3760 5770
2026-03-12 22:30 5.13 1380 10900 (1974) 59 (1954) 1360 143 207 340 384 735 1150 1480 3240 6770
2026-03-12 21:30 5.14 1390 10900 (1974) 59 (1954) 1360 143 207 340 384 735 1150 1480 3240 6770
2026-03-12 20:30 5.16 1410 10900 (1974) 59 (1954) 1360 143 207 340 384 735 1150 1480 3240 6770
2026-03-12 19:30 5.18 1430 10900 (1974) 59 (1954) 1360 143 207 340 384 735 1150 1480 3240 6770
2026-03-12 18:30 5.19 1440 10900 (1974) 59 (1954) 1360 143 207 340 384 735 1150 1480 3240 6770
2026-03-12 17:30 5.21 1460 10900 (1974) 59 (1954) 1360 143 207 340 384 735 1150 1480 3240 6770
2026-03-12 16:30 5.23 1480 10900 (1974) 59 (1954) 1360 143 207 340 384 735 1150 1480 3240 6770
2026-03-12 15:30 5.24 1480 10900 (1974) 59 (1954) 1360 143 207 340 384 735 1150 1480 3240 6770
2026-03-12 14:30 5.26 1500 10900 (1974) 59 (1954) 1360 143 207 340 384 735 1150 1480 3240 6770
2026-03-12 13:30 5.26 1500 10900 (1974) 59 (1954) 1360 143 207 340 384 735 1150 1480 3240 6770
2026-03-12 12:30 5.27 1510 10900 (1974) 59 (1954) 1360 143 207 340 384 735 1150 1480 3240 6770
2026-03-12 11:30 5.28 1520 10900 (1974) 59 (1954) 1360 143 207 340 384 735 1150 1480 3240 6770
2026-03-12 10:30 5.29 1530 10900 (1974) 59 (1954) 1360 143 207 340 384 735 1150 1480 3240 6770
2026-03-12 09:30 5.30 1540 10900 (1974) 59 (1954) 1360 143 207 340 384 735 1150 1480 3240 6770
2026-03-12 08:30 5.30 1540 10900 (1974) 59 (1954) 1360 143 207 340 384 735 1150 1480 3240 6770
2026-03-12 07:30 5.31 1550 10900 (1974) 59 (1954) 1360 143 207 340 384 735 1150 1480 3240 6770
2026-03-12 06:30 5.31 1550 10900 (1974) 59 (1954) 1360 143 207 340 384 735 1150 1480 3240 6770
2026-03-12 05:30 5.31 1550 10900 (1974) 59 (1954) 1360 143 207 340 384 735 1150 1480 3240 6770
2026-03-12 04:30 5.31 1550 10900 (1974) 59 (1954) 1360 143 207 340 384 735 1150 1480 3240 6770
2026-03-12 03:30 5.30 1540 10900 (1974) 59 (1954) 1360 143 207 340 384 735 1150 1480 3240 6770
2026-03-12 02:30 5.31 1550 10900 (1974) 59 (1954) 1360 143 207 340 384 735 1150 1480 3240 6770
2026-03-12 01:30 5.31 1550 10900 (1974) 59 (1954) 1360 143 207 340 384 735 1150 1480 3240 6770
2026-03-12 00:30 5.31 1550 10900 (1974) 59 (1954) 1360 143 207 340 384 735 1150 1480 3240 6770
2026-03-11 23:30 5.32 1560 10900 (1974) 59 (1954) 1360 143 207 340 384 735 1150 1480 3240 6770
2026-03-11 22:30 5.32 1560 20400 (1973) 59 (1954) 1430 148 193 332 371 692 1250 1620 2360 5990
2026-03-11 21:30 5.33 1570 20400 (1973) 59 (1954) 1430 148 193 332 371 692 1250 1620 2360 5990
2026-03-11 20:30 5.33 1570 20400 (1973) 59 (1954) 1430 148 193 332 371 692 1250 1620 2360 5990
2026-03-11 19:30 5.34 1580 20400 (1973) 59 (1954) 1430 148 193 332 371 692 1250 1620 2360 5990
2026-03-11 18:30 5.35 1590 20400 (1973) 59 (1954) 1430 148 193 332 371 692 1250 1620 2360 5990
2026-03-11 17:30 5.36 1600 20400 (1973) 59 (1954) 1430 148 193 332 371 692 1250 1620 2360 5990
2026-03-11 16:30 5.37 1610 20400 (1973) 59 (1954) 1430 148 193 332 371 692 1250 1620 2360 5990
2026-03-11 15:30 5.39 1630 20400 (1973) 59 (1954) 1430 148 193 332 371 692 1250 1620 2360 5990
2026-03-11 14:30 5.40 1640 20400 (1973) 59 (1954) 1430 148 193 332 371 692 1250 1620 2360 5990
2026-03-11 13:30 5.42 1660 20400 (1973) 59 (1954) 1430 148 193 332 371 692 1250 1620 2360 5990
2026-03-11 12:30 5.43 1670 20400 (1973) 59 (1954) 1430 148 193 332 371 692 1250 1620 2360 5990
2026-03-11 11:30 5.45 1690 20400 (1973) 59 (1954) 1430 148 193 332 371 692 1250 1620 2360 5990
2026-03-11 10:30 5.47 1710 20400 (1973) 59 (1954) 1430 148 193 332 371 692 1250 1620 2360 5990
2026-03-11 09:30 5.48 1720 20400 (1973) 59 (1954) 1430 148 193 332 371 692 1250 1620 2360 5990
2026-03-11 08:30 5.50 1740 20400 (1973) 59 (1954) 1430 148 193 332 371 692 1250 1620 2360 5990
2026-03-11 07:30 5.52 1760 20400 (1973) 59 (1954) 1430 148 193 332 371 692 1250 1620 2360 5990
2026-03-11 06:30 5.54 1780 20400 (1973) 59 (1954) 1430 148 193 332 371 692 1250 1620 2360 5990
2026-03-11 05:30 5.56 1810 20400 (1973) 59 (1954) 1430 148 193 332 371 692 1250 1620 2360 5990
2026-03-11 04:30 5.57 1820 20400 (1973) 59 (1954) 1430 148 193 332 371 692 1250 1620 2360 5990
2026-03-11 03:30 5.59 1840 20400 (1973) 59 (1954) 1430 148 193 332 371 692 1250 1620 2360 5990
2026-03-11 02:30 5.61 1860 20400 (1973) 59 (1954) 1430 148 193 332 371 692 1250 1620 2360 5990
2026-03-11 01:30 5.62 1870 20400 (1973) 59 (1954) 1430 148 193 332 371 692 1250 1620 2360 5990
2026-03-11 00:30 5.65 1900 20400 (1973) 59 (1954) 1430 148 193 332 371 692 1250 1620 2360 5990
2026-03-10 23:30 5.66 1910 20400 (1973) 59 (1954) 1430 148 193 332 371 692 1250 1620 2360 5990
2026-03-10 22:30 5.67 1920 8610 (1973) 59 (1954) 1070 118 172 325 359 660 1320 1630 2370 2920
2026-03-10 21:30 5.68 1930 8610 (1973) 59 (1954) 1070 118 172 325 359 660 1320 1630 2370 2920
2026-03-10 20:30 5.70 1950 8610 (1973) 59 (1954) 1070 118 172 325 359 660 1320 1630 2370 2920
2026-03-10 19:30 5.72 1970 8610 (1973) 59 (1954) 1070 118 172 325 359 660 1320 1630 2370 2920
2026-03-10 18:30 5.74 2000 8610 (1973) 59 (1954) 1070 118 172 325 359 660 1320 1630 2370 2920
2026-03-10 17:30 5.76 2020 8610 (1973) 59 (1954) 1070 118 172 325 359 660 1320 1630 2370 2920
2026-03-10 16:30 5.79 2050 8610 (1973) 59 (1954) 1070 118 172 325 359 660 1320 1630 2370 2920
2026-03-10 15:30 5.81 2070 8610 (1973) 59 (1954) 1070 118 172 325 359 660 1320 1630 2370 2920
2026-03-10 14:30 5.83 2100 8610 (1973) 59 (1954) 1070 118 172 325 359 660 1320 1630 2370 2920
2026-03-10 13:30 5.86 2130 8610 (1973) 59 (1954) 1070 118 172 325 359 660 1320 1630 2370 2920
2026-03-10 12:30 5.88 2150 8610 (1973) 59 (1954) 1070 118 172 325 359 660 1320 1630 2370 2920
2026-03-10 11:30 5.91 2190 8610 (1973) 59 (1954) 1070 118 172 325 359 660 1320 1630 2370 2920
2026-03-10 10:30 5.93 2210 8610 (1973) 59 (1954) 1070 118 172 325 359 660 1320 1630 2370 2920
2026-03-10 09:30 5.96 2240 8610 (1973) 59 (1954) 1070 118 172 325 359 660 1320 1630 2370 2920
2026-03-10 08:30 5.99 2280 8610 (1973) 59 (1954) 1070 118 172 325 359 660 1320 1630 2370 2920
2026-03-10 07:30 6.01 2300 8610 (1973) 59 (1954) 1070 118 172 325 359 660 1320 1630 2370 2920
2026-03-10 06:30 6.04 2340 8610 (1973) 59 (1954) 1070 118 172 325 359 660 1320 1630 2370 2920
2026-03-10 05:30 6.07 2370 8610 (1973) 59 (1954) 1070 118 172 325 359 660 1320 1630 2370 2920
2026-03-10 04:30 6.11 2420 8610 (1973) 59 (1954) 1070 118 172 325 359 660 1320 1630 2370 2920
2026-03-10 03:30 6.14 2460 8610 (1973) 59 (1954) 1070 118 172 325 359 660 1320 1630 2370 2920
2026-03-10 02:30 6.17 2500 8610 (1973) 59 (1954) 1070 118 172 325 359 660 1320 1630 2370 2920
2026-03-10 01:30 6.20 2530 8610 (1973) 59 (1954) 1070 118 172 325 359 660 1320 1630 2370 2920
2026-03-10 00:30 6.24 2580 8610 (1973) 59 (1954) 1070 118 172 325 359 660 1320 1630 2370 2920
2026-03-09 23:30 6.28 2630 8610 (1973) 59 (1954) 1070 118 172 325 359 660 1320 1630 2370 2920
2026-03-09 22:30 6.31 2670 7000 (1999) 59 (1954) 1030 138 165 306 351 672 1220 1510 2420 3270
2026-03-09 21:30 6.34 2710 7000 (1999) 59 (1954) 1030 138 165 306 351 672 1220 1510 2420 3270
2026-03-09 20:30 6.37 2750 7000 (1999) 59 (1954) 1030 138 165 306 351 672 1220 1510 2420 3270
2026-03-09 19:30 6.41 2800 7000 (1999) 59 (1954) 1030 138 165 306 351 672 1220 1510 2420 3270
2026-03-09 18:30 6.45 2850 7000 (1999) 59 (1954) 1030 138 165 306 351 672 1220 1510 2420 3270
2026-03-09 17:30 6.49 2910 7000 (1999) 59 (1954) 1030 138 165 306 351 672 1220 1510 2420 3270
2026-03-09 16:30 6.53 2960 7000 (1999) 59 (1954) 1030 138 165 306 351 672 1220 1510 2420 3270
2026-03-09 15:30 6.57 3010 7000 (1999) 59 (1954) 1030 138 165 306 351 672 1220 1510 2420 3270
2026-03-09 14:30 6.61 3070 7000 (1999) 59 (1954) 1030 138 165 306 351 672 1220 1510 2420 3270
2026-03-09 13:30 6.66 3140 7000 (1999) 59 (1954) 1030 138 165 306 351 672 1220 1510 2420 3270
2026-03-09 12:30 6.71 3210 7000 (1999) 59 (1954) 1030 138 165 306 351 672 1220 1510 2420 3270
2026-03-09 11:30 6.75 3260 7000 (1999) 59 (1954) 1030 138 165 306 351 672 1220 1510 2420 3270
2026-03-09 10:30 6.80 3330 7000 (1999) 59 (1954) 1030 138 165 306 351 672 1220 1510 2420 3270
2026-03-09 09:30 6.85 3400 7000 (1999) 59 (1954) 1030 138 165 306 351 672 1220 1510 2420 3270
2026-03-09 08:30 6.89 3460 7000 (1999) 59 (1954) 1030 138 165 306 351 672 1220 1510 2420 3270
2026-03-09 07:30 6.95 3540 7000 (1999) 59 (1954) 1030 138 165 306 351 672 1220 1510 2420 3270
2026-03-09 06:30 6.99 3600 7000 (1999) 59 (1954) 1030 138 165 306 351 672 1220 1510 2420 3270
2026-03-09 05:30 7.05 3680 7000 (1999) 59 (1954) 1030 138 165 306 351 672 1220 1510 2420 3270
2026-03-09 04:30 7.11 3770 7000 (1999) 59 (1954) 1030 138 165 306 351 672 1220 1510 2420 3270
2026-03-09 03:30 7.17 3850 7000 (1999) 59 (1954) 1030 138 165 306 351 672 1220 1510 2420 3270
2026-03-09 02:30 7.24 3950 7000 (1999) 59 (1954) 1030 138 165 306 351 672 1220 1510 2420 3270
2026-03-09 01:30 7.31 4060 7000 (1999) 59 (1954) 1030 138 165 306 351 672 1220 1510 2420 3270
2026-03-09 00:30 7.38 4160 7000 (1999) 59 (1954) 1030 138 165 306 351 672 1220 1510 2420 3270
2026-03-08 23:30 7.47 4280 7000 (1999) 59 (1954) 1030 138 165 306 351 672 1220 1510 2420 3270
2026-03-08 22:30 7.55 4400 5270 (1994) 61 (1954) 1020 121 166 283 339 704 1200 1640 2190 4390
2026-03-08 21:30 7.61 4480 5270 (1994) 61 (1954) 1020 121 166 283 339 704 1200 1640 2190 4390
2026-03-08 20:30 7.69 4600 5270 (1994) 61 (1954) 1020 121 166 283 339 704 1200 1640 2190 4390
2026-03-08 19:30 7.78 4730 5270 (1994) 61 (1954) 1020 121 166 283 339 704 1200 1640 2190 4390
2026-03-08 18:30 7.87 4870 5270 (1994) 61 (1954) 1020 121 166 283 339 704 1200 1640 2190 4390
2026-03-08 17:30 7.96 5000 5270 (1994) 61 (1954) 1020 121 166 283 339 704 1200 1640 2190 4390
2026-03-08 16:30 8.07 5170 5270 (1994) 61 (1954) 1020 121 166 283 339 704 1200 1640 2190 4390
2026-03-08 15:30 8.19 5360 5270 (1994) 61 (1954) 1020 121 166 283 339 704 1200 1640 2190 4390
2026-03-08 14:30 8.30 5530 5270 (1994) 61 (1954) 1020 121 166 283 339 704 1200 1640 2190 4390
2026-03-08 13:30 8.41 5710 5270 (1994) 61 (1954) 1020 121 166 283 339 704 1200 1640 2190 4390
2026-03-08 12:30 8.55 5940 5270 (1994) 61 (1954) 1020 121 166 283 339 704 1200 1640 2190 4390
2026-03-08 11:30 8.71 6210 5270 (1994) 61 (1954) 1020 121 166 283 339 704 1200 1640 2190 4390
2026-03-08 10:30 8.85 6450 5270 (1994) 61 (1954) 1020 121 166 283 339 704 1200 1640 2190 4390
2026-03-08 09:30 9.04 6780 5270 (1994) 61 (1954) 1020 121 166 283 339 704 1200 1640 2190 4390
2026-03-08 08:30 9.25 7150 5270 (1994) 61 (1954) 1020 121 166 283 339 704 1200 1640 2190 4390
2026-03-08 07:30 9.50 7620 5270 (1994) 61 (1954) 1020 121 166 283 339 704 1200 1640 2190 4390
2026-03-08 06:30 9.76 8110 5270 (1994) 61 (1954) 1020 121 166 283 339 704 1200 1640 2190 4390
2026-03-08 05:30 10.06 8700 5270 (1994) 61 (1954) 1020 121 166 283 339 704 1200 1640 2190 4390
2026-03-08 04:30 10.35 9290 5270 (1994) 61 (1954) 1020 121 166 283 339 704 1200 1640 2190 4390
2026-03-08 03:30 10.61 9830 5270 (1994) 61 (1954) 1020 121 166 283 339 704 1200 1640 2190 4390
2026-03-08 01:30 10.84 10300 5270 (1994) 61 (1954) 1020 121 166 283 339 704 1200 1640 2190 4390
2026-03-08 00:30 10.95 10600 5270 (1994) 61 (1954) 1020 121 166 283 339 704 1200 1640 2190 4390
2026-03-07 23:30 10.93 10500 5270 (1994) 61 (1954) 1020 121 166 283 339 704 1200 1640 2190 4390
2026-03-07 22:30 10.80 10200 9850 (1945) 63 (1954) 1060 109 167 268 318 675 1280 1530 2410 3110
2026-03-07 21:30 10.45 9510 9850 (1945) 63 (1954) 1060 109 167 268 318 675 1280 1530 2410 3110
2026-03-07 20:30 10.14 8870 9850 (1945) 63 (1954) 1060 109 167 268 318 675 1280 1530 2410 3110
2026-03-07 19:30 9.78 8150 9850 (1945) 63 (1954) 1060 109 167 268 318 675 1280 1530 2410 3110
2026-03-07 18:30 9.33 7300 9850 (1945) 63 (1954) 1060 109 167 268 318 675 1280 1530 2410 3110
2026-03-07 17:30 8.87 6480 9850 (1945) 63 (1954) 1060 109 167 268 318 675 1280 1530 2410 3110
2026-03-07 16:30 8.51 5870 9850 (1945) 63 (1954) 1060 109 167 268 318 675 1280 1530 2410 3110
2026-03-07 15:30 8.23 5420 9850 (1945) 63 (1954) 1060 109 167 268 318 675 1280 1530 2410 3110
2026-03-07 14:30 8.02 5090 9850 (1945) 63 (1954) 1060 109 167 268 318 675 1280 1530 2410 3110
2026-03-07 13:30 7.79 4750 9850 (1945) 63 (1954) 1060 109 167 268 318 675 1280 1530 2410 3110
2026-03-07 12:30 7.56 4410 9850 (1945) 63 (1954) 1060 109 167 268 318 675 1280 1530 2410 3110
2026-03-07 11:30 7.32 4070 9850 (1945) 63 (1954) 1060 109 167 268 318 675 1280 1530 2410 3110
2026-03-07 10:30 7.06 3700 9850 (1945) 63 (1954) 1060 109 167 268 318 675 1280 1530 2410 3110
2026-03-07 09:30 6.79 3320 9850 (1945) 63 (1954) 1060 109 167 268 318 675 1280 1530 2410 3110
2026-03-07 08:30 6.60 3050 9850 (1945) 63 (1954) 1060 109 167 268 318 675 1280 1530 2410 3110
2026-03-07 07:30 6.53 2960 9850 (1945) 63 (1954) 1060 109 167 268 318 675 1280 1530 2410 3110
2026-03-07 06:30 6.51 2930 9850 (1945) 63 (1954) 1060 109 167 268 318 675 1280 1530 2410 3110
2026-03-07 05:30 6.50 2920 9850 (1945) 63 (1954) 1060 109 167 268 318 675 1280 1530 2410 3110
2026-03-07 04:30 6.49 2910 9850 (1945) 63 (1954) 1060 109 167 268 318 675 1280 1530 2410 3110
2026-03-07 03:30 6.44 2840 9850 (1945) 63 (1954) 1060 109 167 268 318 675 1280 1530 2410 3110
2026-03-07 02:30 6.41 2800 9850 (1945) 63 (1954) 1060 109 167 268 318 675 1280 1530 2410 3110
2026-03-07 01:30 6.49 2910 9850 (1945) 63 (1954) 1060 109 167 268 318 675 1280 1530 2410 3110
2026-03-07 00:30 6.59 3040 9850 (1945) 63 (1954) 1060 109 167 268 318 675 1280 1530 2410 3110
2026-03-06 23:30 6.67 3150 9850 (1945) 63 (1954) 1060 109 167 268 318 675 1280 1530 2410 3110
2026-03-06 22:30 6.53 2960 6390 (1945) 65 (1954) 1040 102 169 273 323 645 1220 1450 2890 3400
2026-03-06 21:30 6.52 2950 6390 (1945) 65 (1954) 1040 102 169 273 323 645 1220 1450 2890 3400
2026-03-06 20:30 6.56 3000 6390 (1945) 65 (1954) 1040 102 169 273 323 645 1220 1450 2890 3400
2026-03-06 19:30 6.62 3080 6390 (1945) 65 (1954) 1040 102 169 273 323 645 1220 1450 2890 3400
2026-03-06 18:30 6.68 3160 6390 (1945) 65 (1954) 1040 102 169 273 323 645 1220 1450 2890 3400
2026-03-06 17:30 6.75 3260 6390 (1945) 65 (1954) 1040 102 169 273 323 645 1220 1450 2890 3400
2026-03-06 16:30 6.83 3370 6390 (1945) 65 (1954) 1040 102 169 273 323 645 1220 1450 2890 3400
2026-03-06 15:30 6.91 3490 6390 (1945) 65 (1954) 1040 102 169 273 323 645 1220 1450 2890 3400
2026-03-06 14:30 7.00 3610 6390 (1945) 65 (1954) 1040 102 169 273 323 645 1220 1450 2890 3400
2026-03-06 13:30 7.09 3740 6390 (1945) 65 (1954) 1040 102 169 273 323 645 1220 1450 2890 3400
2026-03-06 12:30 7.20 3900 6390 (1945) 65 (1954) 1040 102 169 273 323 645 1220 1450 2890 3400
2026-03-06 11:30 7.31 4060 6390 (1945) 65 (1954) 1040 102 169 273 323 645 1220 1450 2890 3400
2026-03-06 10:30 7.45 4260 6390 (1945) 65 (1954) 1040 102 169 273 323 645 1220 1450 2890 3400
2026-03-06 09:30 7.57 4430 6390 (1945) 65 (1954) 1040 102 169 273 323 645 1220 1450 2890 3400
2026-03-06 08:30 7.69 4600 6390 (1945) 65 (1954) 1040 102 169 273 323 645 1220 1450 2890 3400
2026-03-06 07:30 7.83 4810 6390 (1945) 65 (1954) 1040 102 169 273 323 645 1220 1450 2890 3400
2026-03-06 06:30 8.00 5060 6390 (1945) 65 (1954) 1040 102 169 273 323 645 1220 1450 2890 3400
2026-03-06 05:30 8.18 5340 6390 (1945) 65 (1954) 1040 102 169 273 323 645 1220 1450 2890 3400
2026-03-06 04:30 8.37 5650 6390 (1945) 65 (1954) 1040 102 169 273 323 645 1220 1450 2890 3400
2026-03-06 03:30 8.57 5970 6390 (1945) 65 (1954) 1040 102 169 273 323 645 1220 1450 2890 3400
2026-03-06 02:30 8.80 6360 6390 (1945) 65 (1954) 1040 102 169 273 323 645 1220 1450 2890 3400
2026-03-06 01:30 9.01 6730 6390 (1945) 65 (1954) 1040 102 169 273 323 645 1220 1450 2890 3400
2026-03-06 00:30 9.20 7060 6390 (1945) 65 (1954) 1040 102 169 273 323 645 1220 1450 2890 3400
2026-03-05 23:30 9.35 7340 6390 (1945) 65 (1954) 1040 102 169 273 323 645 1220 1450 2890 3400
2026-03-05 22:30 9.46 7540 10600 (2004) 65 (1954) 1170 101 172 267 326 665 1360 1570 2650 4420
2026-03-05 21:30 9.52 7650 10600 (2004) 65 (1954) 1170 101 172 267 326 665 1360 1570 2650 4420
2026-03-05 20:30 9.53 7670 10600 (2004) 65 (1954) 1170 101 172 267 326 665 1360 1570 2650 4420
2026-03-05 19:30 9.51 7630 10600 (2004) 65 (1954) 1170 101 172 267 326 665 1360 1570 2650 4420
2026-03-05 18:30 9.51 7630 10600 (2004) 65 (1954) 1170 101 172 267 326 665 1360 1570 2650 4420
2026-03-05 17:30 9.19 7050 10600 (2004) 65 (1954) 1170 101 172 267 326 665 1360 1570 2650 4420
2026-03-05 16:30 8.50 5860 10600 (2004) 65 (1954) 1170 101 172 267 326 665 1360 1570 2650 4420
2026-03-05 15:30 6.44 2840 10600 (2004) 65 (1954) 1170 101 172 267 326 665 1360 1570 2650 4420
2026-03-05 14:30 5.39 1630 10600 (2004) 65 (1954) 1170 101 172 267 326 665 1360 1570 2650 4420
2026-03-05 13:30 4.76 1070 10600 (2004) 65 (1954) 1170 101 172 267 326 665 1360 1570 2650 4420
2026-03-05 12:30 4.30 736 10600 (2004) 65 (1954) 1170 101 172 267 326 665 1360 1570 2650 4420
2026-03-05 11:30 4.08 604 10600 (2004) 65 (1954) 1170 101 172 267 326 665 1360 1570 2650 4420
2026-03-05 10:30 3.97 543 10600 (2004) 65 (1954) 1170 101 172 267 326 665 1360 1570 2650 4420
2026-03-05 09:30 3.87 491 10600 (2004) 65 (1954) 1170 101 172 267 326 665 1360 1570 2650 4420
2026-03-05 08:30 3.77 442 10600 (2004) 65 (1954) 1170 101 172 267 326 665 1360 1570 2650 4420
2026-03-05 07:30 3.67 396 10600 (2004) 65 (1954) 1170 101 172 267 326 665 1360 1570 2650 4420
2026-03-05 06:30 3.59 361 10600 (2004) 65 (1954) 1170 101 172 267 326 665 1360 1570 2650 4420
2026-03-05 05:30 3.55 345 10600 (2004) 65 (1954) 1170 101 172 267 326 665 1360 1570 2650 4420
2026-03-05 04:30 3.52 333 10600 (2004) 65 (1954) 1170 101 172 267 326 665 1360 1570 2650 4420
2026-03-05 03:30 3.50 325 10600 (2004) 65 (1954) 1170 101 172 267 326 665 1360 1570 2650 4420
2026-03-05 02:30 3.50 325 10600 (2004) 65 (1954) 1170 101 172 267 326 665 1360 1570 2650 4420
2026-03-05 01:30 3.50 325 10600 (2004) 65 (1954) 1170 101 172 267 326 665 1360 1570 2650 4420
2026-03-05 00:30 3.49 321 10600 (2004) 65 (1954) 1170 101 172 267 326 665 1360 1570 2650 4420
2026-03-04 23:30 3.49 321 10600 (2004) 65 (1954) 1170 101 172 267 326 665 1360 1570 2650 4420
2026-03-04 22:30 3.44 301 8460 (2023) 68 (1954) 1150 101 168 252 311 670 1300 1670 2550 5280
2026-03-04 21:30 3.44 301 8460 (2023) 68 (1954) 1150 101 168 252 311 670 1300 1670 2550 5280
2026-03-04 20:30 3.42 294 8460 (2023) 68 (1954) 1150 101 168 252 311 670 1300 1670 2550 5280
2026-03-04 19:30 3.40 286 8460 (2023) 68 (1954) 1150 101 168 252 311 670 1300 1670 2550 5280
2026-03-04 18:30 3.37 276 8460 (2023) 68 (1954) 1150 101 168 252 311 670 1300 1670 2550 5280
2026-03-04 17:30 3.36 272 8460 (2023) 68 (1954) 1150 101 168 252 311 670 1300 1670 2550 5280
2026-03-04 16:30 3.35 268 8460 (2023) 68 (1954) 1150 101 168 252 311 670 1300 1670 2550 5280
2026-03-04 15:30 3.35 268 8460 (2023) 68 (1954) 1150 101 168 252 311 670 1300 1670 2550 5280
2026-03-04 14:30 3.35 268 8460 (2023) 68 (1954) 1150 101 168 252 311 670 1300 1670 2550 5280
2026-03-04 13:30 3.34 265 8460 (2023) 68 (1954) 1150 101 168 252 311 670 1300 1670 2550 5280
2026-03-04 12:30 3.33 261 8460 (2023) 68 (1954) 1150 101 168 252 311 670 1300 1670 2550 5280
2026-03-04 11:30 3.32 258 8460 (2023) 68 (1954) 1150 101 168 252 311 670 1300 1670 2550 5280
2026-03-04 10:30 3.31 254 8460 (2023) 68 (1954) 1150 101 168 252 311 670 1300 1670 2550 5280
2026-03-04 09:30 3.29 248 8460 (2023) 68 (1954) 1150 101 168 252 311 670 1300 1670 2550 5280
2026-03-04 08:30 3.26 238 8460 (2023) 68 (1954) 1150 101 168 252 311 670 1300 1670 2550 5280
2026-03-04 07:30 3.26 238 8460 (2023) 68 (1954) 1150 101 168 252 311 670 1300 1670 2550 5280
2026-03-04 06:30 3.25 234 8460 (2023) 68 (1954) 1150 101 168 252 311 670 1300 1670 2550 5280
2026-03-04 05:30 3.25 234 8460 (2023) 68 (1954) 1150 101 168 252 311 670 1300 1670 2550 5280
2026-03-04 04:30 3.25 234 8460 (2023) 68 (1954) 1150 101 168 252 311 670 1300 1670 2550 5280
2026-03-04 03:30 3.25 234 8460 (2023) 68 (1954) 1150 101 168 252 311 670 1300 1670 2550 5280
2026-03-04 02:30 3.26 238 8460 (2023) 68 (1954) 1150 101 168 252 311 670 1300 1670 2550 5280
2026-03-04 01:30 3.26 238 8460 (2023) 68 (1954) 1150 101 168 252 311 670 1300 1670 2550 5280
2026-03-04 00:30 3.26 238 8460 (2023) 68 (1954) 1150 101 168 252 311 670 1300 1670 2550 5280
2026-03-03 23:30 3.26 238 8460 (2023) 68 (1954) 1150 101 168 252 311 670 1300 1670 2550 5280
2026-03-03 22:30 3.26 238 18000 (1945) 66 (1964) 1100 103 169 235 299 636 1190 1580 2200 3330
2026-03-03 21:30 3.26 238 18000 (1945) 66 (1964) 1100 103 169 235 299 636 1190 1580 2200 3330
2026-03-03 20:30 3.27 241 18000 (1945) 66 (1964) 1100 103 169 235 299 636 1190 1580 2200 3330
2026-03-03 19:30 3.26 238 18000 (1945) 66 (1964) 1100 103 169 235 299 636 1190 1580 2200 3330
2026-03-03 18:30 3.26 238 18000 (1945) 66 (1964) 1100 103 169 235 299 636 1190 1580 2200 3330
2026-03-03 17:30 3.25 234 18000 (1945) 66 (1964) 1100 103 169 235 299 636 1190 1580 2200 3330
2026-03-03 16:30 3.25 234 18000 (1945) 66 (1964) 1100 103 169 235 299 636 1190 1580 2200 3330
2026-03-03 15:30 3.25 234 18000 (1945) 66 (1964) 1100 103 169 235 299 636 1190 1580 2200 3330
2026-03-03 14:30 3.25 234 18000 (1945) 66 (1964) 1100 103 169 235 299 636 1190 1580 2200 3330
2026-03-03 13:30 3.24 231 18000 (1945) 66 (1964) 1100 103 169 235 299 636 1190 1580 2200 3330
2026-03-03 12:30 3.22 225 18000 (1945) 66 (1964) 1100 103 169 235 299 636 1190 1580 2200 3330
2026-03-03 11:30 3.21 221 18000 (1945) 66 (1964) 1100 103 169 235 299 636 1190 1580 2200 3330
2026-03-03 10:30 3.20 218 18000 (1945) 66 (1964) 1100 103 169 235 299 636 1190 1580 2200 3330
2026-03-03 09:30 3.17 209 18000 (1945) 66 (1964) 1100 103 169 235 299 636 1190 1580 2200 3330
2026-03-03 08:30 3.15 203 18000 (1945) 66 (1964) 1100 103 169 235 299 636 1190 1580 2200 3330
2026-03-03 07:30 3.12 194 18000 (1945) 66 (1964) 1100 103 169 235 299 636 1190 1580 2200 3330
2026-03-03 06:30 3.09 185 18000 (1945) 66 (1964) 1100 103 169 235 299 636 1190 1580 2200 3330
2026-03-03 05:30 3.06 177 18000 (1945) 66 (1964) 1100 103 169 235 299 636 1190 1580 2200 3330
2026-03-03 04:30 3.04 171 18000 (1945) 66 (1964) 1100 103 169 235 299 636 1190 1580 2200 3330
2026-03-03 03:30 3.01 163 18000 (1945) 66 (1964) 1100 103 169 235 299 636 1190 1580 2200 3330
2026-03-03 02:30 2.99 158 18000 (1945) 66 (1964) 1100 103 169 235 299 636 1190 1580 2200 3330
2026-03-03 01:30 2.98 156 18000 (1945) 66 (1964) 1100 103 169 235 299 636 1190 1580 2200 3330
2026-03-03 00:30 2.97 153 18000 (1945) 66 (1964) 1100 103 169 235 299 636 1190 1580 2200 3330
2026-03-02 23:30 2.96 151 18000 (1945) 66 (1964) 1100 103 169 235 299 636 1190 1580 2200 3330
2026-03-02 22:30 2.95 148 6070 (1987) 65 (1964) 916 104 174 219 285 590 1080 1350 2170 2860
2026-03-02 21:30 2.95 148 6070 (1987) 65 (1964) 916 104 174 219 285 590 1080 1350 2170 2860
2026-03-02 20:30 2.95 148 6070 (1987) 65 (1964) 916 104 174 219 285 590 1080 1350 2170 2860
2026-03-02 19:30 2.94 146 6070 (1987) 65 (1964) 916 104 174 219 285 590 1080 1350 2170 2860
2026-03-02 18:30 2.94 146 6070 (1987) 65 (1964) 916 104 174 219 285 590 1080 1350 2170 2860
2026-03-02 17:30 2.93 143 6070 (1987) 65 (1964) 916 104 174 219 285 590 1080 1350 2170 2860
2026-03-02 16:30 2.92 141 6070 (1987) 65 (1964) 916 104 174 219 285 590 1080 1350 2170 2860
2026-03-02 15:30 2.91 138 6070 (1987) 65 (1964) 916 104 174 219 285 590 1080 1350 2170 2860
2026-03-02 14:30 2.90 136 6070 (1987) 65 (1964) 916 104 174 219 285 590 1080 1350 2170 2860
2026-03-02 13:30 2.90 136 6070 (1987) 65 (1964) 916 104 174 219 285 590 1080 1350 2170 2860
2026-03-02 12:30 2.90 136 6070 (1987) 65 (1964) 916 104 174 219 285 590 1080 1350 2170 2860
2026-03-02 11:30 2.88 131 6070 (1987) 65 (1964) 916 104 174 219 285 590 1080 1350 2170 2860
2026-03-02 10:30 2.92 141 6070 (1987) 65 (1964) 916 104 174 219 285 590 1080 1350 2170 2860
2026-03-02 09:30 2.91 138 6070 (1987) 65 (1964) 916 104 174 219 285 590 1080 1350 2170 2860
2026-03-02 08:30 2.95 148 6070 (1987) 65 (1964) 916 104 174 219 285 590 1080 1350 2170 2860
2026-03-02 07:30 2.99 158 6070 (1987) 65 (1964) 916 104 174 219 285 590 1080 1350 2170 2860
2026-03-02 06:30 2.99 158 6070 (1987) 65 (1964) 916 104 174 219 285 590 1080 1350 2170 2860
2026-03-02 05:30 2.99 158 6070 (1987) 65 (1964) 916 104 174 219 285 590 1080 1350 2170 2860
2026-03-02 04:30 2.99 158 6070 (1987) 65 (1964) 916 104 174 219 285 590 1080 1350 2170 2860
2026-03-02 03:30 2.99 158 6070 (1987) 65 (1964) 916 104 174 219 285 590 1080 1350 2170 2860
2026-03-02 02:30 2.99 158 6070 (1987) 65 (1964) 916 104 174 219 285 590 1080 1350 2170 2860
2026-03-02 01:30 2.99 158 6070 (1987) 65 (1964) 916 104 174 219 285 590 1080 1350 2170 2860
2026-03-02 00:30 2.97 153 6070 (1987) 65 (1964) 916 104 174 219 285 590 1080 1350 2170 2860
2026-03-01 23:30 2.95 148 6070 (1987) 65 (1964) 916 104 174 219 285 590 1080 1350 2170 2860
2026-03-01 22:30 2.95 148 7390 (1987) 66 (1964) 931 107 169 211 290 588 1100 1270 2360 3110
2026-03-01 21:30 2.95 148 7390 (1987) 66 (1964) 931 107 169 211 290 588 1100 1270 2360 3110
2026-03-01 20:30 2.95 148 7390 (1987) 66 (1964) 931 107 169 211 290 588 1100 1270 2360 3110
2026-03-01 19:30 2.93 143 7390 (1987) 66 (1964) 931 107 169 211 290 588 1100 1270 2360 3110
2026-03-01 18:30 2.93 143 7390 (1987) 66 (1964) 931 107 169 211 290 588 1100 1270 2360 3110
2026-03-01 17:30 2.92 141 7390 (1987) 66 (1964) 931 107 169 211 290 588 1100 1270 2360 3110
2026-03-01 16:30 2.93 143 7390 (1987) 66 (1964) 931 107 169 211 290 588 1100 1270 2360 3110
2026-03-01 15:30 2.92 141 7390 (1987) 66 (1964) 931 107 169 211 290 588 1100 1270 2360 3110
2026-03-01 14:30 2.92 141 7390 (1987) 66 (1964) 931 107 169 211 290 588 1100 1270 2360 3110
2026-03-01 13:30 2.92 141 7390 (1987) 66 (1964) 931 107 169 211 290 588 1100 1270 2360 3110
2026-03-01 12:30 2.91 138 7390 (1987) 66 (1964) 931 107 169 211 290 588 1100 1270 2360 3110
2026-03-01 11:30 2.91 138 7390 (1987) 66 (1964) 931 107 169 211 290 588 1100 1270 2360 3110
2026-03-01 10:30 2.91 138 7390 (1987) 66 (1964) 931 107 169 211 290 588 1100 1270 2360 3110
2026-03-01 09:30 2.91 138 7390 (1987) 66 (1964) 931 107 169 211 290 588 1100 1270 2360 3110
2026-03-01 08:30 2.90 136 7390 (1987) 66 (1964) 931 107 169 211 290 588 1100 1270 2360 3110
2026-03-01 07:30 2.91 138 7390 (1987) 66 (1964) 931 107 169 211 290 588 1100 1270 2360 3110
2026-03-01 06:30 2.91 138 7390 (1987) 66 (1964) 931 107 169 211 290 588 1100 1270 2360 3110
2026-03-01 05:30 2.92 141 7390 (1987) 66 (1964) 931 107 169 211 290 588 1100 1270 2360 3110
2026-03-01 04:30 2.92 141 7390 (1987) 66 (1964) 931 107 169 211 290 588 1100 1270 2360 3110
2026-03-01 03:30 2.92 141 7390 (1987) 66 (1964) 931 107 169 211 290 588 1100 1270 2360 3110
2026-03-01 02:30 2.92 141 7390 (1987) 66 (1964) 931 107 169 211 290 588 1100 1270 2360 3110
2026-03-01 01:30 2.92 141 7390 (1987) 66 (1964) 931 107 169 211 290 588 1100 1270 2360 3110
2026-03-01 00:30 2.92 141 7390 (1987) 66 (1964) 931 107 169 211 290 588 1100 1270 2360 3110
2026-02-28 23:30 2.92 141 7390 (1987) 66 (1964) 931 107 169 211 290 588 1100 1270 2360 3110
2026-02-28 22:30 2.92 141 3620 (1997) 66 (1964) 869 115 167 215 301 582 1080 1260 2250 2990
2026-02-28 21:30 2.93 143 3620 (1997) 66 (1964) 869 115 167 215 301 582 1080 1260 2250 2990
2026-02-28 20:30 2.93 143 3620 (1997) 66 (1964) 869 115 167 215 301 582 1080 1260 2250 2990
2026-02-28 19:30 2.93 143 3620 (1997) 66 (1964) 869 115 167 215 301 582 1080 1260 2250 2990
2026-02-28 18:30 2.93 143 3620 (1997) 66 (1964) 869 115 167 215 301 582 1080 1260 2250 2990
2026-02-28 17:30 2.93 143 3620 (1997) 66 (1964) 869 115 167 215 301 582 1080 1260 2250 2990
2026-02-28 16:30 2.93 143 3620 (1997) 66 (1964) 869 115 167 215 301 582 1080 1260 2250 2990
2026-02-28 15:30 2.92 141 3620 (1997) 66 (1964) 869 115 167 215 301 582 1080 1260 2250 2990
2026-02-28 14:30 2.92 141 3620 (1997) 66 (1964) 869 115 167 215 301 582 1080 1260 2250 2990
2026-02-28 13:30 2.92 141 3620 (1997) 66 (1964) 869 115 167 215 301 582 1080 1260 2250 2990
2026-02-28 12:30 2.92 141 3620 (1997) 66 (1964) 869 115 167 215 301 582 1080 1260 2250 2990
2026-02-28 11:30 2.92 141 3620 (1997) 66 (1964) 869 115 167 215 301 582 1080 1260 2250 2990
2026-02-28 10:30 2.91 138 3620 (1997) 66 (1964) 869 115 167 215 301 582 1080 1260 2250 2990
2026-02-28 09:30 2.91 138 3620 (1997) 66 (1964) 869 115 167 215 301 582 1080 1260 2250 2990
2026-02-28 08:30 2.91 138 3620 (1997) 66 (1964) 869 115 167 215 301 582 1080 1260 2250 2990
2026-02-28 07:30 2.91 138 3620 (1997) 66 (1964) 869 115 167 215 301 582 1080 1260 2250 2990
2026-02-28 06:30 2.91 138 3620 (1997) 66 (1964) 869 115 167 215 301 582 1080 1260 2250 2990
2026-02-28 05:30 2.92 141 3620 (1997) 66 (1964) 869 115 167 215 301 582 1080 1260 2250 2990
2026-02-28 04:30 2.92 141 3620 (1997) 66 (1964) 869 115 167 215 301 582 1080 1260 2250 2990
2026-02-28 03:30 2.92 141 3620 (1997) 66 (1964) 869 115 167 215 301 582 1080 1260 2250 2990
2026-02-28 02:30 2.92 141 3620 (1997) 66 (1964) 869 115 167 215 301 582 1080 1260 2250 2990
2026-02-28 01:30 2.93 143 3620 (1997) 66 (1964) 869 115 167 215 301 582 1080 1260 2250 2990
2026-02-28 00:30 2.93 143 3620 (1997) 66 (1964) 869 115 167 215 301 582 1080 1260 2250 2990
2026-02-27 23:30 2.93 143 3620 (1997) 66 (1964) 869 115 167 215 301 582 1080 1260 2250 2990
2026-02-27 22:30 2.93 143 4540 (1993) 66 (1964) 903 116 163 217 295 581 1140 1320 2200 3710
2026-02-27 21:30 2.93 143 4540 (1993) 66 (1964) 903 116 163 217 295 581 1140 1320 2200 3710
2026-02-27 20:30 2.93 143 4540 (1993) 66 (1964) 903 116 163 217 295 581 1140 1320 2200 3710
2026-02-27 19:30 2.94 146 4540 (1993) 66 (1964) 903 116 163 217 295 581 1140 1320 2200 3710
2026-02-27 18:30 2.94 146 4540 (1993) 66 (1964) 903 116 163 217 295 581 1140 1320 2200 3710
2026-02-27 17:30 2.94 146 4540 (1993) 66 (1964) 903 116 163 217 295 581 1140 1320 2200 3710
2026-02-27 16:30 2.94 146 4540 (1993) 66 (1964) 903 116 163 217 295 581 1140 1320 2200 3710
2026-02-27 15:30 2.94 146 4540 (1993) 66 (1964) 903 116 163 217 295 581 1140 1320 2200 3710
2026-02-27 14:30 2.93 143 4540 (1993) 66 (1964) 903 116 163 217 295 581 1140 1320 2200 3710
2026-02-27 13:30 2.92 141 4540 (1993) 66 (1964) 903 116 163 217 295 581 1140 1320 2200 3710
2026-02-27 12:30 2.92 141 4540 (1993) 66 (1964) 903 116 163 217 295 581 1140 1320 2200 3710
2026-02-27 11:30 2.92 141 4540 (1993) 66 (1964) 903 116 163 217 295 581 1140 1320 2200 3710
2026-02-27 10:30 2.92 141 4540 (1993) 66 (1964) 903 116 163 217 295 581 1140 1320 2200 3710
2026-02-27 09:30 2.92 141 4540 (1993) 66 (1964) 903 116 163 217 295 581 1140 1320 2200 3710
2026-02-27 08:30 2.92 141 4540 (1993) 66 (1964) 903 116 163 217 295 581 1140 1320 2200 3710
2026-02-27 07:30 2.92 141 4540 (1993) 66 (1964) 903 116 163 217 295 581 1140 1320 2200 3710
2026-02-27 06:30 2.92 141 4540 (1993) 66 (1964) 903 116 163 217 295 581 1140 1320 2200 3710
2026-02-27 05:30 2.92 141 4540 (1993) 66 (1964) 903 116 163 217 295 581 1140 1320 2200 3710
2026-02-27 04:30 2.92 141 4540 (1993) 66 (1964) 903 116 163 217 295 581 1140 1320 2200 3710
2026-02-27 03:30 2.93 143 4540 (1993) 66 (1964) 903 116 163 217 295 581 1140 1320 2200 3710
2026-02-27 02:30 2.94 146 4540 (1993) 66 (1964) 903 116 163 217 295 581 1140 1320 2200 3710
2026-02-27 01:30 2.94 146 4540 (1993) 66 (1964) 903 116 163 217 295 581 1140 1320 2200 3710
2026-02-27 00:30 2.94 146 4540 (1993) 66 (1964) 903 116 163 217 295 581 1140 1320 2200 3710
2026-02-26 23:30 2.94 146 4540 (1993) 66 (1964) 903 116 163 217 295 581 1140 1320 2200 3710
2026-02-26 22:30 2.95 148 6720 (2001) 67 (1964) 961 116 166 218 275 564 1140 1310 2010 4350
2026-02-26 21:30 2.95 148 6720 (2001) 67 (1964) 961 116 166 218 275 564 1140 1310 2010 4350
2026-02-26 20:30 2.95 148 6720 (2001) 67 (1964) 961 116 166 218 275 564 1140 1310 2010 4350
2026-02-26 19:30 2.95 148 6720 (2001) 67 (1964) 961 116 166 218 275 564 1140 1310 2010 4350
2026-02-26 18:30 2.95 148 6720 (2001) 67 (1964) 961 116 166 218 275 564 1140 1310 2010 4350
2026-02-26 17:30 2.95 148 6720 (2001) 67 (1964) 961 116 166 218 275 564 1140 1310 2010 4350
2026-02-26 16:30 2.95 148 6720 (2001) 67 (1964) 961 116 166 218 275 564 1140 1310 2010 4350
2026-02-26 15:30 2.95 148 6720 (2001) 67 (1964) 961 116 166 218 275 564 1140 1310 2010 4350
2026-02-26 14:30 2.94 146 6720 (2001) 67 (1964) 961 116 166 218 275 564 1140 1310 2010 4350
2026-02-26 13:30 2.93 143 6720 (2001) 67 (1964) 961 116 166 218 275 564 1140 1310 2010 4350
2026-02-26 12:30 2.93 143 6720 (2001) 67 (1964) 961 116 166 218 275 564 1140 1310 2010 4350
2026-02-26 11:30 2.93 143 6720 (2001) 67 (1964) 961 116 166 218 275 564 1140 1310 2010 4350
2026-02-26 10:30 2.93 143 6720 (2001) 67 (1964) 961 116 166 218 275 564 1140 1310 2010 4350
2026-02-26 09:30 2.93 143 6720 (2001) 67 (1964) 961 116 166 218 275 564 1140 1310 2010 4350
2026-02-26 08:30 2.94 146 6720 (2001) 67 (1964) 961 116 166 218 275 564 1140 1310 2010 4350
2026-02-26 07:30 2.94 146 6720 (2001) 67 (1964) 961 116 166 218 275 564 1140 1310 2010 4350
2026-02-26 06:30 2.94 146 6720 (2001) 67 (1964) 961 116 166 218 275 564 1140 1310 2010 4350
2026-02-26 05:30 2.94 146 6720 (2001) 67 (1964) 961 116 166 218 275 564 1140 1310 2010 4350
2026-02-26 04:30 2.94 146 6720 (2001) 67 (1964) 961 116 166 218 275 564 1140 1310 2010 4350
2026-02-26 03:30 2.94 146 6720 (2001) 67 (1964) 961 116 166 218 275 564 1140 1310 2010 4350
2026-02-26 02:30 2.95 148 6720 (2001) 67 (1964) 961 116 166 218 275 564 1140 1310 2010 4350
2026-02-26 01:30 2.95 148 6720 (2001) 67 (1964) 961 116 166 218 275 564 1140 1310 2010 4350
2026-02-26 00:30 2.95 148 6720 (2001) 67 (1964) 961 116 166 218 275 564 1140 1310 2010 4350
2026-02-25 23:30 2.95 148 6720 (2001) 67 (1964) 961 116 166 218 275 564 1140 1310 2010 4350
2026-02-25 22:30 2.95 148 19800 (2001) 69 (1964) 1300 109 161 227 271 564 1170 1330 2280 3430
2026-02-25 21:30 2.95 148 19800 (2001) 69 (1964) 1300 109 161 227 271 564 1170 1330 2280 3430
2026-02-25 20:30 2.96 151 19800 (2001) 69 (1964) 1300 109 161 227 271 564 1170 1330 2280 3430
2026-02-25 19:30 2.95 148 19800 (2001) 69 (1964) 1300 109 161 227 271 564 1170 1330 2280 3430
2026-02-25 18:30 2.96 151 19800 (2001) 69 (1964) 1300 109 161 227 271 564 1170 1330 2280 3430
2026-02-25 17:30 2.95 148 19800 (2001) 69 (1964) 1300 109 161 227 271 564 1170 1330 2280 3430
2026-02-25 16:30 2.95 148 19800 (2001) 69 (1964) 1300 109 161 227 271 564 1170 1330 2280 3430
2026-02-25 15:30 2.95 148 19800 (2001) 69 (1964) 1300 109 161 227 271 564 1170 1330 2280 3430
2026-02-25 14:30 2.94 146 19800 (2001) 69 (1964) 1300 109 161 227 271 564 1170 1330 2280 3430
2026-02-25 13:30 2.94 146 19800 (2001) 69 (1964) 1300 109 161 227 271 564 1170 1330 2280 3430
2026-02-25 12:30 2.94 146 19800 (2001) 69 (1964) 1300 109 161 227 271 564 1170 1330 2280 3430
2026-02-25 11:30 2.94 146 19800 (2001) 69 (1964) 1300 109 161 227 271 564 1170 1330 2280 3430
2026-02-25 10:30 2.95 148 19800 (2001) 69 (1964) 1300 109 161 227 271 564 1170 1330 2280 3430
2026-02-25 09:30 2.96 151 19800 (2001) 69 (1964) 1300 109 161 227 271 564 1170 1330 2280 3430
2026-02-25 08:30 2.95 148 19800 (2001) 69 (1964) 1300 109 161 227 271 564 1170 1330 2280 3430
2026-02-25 07:30 2.95 148 19800 (2001) 69 (1964) 1300 109 161 227 271 564 1170 1330 2280 3430
2026-02-25 06:30 2.95 148 19800 (2001) 69 (1964) 1300 109 161 227 271 564 1170 1330 2280 3430
2026-02-25 05:30 2.95 148 19800 (2001) 69 (1964) 1300 109 161 227 271 564 1170 1330 2280 3430
2026-02-25 04:30 2.95 148 19800 (2001) 69 (1964) 1300 109 161 227 271 564 1170 1330 2280 3430
2026-02-25 03:30 2.95 148 19800 (2001) 69 (1964) 1300 109 161 227 271 564 1170 1330 2280 3430
2026-02-25 02:30 2.96 151 19800 (2001) 69 (1964) 1300 109 161 227 271 564 1170 1330 2280 3430
2026-02-25 01:30 2.96 151 19800 (2001) 69 (1964) 1300 109 161 227 271 564 1170 1330 2280 3430
2026-02-25 00:30 2.96 151 19800 (2001) 69 (1964) 1300 109 161 227 271 564 1170 1330 2280 3430
2026-02-24 23:30 2.96 151 19800 (2001) 69 (1964) 1300 109 161 227 271 564 1170 1330 2280 3430
2026-02-24 22:30 2.96 151 21200 (1985) 70 (1964) 1460 111 161 232 258 571 1170 1430 2540 4750
2026-02-24 21:30 2.96 151 21200 (1985) 70 (1964) 1460 111 161 232 258 571 1170 1430 2540 4750
2026-02-24 20:30 2.96 151 21200 (1985) 70 (1964) 1460 111 161 232 258 571 1170 1430 2540 4750
2026-02-24 19:30 2.96 151 21200 (1985) 70 (1964) 1460 111 161 232 258 571 1170 1430 2540 4750
2026-02-24 18:30 2.96 151 21200 (1985) 70 (1964) 1460 111 161 232 258 571 1170 1430 2540 4750
2026-02-24 17:30 2.97 153 21200 (1985) 70 (1964) 1460 111 161 232 258 571 1170 1430 2540 4750
2026-02-24 16:30 2.97 153 21200 (1985) 70 (1964) 1460 111 161 232 258 571 1170 1430 2540 4750
2026-02-24 15:30 2.97 153 21200 (1985) 70 (1964) 1460 111 161 232 258 571 1170 1430 2540 4750
2026-02-24 14:30 2.97 153 21200 (1985) 70 (1964) 1460 111 161 232 258 571 1170 1430 2540 4750
2026-02-24 13:30 2.96 151 21200 (1985) 70 (1964) 1460 111 161 232 258 571 1170 1430 2540 4750
2026-02-24 12:30 2.96 151 21200 (1985) 70 (1964) 1460 111 161 232 258 571 1170 1430 2540 4750
2026-02-24 11:30 2.97 153 21200 (1985) 70 (1964) 1460 111 161 232 258 571 1170 1430 2540 4750
2026-02-24 10:30 2.97 153 21200 (1985) 70 (1964) 1460 111 161 232 258 571 1170 1430 2540 4750
2026-02-24 09:30 2.96 151 21200 (1985) 70 (1964) 1460 111 161 232 258 571 1170 1430 2540 4750
2026-02-24 08:30 2.96 151 21200 (1985) 70 (1964) 1460 111 161 232 258 571 1170 1430 2540 4750
2026-02-24 07:30 2.97 153 21200 (1985) 70 (1964) 1460 111 161 232 258 571 1170 1430 2540 4750
2026-02-24 06:30 2.96 151 21200 (1985) 70 (1964) 1460 111 161 232 258 571 1170 1430 2540 4750
2026-02-24 05:30 2.95 148 21200 (1985) 70 (1964) 1460 111 161 232 258 571 1170 1430 2540 4750
2026-02-24 04:30 2.96 151 21200 (1985) 70 (1964) 1460 111 161 232 258 571 1170 1430 2540 4750
2026-02-24 03:30 2.96 151 21200 (1985) 70 (1964) 1460 111 161 232 258 571 1170 1430 2540 4750
2026-02-24 02:30 2.96 151 21200 (1985) 70 (1964) 1460 111 161 232 258 571 1170 1430 2540 4750
2026-02-24 01:30 2.96 151 21200 (1985) 70 (1964) 1460 111 161 232 258 571 1170 1430 2540 4750
2026-02-24 00:30 2.96 151 21200 (1985) 70 (1964) 1460 111 161 232 258 571 1170 1430 2540 4750
2026-02-23 23:30 2.97 153 21200 (1985) 70 (1964) 1460 111 161 232 258 571 1170 1430 2540 4750
2026-02-23 22:30 2.97 153 11800 (1985) 72 (1964) 1100 114 163 229 253 572 1200 1380 2560 3900
2026-02-23 21:30 2.97 153 11800 (1985) 72 (1964) 1100 114 163 229 253 572 1200 1380 2560 3900
2026-02-23 20:30 2.97 153 11800 (1985) 72 (1964) 1100 114 163 229 253 572 1200 1380 2560 3900
2026-02-23 19:30 2.97 153 11800 (1985) 72 (1964) 1100 114 163 229 253 572 1200 1380 2560 3900
2026-02-23 18:30 2.97 153 11800 (1985) 72 (1964) 1100 114 163 229 253 572 1200 1380 2560 3900
2026-02-23 17:30 2.98 156 11800 (1985) 72 (1964) 1100 114 163 229 253 572 1200 1380 2560 3900
2026-02-23 16:30 2.97 153 11800 (1985) 72 (1964) 1100 114 163 229 253 572 1200 1380 2560 3900
2026-02-23 15:30 2.97 153 11800 (1985) 72 (1964) 1100 114 163 229 253 572 1200 1380 2560 3900
2026-02-23 14:30 2.97 153 11800 (1985) 72 (1964) 1100 114 163 229 253 572 1200 1380 2560 3900
2026-02-23 13:30 2.97 153 11800 (1985) 72 (1964) 1100 114 163 229 253 572 1200 1380 2560 3900
2026-02-23 12:30 2.97 153 11800 (1985) 72 (1964) 1100 114 163 229 253 572 1200 1380 2560 3900
2026-02-23 11:30 2.96 151 11800 (1985) 72 (1964) 1100 114 163 229 253 572 1200 1380 2560 3900
2026-02-23 10:30 2.96 151 11800 (1985) 72 (1964) 1100 114 163 229 253 572 1200 1380 2560 3900
2026-02-23 09:30 2.96 151 11800 (1985) 72 (1964) 1100 114 163 229 253 572 1200 1380 2560 3900
2026-02-23 08:30 2.96 151 11800 (1985) 72 (1964) 1100 114 163 229 253 572 1200 1380 2560 3900
2026-02-23 07:30 2.97 153 11800 (1985) 72 (1964) 1100 114 163 229 253 572 1200 1380 2560 3900
2026-02-23 06:30 2.97 153 11800 (1985) 72 (1964) 1100 114 163 229 253 572 1200 1380 2560 3900
2026-02-23 05:30 2.97 153 11800 (1985) 72 (1964) 1100 114 163 229 253 572 1200 1380 2560 3900
2026-02-23 04:30 2.97 153 11800 (1985) 72 (1964) 1100 114 163 229 253 572 1200 1380 2560 3900
2026-02-23 03:30 2.96 151 11800 (1985) 72 (1964) 1100 114 163 229 253 572 1200 1380 2560 3900
2026-02-23 02:30 2.96 151 11800 (1985) 72 (1964) 1100 114 163 229 253 572 1200 1380 2560 3900
2026-02-23 01:30 2.97 153 11800 (1985) 72 (1964) 1100 114 163 229 253 572 1200 1380 2560 3900
2026-02-23 00:30 2.98 156 11800 (1985) 72 (1964) 1100 114 163 229 253 572 1200 1380 2560 3900
2026-02-22 23:30 2.98 156 11800 (1985) 72 (1964) 1100 114 163 229 253 572 1200 1380 2560 3900
2026-02-22 22:30 2.98 156 10500 (1945) 73 (1964) 1060 111 166 231 259 627 1220 1370 2420 3430
2026-02-22 21:30 2.98 156 10500 (1945) 73 (1964) 1060 111 166 231 259 627 1220 1370 2420 3430
2026-02-22 20:30 2.98 156 10500 (1945) 73 (1964) 1060 111 166 231 259 627 1220 1370 2420 3430
2026-02-22 19:30 2.98 156 10500 (1945) 73 (1964) 1060 111 166 231 259 627 1220 1370 2420 3430
2026-02-22 18:30 2.99 158 10500 (1945) 73 (1964) 1060 111 166 231 259 627 1220 1370 2420 3430
2026-02-22 17:30 2.98 156 10500 (1945) 73 (1964) 1060 111 166 231 259 627 1220 1370 2420 3430
2026-02-22 16:30 2.98 156 10500 (1945) 73 (1964) 1060 111 166 231 259 627 1220 1370 2420 3430
2026-02-22 15:30 2.98 156 10500 (1945) 73 (1964) 1060 111 166 231 259 627 1220 1370 2420 3430
2026-02-22 14:30 2.98 156 10500 (1945) 73 (1964) 1060 111 166 231 259 627 1220 1370 2420 3430
2026-02-22 13:30 2.98 156 10500 (1945) 73 (1964) 1060 111 166 231 259 627 1220 1370 2420 3430
2026-02-22 12:30 2.97 153 10500 (1945) 73 (1964) 1060 111 166 231 259 627 1220 1370 2420 3430
2026-02-22 11:30 2.97 153 10500 (1945) 73 (1964) 1060 111 166 231 259 627 1220 1370 2420 3430
2026-02-22 10:30 2.97 153 10500 (1945) 73 (1964) 1060 111 166 231 259 627 1220 1370 2420 3430
2026-02-22 09:30 2.97 153 10500 (1945) 73 (1964) 1060 111 166 231 259 627 1220 1370 2420 3430
2026-02-22 08:30 2.98 156 10500 (1945) 73 (1964) 1060 111 166 231 259 627 1220 1370 2420 3430
2026-02-22 07:30 2.98 156 10500 (1945) 73 (1964) 1060 111 166 231 259 627 1220 1370 2420 3430
2026-02-22 06:30 2.98 156 10500 (1945) 73 (1964) 1060 111 166 231 259 627 1220 1370 2420 3430
2026-02-22 05:30 2.98 156 10500 (1945) 73 (1964) 1060 111 166 231 259 627 1220 1370 2420 3430
2026-02-22 04:30 2.98 156 10500 (1945) 73 (1964) 1060 111 166 231 259 627 1220 1370 2420 3430
2026-02-22 03:30 2.99 158 10500 (1945) 73 (1964) 1060 111 166 231 259 627 1220 1370 2420 3430
2026-02-22 02:30 2.99 158 10500 (1945) 73 (1964) 1060 111 166 231 259 627 1220 1370 2420 3430
2026-02-22 01:30 2.99 158 10500 (1945) 73 (1964) 1060 111 166 231 259 627 1220 1370 2420 3430
2026-02-22 00:30 2.99 158 10500 (1945) 73 (1964) 1060 111 166 231 259 627 1220 1370 2420 3430
2026-02-21 23:30 3.00 161 10500 (1945) 73 (1964) 1060 111 166 231 259 627 1220 1370 2420 3430
2026-02-21 22:30 3.00 161 17000 (1997) 74 (1964) 1140 104 169 228 254 648 928 1300 2130 3800
2026-02-21 21:30 3.00 161 17000 (1997) 74 (1964) 1140 104 169 228 254 648 928 1300 2130 3800
2026-02-21 20:30 3.00 161 17000 (1997) 74 (1964) 1140 104 169 228 254 648 928 1300 2130 3800
2026-02-21 19:30 3.00 161 17000 (1997) 74 (1964) 1140 104 169 228 254 648 928 1300 2130 3800
2026-02-21 18:30 3.00 161 17000 (1997) 74 (1964) 1140 104 169 228 254 648 928 1300 2130 3800
2026-02-21 17:30 3.00 161 17000 (1997) 74 (1964) 1140 104 169 228 254 648 928 1300 2130 3800
2026-02-21 16:30 3.00 161 17000 (1997) 74 (1964) 1140 104 169 228 254 648 928 1300 2130 3800
2026-02-21 15:30 3.00 161 17000 (1997) 74 (1964) 1140 104 169 228 254 648 928 1300 2130 3800
2026-02-21 14:30 3.00 161 17000 (1997) 74 (1964) 1140 104 169 228 254 648 928 1300 2130 3800
2026-02-21 13:30 3.00 161 17000 (1997) 74 (1964) 1140 104 169 228 254 648 928 1300 2130 3800
2026-02-21 12:30 3.00 161 17000 (1997) 74 (1964) 1140 104 169 228 254 648 928 1300 2130 3800
2026-02-21 11:30 3.00 161 17000 (1997) 74 (1964) 1140 104 169 228 254 648 928 1300 2130 3800
2026-02-21 10:30 3.00 161 17000 (1997) 74 (1964) 1140 104 169 228 254 648 928 1300 2130 3800
2026-02-21 09:30 3.00 161 17000 (1997) 74 (1964) 1140 104 169 228 254 648 928 1300 2130 3800
2026-02-21 08:30 3.00 161 17000 (1997) 74 (1964) 1140 104 169 228 254 648 928 1300 2130 3800
2026-02-21 07:30 3.00 161 17000 (1997) 74 (1964) 1140 104 169 228 254 648 928 1300 2130 3800
2026-02-21 06:30 3.00 161 17000 (1997) 74 (1964) 1140 104 169 228 254 648 928 1300 2130 3800
2026-02-21 05:30 3.00 161 17000 (1997) 74 (1964) 1140 104 169 228 254 648 928 1300 2130 3800
2026-02-21 04:30 3.00 161 17000 (1997) 74 (1964) 1140 104 169 228 254 648 928 1300 2130 3800
2026-02-21 03:30 3.01 163 17000 (1997) 74 (1964) 1140 104 169 228 254 648 928 1300 2130 3800
2026-02-21 02:30 3.01 163 17000 (1997) 74 (1964) 1140 104 169 228 254 648 928 1300 2130 3800
2026-02-21 01:30 3.01 163 17000 (1997) 74 (1964) 1140 104 169 228 254 648 928 1300 2130 3800
2026-02-21 00:30 3.01 163 17000 (1997) 74 (1964) 1140 104 169 228 254 648 928 1300 2130 3800
2026-02-20 23:30 3.01 163 17000 (1997) 74 (1964) 1140 104 169 228 254 648 928 1300 2130 3800
2026-02-20 22:30 3.02 166 10800 (1955) 76 (1954) 958 106 170 226 265 582 856 949 1810 3170
2026-02-20 21:30 3.02 166 10800 (1955) 76 (1954) 958 106 170 226 265 582 856 949 1810 3170
2026-02-20 20:30 3.02 166 10800 (1955) 76 (1954) 958 106 170 226 265 582 856 949 1810 3170
2026-02-20 19:30 3.02 166 10800 (1955) 76 (1954) 958 106 170 226 265 582 856 949 1810 3170
2026-02-20 18:30 3.02 166 10800 (1955) 76 (1954) 958 106 170 226 265 582 856 949 1810 3170
2026-02-20 17:30 3.02 166 10800 (1955) 76 (1954) 958 106 170 226 265 582 856 949 1810 3170
2026-02-20 16:30 3.02 166 10800 (1955) 76 (1954) 958 106 170 226 265 582 856 949 1810 3170
2026-02-20 15:30 3.01 163 10800 (1955) 76 (1954) 958 106 170 226 265 582 856 949 1810 3170
2026-02-20 14:30 3.00 161 10800 (1955) 76 (1954) 958 106 170 226 265 582 856 949 1810 3170
2026-02-20 13:30 3.01 163 10800 (1955) 76 (1954) 958 106 170 226 265 582 856 949 1810 3170
2026-02-20 12:30 3.00 161 10800 (1955) 76 (1954) 958 106 170 226 265 582 856 949 1810 3170
2026-02-20 11:30 3.01 163 10800 (1955) 76 (1954) 958 106 170 226 265 582 856 949 1810 3170
2026-02-20 10:30 3.00 161 10800 (1955) 76 (1954) 958 106 170 226 265 582 856 949 1810 3170
2026-02-20 09:30 3.00 161 10800 (1955) 76 (1954) 958 106 170 226 265 582 856 949 1810 3170
2026-02-20 08:30 3.00 161 10800 (1955) 76 (1954) 958 106 170 226 265 582 856 949 1810 3170
2026-02-20 07:30 3.00 161 10800 (1955) 76 (1954) 958 106 170 226 265 582 856 949 1810 3170
2026-02-20 06:30 3.01 163 10800 (1955) 76 (1954) 958 106 170 226 265 582 856 949 1810 3170
2026-02-20 05:30 3.01 163 10800 (1955) 76 (1954) 958 106 170 226 265 582 856 949 1810 3170
2026-02-20 04:30 3.01 163 10800 (1955) 76 (1954) 958 106 170 226 265 582 856 949 1810 3170
2026-02-20 03:30 3.01 163 10800 (1955) 76 (1954) 958 106 170 226 265 582 856 949 1810 3170
2026-02-20 02:30 3.01 163 10800 (1955) 76 (1954) 958 106 170 226 265 582 856 949 1810 3170
2026-02-20 01:30 3.01 163 10800 (1955) 76 (1954) 958 106 170 226 265 582 856 949 1810 3170
2026-02-20 00:30 3.01 163 10800 (1955) 76 (1954) 958 106 170 226 265 582 856 949 1810 3170
2026-02-19 23:30 3.02 166 10800 (1955) 76 (1954) 958 106 170 226 265 582 856 949 1810 3170
2026-02-19 22:30 3.02 166 16600 (1951) 63 (1954) 943 105 171 220 268 550 876 1050 1720 2760
2026-02-19 21:30 3.02 166 16600 (1951) 63 (1954) 943 105 171 220 268 550 876 1050 1720 2760
2026-02-19 20:30 3.02 166 16600 (1951) 63 (1954) 943 105 171 220 268 550 876 1050 1720 2760
2026-02-19 19:30 3.02 166 16600 (1951) 63 (1954) 943 105 171 220 268 550 876 1050 1720 2760
2026-02-19 18:30 3.02 166 16600 (1951) 63 (1954) 943 105 171 220 268 550 876 1050 1720 2760
2026-02-19 17:30 3.02 166 16600 (1951) 63 (1954) 943 105 171 220 268 550 876 1050 1720 2760
2026-02-19 16:30 3.02 166 16600 (1951) 63 (1954) 943 105 171 220 268 550 876 1050 1720 2760
2026-02-19 15:30 3.01 163 16600 (1951) 63 (1954) 943 105 171 220 268 550 876 1050 1720 2760
2026-02-19 14:30 3.05 174 16600 (1951) 63 (1954) 943 105 171 220 268 550 876 1050 1720 2760
2026-02-19 13:30 3.03 169 16600 (1951) 63 (1954) 943 105 171 220 268 550 876 1050 1720 2760
2026-02-19 12:30 3.05 174 16600 (1951) 63 (1954) 943 105 171 220 268 550 876 1050 1720 2760
2026-02-19 11:30 3.09 185 16600 (1951) 63 (1954) 943 105 171 220 268 550 876 1050 1720 2760
2026-02-19 10:30 3.08 183 16600 (1951) 63 (1954) 943 105 171 220 268 550 876 1050 1720 2760
2026-02-19 09:30 3.08 183 16600 (1951) 63 (1954) 943 105 171 220 268 550 876 1050 1720 2760
2026-02-19 08:30 3.04 171 16600 (1951) 63 (1954) 943 105 171 220 268 550 876 1050 1720 2760
2026-02-19 07:30 3.04 171 16600 (1951) 63 (1954) 943 105 171 220 268 550 876 1050 1720 2760
2026-02-19 06:30 3.04 171 16600 (1951) 63 (1954) 943 105 171 220 268 550 876 1050 1720 2760
2026-02-19 05:30 3.04 171 16600 (1951) 63 (1954) 943 105 171 220 268 550 876 1050 1720 2760
2026-02-19 04:30 3.04 171 16600 (1951) 63 (1954) 943 105 171 220 268 550 876 1050 1720 2760
2026-02-19 03:30 3.03 169 16600 (1951) 63 (1954) 943 105 171 220 268 550 876 1050 1720 2760
2026-02-19 02:30 3.04 171 16600 (1951) 63 (1954) 943 105 171 220 268 550 876 1050 1720 2760
2026-02-19 01:30 3.04 171 16600 (1951) 63 (1954) 943 105 171 220 268 550 876 1050 1720 2760
2026-02-19 00:30 3.03 169 16600 (1951) 63 (1954) 943 105 171 220 268 550 876 1050 1720 2760
2026-02-18 23:30 3.04 171 16600 (1951) 63 (1954) 943 105 171 220 268 550 876 1050 1720 2760
2026-02-18 22:30 3.04 171 9380 (2008) 57 (1954) 935 87 173 226 258 527 915 1010 2080 2990
2026-02-18 21:30 3.04 171 9380 (2008) 57 (1954) 935 87 173 226 258 527 915 1010 2080 2990
2026-02-18 20:30 3.04 171 9380 (2008) 57 (1954) 935 87 173 226 258 527 915 1010 2080 2990
2026-02-18 19:30 3.05 174 9380 (2008) 57 (1954) 935 87 173 226 258 527 915 1010 2080 2990
2026-02-18 18:30 3.05 174 9380 (2008) 57 (1954) 935 87 173 226 258 527 915 1010 2080 2990
2026-02-18 17:30 3.04 171 9380 (2008) 57 (1954) 935 87 173 226 258 527 915 1010 2080 2990
2026-02-18 16:30 3.05 174 9380 (2008) 57 (1954) 935 87 173 226 258 527 915 1010 2080 2990
2026-02-18 15:30 3.05 174 9380 (2008) 57 (1954) 935 87 173 226 258 527 915 1010 2080 2990
2026-02-18 14:30 3.04 171 9380 (2008) 57 (1954) 935 87 173 226 258 527 915 1010 2080 2990
2026-02-18 13:30 3.04 171 9380 (2008) 57 (1954) 935 87 173 226 258 527 915 1010 2080 2990
2026-02-18 12:30 3.03 169 9380 (2008) 57 (1954) 935 87 173 226 258 527 915 1010 2080 2990
2026-02-18 11:30 3.03 169 9380 (2008) 57 (1954) 935 87 173 226 258 527 915 1010 2080 2990
2026-02-18 10:30 3.03 169 9380 (2008) 57 (1954) 935 87 173 226 258 527 915 1010 2080 2990
2026-02-18 09:30 3.03 169 9380 (2008) 57 (1954) 935 87 173 226 258 527 915 1010 2080 2990
2026-02-18 08:30 3.03 169 9380 (2008) 57 (1954) 935 87 173 226 258 527 915 1010 2080 2990
2026-02-18 07:30 3.03 169 9380 (2008) 57 (1954) 935 87 173 226 258 527 915 1010 2080 2990
2026-02-18 06:30 3.03 169 9380 (2008) 57 (1954) 935 87 173 226 258 527 915 1010 2080 2990
2026-02-18 05:30 3.03 169 9380 (2008) 57 (1954) 935 87 173 226 258 527 915 1010 2080 2990
2026-02-18 04:30 3.03 169 9380 (2008) 57 (1954) 935 87 173 226 258 527 915 1010 2080 2990
2026-02-18 03:30 3.03 169 9380 (2008) 57 (1954) 935 87 173 226 258 527 915 1010 2080 2990
2026-02-18 02:30 3.04 171 9380 (2008) 57 (1954) 935 87 173 226 258 527 915 1010 2080 2990
2026-02-18 01:30 3.04 171 9380 (2008) 57 (1954) 935 87 173 226 258 527 915 1010 2080 2990
2026-02-18 00:30 3.04 171 9380 (2008) 57 (1954) 935 87 173 226 258 527 915 1010 2080 2990
2026-02-17 23:30 3.04 171 9380 (2008) 57 (1954) 935 87 173 226 258 527 915 1010 2080 2990
2026-02-17 22:30 3.05 174 10200 (2008) 57 (1954) 966 88 165 225 246 530 1010 1180 2280 3600
2026-02-17 21:30 3.05 174 10200 (2008) 57 (1954) 966 88 165 225 246 530 1010 1180 2280 3600
2026-02-17 20:30 3.05 174 10200 (2008) 57 (1954) 966 88 165 225 246 530 1010 1180 2280 3600
2026-02-17 19:30 3.04 171 10200 (2008) 57 (1954) 966 88 165 225 246 530 1010 1180 2280 3600
2026-02-17 18:30 3.04 171 10200 (2008) 57 (1954) 966 88 165 225 246 530 1010 1180 2280 3600
2026-02-17 17:30 3.05 174 10200 (2008) 57 (1954) 966 88 165 225 246 530 1010 1180 2280 3600
2026-02-17 16:30 3.05 174 10200 (2008) 57 (1954) 966 88 165 225 246 530 1010 1180 2280 3600
2026-02-17 15:30 3.04 171 10200 (2008) 57 (1954) 966 88 165 225 246 530 1010 1180 2280 3600
2026-02-17 14:30 3.04 171 10200 (2008) 57 (1954) 966 88 165 225 246 530 1010 1180 2280 3600
2026-02-17 13:30 3.04 171 10200 (2008) 57 (1954) 966 88 165 225 246 530 1010 1180 2280 3600
2026-02-17 12:30 3.05 174 10200 (2008) 57 (1954) 966 88 165 225 246 530 1010 1180 2280 3600
2026-02-17 11:30 3.04 171 10200 (2008) 57 (1954) 966 88 165 225 246 530 1010 1180 2280 3600
2026-02-17 10:30 3.04 171 10200 (2008) 57 (1954) 966 88 165 225 246 530 1010 1180 2280 3600
2026-02-17 09:30 3.04 171 10200 (2008) 57 (1954) 966 88 165 225 246 530 1010 1180 2280 3600
2026-02-17 08:30 3.04 171 10200 (2008) 57 (1954) 966 88 165 225 246 530 1010 1180 2280 3600
2026-02-17 07:30 3.04 171 10200 (2008) 57 (1954) 966 88 165 225 246 530 1010 1180 2280 3600
2026-02-17 06:30 3.04 171 10200 (2008) 57 (1954) 966 88 165 225 246 530 1010 1180 2280 3600
2026-02-17 05:30 3.04 171 10200 (2008) 57 (1954) 966 88 165 225 246 530 1010 1180 2280 3600
2026-02-17 04:30 3.04 171 10200 (2008) 57 (1954) 966 88 165 225 246 530 1010 1180 2280 3600
2026-02-17 03:30 3.04 171 10200 (2008) 57 (1954) 966 88 165 225 246 530 1010 1180 2280 3600
2026-02-17 02:30 3.04 171 10200 (2008) 57 (1954) 966 88 165 225 246 530 1010 1180 2280 3600
2026-02-17 01:30 3.04 171 10200 (2008) 57 (1954) 966 88 165 225 246 530 1010 1180 2280 3600
2026-02-17 00:30 3.04 171 10200 (2008) 57 (1954) 966 88 165 225 246 530 1010 1180 2280 3600
2026-02-16 23:30 3.04 171 10200 (2008) 57 (1954) 966 88 165 225 246 530 1010 1180 2280 3600
2026-02-16 22:30 3.04 171 6830 (1989) 59 (1954) 937 88 161 209 252 536 986 1130 2030 4720
2026-02-16 21:30 3.04 171 6830 (1989) 59 (1954) 937 88 161 209 252 536 986 1130 2030 4720
2026-02-16 20:30 3.04 171 6830 (1989) 59 (1954) 937 88 161 209 252 536 986 1130 2030 4720
2026-02-16 19:30 3.04 171 6830 (1989) 59 (1954) 937 88 161 209 252 536 986 1130 2030 4720
2026-02-16 18:30 3.04 171 6830 (1989) 59 (1954) 937 88 161 209 252 536 986 1130 2030 4720
2026-02-16 17:30 3.05 174 6830 (1989) 59 (1954) 937 88 161 209 252 536 986 1130 2030 4720
2026-02-16 16:30 3.04 171 6830 (1989) 59 (1954) 937 88 161 209 252 536 986 1130 2030 4720
2026-02-16 15:30 3.04 171 6830 (1989) 59 (1954) 937 88 161 209 252 536 986 1130 2030 4720
2026-02-16 14:30 3.04 171 6830 (1989) 59 (1954) 937 88 161 209 252 536 986 1130 2030 4720
2026-02-16 13:30 3.03 169 6830 (1989) 59 (1954) 937 88 161 209 252 536 986 1130 2030 4720
2026-02-16 12:30 3.03 169 6830 (1989) 59 (1954) 937 88 161 209 252 536 986 1130 2030 4720
2026-02-16 11:30 3.03 169 6830 (1989) 59 (1954) 937 88 161 209 252 536 986 1130 2030 4720
2026-02-16 10:30 3.03 169 6830 (1989) 59 (1954) 937 88 161 209 252 536 986 1130 2030 4720
2026-02-16 09:30 3.02 166 6830 (1989) 59 (1954) 937 88 161 209 252 536 986 1130 2030 4720
2026-02-16 08:30 2.74 101 6830 (1989) 59 (1954) 937 88 161 209 252 536 986 1130 2030 4720
2026-02-16 07:30 2.69 91 6830 (1989) 59 (1954) 937 88 161 209 252 536 986 1130 2030 4720
2026-02-16 06:30 2.73 99 6830 (1989) 59 (1954) 937 88 161 209 252 536 986 1130 2030 4720
2026-02-16 05:30 2.80 113 6830 (1989) 59 (1954) 937 88 161 209 252 536 986 1130 2030 4720
2026-02-16 04:30 2.88 131 6830 (1989) 59 (1954) 937 88 161 209 252 536 986 1130 2030 4720
2026-02-16 03:30 2.96 151 6830 (1989) 59 (1954) 937 88 161 209 252 536 986 1130 2030 4720
2026-02-16 02:30 3.01 163 6830 (1989) 59 (1954) 937 88 161 209 252 536 986 1130 2030 4720
2026-02-16 01:30 3.02 166 6830 (1989) 59 (1954) 937 88 161 209 252 536 986 1130 2030 4720
2026-02-16 00:30 3.02 166 6830 (1989) 59 (1954) 937 88 161 209 252 536 986 1130 2030 4720
2026-02-15 23:30 3.03 169 6830 (1989) 59 (1954) 937 88 161 209 252 536 986 1130 2030 4720
2026-02-15 22:30 3.03 169 6820 (1949) 59 (1954) 853 91 162 202 253 546 985 1140 1920 3280
2026-02-15 21:30 3.03 169 6820 (1949) 59 (1954) 853 91 162 202 253 546 985 1140 1920 3280
2026-02-15 20:30 3.03 169 6820 (1949) 59 (1954) 853 91 162 202 253 546 985 1140 1920 3280
2026-02-15 19:30 3.03 169 6820 (1949) 59 (1954) 853 91 162 202 253 546 985 1140 1920 3280
2026-02-15 18:30 3.03 169 6820 (1949) 59 (1954) 853 91 162 202 253 546 985 1140 1920 3280
2026-02-15 17:30 3.03 169 6820 (1949) 59 (1954) 853 91 162 202 253 546 985 1140 1920 3280
2026-02-15 16:30 3.02 166 6820 (1949) 59 (1954) 853 91 162 202 253 546 985 1140 1920 3280
2026-02-15 15:30 3.02 166 6820 (1949) 59 (1954) 853 91 162 202 253 546 985 1140 1920 3280
2026-02-15 14:30 3.01 163 6820 (1949) 59 (1954) 853 91 162 202 253 546 985 1140 1920 3280
2026-02-15 13:30 3.00 161 6820 (1949) 59 (1954) 853 91 162 202 253 546 985 1140 1920 3280
2026-02-15 12:30 3.00 161 6820 (1949) 59 (1954) 853 91 162 202 253 546 985 1140 1920 3280
2026-02-15 11:30 3.00 161 6820 (1949) 59 (1954) 853 91 162 202 253 546 985 1140 1920 3280
2026-02-15 10:30 3.00 161 6820 (1949) 59 (1954) 853 91 162 202 253 546 985 1140 1920 3280
2026-02-15 09:30 3.00 161 6820 (1949) 59 (1954) 853 91 162 202 253 546 985 1140 1920 3280
2026-02-15 08:30 3.00 161 6820 (1949) 59 (1954) 853 91 162 202 253 546 985 1140 1920 3280
2026-02-15 07:30 3.00 161 6820 (1949) 59 (1954) 853 91 162 202 253 546 985 1140 1920 3280
2026-02-15 06:30 2.99 158 6820 (1949) 59 (1954) 853 91 162 202 253 546 985 1140 1920 3280
2026-02-15 05:30 2.99 158 6820 (1949) 59 (1954) 853 91 162 202 253 546 985 1140 1920 3280
2026-02-15 04:30 2.99 158 6820 (1949) 59 (1954) 853 91 162 202 253 546 985 1140 1920 3280
2026-02-15 03:30 2.99 158 6820 (1949) 59 (1954) 853 91 162 202 253 546 985 1140 1920 3280
2026-02-15 02:30 2.99 158 6820 (1949) 59 (1954) 853 91 162 202 253 546 985 1140 1920 3280
2026-02-15 01:30 2.99 158 6820 (1949) 59 (1954) 853 91 162 202 253 546 985 1140 1920 3280
2026-02-15 00:30 3.00 161 6820 (1949) 59 (1954) 853 91 162 202 253 546 985 1140 1920 3280
2026-02-14 23:30 3.00 161 6820 (1949) 59 (1954) 853 91 162 202 253 546 985 1140 1920 3280
2026-02-14 22:30 3.00 161 10900 (1946) 59 (1954) 844 91 155 205 230 525 976 1040 1590 2440
2026-02-14 21:30 3.00 161 10900 (1946) 59 (1954) 844 91 155 205 230 525 976 1040 1590 2440
2026-02-14 20:30 3.00 161 10900 (1946) 59 (1954) 844 91 155 205 230 525 976 1040 1590 2440
2026-02-14 19:30 3.00 161 10900 (1946) 59 (1954) 844 91 155 205 230 525 976 1040 1590 2440
2026-02-14 18:30 3.00 161 10900 (1946) 59 (1954) 844 91 155 205 230 525 976 1040 1590 2440
2026-02-14 17:30 2.99 158 10900 (1946) 59 (1954) 844 91 155 205 230 525 976 1040 1590 2440
2026-02-14 16:30 2.99 158 10900 (1946) 59 (1954) 844 91 155 205 230 525 976 1040 1590 2440
2026-02-14 15:30 2.99 158 10900 (1946) 59 (1954) 844 91 155 205 230 525 976 1040 1590 2440
2026-02-14 14:30 2.99 158 10900 (1946) 59 (1954) 844 91 155 205 230 525 976 1040 1590 2440
2026-02-14 13:30 2.99 158 10900 (1946) 59 (1954) 844 91 155 205 230 525 976 1040 1590 2440
2026-02-14 12:30 2.98 156 10900 (1946) 59 (1954) 844 91 155 205 230 525 976 1040 1590 2440
2026-02-14 11:30 2.98 156 10900 (1946) 59 (1954) 844 91 155 205 230 525 976 1040 1590 2440
2026-02-14 10:30 2.98 156 10900 (1946) 59 (1954) 844 91 155 205 230 525 976 1040 1590 2440
2026-02-14 09:30 2.98 156 10900 (1946) 59 (1954) 844 91 155 205 230 525 976 1040 1590 2440
2026-02-14 08:30 2.98 156 10900 (1946) 59 (1954) 844 91 155 205 230 525 976 1040 1590 2440
2026-02-14 07:30 2.97 153 10900 (1946) 59 (1954) 844 91 155 205 230 525 976 1040 1590 2440
2026-02-14 06:30 2.97 153 10900 (1946) 59 (1954) 844 91 155 205 230 525 976 1040 1590 2440
2026-02-14 05:30 2.97 153 10900 (1946) 59 (1954) 844 91 155 205 230 525 976 1040 1590 2440
2026-02-14 04:30 2.98 156 10900 (1946) 59 (1954) 844 91 155 205 230 525 976 1040 1590 2440
2026-02-14 03:30 2.98 156 10900 (1946) 59 (1954) 844 91 155 205 230 525 976 1040 1590 2440
2026-02-14 02:30 2.98 156 10900 (1946) 59 (1954) 844 91 155 205 230 525 976 1040 1590 2440
2026-02-14 01:30 2.98 156 10900 (1946) 59 (1954) 844 91 155 205 230 525 976 1040 1590 2440
2026-02-14 00:30 2.98 156 10900 (1946) 59 (1954) 844 91 155 205 230 525 976 1040 1590 2440
2026-02-13 23:30 2.98 156 10900 (1946) 59 (1954) 844 91 155 205 230 525 976 1040 1590 2440
2026-02-13 22:30 2.98 156 3610 (2020) 59 (1954) 698 94 155 202 224 525 898 1070 1470 2340
2026-02-13 21:30 2.99 158 3610 (2020) 59 (1954) 698 94 155 202 224 525 898 1070 1470 2340
2026-02-13 20:30 2.99 158 3610 (2020) 59 (1954) 698 94 155 202 224 525 898 1070 1470 2340
2026-02-13 19:30 2.99 158 3610 (2020) 59 (1954) 698 94 155 202 224 525 898 1070 1470 2340
2026-02-13 18:30 2.99 158 3610 (2020) 59 (1954) 698 94 155 202 224 525 898 1070 1470 2340
2026-02-13 17:30 2.99 158 3610 (2020) 59 (1954) 698 94 155 202 224 525 898 1070 1470 2340
2026-02-13 16:30 2.98 156 3610 (2020) 59 (1954) 698 94 155 202 224 525 898 1070 1470 2340
2026-02-13 15:30 2.98 156 3610 (2020) 59 (1954) 698 94 155 202 224 525 898 1070 1470 2340
2026-02-13 14:30 2.98 156 3610 (2020) 59 (1954) 698 94 155 202 224 525 898 1070 1470 2340
2026-02-13 13:30 2.97 153 3610 (2020) 59 (1954) 698 94 155 202 224 525 898 1070 1470 2340
2026-02-13 12:30 2.97 153 3610 (2020) 59 (1954) 698 94 155 202 224 525 898 1070 1470 2340
2026-02-13 11:30 2.97 153 3610 (2020) 59 (1954) 698 94 155 202 224 525 898 1070 1470 2340
2026-02-13 10:30 2.97 153 3610 (2020) 59 (1954) 698 94 155 202 224 525 898 1070 1470 2340
2026-02-13 09:30 2.97 153 3610 (2020) 59 (1954) 698 94 155 202 224 525 898 1070 1470 2340
2026-02-13 08:30 2.97 153 3610 (2020) 59 (1954) 698 94 155 202 224 525 898 1070 1470 2340
2026-02-13 07:30 2.97 153 3610 (2020) 59 (1954) 698 94 155 202 224 525 898 1070 1470 2340
2026-02-13 06:30 2.97 153 3610 (2020) 59 (1954) 698 94 155 202 224 525 898 1070 1470 2340
2026-02-13 05:30 2.97 153 3610 (2020) 59 (1954) 698 94 155 202 224 525 898 1070 1470 2340
2026-02-13 04:30 2.97 153 3610 (2020) 59 (1954) 698 94 155 202 224 525 898 1070 1470 2340
2026-02-13 03:30 2.97 153 3610 (2020) 59 (1954) 698 94 155 202 224 525 898 1070 1470 2340
2026-02-13 02:30 2.97 153 3610 (2020) 59 (1954) 698 94 155 202 224 525 898 1070 1470 2340
2026-02-13 01:30 2.97 153 3610 (2020) 59 (1954) 698 94 155 202 224 525 898 1070 1470 2340
2026-02-13 00:30 2.97 153 3610 (2020) 59 (1954) 698 94 155 202 224 525 898 1070 1470 2340
2026-02-12 23:30 2.98 156 3610 (2020) 59 (1954) 698 94 155 202 224 525 898 1070 1470 2340
2026-02-12 22:30 2.98 156 5910 (2009) 61 (1954) 684 98 144 196 212 511 867 980 1370 1890
2026-02-12 21:30 2.98 156 5910 (2009) 61 (1954) 684 98 144 196 212 511 867 980 1370 1890
2026-02-12 20:30 2.98 156 5910 (2009) 61 (1954) 684 98 144 196 212 511 867 980 1370 1890
2026-02-12 19:30 2.98 156 5910 (2009) 61 (1954) 684 98 144 196 212 511 867 980 1370 1890
2026-02-12 18:30 2.98 156 5910 (2009) 61 (1954) 684 98 144 196 212 511 867 980 1370 1890
2026-02-12 17:30 2.99 158 5910 (2009) 61 (1954) 684 98 144 196 212 511 867 980 1370 1890
2026-02-12 16:30 2.98 156 5910 (2009) 61 (1954) 684 98 144 196 212 511 867 980 1370 1890
2026-02-12 15:30 2.98 156 5910 (2009) 61 (1954) 684 98 144 196 212 511 867 980 1370 1890
2026-02-12 14:30 2.97 153 5910 (2009) 61 (1954) 684 98 144 196 212 511 867 980 1370 1890
2026-02-12 13:30 2.97 153 5910 (2009) 61 (1954) 684 98 144 196 212 511 867 980 1370 1890
2026-02-12 12:30 2.98 156 5910 (2009) 61 (1954) 684 98 144 196 212 511 867 980 1370 1890
2026-02-12 11:30 2.97 153 5910 (2009) 61 (1954) 684 98 144 196 212 511 867 980 1370 1890
2026-02-12 10:30 2.98 156 5910 (2009) 61 (1954) 684 98 144 196 212 511 867 980 1370 1890
2026-02-12 09:30 2.97 153 5910 (2009) 61 (1954) 684 98 144 196 212 511 867 980 1370 1890
2026-02-12 08:30 2.97 153 5910 (2009) 61 (1954) 684 98 144 196 212 511 867 980 1370 1890
2026-02-12 07:30 2.97 153 5910 (2009) 61 (1954) 684 98 144 196 212 511 867 980 1370 1890
2026-02-12 06:30 2.97 153 5910 (2009) 61 (1954) 684 98 144 196 212 511 867 980 1370 1890
2026-02-12 05:30 2.97 153 5910 (2009) 61 (1954) 684 98 144 196 212 511 867 980 1370 1890
2026-02-12 04:30 2.97 153 5910 (2009) 61 (1954) 684 98 144 196 212 511 867 980 1370 1890
2026-02-12 03:30 2.97 153 5910 (2009) 61 (1954) 684 98 144 196 212 511 867 980 1370 1890
2026-02-12 02:30 2.98 156 5910 (2009) 61 (1954) 684 98 144 196 212 511 867 980 1370 1890
2026-02-12 01:30 2.98 156 5910 (2009) 61 (1954) 684 98 144 196 212 511 867 980 1370 1890
2026-02-12 00:30 2.98 156 5910 (2009) 61 (1954) 684 98 144 196 212 511 867 980 1370 1890
2026-02-11 23:30 2.98 156 5910 (2009) 61 (1954) 684 98 144 196 212 511 867 980 1370 1890
2026-02-11 22:30 2.98 156 5620 (1966) 57 (1940) 677 100 140 191 215 522 839 976 1470 1840
2026-02-11 21:30 2.98 156 5620 (1966) 57 (1940) 677 100 140 191 215 522 839 976 1470 1840
2026-02-11 20:30 2.99 158 5620 (1966) 57 (1940) 677 100 140 191 215 522 839 976 1470 1840
2026-02-11 19:30 2.99 158 5620 (1966) 57 (1940) 677 100 140 191 215 522 839 976 1470 1840
2026-02-11 18:30 2.99 158 5620 (1966) 57 (1940) 677 100 140 191 215 522 839 976 1470 1840
2026-02-11 17:30 2.99 158 5620 (1966) 57 (1940) 677 100 140 191 215 522 839 976 1470 1840
2026-02-11 16:30 2.99 158 5620 (1966) 57 (1940) 677 100 140 191 215 522 839 976 1470 1840
2026-02-11 15:30 2.98 156 5620 (1966) 57 (1940) 677 100 140 191 215 522 839 976 1470 1840
2026-02-11 14:30 2.98 156 5620 (1966) 57 (1940) 677 100 140 191 215 522 839 976 1470 1840
2026-02-11 13:30 2.98 156 5620 (1966) 57 (1940) 677 100 140 191 215 522 839 976 1470 1840
2026-02-11 12:30 2.98 156 5620 (1966) 57 (1940) 677 100 140 191 215 522 839 976 1470 1840
2026-02-11 11:30 2.97 153 5620 (1966) 57 (1940) 677 100 140 191 215 522 839 976 1470 1840
2026-02-11 10:30 2.97 153 5620 (1966) 57 (1940) 677 100 140 191 215 522 839 976 1470 1840
2026-02-11 09:30 2.97 153 5620 (1966) 57 (1940) 677 100 140 191 215 522 839 976 1470 1840
2026-02-11 08:30 2.97 153 5620 (1966) 57 (1940) 677 100 140 191 215 522 839 976 1470 1840
2026-02-11 07:30 2.97 153 5620 (1966) 57 (1940) 677 100 140 191 215 522 839 976 1470 1840
2026-02-11 06:30 2.97 153 5620 (1966) 57 (1940) 677 100 140 191 215 522 839 976 1470 1840
2026-02-11 05:30 2.98 156 5620 (1966) 57 (1940) 677 100 140 191 215 522 839 976 1470 1840
2026-02-11 04:30 2.98 156 5620 (1966) 57 (1940) 677 100 140 191 215 522 839 976 1470 1840
2026-02-11 03:30 2.98 156 5620 (1966) 57 (1940) 677 100 140 191 215 522 839 976 1470 1840
2026-02-11 02:30 2.98 156 5620 (1966) 57 (1940) 677 100 140 191 215 522 839 976 1470 1840
2026-02-11 01:30 2.98 156 5620 (1966) 57 (1940) 677 100 140 191 215 522 839 976 1470 1840
2026-02-11 00:30 2.98 156 5620 (1966) 57 (1940) 677 100 140 191 215 522 839 976 1470 1840
2026-02-10 23:30 2.99 158 5620 (1966) 57 (1940) 677 100 140 191 215 522 839 976 1470 1840
2026-02-10 22:30 2.99 158 12100 (1966) 65 (1954) 808 90 129 193 216 513 870 948 1520 2450
2026-02-10 21:30 2.99 158 12100 (1966) 65 (1954) 808 90 129 193 216 513 870 948 1520 2450
2026-02-10 20:30 2.99 158 12100 (1966) 65 (1954) 808 90 129 193 216 513 870 948 1520 2450
2026-02-10 19:30 2.99 158 12100 (1966) 65 (1954) 808 90 129 193 216 513 870 948 1520 2450
2026-02-10 18:30 2.99 158 12100 (1966) 65 (1954) 808 90 129 193 216 513 870 948 1520 2450
2026-02-10 17:30 2.99 158 12100 (1966) 65 (1954) 808 90 129 193 216 513 870 948 1520 2450
2026-02-10 16:30 2.99 158 12100 (1966) 65 (1954) 808 90 129 193 216 513 870 948 1520 2450
2026-02-10 15:30 2.99 158 12100 (1966) 65 (1954) 808 90 129 193 216 513 870 948 1520 2450
2026-02-10 14:30 2.98 156 12100 (1966) 65 (1954) 808 90 129 193 216 513 870 948 1520 2450
2026-02-10 13:30 2.99 158 12100 (1966) 65 (1954) 808 90 129 193 216 513 870 948 1520 2450
2026-02-10 12:30 2.98 156 12100 (1966) 65 (1954) 808 90 129 193 216 513 870 948 1520 2450
2026-02-10 11:30 2.99 158 12100 (1966) 65 (1954) 808 90 129 193 216 513 870 948 1520 2450
2026-02-10 10:30 2.98 156 12100 (1966) 65 (1954) 808 90 129 193 216 513 870 948 1520 2450
2026-02-10 09:30 2.98 156 12100 (1966) 65 (1954) 808 90 129 193 216 513 870 948 1520 2450
2026-02-10 08:30 2.98 156 12100 (1966) 65 (1954) 808 90 129 193 216 513 870 948 1520 2450
2026-02-10 07:30 2.98 156 12100 (1966) 65 (1954) 808 90 129 193 216 513 870 948 1520 2450
2026-02-10 06:30 2.98 156 12100 (1966) 65 (1954) 808 90 129 193 216 513 870 948 1520 2450
2026-02-10 05:30 2.98 156 12100 (1966) 65 (1954) 808 90 129 193 216 513 870 948 1520 2450
2026-02-10 04:30 2.98 156 12100 (1966) 65 (1954) 808 90 129 193 216 513 870 948 1520 2450
2026-02-10 03:30 2.98 156 12100 (1966) 65 (1954) 808 90 129 193 216 513 870 948 1520 2450
2026-02-10 02:30 2.98 156 12100 (1966) 65 (1954) 808 90 129 193 216 513 870 948 1520 2450
2026-02-10 01:30 2.99 158 12100 (1966) 65 (1954) 808 90 129 193 216 513 870 948 1520 2450
2026-02-10 00:30 2.99 158 12100 (1966) 65 (1954) 808 90 129 193 216 513 870 948 1520 2450
2026-02-09 23:30 2.99 158 12100 (1966) 65 (1954) 808 90 129 193 216 513 870 948 1520 2450
2026-02-09 22:30 2.99 158 8830 (2023) 65 (1954) 749 86 130 188 207 517 863 1060 1480 2210
2026-02-09 21:30 2.99 158 8830 (2023) 65 (1954) 749 86 130 188 207 517 863 1060 1480 2210
2026-02-09 20:30 2.99 158 8830 (2023) 65 (1954) 749 86 130 188 207 517 863 1060 1480 2210
2026-02-09 19:30 2.99 158 8830 (2023) 65 (1954) 749 86 130 188 207 517 863 1060 1480 2210
2026-02-09 18:30 2.99 158 8830 (2023) 65 (1954) 749 86 130 188 207 517 863 1060 1480 2210
2026-02-09 17:30 2.99 158 8830 (2023) 65 (1954) 749 86 130 188 207 517 863 1060 1480 2210
2026-02-09 16:30 2.99 158 8830 (2023) 65 (1954) 749 86 130 188 207 517 863 1060 1480 2210
2026-02-09 15:30 2.98 156 8830 (2023) 65 (1954) 749 86 130 188 207 517 863 1060 1480 2210
2026-02-09 14:30 2.98 156 8830 (2023) 65 (1954) 749 86 130 188 207 517 863 1060 1480 2210
2026-02-09 13:30 2.98 156 8830 (2023) 65 (1954) 749 86 130 188 207 517 863 1060 1480 2210
2026-02-09 12:30 2.97 153 8830 (2023) 65 (1954) 749 86 130 188 207 517 863 1060 1480 2210
2026-02-09 11:30 2.97 153 8830 (2023) 65 (1954) 749 86 130 188 207 517 863 1060 1480 2210
2026-02-09 10:30 2.97 153 8830 (2023) 65 (1954) 749 86 130 188 207 517 863 1060 1480 2210
2026-02-09 09:30 2.97 153 8830 (2023) 65 (1954) 749 86 130 188 207 517 863 1060 1480 2210
2026-02-09 08:30 2.97 153 8830 (2023) 65 (1954) 749 86 130 188 207 517 863 1060 1480 2210
2026-02-09 07:30 2.97 153 8830 (2023) 65 (1954) 749 86 130 188 207 517 863 1060 1480 2210
2026-02-09 06:30 2.97 153 8830 (2023) 65 (1954) 749 86 130 188 207 517 863 1060 1480 2210
2026-02-09 05:30 2.97 153 8830 (2023) 65 (1954) 749 86 130 188 207 517 863 1060 1480 2210
2026-02-09 04:30 2.97 153 8830 (2023) 65 (1954) 749 86 130 188 207 517 863 1060 1480 2210
2026-02-09 03:30 2.97 153 8830 (2023) 65 (1954) 749 86 130 188 207 517 863 1060 1480 2210
2026-02-09 02:30 2.97 153 8830 (2023) 65 (1954) 749 86 130 188 207 517 863 1060 1480 2210
2026-02-09 01:30 2.97 153 8830 (2023) 65 (1954) 749 86 130 188 207 517 863 1060 1480 2210
2026-02-09 00:30 2.97 153 8830 (2023) 65 (1954) 749 86 130 188 207 517 863 1060 1480 2210
2026-02-08 23:30 2.97 153 8830 (2023) 65 (1954) 749 86 130 188 207 517 863 1060 1480 2210
2026-02-08 22:30 2.98 156 5410 (1999) 68 (1954) 677 85 139 179 213 469 857 1010 1440 1920
2026-02-08 21:30 2.98 156 5410 (1999) 68 (1954) 677 85 139 179 213 469 857 1010 1440 1920
2026-02-08 20:30 2.98 156 5410 (1999) 68 (1954) 677 85 139 179 213 469 857 1010 1440 1920
2026-02-08 19:30 2.98 156 5410 (1999) 68 (1954) 677 85 139 179 213 469 857 1010 1440 1920
2026-02-08 18:30 2.98 156 5410 (1999) 68 (1954) 677 85 139 179 213 469 857 1010 1440 1920
2026-02-08 17:30 2.97 153 5410 (1999) 68 (1954) 677 85 139 179 213 469 857 1010 1440 1920
2026-02-08 16:30 2.98 156 5410 (1999) 68 (1954) 677 85 139 179 213 469 857 1010 1440 1920
2026-02-08 15:30 2.97 153 5410 (1999) 68 (1954) 677 85 139 179 213 469 857 1010 1440 1920
2026-02-08 14:30 2.97 153 5410 (1999) 68 (1954) 677 85 139 179 213 469 857 1010 1440 1920
2026-02-08 13:30 2.97 153 5410 (1999) 68 (1954) 677 85 139 179 213 469 857 1010 1440 1920
2026-02-08 12:30 2.97 153 5410 (1999) 68 (1954) 677 85 139 179 213 469 857 1010 1440 1920
2026-02-08 11:30 2.96 151 5410 (1999) 68 (1954) 677 85 139 179 213 469 857 1010 1440 1920
2026-02-08 10:30 2.96 151 5410 (1999) 68 (1954) 677 85 139 179 213 469 857 1010 1440 1920
2026-02-08 09:30 2.96 151 5410 (1999) 68 (1954) 677 85 139 179 213 469 857 1010 1440 1920
2026-02-08 08:30 2.96 151 5410 (1999) 68 (1954) 677 85 139 179 213 469 857 1010 1440 1920
2026-02-08 07:30 2.96 151 5410 (1999) 68 (1954) 677 85 139 179 213 469 857 1010 1440 1920
2026-02-08 06:30 2.96 151 5410 (1999) 68 (1954) 677 85 139 179 213 469 857 1010 1440 1920
2026-02-08 05:30 2.95 148 5410 (1999) 68 (1954) 677 85 139 179 213 469 857 1010 1440 1920
2026-02-08 04:30 2.95 148 5410 (1999) 68 (1954) 677 85 139 179 213 469 857 1010 1440 1920
2026-02-08 03:30 2.95 148 5410 (1999) 68 (1954) 677 85 139 179 213 469 857 1010 1440 1920
2026-02-08 02:30 2.95 148 5410 (1999) 68 (1954) 677 85 139 179 213 469 857 1010 1440 1920
2026-02-08 01:30 2.95 148 5410 (1999) 68 (1954) 677 85 139 179 213 469 857 1010 1440 1920
2026-02-08 00:30 2.95 148 5410 (1999) 68 (1954) 677 85 139 179 213 469 857 1010 1440 1920
2026-02-07 23:30 2.95 148 5410 (1999) 68 (1954) 677 85 139 179 213 469 857 1010 1440 1920
2026-02-07 22:30 2.95 148 2700 (1999) 68 (1954) 630 88 139 181 209 463 869 967 1470 1700
2026-02-07 21:30 2.95 148 2700 (1999) 68 (1954) 630 88 139 181 209 463 869 967 1470 1700
2026-02-07 20:30 2.95 148 2700 (1999) 68 (1954) 630 88 139 181 209 463 869 967 1470 1700
2026-02-07 19:30 2.95 148 2700 (1999) 68 (1954) 630 88 139 181 209 463 869 967 1470 1700
2026-02-07 18:30 2.95 148 2700 (1999) 68 (1954) 630 88 139 181 209 463 869 967 1470 1700
2026-02-07 17:30 2.95 148 2700 (1999) 68 (1954) 630 88 139 181 209 463 869 967 1470 1700
2026-02-07 16:30 2.95 148 2700 (1999) 68 (1954) 630 88 139 181 209 463 869 967 1470 1700
2026-02-07 15:30 2.95 148 2700 (1999) 68 (1954) 630 88 139 181 209 463 869 967 1470 1700
2026-02-07 14:30 2.95 148 2700 (1999) 68 (1954) 630 88 139 181 209 463 869 967 1470 1700
2026-02-07 13:30 2.94 146 2700 (1999) 68 (1954) 630 88 139 181 209 463 869 967 1470 1700
2026-02-07 12:30 2.94 146 2700 (1999) 68 (1954) 630 88 139 181 209 463 869 967 1470 1700
2026-02-07 11:30 2.94 146 2700 (1999) 68 (1954) 630 88 139 181 209 463 869 967 1470 1700
2026-02-07 10:30 2.93 143 2700 (1999) 68 (1954) 630 88 139 181 209 463 869 967 1470 1700
2026-02-07 09:30 2.93 143 2700 (1999) 68 (1954) 630 88 139 181 209 463 869 967 1470 1700
2026-02-07 08:30 2.93 143 2700 (1999) 68 (1954) 630 88 139 181 209 463 869 967 1470 1700
2026-02-07 07:30 2.93 143 2700 (1999) 68 (1954) 630 88 139 181 209 463 869 967 1470 1700
2026-02-07 06:30 2.93 143 2700 (1999) 68 (1954) 630 88 139 181 209 463 869 967 1470 1700
2026-02-07 05:30 2.93 143 2700 (1999) 68 (1954) 630 88 139 181 209 463 869 967 1470 1700
2026-02-07 04:30 2.93 143 2700 (1999) 68 (1954) 630 88 139 181 209 463 869 967 1470 1700
2026-02-07 03:30 2.93 143 2700 (1999) 68 (1954) 630 88 139 181 209 463 869 967 1470 1700
2026-02-07 02:30 2.94 146 2700 (1999) 68 (1954) 630 88 139 181 209 463 869 967 1470 1700
2026-02-07 01:30 2.94 146 2700 (1999) 68 (1954) 630 88 139 181 209 463 869 967 1470 1700
2026-02-07 00:30 2.94 146 2700 (1999) 68 (1954) 630 88 139 181 209 463 869 967 1470 1700
2026-02-06 23:30 2.94 146 2700 (1999) 68 (1954) 630 88 139 181 209 463 869 967 1470 1700
2026-02-06 22:30 2.95 148 2620 (1968) 72 (1954) 608 91 137 178 204 444 902 1000 1480 1660
2026-02-06 21:30 2.95 148 2620 (1968) 72 (1954) 608 91 137 178 204 444 902 1000 1480 1660
2026-02-06 20:30 2.95 148 2620 (1968) 72 (1954) 608 91 137 178 204 444 902 1000 1480 1660
2026-02-06 19:30 2.95 148 2620 (1968) 72 (1954) 608 91 137 178 204 444 902 1000 1480 1660
2026-02-06 18:30 2.95 148 2620 (1968) 72 (1954) 608 91 137 178 204 444 902 1000 1480 1660
2026-02-06 17:30 2.94 146 2620 (1968) 72 (1954) 608 91 137 178 204 444 902 1000 1480 1660
2026-02-06 16:30 2.93 143 2620 (1968) 72 (1954) 608 91 137 178 204 444 902 1000 1480 1660
2026-02-06 15:30 2.94 146 2620 (1968) 72 (1954) 608 91 137 178 204 444 902 1000 1480 1660
2026-02-06 14:30 2.93 143 2620 (1968) 72 (1954) 608 91 137 178 204 444 902 1000 1480 1660
2026-02-06 13:30 2.93 143 2620 (1968) 72 (1954) 608 91 137 178 204 444 902 1000 1480 1660
2026-02-06 12:30 2.93 143 2620 (1968) 72 (1954) 608 91 137 178 204 444 902 1000 1480 1660
2026-02-06 11:30 2.93 143 2620 (1968) 72 (1954) 608 91 137 178 204 444 902 1000 1480 1660
2026-02-06 10:30 2.93 143 2620 (1968) 72 (1954) 608 91 137 178 204 444 902 1000 1480 1660
2026-02-06 09:30 2.93 143 2620 (1968) 72 (1954) 608 91 137 178 204 444 902 1000 1480 1660
2026-02-06 08:30 2.93 143 2620 (1968) 72 (1954) 608 91 137 178 204 444 902 1000 1480 1660
2026-02-06 07:30 2.93 143 2620 (1968) 72 (1954) 608 91 137 178 204 444 902 1000 1480 1660
2026-02-06 06:30 2.93 143 2620 (1968) 72 (1954) 608 91 137 178 204 444 902 1000 1480 1660
2026-02-06 05:30 2.93 143 2620 (1968) 72 (1954) 608 91 137 178 204 444 902 1000 1480 1660
2026-02-06 04:30 2.93 143 2620 (1968) 72 (1954) 608 91 137 178 204 444 902 1000 1480 1660
2026-02-06 03:30 2.93 143 2620 (1968) 72 (1954) 608 91 137 178 204 444 902 1000 1480 1660
2026-02-06 02:30 2.93 143 2620 (1968) 72 (1954) 608 91 137 178 204 444 902 1000 1480 1660
2026-02-06 01:30 2.93 143 2620 (1968) 72 (1954) 608 91 137 178 204 444 902 1000 1480 1660
2026-02-06 00:30 2.93 143 2620 (1968) 72 (1954) 608 91 137 178 204 444 902 1000 1480 1660
2026-02-05 23:30 2.93 143 2620 (1968) 72 (1954) 608 91 137 178 204 444 902 1000 1480 1660
2026-02-05 22:30 2.93 143 3260 (1968) 74 (1954) 616 91 116 182 208 419 907 1020 1460 1640
2026-02-05 21:30 2.94 146 3260 (1968) 74 (1954) 616 91 116 182 208 419 907 1020 1460 1640
2026-02-05 20:30 2.94 146 3260 (1968) 74 (1954) 616 91 116 182 208 419 907 1020 1460 1640
2026-02-05 19:30 2.93 143 3260 (1968) 74 (1954) 616 91 116 182 208 419 907 1020 1460 1640
2026-02-05 18:30 2.93 143 3260 (1968) 74 (1954) 616 91 116 182 208 419 907 1020 1460 1640
2026-02-05 17:30 2.93 143 3260 (1968) 74 (1954) 616 91 116 182 208 419 907 1020 1460 1640
2026-02-05 16:30 2.93 143 3260 (1968) 74 (1954) 616 91 116 182 208 419 907 1020 1460 1640
2026-02-05 15:30 2.93 143 3260 (1968) 74 (1954) 616 91 116 182 208 419 907 1020 1460 1640
2026-02-05 14:30 2.94 146 3260 (1968) 74 (1954) 616 91 116 182 208 419 907 1020 1460 1640
2026-02-05 13:30 2.93 143 3260 (1968) 74 (1954) 616 91 116 182 208 419 907 1020 1460 1640
2026-02-05 12:30 2.93 143 3260 (1968) 74 (1954) 616 91 116 182 208 419 907 1020 1460 1640
2026-02-05 11:30 2.93 143 3260 (1968) 74 (1954) 616 91 116 182 208 419 907 1020 1460 1640
2026-02-05 10:30 2.92 141 3260 (1968) 74 (1954) 616 91 116 182 208 419 907 1020 1460 1640
2026-02-05 09:30 2.92 141 3260 (1968) 74 (1954) 616 91 116 182 208 419 907 1020 1460 1640
2026-02-05 08:30 2.92 141 3260 (1968) 74 (1954) 616 91 116 182 208 419 907 1020 1460 1640
2026-02-05 07:30 2.91 138 3260 (1968) 74 (1954) 616 91 116 182 208 419 907 1020 1460 1640
2026-02-05 06:30 2.91 138 3260 (1968) 74 (1954) 616 91 116 182 208 419 907 1020 1460 1640
2026-02-05 05:30 2.91 138 3260 (1968) 74 (1954) 616 91 116 182 208 419 907 1020 1460 1640
2026-02-05 04:30 2.91 138 3260 (1968) 74 (1954) 616 91 116 182 208 419 907 1020 1460 1640
2026-02-05 03:30 2.91 138 3260 (1968) 74 (1954) 616 91 116 182 208 419 907 1020 1460 1640
2026-02-05 02:30 2.91 138 3260 (1968) 74 (1954) 616 91 116 182 208 419 907 1020 1460 1640
2026-02-05 01:30 2.91 138 3260 (1968) 74 (1954) 616 91 116 182 208 419 907 1020 1460 1640
2026-02-05 00:30 2.91 138 3260 (1968) 74 (1954) 616 91 116 182 208 419 907 1020 1460 1640
2026-02-04 23:30 2.91 138 3260 (1968) 74 (1954) 616 91 116 182 208 419 907 1020 1460 1640
2026-02-04 22:30 2.91 138 4300 (1968) 60 (1940) 654 83 115 187 210 428 904 1050 1550 1930
2026-02-04 21:30 2.91 138 4300 (1968) 60 (1940) 654 83 115 187 210 428 904 1050 1550 1930
2026-02-04 20:30 2.91 138 4300 (1968) 60 (1940) 654 83 115 187 210 428 904 1050 1550 1930
2026-02-04 19:30 2.91 138 4300 (1968) 60 (1940) 654 83 115 187 210 428 904 1050 1550 1930
2026-02-04 18:30 2.90 136 4300 (1968) 60 (1940) 654 83 115 187 210 428 904 1050 1550 1930
2026-02-04 17:30 2.90 136 4300 (1968) 60 (1940) 654 83 115 187 210 428 904 1050 1550 1930
2026-02-04 16:30 2.90 136 4300 (1968) 60 (1940) 654 83 115 187 210 428 904 1050 1550 1930
2026-02-04 15:30 2.90 136 4300 (1968) 60 (1940) 654 83 115 187 210 428 904 1050 1550 1930
2026-02-04 14:30 2.90 136 4300 (1968) 60 (1940) 654 83 115 187 210 428 904 1050 1550 1930
2026-02-04 13:30 2.90 136 4300 (1968) 60 (1940) 654 83 115 187 210 428 904 1050 1550 1930
2026-02-04 12:30 2.90 136 4300 (1968) 60 (1940) 654 83 115 187 210 428 904 1050 1550 1930
2026-02-04 11:30 2.90 136 4300 (1968) 60 (1940) 654 83 115 187 210 428 904 1050 1550 1930
2026-02-04 10:30 2.89 133 4300 (1968) 60 (1940) 654 83 115 187 210 428 904 1050 1550 1930
2026-02-04 09:30 2.89 133 4300 (1968) 60 (1940) 654 83 115 187 210 428 904 1050 1550 1930
2026-02-04 08:30 2.89 133 4300 (1968) 60 (1940) 654 83 115 187 210 428 904 1050 1550 1930
2026-02-04 07:30 2.89 133 4300 (1968) 60 (1940) 654 83 115 187 210 428 904 1050 1550 1930
2026-02-04 06:30 2.89 133 4300 (1968) 60 (1940) 654 83 115 187 210 428 904 1050 1550 1930
2026-02-04 05:30 2.89 133 4300 (1968) 60 (1940) 654 83 115 187 210 428 904 1050 1550 1930
2026-02-04 04:30 2.89 133 4300 (1968) 60 (1940) 654 83 115 187 210 428 904 1050 1550 1930
2026-02-04 03:30 2.89 133 4300 (1968) 60 (1940) 654 83 115 187 210 428 904 1050 1550 1930
2026-02-04 02:30 2.89 133 4300 (1968) 60 (1940) 654 83 115 187 210 428 904 1050 1550 1930
2026-02-04 01:30 2.89 133 4300 (1968) 60 (1940) 654 83 115 187 210 428 904 1050 1550 1930
2026-02-04 00:30 2.89 133 4300 (1968) 60 (1940) 654 83 115 187 210 428 904 1050 1550 1930
2026-02-03 23:30 2.89 133 4300 (1968) 60 (1940) 654 83 115 187 210 428 904 1050 1550 1930
2026-02-03 22:30 2.89 133 6850 (1968) 62 (1964) 737 89 115 192 214 412 913 1090 1640 2400
2026-02-03 21:30 2.89 133 6850 (1968) 62 (1964) 737 89 115 192 214 412 913 1090 1640 2400
2026-02-03 20:30 2.89 133 6850 (1968) 62 (1964) 737 89 115 192 214 412 913 1090 1640 2400
2026-02-03 19:30 2.89 133 6850 (1968) 62 (1964) 737 89 115 192 214 412 913 1090 1640 2400
2026-02-03 18:30 2.89 133 6850 (1968) 62 (1964) 737 89 115 192 214 412 913 1090 1640 2400
2026-02-03 17:30 2.89 133 6850 (1968) 62 (1964) 737 89 115 192 214 412 913 1090 1640 2400
2026-02-03 16:30 2.89 133 6850 (1968) 62 (1964) 737 89 115 192 214 412 913 1090 1640 2400
2026-02-03 15:30 2.88 131 6850 (1968) 62 (1964) 737 89 115 192 214 412 913 1090 1640 2400
2026-02-03 14:30 2.88 131 6850 (1968) 62 (1964) 737 89 115 192 214 412 913 1090 1640 2400
2026-02-03 13:30 2.88 131 6850 (1968) 62 (1964) 737 89 115 192 214 412 913 1090 1640 2400
2026-02-03 12:30 2.87 129 6850 (1968) 62 (1964) 737 89 115 192 214 412 913 1090 1640 2400
2026-02-03 11:30 2.87 129 6850 (1968) 62 (1964) 737 89 115 192 214 412 913 1090 1640 2400
2026-02-03 10:30 2.87 129 6850 (1968) 62 (1964) 737 89 115 192 214 412 913 1090 1640 2400
2026-02-03 09:30 2.88 131 6850 (1968) 62 (1964) 737 89 115 192 214 412 913 1090 1640 2400
2026-02-03 08:30 2.88 131 6850 (1968) 62 (1964) 737 89 115 192 214 412 913 1090 1640 2400
2026-02-03 07:30 2.88 131 6850 (1968) 62 (1964) 737 89 115 192 214 412 913 1090 1640 2400
2026-02-03 06:30 2.88 131 6850 (1968) 62 (1964) 737 89 115 192 214 412 913 1090 1640 2400
2026-02-03 05:30 2.88 131 6850 (1968) 62 (1964) 737 89 115 192 214 412 913 1090 1640 2400
2026-02-03 04:30 2.88 131 6850 (1968) 62 (1964) 737 89 115 192 214 412 913 1090 1640 2400
2026-02-03 03:30 2.88 131 6850 (1968) 62 (1964) 737 89 115 192 214 412 913 1090 1640 2400
2026-02-03 02:30 2.88 131 6850 (1968) 62 (1964) 737 89 115 192 214 412 913 1090 1640 2400
2026-02-03 01:30 2.88 131 6850 (1968) 62 (1964) 737 89 115 192 214 412 913 1090 1640 2400
2026-02-03 00:30 2.88 131 6850 (1968) 62 (1964) 737 89 115 192 214 412 913 1090 1640 2400
2026-02-02 23:30 2.88 131 6850 (1968) 62 (1964) 737 89 115 192 214 412 913 1090 1640 2400
2026-02-02 22:30 2.88 131 17900 (1968) 64 (1964) 893 86 116 196 209 401 934 1140 1610 2970
2026-02-02 21:30 2.89 133 17900 (1968) 64 (1964) 893 86 116 196 209 401 934 1140 1610 2970
2026-02-02 20:30 2.89 133 17900 (1968) 64 (1964) 893 86 116 196 209 401 934 1140 1610 2970
2026-02-02 19:30 2.88 131 17900 (1968) 64 (1964) 893 86 116 196 209 401 934 1140 1610 2970
2026-02-02 18:30 2.89 133 17900 (1968) 64 (1964) 893 86 116 196 209 401 934 1140 1610 2970
2026-02-02 17:30 2.89 133 17900 (1968) 64 (1964) 893 86 116 196 209 401 934 1140 1610 2970
2026-02-02 16:30 2.89 133 17900 (1968) 64 (1964) 893 86 116 196 209 401 934 1140 1610 2970
2026-02-02 15:30 2.88 131 17900 (1968) 64 (1964) 893 86 116 196 209 401 934 1140 1610 2970
2026-02-02 14:30 2.88 131 17900 (1968) 64 (1964) 893 86 116 196 209 401 934 1140 1610 2970
2026-02-02 13:30 2.88 131 17900 (1968) 64 (1964) 893 86 116 196 209 401 934 1140 1610 2970
2026-02-02 12:30 2.87 129 17900 (1968) 64 (1964) 893 86 116 196 209 401 934 1140 1610 2970
2026-02-02 11:30 2.87 129 17900 (1968) 64 (1964) 893 86 116 196 209 401 934 1140 1610 2970
2026-02-02 10:30 2.87 129 17900 (1968) 64 (1964) 893 86 116 196 209 401 934 1140 1610 2970
2026-02-02 09:30 2.87 129 17900 (1968) 64 (1964) 893 86 116 196 209 401 934 1140 1610 2970
2026-02-02 08:30 2.87 129 17900 (1968) 64 (1964) 893 86 116 196 209 401 934 1140 1610 2970
2026-02-02 07:30 2.87 129 17900 (1968) 64 (1964) 893 86 116 196 209 401 934 1140 1610 2970
2026-02-02 06:30 2.87 129 17900 (1968) 64 (1964) 893 86 116 196 209 401 934 1140 1610 2970
2026-02-02 05:30 2.87 129 17900 (1968) 64 (1964) 893 86 116 196 209 401 934 1140 1610 2970
2026-02-02 04:30 2.87 129 17900 (1968) 64 (1964) 893 86 116 196 209 401 934 1140 1610 2970
2026-02-02 03:30 2.87 129 17900 (1968) 64 (1964) 893 86 116 196 209 401 934 1140 1610 2970
2026-02-02 02:30 2.87 129 17900 (1968) 64 (1964) 893 86 116 196 209 401 934 1140 1610 2970
2026-02-02 01:30 2.87 129 17900 (1968) 64 (1964) 893 86 116 196 209 401 934 1140 1610 2970
2026-02-02 00:30 2.87 129 17900 (1968) 64 (1964) 893 86 116 196 209 401 934 1140 1610 2970
2026-02-01 23:30 2.88 131 17900 (1968) 64 (1964) 893 86 116 196 209 401 934 1140 1610 2970
2026-02-01 22:30 2.88 131 6870 (1968) 64 (1964) 786 81 120 197 210 419 834 1000 1650 3230
2026-02-01 21:30 2.88 131 6870 (1968) 64 (1964) 786 81 120 197 210 419 834 1000 1650 3230
2026-02-01 20:30 2.88 131 6870 (1968) 64 (1964) 786 81 120 197 210 419 834 1000 1650 3230
2026-02-01 19:30 2.88 131 6870 (1968) 64 (1964) 786 81 120 197 210 419 834 1000 1650 3230
2026-02-01 18:30 2.88 131 6870 (1968) 64 (1964) 786 81 120 197 210 419 834 1000 1650 3230
2026-02-01 17:30 2.88 131 6870 (1968) 64 (1964) 786 81 120 197 210 419 834 1000 1650 3230
2026-02-01 16:30 2.88 131 6870 (1968) 64 (1964) 786 81 120 197 210 419 834 1000 1650 3230
2026-02-01 15:30 2.88 131 6870 (1968) 64 (1964) 786 81 120 197 210 419 834 1000 1650 3230
2026-02-01 14:30 2.88 131 6870 (1968) 64 (1964) 786 81 120 197 210 419 834 1000 1650 3230
2026-02-01 13:30 2.88 131 6870 (1968) 64 (1964) 786 81 120 197 210 419 834 1000 1650 3230
2026-02-01 12:30 2.87 129 6870 (1968) 64 (1964) 786 81 120 197 210 419 834 1000 1650 3230
2026-02-01 11:30 2.87 129 6870 (1968) 64 (1964) 786 81 120 197 210 419 834 1000 1650 3230
2026-02-01 10:30 2.87 129 6870 (1968) 64 (1964) 786 81 120 197 210 419 834 1000 1650 3230
2026-02-01 09:30 2.87 129 6870 (1968) 64 (1964) 786 81 120 197 210 419 834 1000 1650 3230
2026-02-01 08:30 2.87 129 6870 (1968) 64 (1964) 786 81 120 197 210 419 834 1000 1650 3230
2026-02-01 07:30 2.87 129 6870 (1968) 64 (1964) 786 81 120 197 210 419 834 1000 1650 3230
2026-02-01 06:30 2.87 129 6870 (1968) 64 (1964) 786 81 120 197 210 419 834 1000 1650 3230
2026-02-01 05:30 2.87 129 6870 (1968) 64 (1964) 786 81 120 197 210 419 834 1000 1650 3230
2026-02-01 04:30 2.87 129 6870 (1968) 64 (1964) 786 81 120 197 210 419 834 1000 1650 3230
2026-02-01 03:30 2.87 129 6870 (1968) 64 (1964) 786 81 120 197 210 419 834 1000 1650 3230
2026-02-01 02:30 2.88 131 6870 (1968) 64 (1964) 786 81 120 197 210 419 834 1000 1650 3230
2026-02-01 01:30 2.88 131 6870 (1968) 64 (1964) 786 81 120 197 210 419 834 1000 1650 3230
2026-02-01 00:30 2.88 131 6870 (1968) 64 (1964) 786 81 120 197 210 419 834 1000 1650 3230
2026-01-31 23:30 2.88 131 6870 (1968) 64 (1964) 786 81 120 197 210 419 834 1000 1650 3230
2026-01-31 22:30 2.88 131 10900 (1982) 61 (1964) 878 82 120 193 216 402 813 954 1690 2290
2026-01-31 21:30 2.88 131 10900 (1982) 61 (1964) 878 82 120 193 216 402 813 954 1690 2290
2026-01-31 20:30 2.87 129 10900 (1982) 61 (1964) 878 82 120 193 216 402 813 954 1690 2290
2026-01-31 19:30 2.87 129 10900 (1982) 61 (1964) 878 82 120 193 216 402 813 954 1690 2290
2026-01-31 18:30 2.87 129 10900 (1982) 61 (1964) 878 82 120 193 216 402 813 954 1690 2290
2026-01-31 17:30 2.88 131 10900 (1982) 61 (1964) 878 82 120 193 216 402 813 954 1690 2290
2026-01-31 16:30 2.88 131 10900 (1982) 61 (1964) 878 82 120 193 216 402 813 954 1690 2290
2026-01-31 15:30 2.87 129 10900 (1982) 61 (1964) 878 82 120 193 216 402 813 954 1690 2290
2026-01-31 14:30 2.88 131 10900 (1982) 61 (1964) 878 82 120 193 216 402 813 954 1690 2290
2026-01-31 13:30 2.88 131 10900 (1982) 61 (1964) 878 82 120 193 216 402 813 954 1690 2290
2026-01-31 12:30 2.88 131 10900 (1982) 61 (1964) 878 82 120 193 216 402 813 954 1690 2290
2026-01-31 11:30 2.87 129 10900 (1982) 61 (1964) 878 82 120 193 216 402 813 954 1690 2290
2026-01-31 10:30 2.87 129 10900 (1982) 61 (1964) 878 82 120 193 216 402 813 954 1690 2290
2026-01-31 09:30 2.87 129 10900 (1982) 61 (1964) 878 82 120 193 216 402 813 954 1690 2290
2026-01-31 08:30 2.87 129 10900 (1982) 61 (1964) 878 82 120 193 216 402 813 954 1690 2290
2026-01-31 07:30 2.87 129 10900 (1982) 61 (1964) 878 82 120 193 216 402 813 954 1690 2290
2026-01-31 06:30 2.87 129 10900 (1982) 61 (1964) 878 82 120 193 216 402 813 954 1690 2290
2026-01-31 05:30 2.87 129 10900 (1982) 61 (1964) 878 82 120 193 216 402 813 954 1690 2290
2026-01-31 04:30 2.87 129 10900 (1982) 61 (1964) 878 82 120 193 216 402 813 954 1690 2290
2026-01-31 03:30 2.87 129 10900 (1982) 61 (1964) 878 82 120 193 216 402 813 954 1690 2290
2026-01-31 02:30 2.87 129 10900 (1982) 61 (1964) 878 82 120 193 216 402 813 954 1690 2290
2026-01-31 01:30 2.87 129 10900 (1982) 61 (1964) 878 82 120 193 216 402 813 954 1690 2290
2026-01-31 00:30 2.87 129 10900 (1982) 61 (1964) 878 82 120 193 216 402 813 954 1690 2290
2026-01-30 23:30 2.87 129 10900 (1982) 61 (1964) 878 82 120 193 216 402 813 954 1690 2290
2026-01-30 22:30 2.87 129 16600 (1969) 55 (1964) 864 91 121 198 218 392 805 915 1670 2790
2026-01-30 21:30 2.87 129 16600 (1969) 55 (1964) 864 91 121 198 218 392 805 915 1670 2790
2026-01-30 20:30 2.87 129 16600 (1969) 55 (1964) 864 91 121 198 218 392 805 915 1670 2790
2026-01-30 19:30 2.87 129 16600 (1969) 55 (1964) 864 91 121 198 218 392 805 915 1670 2790
2026-01-30 18:30 2.87 129 16600 (1969) 55 (1964) 864 91 121 198 218 392 805 915 1670 2790
2026-01-30 17:30 2.88 131 16600 (1969) 55 (1964) 864 91 121 198 218 392 805 915 1670 2790
2026-01-30 16:30 2.88 131 16600 (1969) 55 (1964) 864 91 121 198 218 392 805 915 1670 2790
2026-01-30 15:30 2.87 129 16600 (1969) 55 (1964) 864 91 121 198 218 392 805 915 1670 2790
2026-01-30 14:30 2.87 129 16600 (1969) 55 (1964) 864 91 121 198 218 392 805 915 1670 2790
2026-01-30 13:30 2.87 129 16600 (1969) 55 (1964) 864 91 121 198 218 392 805 915 1670 2790
2026-01-30 12:30 2.88 131 16600 (1969) 55 (1964) 864 91 121 198 218 392 805 915 1670 2790
2026-01-30 11:30 2.88 131 16600 (1969) 55 (1964) 864 91 121 198 218 392 805 915 1670 2790
2026-01-30 10:30 2.88 131 16600 (1969) 55 (1964) 864 91 121 198 218 392 805 915 1670 2790
2026-01-30 09:30 2.88 131 16600 (1969) 55 (1964) 864 91 121 198 218 392 805 915 1670 2790
2026-01-30 08:30 2.88 131 16600 (1969) 55 (1964) 864 91 121 198 218 392 805 915 1670 2790
2026-01-30 07:30 2.88 131 16600 (1969) 55 (1964) 864 91 121 198 218 392 805 915 1670 2790
2026-01-30 06:30 2.88 131 16600 (1969) 55 (1964) 864 91 121 198 218 392 805 915 1670 2790
2026-01-30 05:30 2.88 131 16600 (1969) 55 (1964) 864 91 121 198 218 392 805 915 1670 2790
2026-01-30 04:30 2.88 131 16600 (1969) 55 (1964) 864 91 121 198 218 392 805 915 1670 2790
2026-01-30 03:30 2.88 131 16600 (1969) 55 (1964) 864 91 121 198 218 392 805 915 1670 2790
2026-01-30 02:30 2.88 131 16600 (1969) 55 (1964) 864 91 121 198 218 392 805 915 1670 2790
2026-01-30 01:30 2.88 131 16600 (1969) 55 (1964) 864 91 121 198 218 392 805 915 1670 2790
2026-01-30 00:30 2.88 131 16600 (1969) 55 (1964) 864 91 121 198 218 392 805 915 1670 2790
2026-01-29 23:30 2.88 131 16600 (1969) 55 (1964) 864 91 121 198 218 392 805 915 1670 2790
2026-01-29 22:30 2.88 131 4790 (1968) 52 (1964) 638 97 121 194 217 354 756 906 1410 1960
2026-01-29 21:30 2.88 131 4790 (1968) 52 (1964) 638 97 121 194 217 354 756 906 1410 1960
2026-01-29 20:30 2.88 131 4790 (1968) 52 (1964) 638 97 121 194 217 354 756 906 1410 1960
2026-01-29 19:30 2.88 131 4790 (1968) 52 (1964) 638 97 121 194 217 354 756 906 1410 1960
2026-01-29 18:30 2.88 131 4790 (1968) 52 (1964) 638 97 121 194 217 354 756 906 1410 1960
2026-01-29 17:30 2.88 131 4790 (1968) 52 (1964) 638 97 121 194 217 354 756 906 1410 1960
2026-01-29 16:30 2.88 131 4790 (1968) 52 (1964) 638 97 121 194 217 354 756 906 1410 1960
2026-01-29 15:30 2.88 131 4790 (1968) 52 (1964) 638 97 121 194 217 354 756 906 1410 1960
2026-01-29 14:30 2.88 131 4790 (1968) 52 (1964) 638 97 121 194 217 354 756 906 1410 1960
2026-01-29 13:30 2.88 131 4790 (1968) 52 (1964) 638 97 121 194 217 354 756 906 1410 1960
2026-01-29 12:30 2.88 131 4790 (1968) 52 (1964) 638 97 121 194 217 354 756 906 1410 1960
2026-01-29 11:30 2.87 129 4790 (1968) 52 (1964) 638 97 121 194 217 354 756 906 1410 1960
2026-01-29 09:30 2.88 131 4790 (1968) 52 (1964) 638 97 121 194 217 354 756 906 1410 1960
2026-01-29 08:30 2.88 131 4790 (1968) 52 (1964) 638 97 121 194 217 354 756 906 1410 1960
2026-01-29 07:30 2.88 131 4790 (1968) 52 (1964) 638 97 121 194 217 354 756 906 1410 1960
2026-01-29 06:30 2.88 131 4790 (1968) 52 (1964) 638 97 121 194 217 354 756 906 1410 1960
2026-01-29 05:30 2.88 131 4790 (1968) 52 (1964) 638 97 121 194 217 354 756 906 1410 1960
2026-01-29 04:30 2.88 131 4790 (1968) 52 (1964) 638 97 121 194 217 354 756 906 1410 1960
2026-01-29 03:30 2.88 131 4790 (1968) 52 (1964) 638 97 121 194 217 354 756 906 1410 1960
2026-01-29 02:30 2.88 131 4790 (1968) 52 (1964) 638 97 121 194 217 354 756 906 1410 1960
2026-01-29 01:30 2.88 131 4790 (1968) 52 (1964) 638 97 121 194 217 354 756 906 1410 1960
2026-01-29 00:30 2.88 131 4790 (1968) 52 (1964) 638 97 121 194 217 354 756 906 1410 1960
2026-01-28 23:30 2.88 131 4790 (1968) 52 (1964) 638 97 121 194 217 354 756 906 1410 1960
2026-01-28 22:30 2.89 133 3320 (1968) 52 (1964) 599 90 115 187 209 354 778 858 1340 2010
2026-01-28 21:30 2.89 133 3320 (1968) 52 (1964) 599 90 115 187 209 354 778 858 1340 2010
2026-01-28 20:30 2.89 133 3320 (1968) 52 (1964) 599 90 115 187 209 354 778 858 1340 2010
2026-01-28 19:30 2.89 133 3320 (1968) 52 (1964) 599 90 115 187 209 354 778 858 1340 2010
2026-01-28 18:30 2.89 133 3320 (1968) 52 (1964) 599 90 115 187 209 354 778 858 1340 2010
2026-01-28 17:30 2.89 133 3320 (1968) 52 (1964) 599 90 115 187 209 354 778 858 1340 2010
2026-01-28 16:30 2.89 133 3320 (1968) 52 (1964) 599 90 115 187 209 354 778 858 1340 2010
2026-01-28 15:30 2.89 133 3320 (1968) 52 (1964) 599 90 115 187 209 354 778 858 1340 2010
2026-01-28 14:30 2.89 133 3320 (1968) 52 (1964) 599 90 115 187 209 354 778 858 1340 2010
2026-01-28 13:30 2.89 133 3320 (1968) 52 (1964) 599 90 115 187 209 354 778 858 1340 2010
2026-01-28 12:30 2.89 133 3320 (1968) 52 (1964) 599 90 115 187 209 354 778 858 1340 2010
2026-01-28 11:30 2.89 133 3320 (1968) 52 (1964) 599 90 115 187 209 354 778 858 1340 2010
2026-01-28 10:30 2.88 131 3320 (1968) 52 (1964) 599 90 115 187 209 354 778 858 1340 2010
2026-01-28 09:30 2.88 131 3320 (1968) 52 (1964) 599 90 115 187 209 354 778 858 1340 2010
2026-01-28 08:30 2.89 133 3320 (1968) 52 (1964) 599 90 115 187 209 354 778 858 1340 2010
2026-01-28 07:30 2.89 133 3320 (1968) 52 (1964) 599 90 115 187 209 354 778 858 1340 2010
2026-01-28 06:30 2.89 133 3320 (1968) 52 (1964) 599 90 115 187 209 354 778 858 1340 2010
2026-01-28 05:30 2.89 133 3320 (1968) 52 (1964) 599 90 115 187 209 354 778 858 1340 2010
2026-01-28 04:30 2.89 133 3320 (1968) 52 (1964) 599 90 115 187 209 354 778 858 1340 2010
2026-01-28 03:30 2.89 133 3320 (1968) 52 (1964) 599 90 115 187 209 354 778 858 1340 2010
2026-01-28 02:30 2.89 133 3320 (1968) 52 (1964) 599 90 115 187 209 354 778 858 1340 2010
2026-01-28 01:30 2.90 136 3320 (1968) 52 (1964) 599 90 115 187 209 354 778 858 1340 2010
2026-01-28 00:30 2.90 136 3320 (1968) 52 (1964) 599 90 115 187 209 354 778 858 1340 2010
2026-01-27 23:30 2.90 136 3320 (1968) 52 (1964) 599 90 115 187 209 354 778 858 1340 2010
2026-01-27 22:30 2.91 138 3410 (2021) 52 (1964) 572 85 117 180 213 369 776 838 1160 1910
2026-01-27 21:30 2.91 138 3410 (2021) 52 (1964) 572 85 117 180 213 369 776 838 1160 1910
2026-01-27 20:30 2.91 138 3410 (2021) 52 (1964) 572 85 117 180 213 369 776 838 1160 1910
2026-01-27 19:30 2.92 141 3410 (2021) 52 (1964) 572 85 117 180 213 369 776 838 1160 1910
2026-01-27 18:30 2.92 141 3410 (2021) 52 (1964) 572 85 117 180 213 369 776 838 1160 1910
2026-01-27 17:30 2.93 143 3410 (2021) 52 (1964) 572 85 117 180 213 369 776 838 1160 1910
2026-01-27 16:30 2.93 143 3410 (2021) 52 (1964) 572 85 117 180 213 369 776 838 1160 1910
2026-01-27 15:30 2.94 146 3410 (2021) 52 (1964) 572 85 117 180 213 369 776 838 1160 1910
2026-01-27 14:30 2.95 148 3410 (2021) 52 (1964) 572 85 117 180 213 369 776 838 1160 1910
2026-01-27 13:30 2.95 148 3410 (2021) 52 (1964) 572 85 117 180 213 369 776 838 1160 1910
2026-01-27 12:30 2.93 143 3410 (2021) 52 (1964) 572 85 117 180 213 369 776 838 1160 1910
2026-01-27 11:30 2.91 138 3410 (2021) 52 (1964) 572 85 117 180 213 369 776 838 1160 1910
2026-01-27 10:30 2.87 129 3410 (2021) 52 (1964) 572 85 117 180 213 369 776 838 1160 1910
2026-01-27 09:30 2.83 120 3410 (2021) 52 (1964) 572 85 117 180 213 369 776 838 1160 1910
2026-01-27 08:30 2.83 120 3410 (2021) 52 (1964) 572 85 117 180 213 369 776 838 1160 1910
2026-01-27 07:30 2.84 122 3410 (2021) 52 (1964) 572 85 117 180 213 369 776 838 1160 1910
2026-01-27 06:30 2.87 129 3410 (2021) 52 (1964) 572 85 117 180 213 369 776 838 1160 1910
2026-01-27 05:30 2.88 131 3410 (2021) 52 (1964) 572 85 117 180 213 369 776 838 1160 1910
2026-01-27 04:30 2.89 133 3410 (2021) 52 (1964) 572 85 117 180 213 369 776 838 1160 1910
2026-01-27 03:30 2.89 133 3410 (2021) 52 (1964) 572 85 117 180 213 369 776 838 1160 1910
2026-01-27 02:30 2.90 136 3410 (2021) 52 (1964) 572 85 117 180 213 369 776 838 1160 1910
2026-01-27 01:30 2.90 136 3410 (2021) 52 (1964) 572 85 117 180 213 369 776 838 1160 1910
2026-01-27 00:30 2.90 136 3410 (2021) 52 (1964) 572 85 117 180 213 369 776 838 1160 1910
2026-01-26 23:30 2.90 136 3410 (2021) 52 (1964) 572 85 117 180 213 369 776 838 1160 1910
2026-01-26 22:30 2.90 136 4920 (2021) 53 (1964) 594 81 119 177 216 374 750 828 1220 2070
2026-01-26 21:30 2.91 138 4920 (2021) 53 (1964) 594 81 119 177 216 374 750 828 1220 2070
2026-01-26 20:30 2.91 138 4920 (2021) 53 (1964) 594 81 119 177 216 374 750 828 1220 2070
2026-01-26 19:30 2.92 141 4920 (2021) 53 (1964) 594 81 119 177 216 374 750 828 1220 2070
2026-01-26 18:30 2.93 143 4920 (2021) 53 (1964) 594 81 119 177 216 374 750 828 1220 2070
2026-01-26 17:30 2.94 146 4920 (2021) 53 (1964) 594 81 119 177 216 374 750 828 1220 2070
2026-01-26 16:30 2.96 151 4920 (2021) 53 (1964) 594 81 119 177 216 374 750 828 1220 2070
2026-01-26 15:30 2.98 156 4920 (2021) 53 (1964) 594 81 119 177 216 374 750 828 1220 2070
2026-01-26 14:30 2.98 156 4920 (2021) 53 (1964) 594 81 119 177 216 374 750 828 1220 2070
2026-01-26 13:30 2.96 151 4920 (2021) 53 (1964) 594 81 119 177 216 374 750 828 1220 2070
2026-01-26 12:30 2.93 143 4920 (2021) 53 (1964) 594 81 119 177 216 374 750 828 1220 2070
2026-01-26 11:30 2.92 141 4920 (2021) 53 (1964) 594 81 119 177 216 374 750 828 1220 2070
2026-01-26 10:30 2.87 129 4920 (2021) 53 (1964) 594 81 119 177 216 374 750 828 1220 2070
2026-01-26 09:30 2.84 122 4920 (2021) 53 (1964) 594 81 119 177 216 374 750 828 1220 2070
2026-01-26 08:30 2.83 120 4920 (2021) 53 (1964) 594 81 119 177 216 374 750 828 1220 2070
2026-01-26 07:30 2.82 118 4920 (2021) 53 (1964) 594 81 119 177 216 374 750 828 1220 2070
2026-01-26 06:30 2.82 118 4920 (2021) 53 (1964) 594 81 119 177 216 374 750 828 1220 2070
2026-01-26 05:30 2.83 120 4920 (2021) 53 (1964) 594 81 119 177 216 374 750 828 1220 2070
2026-01-26 04:30 2.86 127 4920 (2021) 53 (1964) 594 81 119 177 216 374 750 828 1220 2070
2026-01-26 03:30 2.89 133 4920 (2021) 53 (1964) 594 81 119 177 216 374 750 828 1220 2070
2026-01-26 02:30 2.90 136 4920 (2021) 53 (1964) 594 81 119 177 216 374 750 828 1220 2070
2026-01-26 01:30 2.90 136 4920 (2021) 53 (1964) 594 81 119 177 216 374 750 828 1220 2070
2026-01-26 00:30 2.90 136 4920 (2021) 53 (1964) 594 81 119 177 216 374 750 828 1220 2070
2026-01-25 23:30 2.90 136 4920 (2021) 53 (1964) 594 81 119 177 216 374 750 828 1220 2070
2026-01-25 22:30 2.91 138 3060 (1973) 55 (1964) 573 76 115 181 215 364 780 862 1300 1750
2026-01-25 21:30 2.91 138 3060 (1973) 55 (1964) 573 76 115 181 215 364 780 862 1300 1750
2026-01-25 20:30 2.91 138 3060 (1973) 55 (1964) 573 76 115 181 215 364 780 862 1300 1750
2026-01-25 19:30 2.92 141 3060 (1973) 55 (1964) 573 76 115 181 215 364 780 862 1300 1750
2026-01-25 18:30 2.92 141 3060 (1973) 55 (1964) 573 76 115 181 215 364 780 862 1300 1750
2026-01-25 17:30 2.92 141 3060 (1973) 55 (1964) 573 76 115 181 215 364 780 862 1300 1750
2026-01-25 16:30 2.93 143 3060 (1973) 55 (1964) 573 76 115 181 215 364 780 862 1300 1750
2026-01-25 15:30 2.93 143 3060 (1973) 55 (1964) 573 76 115 181 215 364 780 862 1300 1750
2026-01-25 14:30 2.94 146 3060 (1973) 55 (1964) 573 76 115 181 215 364 780 862 1300 1750
2026-01-25 13:30 2.94 146 3060 (1973) 55 (1964) 573 76 115 181 215 364 780 862 1300 1750
2026-01-25 12:30 2.93 143 3060 (1973) 55 (1964) 573 76 115 181 215 364 780 862 1300 1750
2026-01-25 11:30 2.92 141 3060 (1973) 55 (1964) 573 76 115 181 215 364 780 862 1300 1750
2026-01-25 10:30 2.93 143 3060 (1973) 55 (1964) 573 76 115 181 215 364 780 862 1300 1750
2026-01-25 09:30 2.92 141 3060 (1973) 55 (1964) 573 76 115 181 215 364 780 862 1300 1750
2026-01-25 08:30 2.92 141 3060 (1973) 55 (1964) 573 76 115 181 215 364 780 862 1300 1750
2026-01-25 07:30 2.90 136 3060 (1973) 55 (1964) 573 76 115 181 215 364 780 862 1300 1750
2026-01-25 06:30 2.90 136 3060 (1973) 55 (1964) 573 76 115 181 215 364 780 862 1300 1750
2026-01-25 05:30 2.90 136 3060 (1973) 55 (1964) 573 76 115 181 215 364 780 862 1300 1750
2026-01-25 04:30 2.91 138 3060 (1973) 55 (1964) 573 76 115 181 215 364 780 862 1300 1750
2026-01-25 03:30 2.91 138 3060 (1973) 55 (1964) 573 76 115 181 215 364 780 862 1300 1750
2026-01-25 02:30 2.90 136 3060 (1973) 55 (1964) 573 76 115 181 215 364 780 862 1300 1750
2026-01-25 01:30 2.90 136 3060 (1973) 55 (1964) 573 76 115 181 215 364 780 862 1300 1750
2026-01-25 00:30 2.90 136 3060 (1973) 55 (1964) 573 76 115 181 215 364 780 862 1300 1750
2026-01-24 23:30 2.90 136 3060 (1973) 55 (1964) 573 76 115 181 215 364 780 862 1300 1750
2026-01-24 22:30 2.90 136 4080 (1973) 55 (1964) 585 75 118 181 205 373 777 848 1210 2010
2026-01-24 21:30 2.89 133 4080 (1973) 55 (1964) 585 75 118 181 205 373 777 848 1210 2010
2026-01-24 20:30 2.89 133 4080 (1973) 55 (1964) 585 75 118 181 205 373 777 848 1210 2010
2026-01-24 19:30 2.89 133 4080 (1973) 55 (1964) 585 75 118 181 205 373 777 848 1210 2010
2026-01-24 18:30 2.89 133 4080 (1973) 55 (1964) 585 75 118 181 205 373 777 848 1210 2010
2026-01-24 17:30 2.89 133 4080 (1973) 55 (1964) 585 75 118 181 205 373 777 848 1210 2010
2026-01-24 16:30 2.88 131 4080 (1973) 55 (1964) 585 75 118 181 205 373 777 848 1210 2010
2026-01-24 15:30 2.88 131 4080 (1973) 55 (1964) 585 75 118 181 205 373 777 848 1210 2010
2026-01-24 14:30 2.88 131 4080 (1973) 55 (1964) 585 75 118 181 205 373 777 848 1210 2010
2026-01-24 13:30 2.88 131 4080 (1973) 55 (1964) 585 75 118 181 205 373 777 848 1210 2010
2026-01-24 12:30 2.88 131 4080 (1973) 55 (1964) 585 75 118 181 205 373 777 848 1210 2010
2026-01-24 11:30 2.88 131 4080 (1973) 55 (1964) 585 75 118 181 205 373 777 848 1210 2010
2026-01-24 10:30 2.88 131 4080 (1973) 55 (1964) 585 75 118 181 205 373 777 848 1210 2010
2026-01-24 09:30 2.89 133 4080 (1973) 55 (1964) 585 75 118 181 205 373 777 848 1210 2010
2026-01-24 08:30 2.89 133 4080 (1973) 55 (1964) 585 75 118 181 205 373 777 848 1210 2010
2026-01-24 07:30 2.88 131 4080 (1973) 55 (1964) 585 75 118 181 205 373 777 848 1210 2010
2026-01-24 06:30 2.88 131 4080 (1973) 55 (1964) 585 75 118 181 205 373 777 848 1210 2010
2026-01-24 05:30 2.88 131 4080 (1973) 55 (1964) 585 75 118 181 205 373 777 848 1210 2010
2026-01-24 04:30 2.88 131 4080 (1973) 55 (1964) 585 75 118 181 205 373 777 848 1210 2010
2026-01-24 03:30 2.88 131 4080 (1973) 55 (1964) 585 75 118 181 205 373 777 848 1210 2010
2026-01-24 02:30 2.88 131 4080 (1973) 55 (1964) 585 75 118 181 205 373 777 848 1210 2010
2026-01-24 01:30 2.88 131 4080 (1973) 55 (1964) 585 75 118 181 205 373 777 848 1210 2010
2026-01-24 00:30 2.88 131 4080 (1973) 55 (1964) 585 75 118 181 205 373 777 848 1210 2010
2026-01-23 23:30 2.88 131 4080 (1973) 55 (1964) 585 75 118 181 205 373 777 848 1210 2010
2026-01-23 22:30 2.87 129 6630 (1973) 55 (1964) 616 77 121 183 211 352 794 866 1190 1670
2026-01-23 21:30 2.88 131 6630 (1973) 55 (1964) 616 77 121 183 211 352 794 866 1190 1670
2026-01-23 20:30 2.87 129 6630 (1973) 55 (1964) 616 77 121 183 211 352 794 866 1190 1670
2026-01-23 19:30 2.88 131 6630 (1973) 55 (1964) 616 77 121 183 211 352 794 866 1190 1670
2026-01-23 18:30 2.88 131 6630 (1973) 55 (1964) 616 77 121 183 211 352 794 866 1190 1670
2026-01-23 17:30 2.88 131 6630 (1973) 55 (1964) 616 77 121 183 211 352 794 866 1190 1670
2026-01-23 16:30 2.88 131 6630 (1973) 55 (1964) 616 77 121 183 211 352 794 866 1190 1670
2026-01-23 15:30 2.88 131 6630 (1973) 55 (1964) 616 77 121 183 211 352 794 866 1190 1670
2026-01-23 14:30 2.88 131 6630 (1973) 55 (1964) 616 77 121 183 211 352 794 866 1190 1670
2026-01-23 13:30 2.88 131 6630 (1973) 55 (1964) 616 77 121 183 211 352 794 866 1190 1670
2026-01-23 12:30 2.88 131 6630 (1973) 55 (1964) 616 77 121 183 211 352 794 866 1190 1670
2026-01-23 11:30 2.88 131 6630 (1973) 55 (1964) 616 77 121 183 211 352 794 866 1190 1670
2026-01-23 10:30 2.88 131 6630 (1973) 55 (1964) 616 77 121 183 211 352 794 866 1190 1670
2026-01-23 09:30 2.88 131 6630 (1973) 55 (1964) 616 77 121 183 211 352 794 866 1190 1670
2026-01-23 08:30 2.88 131 6630 (1973) 55 (1964) 616 77 121 183 211 352 794 866 1190 1670
2026-01-23 07:30 2.88 131 6630 (1973) 55 (1964) 616 77 121 183 211 352 794 866 1190 1670
2026-01-23 06:30 2.88 131 6630 (1973) 55 (1964) 616 77 121 183 211 352 794 866 1190 1670
2026-01-23 05:30 2.88 131 6630 (1973) 55 (1964) 616 77 121 183 211 352 794 866 1190 1670
2026-01-23 04:30 2.88 131 6630 (1973) 55 (1964) 616 77 121 183 211 352 794 866 1190 1670
2026-01-23 03:30 2.88 131 6630 (1973) 55 (1964) 616 77 121 183 211 352 794 866 1190 1670
2026-01-23 02:30 2.88 131 6630 (1973) 55 (1964) 616 77 121 183 211 352 794 866 1190 1670
2026-01-23 01:30 2.88 131 6630 (1973) 55 (1964) 616 77 121 183 211 352 794 866 1190 1670
2026-01-23 00:30 2.88 131 6630 (1973) 55 (1964) 616 77 121 183 211 352 794 866 1190 1670
2026-01-22 23:30 2.88 131 6630 (1973) 55 (1964) 616 77 121 183 211 352 794 866 1190 1670
2026-01-22 22:30 2.88 131 10300 (1973) 54 (1956) 683 79 118 168 214 344 805 902 1280 2120
2026-01-22 21:30 2.88 131 10300 (1973) 54 (1956) 683 79 118 168 214 344 805 902 1280 2120
2026-01-22 20:30 2.88 131 10300 (1973) 54 (1956) 683 79 118 168 214 344 805 902 1280 2120
2026-01-22 19:30 2.88 131 10300 (1973) 54 (1956) 683 79 118 168 214 344 805 902 1280 2120
2026-01-22 18:30 2.88 131 10300 (1973) 54 (1956) 683 79 118 168 214 344 805 902 1280 2120
2026-01-22 17:30 2.88 131 10300 (1973) 54 (1956) 683 79 118 168 214 344 805 902 1280 2120
2026-01-22 16:30 2.88 131 10300 (1973) 54 (1956) 683 79 118 168 214 344 805 902 1280 2120
2026-01-22 15:30 2.88 131 10300 (1973) 54 (1956) 683 79 118 168 214 344 805 902 1280 2120
2026-01-22 14:30 2.88 131 10300 (1973) 54 (1956) 683 79 118 168 214 344 805 902 1280 2120
2026-01-22 13:30 2.88 131 10300 (1973) 54 (1956) 683 79 118 168 214 344 805 902 1280 2120
2026-01-22 12:30 2.88 131 10300 (1973) 54 (1956) 683 79 118 168 214 344 805 902 1280 2120
2026-01-22 11:30 2.87 129 10300 (1973) 54 (1956) 683 79 118 168 214 344 805 902 1280 2120
2026-01-22 10:30 2.87 129 10300 (1973) 54 (1956) 683 79 118 168 214 344 805 902 1280 2120
2026-01-22 09:30 2.87 129 10300 (1973) 54 (1956) 683 79 118 168 214 344 805 902 1280 2120
2026-01-22 08:30 2.87 129 10300 (1973) 54 (1956) 683 79 118 168 214 344 805 902 1280 2120
2026-01-22 07:30 2.87 129 10300 (1973) 54 (1956) 683 79 118 168 214 344 805 902 1280 2120
2026-01-22 06:30 2.87 129 10300 (1973) 54 (1956) 683 79 118 168 214 344 805 902 1280 2120
2026-01-22 05:30 2.87 129 10300 (1973) 54 (1956) 683 79 118 168 214 344 805 902 1280 2120
2026-01-22 04:30 2.87 129 10300 (1973) 54 (1956) 683 79 118 168 214 344 805 902 1280 2120
2026-01-22 03:30 2.88 131 10300 (1973) 54 (1956) 683 79 118 168 214 344 805 902 1280 2120
2026-01-22 02:30 2.88 131 10300 (1973) 54 (1956) 683 79 118 168 214 344 805 902 1280 2120
2026-01-22 01:30 2.88 131 10300 (1973) 54 (1956) 683 79 118 168 214 344 805 902 1280 2120
2026-01-22 00:30 2.88 131 10300 (1973) 54 (1956) 683 79 118 168 214 344 805 902 1280 2120
2026-01-21 23:30 2.88 131 10300 (1973) 54 (1956) 683 79 118 168 214 344 805 902 1280 2120
2026-01-21 22:30 2.88 131 5570 (1973) 52 (1956) 680 69 108 163 206 356 841 947 1390 2840
2026-01-21 21:30 2.88 131 5570 (1973) 52 (1956) 680 69 108 163 206 356 841 947 1390 2840
2026-01-21 20:30 2.88 131 5570 (1973) 52 (1956) 680 69 108 163 206 356 841 947 1390 2840
2026-01-21 19:30 2.88 131 5570 (1973) 52 (1956) 680 69 108 163 206 356 841 947 1390 2840
2026-01-21 18:30 2.89 133 5570 (1973) 52 (1956) 680 69 108 163 206 356 841 947 1390 2840
2026-01-21 17:30 2.89 133 5570 (1973) 52 (1956) 680 69 108 163 206 356 841 947 1390 2840
2026-01-21 16:30 2.89 133 5570 (1973) 52 (1956) 680 69 108 163 206 356 841 947 1390 2840
2026-01-21 15:30 2.89 133 5570 (1973) 52 (1956) 680 69 108 163 206 356 841 947 1390 2840
2026-01-21 14:30 2.89 133 5570 (1973) 52 (1956) 680 69 108 163 206 356 841 947 1390 2840
2026-01-21 13:30 2.89 133 5570 (1973) 52 (1956) 680 69 108 163 206 356 841 947 1390 2840
2026-01-21 12:30 2.89 133 5570 (1973) 52 (1956) 680 69 108 163 206 356 841 947 1390 2840
2026-01-21 11:30 2.89 133 5570 (1973) 52 (1956) 680 69 108 163 206 356 841 947 1390 2840
2026-01-21 10:30 2.89 133 5570 (1973) 52 (1956) 680 69 108 163 206 356 841 947 1390 2840
2026-01-21 09:30 2.88 131 5570 (1973) 52 (1956) 680 69 108 163 206 356 841 947 1390 2840
2026-01-21 08:30 2.88 131 5570 (1973) 52 (1956) 680 69 108 163 206 356 841 947 1390 2840
2026-01-21 07:30 2.88 131 5570 (1973) 52 (1956) 680 69 108 163 206 356 841 947 1390 2840
2026-01-21 06:30 2.88 131 5570 (1973) 52 (1956) 680 69 108 163 206 356 841 947 1390 2840
2026-01-21 05:30 2.88 131 5570 (1973) 52 (1956) 680 69 108 163 206 356 841 947 1390 2840
2026-01-21 04:30 2.87 129 5570 (1973) 52 (1956) 680 69 108 163 206 356 841 947 1390 2840
2026-01-21 03:30 2.87 129 5570 (1973) 52 (1956) 680 69 108 163 206 356 841 947 1390 2840
2026-01-21 02:30 2.87 129 5570 (1973) 52 (1956) 680 69 108 163 206 356 841 947 1390 2840
2026-01-21 01:30 2.87 129 5570 (1973) 52 (1956) 680 69 108 163 206 356 841 947 1390 2840
2026-01-21 00:30 2.87 129 5570 (1973) 52 (1956) 680 69 108 163 206 356 841 947 1390 2840
2026-01-20 23:30 2.87 129 5570 (1973) 52 (1956) 680 69 108 163 206 356 841 947 1390 2840
2026-01-20 22:30 2.87 129 11400 (1990) 52 (1956) 757 73 108 162 213 371 861 1020 1620 2220
2026-01-20 21:30 2.87 129 11400 (1990) 52 (1956) 757 73 108 162 213 371 861 1020 1620 2220
2026-01-20 20:30 2.87 129 11400 (1990) 52 (1956) 757 73 108 162 213 371 861 1020 1620 2220
2026-01-20 19:30 2.87 129 11400 (1990) 52 (1956) 757 73 108 162 213 371 861 1020 1620 2220
2026-01-20 18:30 2.87 129 11400 (1990) 52 (1956) 757 73 108 162 213 371 861 1020 1620 2220
2026-01-20 17:30 2.87 129 11400 (1990) 52 (1956) 757 73 108 162 213 371 861 1020 1620 2220
2026-01-20 16:30 2.88 131 11400 (1990) 52 (1956) 757 73 108 162 213 371 861 1020 1620 2220
2026-01-20 15:30 2.88 131 11400 (1990) 52 (1956) 757 73 108 162 213 371 861 1020 1620 2220
2026-01-20 14:30 2.88 131 11400 (1990) 52 (1956) 757 73 108 162 213 371 861 1020 1620 2220
2026-01-20 13:30 2.87 129 11400 (1990) 52 (1956) 757 73 108 162 213 371 861 1020 1620 2220
2026-01-20 12:30 2.87 129 11400 (1990) 52 (1956) 757 73 108 162 213 371 861 1020 1620 2220
2026-01-20 11:30 2.87 129 11400 (1990) 52 (1956) 757 73 108 162 213 371 861 1020 1620 2220
2026-01-20 10:30 2.87 129 11400 (1990) 52 (1956) 757 73 108 162 213 371 861 1020 1620 2220
2026-01-20 09:30 2.87 129 11400 (1990) 52 (1956) 757 73 108 162 213 371 861 1020 1620 2220
2026-01-20 08:30 2.87 129 11400 (1990) 52 (1956) 757 73 108 162 213 371 861 1020 1620 2220
2026-01-20 06:30 2.87 129 11400 (1990) 52 (1956) 757 73 108 162 213 371 861 1020 1620 2220
2026-01-20 05:30 2.87 129 11400 (1990) 52 (1956) 757 73 108 162 213 371 861 1020 1620 2220
2026-01-20 04:30 2.87 129 11400 (1990) 52 (1956) 757 73 108 162 213 371 861 1020 1620 2220
2026-01-20 03:30 2.87 129 11400 (1990) 52 (1956) 757 73 108 162 213 371 861 1020 1620 2220
2026-01-20 02:30 2.87 129 11400 (1990) 52 (1956) 757 73 108 162 213 371 861 1020 1620 2220
2026-01-20 01:30 2.87 129 11400 (1990) 52 (1956) 757 73 108 162 213 371 861 1020 1620 2220
2026-01-20 00:30 2.87 129 11400 (1990) 52 (1956) 757 73 108 162 213 371 861 1020 1620 2220
2026-01-19 23:30 2.87 129 11400 (1990) 52 (1956) 757 73 108 162 213 371 861 1020 1620 2220
2026-01-19 22:30 2.88 131 6380 (2020) 52 (1956) 702 72 109 164 220 379 870 990 1800 2480
2026-01-19 21:30 2.88 131 6380 (2020) 52 (1956) 702 72 109 164 220 379 870 990 1800 2480
2026-01-19 20:30 2.88 131 6380 (2020) 52 (1956) 702 72 109 164 220 379 870 990 1800 2480
2026-01-19 19:30 2.88 131 6380 (2020) 52 (1956) 702 72 109 164 220 379 870 990 1800 2480
2026-01-19 18:30 2.88 131 6380 (2020) 52 (1956) 702 72 109 164 220 379 870 990 1800 2480
2026-01-19 17:30 2.88 131 6380 (2020) 52 (1956) 702 72 109 164 220 379 870 990 1800 2480
2026-01-19 16:30 2.88 131 6380 (2020) 52 (1956) 702 72 109 164 220 379 870 990 1800 2480
2026-01-19 15:30 2.88 131 6380 (2020) 52 (1956) 702 72 109 164 220 379 870 990 1800 2480
2026-01-19 14:30 2.88 131 6380 (2020) 52 (1956) 702 72 109 164 220 379 870 990 1800 2480
2026-01-19 13:30 2.88 131 6380 (2020) 52 (1956) 702 72 109 164 220 379 870 990 1800 2480
2026-01-19 12:30 2.87 129 6380 (2020) 52 (1956) 702 72 109 164 220 379 870 990 1800 2480
2026-01-19 11:30 2.87 129 6380 (2020) 52 (1956) 702 72 109 164 220 379 870 990 1800 2480
2026-01-19 10:30 2.87 129 6380 (2020) 52 (1956) 702 72 109 164 220 379 870 990 1800 2480
2026-01-19 09:30 2.87 129 6380 (2020) 52 (1956) 702 72 109 164 220 379 870 990 1800 2480
2026-01-19 08:30 2.88 131 6380 (2020) 52 (1956) 702 72 109 164 220 379 870 990 1800 2480
2026-01-19 07:30 2.88 131 6380 (2020) 52 (1956) 702 72 109 164 220 379 870 990 1800 2480
2026-01-19 06:30 2.88 131 6380 (2020) 52 (1956) 702 72 109 164 220 379 870 990 1800 2480
2026-01-19 05:30 2.88 131 6380 (2020) 52 (1956) 702 72 109 164 220 379 870 990 1800 2480
2026-01-19 04:30 2.88 131 6380 (2020) 52 (1956) 702 72 109 164 220 379 870 990 1800 2480
2026-01-19 03:30 2.88 131 6380 (2020) 52 (1956) 702 72 109 164 220 379 870 990 1800 2480
2026-01-19 02:30 2.88 131 6380 (2020) 52 (1956) 702 72 109 164 220 379 870 990 1800 2480
2026-01-19 01:30 2.88 131 6380 (2020) 52 (1956) 702 72 109 164 220 379 870 990 1800 2480
2026-01-19 00:30 2.89 133 6380 (2020) 52 (1956) 702 72 109 164 220 379 870 990 1800 2480
2026-01-18 23:30 2.89 133 6380 (2020) 52 (1956) 702 72 109 164 220 379 870 990 1800 2480
2026-01-18 22:30 2.89 133 7130 (2020) 52 (1956) 668 69 110 160 219 361 829 968 1400 2030
2026-01-18 21:30 2.89 133 7130 (2020) 52 (1956) 668 69 110 160 219 361 829 968 1400 2030
2026-01-18 20:30 2.89 133 7130 (2020) 52 (1956) 668 69 110 160 219 361 829 968 1400 2030
2026-01-18 19:30 2.89 133 7130 (2020) 52 (1956) 668 69 110 160 219 361 829 968 1400 2030
2026-01-18 18:30 2.89 133 7130 (2020) 52 (1956) 668 69 110 160 219 361 829 968 1400 2030
2026-01-18 17:30 2.88 131 7130 (2020) 52 (1956) 668 69 110 160 219 361 829 968 1400 2030
2026-01-18 16:30 2.89 133 7130 (2020) 52 (1956) 668 69 110 160 219 361 829 968 1400 2030
2026-01-18 15:30 2.89 133 7130 (2020) 52 (1956) 668 69 110 160 219 361 829 968 1400 2030
2026-01-18 14:30 2.90 136 7130 (2020) 52 (1956) 668 69 110 160 219 361 829 968 1400 2030
2026-01-18 13:30 2.90 136 7130 (2020) 52 (1956) 668 69 110 160 219 361 829 968 1400 2030
2026-01-18 12:30 2.90 136 7130 (2020) 52 (1956) 668 69 110 160 219 361 829 968 1400 2030
2026-01-18 11:30 2.89 133 7130 (2020) 52 (1956) 668 69 110 160 219 361 829 968 1400 2030
2026-01-18 10:30 2.89 133 7130 (2020) 52 (1956) 668 69 110 160 219 361 829 968 1400 2030
2026-01-18 09:30 2.89 133 7130 (2020) 52 (1956) 668 69 110 160 219 361 829 968 1400 2030
2026-01-18 08:30 2.89 133 7130 (2020) 52 (1956) 668 69 110 160 219 361 829 968 1400 2030
2026-01-18 07:30 2.89 133 7130 (2020) 52 (1956) 668 69 110 160 219 361 829 968 1400 2030
2026-01-18 06:30 2.89 133 7130 (2020) 52 (1956) 668 69 110 160 219 361 829 968 1400 2030
2026-01-18 05:30 2.89 133 7130 (2020) 52 (1956) 668 69 110 160 219 361 829 968 1400 2030
2026-01-18 04:30 2.89 133 7130 (2020) 52 (1956) 668 69 110 160 219 361 829 968 1400 2030
2026-01-18 03:30 2.89 133 7130 (2020) 52 (1956) 668 69 110 160 219 361 829 968 1400 2030
2026-01-18 02:30 2.89 133 7130 (2020) 52 (1956) 668 69 110 160 219 361 829 968 1400 2030
2026-01-18 01:30 2.89 133 7130 (2020) 52 (1956) 668 69 110 160 219 361 829 968 1400 2030
2026-01-18 00:30 2.89 133 7130 (2020) 52 (1956) 668 69 110 160 219 361 829 968 1400 2030
2026-01-17 23:30 2.89 133 7130 (2020) 52 (1956) 668 69 110 160 219 361 829 968 1400 2030
2026-01-17 22:30 2.89 133 5670 (1991) 50 (1956) 631 68 113 160 200 355 774 908 1260 2420
2026-01-17 21:30 2.89 133 5670 (1991) 50 (1956) 631 68 113 160 200 355 774 908 1260 2420
2026-01-17 20:30 2.89 133 5670 (1991) 50 (1956) 631 68 113 160 200 355 774 908 1260 2420
2026-01-17 19:30 2.89 133 5670 (1991) 50 (1956) 631 68 113 160 200 355 774 908 1260 2420
2026-01-17 18:30 2.89 133 5670 (1991) 50 (1956) 631 68 113 160 200 355 774 908 1260 2420
2026-01-17 17:30 2.89 133 5670 (1991) 50 (1956) 631 68 113 160 200 355 774 908 1260 2420
2026-01-17 16:30 2.90 136 5670 (1991) 50 (1956) 631 68 113 160 200 355 774 908 1260 2420
2026-01-17 15:30 2.89 133 5670 (1991) 50 (1956) 631 68 113 160 200 355 774 908 1260 2420
2026-01-17 14:30 2.89 133 5670 (1991) 50 (1956) 631 68 113 160 200 355 774 908 1260 2420
2026-01-17 13:30 2.90 136 5670 (1991) 50 (1956) 631 68 113 160 200 355 774 908 1260 2420
2026-01-17 12:30 2.91 138 5670 (1991) 50 (1956) 631 68 113 160 200 355 774 908 1260 2420
2026-01-17 11:30 2.91 138 5670 (1991) 50 (1956) 631 68 113 160 200 355 774 908 1260 2420
2026-01-17 10:30 2.90 136 5670 (1991) 50 (1956) 631 68 113 160 200 355 774 908 1260 2420
2026-01-17 09:30 2.90 136 5670 (1991) 50 (1956) 631 68 113 160 200 355 774 908 1260 2420
2026-01-17 08:30 2.97 153 5670 (1991) 50 (1956) 631 68 113 160 200 355 774 908 1260 2420
2026-01-17 07:30 2.90 136 5670 (1991) 50 (1956) 631 68 113 160 200 355 774 908 1260 2420
2026-01-17 06:30 2.97 153 5670 (1991) 50 (1956) 631 68 113 160 200 355 774 908 1260 2420
2026-01-17 05:30 2.89 133 5670 (1991) 50 (1956) 631 68 113 160 200 355 774 908 1260 2420
2026-01-17 04:30 2.89 133 5670 (1991) 50 (1956) 631 68 113 160 200 355 774 908 1260 2420
2026-01-17 03:30 2.89 133 5670 (1991) 50 (1956) 631 68 113 160 200 355 774 908 1260 2420
2026-01-17 02:30 2.89 133 5670 (1991) 50 (1956) 631 68 113 160 200 355 774 908 1260 2420
2026-01-17 01:30 2.90 136 5670 (1991) 50 (1956) 631 68 113 160 200 355 774 908 1260 2420
2026-01-17 00:30 2.89 133 5670 (1991) 50 (1956) 631 68 113 160 200 355 774 908 1260 2420
2026-01-16 23:30 2.89 133 5670 (1991) 50 (1956) 631 68 113 160 200 355 774 908 1260 2420
2026-01-16 22:30 2.90 136 9550 (1991) 50 (1956) 717 68 114 155 198 362 785 888 1470 2960
2026-01-16 21:30 2.90 136 9550 (1991) 50 (1956) 717 68 114 155 198 362 785 888 1470 2960
2026-01-16 20:30 2.90 136 9550 (1991) 50 (1956) 717 68 114 155 198 362 785 888 1470 2960
2026-01-16 19:30 2.90 136 9550 (1991) 50 (1956) 717 68 114 155 198 362 785 888 1470 2960
2026-01-16 18:30 2.90 136 9550 (1991) 50 (1956) 717 68 114 155 198 362 785 888 1470 2960
2026-01-16 17:30 2.89 133 9550 (1991) 50 (1956) 717 68 114 155 198 362 785 888 1470 2960
2026-01-16 16:30 2.89 133 9550 (1991) 50 (1956) 717 68 114 155 198 362 785 888 1470 2960
2026-01-16 15:30 2.89 133 9550 (1991) 50 (1956) 717 68 114 155 198 362 785 888 1470 2960
2026-01-16 14:30 2.90 136 9550 (1991) 50 (1956) 717 68 114 155 198 362 785 888 1470 2960
2026-01-16 13:30 2.90 136 9550 (1991) 50 (1956) 717 68 114 155 198 362 785 888 1470 2960
2026-01-16 12:30 2.89 133 9550 (1991) 50 (1956) 717 68 114 155 198 362 785 888 1470 2960
2026-01-16 11:30 2.89 133 9550 (1991) 50 (1956) 717 68 114 155 198 362 785 888 1470 2960
2026-01-16 10:30 2.89 133 9550 (1991) 50 (1956) 717 68 114 155 198 362 785 888 1470 2960
2026-01-16 09:30 2.89 133 9550 (1991) 50 (1956) 717 68 114 155 198 362 785 888 1470 2960
2026-01-16 08:30 2.89 133 9550 (1991) 50 (1956) 717 68 114 155 198 362 785 888 1470 2960
2026-01-16 07:30 2.89 133 9550 (1991) 50 (1956) 717 68 114 155 198 362 785 888 1470 2960
2026-01-16 06:30 2.89 133 9550 (1991) 50 (1956) 717 68 114 155 198 362 785 888 1470 2960
2026-01-16 05:30 2.89 133 9550 (1991) 50 (1956) 717 68 114 155 198 362 785 888 1470 2960
2026-01-16 04:30 2.89 133 9550 (1991) 50 (1956) 717 68 114 155 198 362 785 888 1470 2960
2026-01-16 03:30 2.89 133 9550 (1991) 50 (1956) 717 68 114 155 198 362 785 888 1470 2960
2026-01-16 02:30 2.89 133 9550 (1991) 50 (1956) 717 68 114 155 198 362 785 888 1470 2960
2026-01-16 01:30 2.89 133 9550 (1991) 50 (1956) 717 68 114 155 198 362 785 888 1470 2960
2026-01-16 00:30 2.89 133 9550 (1991) 50 (1956) 717 68 114 155 198 362 785 888 1470 2960
2026-01-15 23:30 2.89 133 9550 (1991) 50 (1956) 717 68 114 155 198 362 785 888 1470 2960
2026-01-15 22:30 2.89 133 5880 (1995) 40 (1964) 747 69 116 160 189 358 813 981 1690 3880
2026-01-15 21:30 2.89 133 5880 (1995) 40 (1964) 747 69 116 160 189 358 813 981 1690 3880
2026-01-15 20:30 2.90 136 5880 (1995) 40 (1964) 747 69 116 160 189 358 813 981 1690 3880
2026-01-15 19:30 2.90 136 5880 (1995) 40 (1964) 747 69 116 160 189 358 813 981 1690 3880
2026-01-15 18:30 2.90 136 5880 (1995) 40 (1964) 747 69 116 160 189 358 813 981 1690 3880
2026-01-15 17:30 2.90 136 5880 (1995) 40 (1964) 747 69 116 160 189 358 813 981 1690 3880
2026-01-15 16:30 2.90 136 5880 (1995) 40 (1964) 747 69 116 160 189 358 813 981 1690 3880
2026-01-15 15:30 2.90 136 5880 (1995) 40 (1964) 747 69 116 160 189 358 813 981 1690 3880
2026-01-15 14:30 2.89 133 5880 (1995) 40 (1964) 747 69 116 160 189 358 813 981 1690 3880
2026-01-15 13:30 2.90 136 5880 (1995) 40 (1964) 747 69 116 160 189 358 813 981 1690 3880
2026-01-15 12:30 2.89 133 5880 (1995) 40 (1964) 747 69 116 160 189 358 813 981 1690 3880
2026-01-15 11:30 2.89 133 5880 (1995) 40 (1964) 747 69 116 160 189 358 813 981 1690 3880
2026-01-15 10:30 2.89 133 5880 (1995) 40 (1964) 747 69 116 160 189 358 813 981 1690 3880
2026-01-15 09:30 2.89 133 5880 (1995) 40 (1964) 747 69 116 160 189 358 813 981 1690 3880
2026-01-15 08:30 2.89 133 5880 (1995) 40 (1964) 747 69 116 160 189 358 813 981 1690 3880
2026-01-15 07:30 2.89 133 5880 (1995) 40 (1964) 747 69 116 160 189 358 813 981 1690 3880
2026-01-15 06:30 2.89 133 5880 (1995) 40 (1964) 747 69 116 160 189 358 813 981 1690 3880
2026-01-15 05:30 2.89 133 5880 (1995) 40 (1964) 747 69 116 160 189 358 813 981 1690 3880
2026-01-15 04:30 2.89 133 5880 (1995) 40 (1964) 747 69 116 160 189 358 813 981 1690 3880
2026-01-15 03:30 2.90 136 5880 (1995) 40 (1964) 747 69 116 160 189 358 813 981 1690 3880
2026-01-15 02:30 2.90 136 5880 (1995) 40 (1964) 747 69 116 160 189 358 813 981 1690 3880
2026-01-15 01:30 2.90 136 5880 (1995) 40 (1964) 747 69 116 160 189 358 813 981 1690 3880
2026-01-15 00:30 2.90 136 5880 (1995) 40 (1964) 747 69 116 160 189 358 813 981 1690 3880
2026-01-14 23:30 2.90 136 5880 (1995) 40 (1964) 747 69 116 160 189 358 813 981 1690 3880
2026-01-14 22:30 2.90 136 13000 (1950) 45 (1964) 884 64 111 161 183 369 807 945 1940 3300
2026-01-14 21:30 2.90 136 13000 (1950) 45 (1964) 884 64 111 161 183 369 807 945 1940 3300
2026-01-14 20:30 2.90 136 13000 (1950) 45 (1964) 884 64 111 161 183 369 807 945 1940 3300
2026-01-14 19:30 2.91 138 13000 (1950) 45 (1964) 884 64 111 161 183 369 807 945 1940 3300
2026-01-14 18:30 2.90 136 13000 (1950) 45 (1964) 884 64 111 161 183 369 807 945 1940 3300
2026-01-14 17:30 2.90 136 13000 (1950) 45 (1964) 884 64 111 161 183 369 807 945 1940 3300
2026-01-14 16:30 2.90 136 13000 (1950) 45 (1964) 884 64 111 161 183 369 807 945 1940 3300
2026-01-14 15:30 2.90 136 13000 (1950) 45 (1964) 884 64 111 161 183 369 807 945 1940 3300
2026-01-14 14:30 2.90 136 13000 (1950) 45 (1964) 884 64 111 161 183 369 807 945 1940 3300
2026-01-14 13:30 2.89 133 13000 (1950) 45 (1964) 884 64 111 161 183 369 807 945 1940 3300
2026-01-14 12:30 2.89 133 13000 (1950) 45 (1964) 884 64 111 161 183 369 807 945 1940 3300
2026-01-14 11:30 2.89 133 13000 (1950) 45 (1964) 884 64 111 161 183 369 807 945 1940 3300
2026-01-14 10:30 2.89 133 13000 (1950) 45 (1964) 884 64 111 161 183 369 807 945 1940 3300
2026-01-14 09:30 2.90 136 13000 (1950) 45 (1964) 884 64 111 161 183 369 807 945 1940 3300
2026-01-14 08:30 2.90 136 13000 (1950) 45 (1964) 884 64 111 161 183 369 807 945 1940 3300
2026-01-14 07:30 2.90 136 13000 (1950) 45 (1964) 884 64 111 161 183 369 807 945 1940 3300
2026-01-14 06:30 2.90 136 13000 (1950) 45 (1964) 884 64 111 161 183 369 807 945 1940 3300
2026-01-14 05:30 2.90 136 13000 (1950) 45 (1964) 884 64 111 161 183 369 807 945 1940 3300
2026-01-14 04:30 2.90 136 13000 (1950) 45 (1964) 884 64 111 161 183 369 807 945 1940 3300
2026-01-14 03:30 2.90 136 13000 (1950) 45 (1964) 884 64 111 161 183 369 807 945 1940 3300
2026-01-14 02:30 2.90 136 13000 (1950) 45 (1964) 884 64 111 161 183 369 807 945 1940 3300
2026-01-14 01:30 2.90 136 13000 (1950) 45 (1964) 884 64 111 161 183 369 807 945 1940 3300
2026-01-14 00:30 2.90 136 13000 (1950) 45 (1964) 884 64 111 161 183 369 807 945 1940 3300
2026-01-13 23:30 2.90 136 13000 (1950) 45 (1964) 884 64 111 161 183 369 807 945 1940 3300
2026-01-13 22:30 2.90 136 14000 (2005) 53 (1954) 863 74 112 162 177 393 760 854 1680 4170
2026-01-13 21:30 2.90 136 14000 (2005) 53 (1954) 863 74 112 162 177 393 760 854 1680 4170
2026-01-13 20:30 2.91 138 14000 (2005) 53 (1954) 863 74 112 162 177 393 760 854 1680 4170
2026-01-13 19:30 2.91 138 14000 (2005) 53 (1954) 863 74 112 162 177 393 760 854 1680 4170
2026-01-13 18:30 2.90 136 14000 (2005) 53 (1954) 863 74 112 162 177 393 760 854 1680 4170
2026-01-13 17:30 2.90 136 14000 (2005) 53 (1954) 863 74 112 162 177 393 760 854 1680 4170
2026-01-13 16:30 2.91 138 14000 (2005) 53 (1954) 863 74 112 162 177 393 760 854 1680 4170
2026-01-13 15:30 2.92 151 14000 (2005) 53 (1954) 863 74 112 162 177 393 760 854 1680 4170
2026-01-13 14:30 2.92 151 14000 (2005) 53 (1954) 863 74 112 162 177 393 760 854 1680 4170
2026-01-13 13:30 2.91 148 14000 (2005) 53 (1954) 863 74 112 162 177 393 760 854 1680 4170
2026-01-13 12:30 2.92 151 14000 (2005) 53 (1954) 863 74 112 162 177 393 760 854 1680 4170
2026-01-13 11:30 2.91 148 14000 (2005) 53 (1954) 863 74 112 162 177 393 760 854 1680 4170
2026-01-13 10:30 2.91 148 14000 (2005) 53 (1954) 863 74 112 162 177 393 760 854 1680 4170
2026-01-13 09:30 2.91 148 14000 (2005) 53 (1954) 863 74 112 162 177 393 760 854 1680 4170
2026-01-13 08:30 2.91 148 14000 (2005) 53 (1954) 863 74 112 162 177 393 760 854 1680 4170
2026-01-13 06:30 2.91 148 14000 (2005) 53 (1954) 863 74 112 162 177 393 760 854 1680 4170
2026-01-13 05:30 2.91 148 14000 (2005) 53 (1954) 863 74 112 162 177 393 760 854 1680 4170
2026-01-13 04:30 2.91 148 14000 (2005) 53 (1954) 863 74 112 162 177 393 760 854 1680 4170
2026-01-13 03:30 2.91 148 14000 (2005) 53 (1954) 863 74 112 162 177 393 760 854 1680 4170
2026-01-13 02:30 2.91 148 14000 (2005) 53 (1954) 863 74 112 162 177 393 760 854 1680 4170
2026-01-13 01:30 2.91 148 14000 (2005) 53 (1954) 863 74 112 162 177 393 760 854 1680 4170
2026-01-13 00:30 2.91 148 14000 (2005) 53 (1954) 863 74 112 162 177 393 760 854 1680 4170
2026-01-12 23:30 2.92 151 14000 (2005) 53 (1954) 863 74 112 162 177 393 760 854 1680 4170
2026-01-12 22:30 2.92 151 8240 (2020) 53 (1954) 724 71 114 151 181 365 745 861 1900 2590
2026-01-12 21:30 2.92 151 8240 (2020) 53 (1954) 724 71 114 151 181 365 745 861 1900 2590
2026-01-12 20:30 2.92 151 8240 (2020) 53 (1954) 724 71 114 151 181 365 745 861 1900 2590
2026-01-12 19:30 2.92 151 8240 (2020) 53 (1954) 724 71 114 151 181 365 745 861 1900 2590
2026-01-12 18:30 2.92 151 8240 (2020) 53 (1954) 724 71 114 151 181 365 745 861 1900 2590
2026-01-12 17:30 2.92 151 8240 (2020) 53 (1954) 724 71 114 151 181 365 745 861 1900 2590
2026-01-12 16:30 2.93 153 8240 (2020) 53 (1954) 724 71 114 151 181 365 745 861 1900 2590
2026-01-12 15:30 2.93 153 8240 (2020) 53 (1954) 724 71 114 151 181 365 745 861 1900 2590
2026-01-12 14:30 2.93 153 8240 (2020) 53 (1954) 724 71 114 151 181 365 745 861 1900 2590
2026-01-12 13:30 2.93 153 8240 (2020) 53 (1954) 724 71 114 151 181 365 745 861 1900 2590
2026-01-12 12:30 2.93 153 8240 (2020) 53 (1954) 724 71 114 151 181 365 745 861 1900 2590
2026-01-12 11:30 2.93 153 8240 (2020) 53 (1954) 724 71 114 151 181 365 745 861 1900 2590
2026-01-12 10:30 2.93 153 8240 (2020) 53 (1954) 724 71 114 151 181 365 745 861 1900 2590
2026-01-12 09:30 2.92 151 8240 (2020) 53 (1954) 724 71 114 151 181 365 745 861 1900 2590
2026-01-12 08:30 2.92 151 8240 (2020) 53 (1954) 724 71 114 151 181 365 745 861 1900 2590
2026-01-12 07:30 2.92 151 8240 (2020) 53 (1954) 724 71 114 151 181 365 745 861 1900 2590
2026-01-12 06:30 2.92 151 8240 (2020) 53 (1954) 724 71 114 151 181 365 745 861 1900 2590
2026-01-12 05:30 2.93 153 8240 (2020) 53 (1954) 724 71 114 151 181 365 745 861 1900 2590
2026-01-12 04:30 2.93 153 8240 (2020) 53 (1954) 724 71 114 151 181 365 745 861 1900 2590
2026-01-12 03:30 2.93 153 8240 (2020) 53 (1954) 724 71 114 151 181 365 745 861 1900 2590
2026-01-12 02:30 2.93 153 8240 (2020) 53 (1954) 724 71 114 151 181 365 745 861 1900 2590
2026-01-12 01:30 2.93 153 8240 (2020) 53 (1954) 724 71 114 151 181 365 745 861 1900 2590
2026-01-12 00:30 2.93 153 8240 (2020) 53 (1954) 724 71 114 151 181 365 745 861 1900 2590
2026-01-11 23:30 2.94 156 8240 (2020) 53 (1954) 724 71 114 151 181 365 745 861 1900 2590
2026-01-11 22:30 2.94 156 15600 (2020) 53 (1954) 863 71 115 153 186 383 734 886 1880 3060
2026-01-11 21:30 2.94 156 15600 (2020) 53 (1954) 863 71 115 153 186 383 734 886 1880 3060
2026-01-11 20:30 2.94 156 15600 (2020) 53 (1954) 863 71 115 153 186 383 734 886 1880 3060
2026-01-11 19:30 2.94 156 15600 (2020) 53 (1954) 863 71 115 153 186 383 734 886 1880 3060
2026-01-11 18:30 2.94 156 15600 (2020) 53 (1954) 863 71 115 153 186 383 734 886 1880 3060
2026-01-11 17:30 2.95 158 15600 (2020) 53 (1954) 863 71 115 153 186 383 734 886 1880 3060
2026-01-11 16:30 2.95 158 15600 (2020) 53 (1954) 863 71 115 153 186 383 734 886 1880 3060
2026-01-11 15:30 2.95 158 15600 (2020) 53 (1954) 863 71 115 153 186 383 734 886 1880 3060
2026-01-11 14:30 2.95 158 15600 (2020) 53 (1954) 863 71 115 153 186 383 734 886 1880 3060
2026-01-11 13:30 2.95 158 15600 (2020) 53 (1954) 863 71 115 153 186 383 734 886 1880 3060
2026-01-11 12:30 2.95 158 15600 (2020) 53 (1954) 863 71 115 153 186 383 734 886 1880 3060
2026-01-11 11:30 2.94 156 15600 (2020) 53 (1954) 863 71 115 153 186 383 734 886 1880 3060
2026-01-11 10:30 2.95 158 15600 (2020) 53 (1954) 863 71 115 153 186 383 734 886 1880 3060
2026-01-11 09:30 2.95 158 15600 (2020) 53 (1954) 863 71 115 153 186 383 734 886 1880 3060
2026-01-11 08:30 2.95 158 15600 (2020) 53 (1954) 863 71 115 153 186 383 734 886 1880 3060
2026-01-11 07:30 2.95 158 15600 (2020) 53 (1954) 863 71 115 153 186 383 734 886 1880 3060
2026-01-11 06:30 2.95 158 15600 (2020) 53 (1954) 863 71 115 153 186 383 734 886 1880 3060
2026-01-11 05:30 2.95 158 15600 (2020) 53 (1954) 863 71 115 153 186 383 734 886 1880 3060
2026-01-11 04:30 2.95 158 15600 (2020) 53 (1954) 863 71 115 153 186 383 734 886 1880 3060
2026-01-11 03:30 2.95 158 15600 (2020) 53 (1954) 863 71 115 153 186 383 734 886 1880 3060
2026-01-11 02:30 2.95 158 15600 (2020) 53 (1954) 863 71 115 153 186 383 734 886 1880 3060
2026-01-11 01:30 2.96 161 15600 (2020) 53 (1954) 863 71 115 153 186 383 734 886 1880 3060
2026-01-11 00:30 2.96 161 15600 (2020) 53 (1954) 863 71 115 153 186 383 734 886 1880 3060
2026-01-10 23:30 2.96 161 15600 (2020) 53 (1954) 863 71 115 153 186 383 734 886 1880 3060
2026-01-10 22:30 2.96 161 4580 (1998) 54 (1956) 683 73 116 153 188 378 771 898 1740 2890
2026-01-10 21:30 2.96 161 4580 (1998) 54 (1956) 683 73 116 153 188 378 771 898 1740 2890
2026-01-10 20:30 2.96 161 4580 (1998) 54 (1956) 683 73 116 153 188 378 771 898 1740 2890
2026-01-10 19:30 2.96 161 4580 (1998) 54 (1956) 683 73 116 153 188 378 771 898 1740 2890
2026-01-10 18:30 2.96 161 4580 (1998) 54 (1956) 683 73 116 153 188 378 771 898 1740 2890
2026-01-10 17:30 2.96 161 4580 (1998) 54 (1956) 683 73 116 153 188 378 771 898 1740 2890
2026-01-10 16:30 2.97 163 4580 (1998) 54 (1956) 683 73 116 153 188 378 771 898 1740 2890
2026-01-10 15:30 2.97 163 4580 (1998) 54 (1956) 683 73 116 153 188 378 771 898 1740 2890
2026-01-10 14:30 2.97 163 4580 (1998) 54 (1956) 683 73 116 153 188 378 771 898 1740 2890
2026-01-10 13:30 2.97 163 4580 (1998) 54 (1956) 683 73 116 153 188 378 771 898 1740 2890
2026-01-10 12:30 2.96 161 4580 (1998) 54 (1956) 683 73 116 153 188 378 771 898 1740 2890
2026-01-10 11:30 2.96 161 4580 (1998) 54 (1956) 683 73 116 153 188 378 771 898 1740 2890
2026-01-10 10:30 2.96 161 4580 (1998) 54 (1956) 683 73 116 153 188 378 771 898 1740 2890
2026-01-10 09:30 2.96 161 4580 (1998) 54 (1956) 683 73 116 153 188 378 771 898 1740 2890
2026-01-10 08:30 2.96 161 4580 (1998) 54 (1956) 683 73 116 153 188 378 771 898 1740 2890
2026-01-10 07:30 2.96 161 4580 (1998) 54 (1956) 683 73 116 153 188 378 771 898 1740 2890
2026-01-10 06:30 2.96 161 4580 (1998) 54 (1956) 683 73 116 153 188 378 771 898 1740 2890
2026-01-10 05:30 2.95 158 4580 (1998) 54 (1956) 683 73 116 153 188 378 771 898 1740 2890
2026-01-10 04:30 2.95 158 4580 (1998) 54 (1956) 683 73 116 153 188 378 771 898 1740 2890
2026-01-10 03:30 2.95 158 4580 (1998) 54 (1956) 683 73 116 153 188 378 771 898 1740 2890
2026-01-10 02:30 2.95 158 4580 (1998) 54 (1956) 683 73 116 153 188 378 771 898 1740 2890
2026-01-10 01:30 2.95 158 4580 (1998) 54 (1956) 683 73 116 153 188 378 771 898 1740 2890
2026-01-10 00:30 2.95 158 4580 (1998) 54 (1956) 683 73 116 153 188 378 771 898 1740 2890
2026-01-09 23:30 2.95 158 4580 (1998) 54 (1956) 683 73 116 153 188 378 771 898 1740 2890
2026-01-09 22:30 2.95 158 13300 (2008) 53 (1954) 764 73 119 160 181 372 781 891 1510 2150
2026-01-09 21:30 2.95 158 13300 (2008) 53 (1954) 764 73 119 160 181 372 781 891 1510 2150
2026-01-09 20:30 2.95 158 13300 (2008) 53 (1954) 764 73 119 160 181 372 781 891 1510 2150
2026-01-09 19:30 2.95 158 13300 (2008) 53 (1954) 764 73 119 160 181 372 781 891 1510 2150
2026-01-09 18:30 2.95 158 13300 (2008) 53 (1954) 764 73 119 160 181 372 781 891 1510 2150
2026-01-09 17:30 2.94 156 13300 (2008) 53 (1954) 764 73 119 160 181 372 781 891 1510 2150
2026-01-09 16:30 2.94 156 13300 (2008) 53 (1954) 764 73 119 160 181 372 781 891 1510 2150
2026-01-09 15:30 2.94 156 13300 (2008) 53 (1954) 764 73 119 160 181 372 781 891 1510 2150
2026-01-09 14:30 2.94 156 13300 (2008) 53 (1954) 764 73 119 160 181 372 781 891 1510 2150
2026-01-09 13:30 2.94 156 13300 (2008) 53 (1954) 764 73 119 160 181 372 781 891 1510 2150
2026-01-09 12:30 2.94 156 13300 (2008) 53 (1954) 764 73 119 160 181 372 781 891 1510 2150
2026-01-09 11:30 2.94 156 13300 (2008) 53 (1954) 764 73 119 160 181 372 781 891 1510 2150
2026-01-09 10:30 2.93 153 13300 (2008) 53 (1954) 764 73 119 160 181 372 781 891 1510 2150
2026-01-09 09:30 2.94 156 13300 (2008) 53 (1954) 764 73 119 160 181 372 781 891 1510 2150
2026-01-09 08:30 2.94 156 13300 (2008) 53 (1954) 764 73 119 160 181 372 781 891 1510 2150
2026-01-09 07:30 2.94 156 13300 (2008) 53 (1954) 764 73 119 160 181 372 781 891 1510 2150
2026-01-09 06:30 2.93 153 13300 (2008) 53 (1954) 764 73 119 160 181 372 781 891 1510 2150
2026-01-09 05:30 2.94 156 13300 (2008) 53 (1954) 764 73 119 160 181 372 781 891 1510 2150
2026-01-09 04:30 2.93 153 13300 (2008) 53 (1954) 764 73 119 160 181 372 781 891 1510 2150
2026-01-09 03:30 2.93 153 13300 (2008) 53 (1954) 764 73 119 160 181 372 781 891 1510 2150
2026-01-09 02:30 2.93 153 13300 (2008) 53 (1954) 764 73 119 160 181 372 781 891 1510 2150
2026-01-09 01:30 2.93 153 13300 (2008) 53 (1954) 764 73 119 160 181 372 781 891 1510 2150
2026-01-09 00:30 2.93 153 13300 (2008) 53 (1954) 764 73 119 160 181 372 781 891 1510 2150
2026-01-08 23:30 2.93 153 13300 (2008) 53 (1954) 764 73 119 160 181 372 781 891 1510 2150
2026-01-08 22:30 2.94 156 23800 (2008) 52 (1954) 911 73 118 164 178 380 895 964 1530 2230
2026-01-08 21:30 2.94 156 23800 (2008) 52 (1954) 911 73 118 164 178 380 895 964 1530 2230
2026-01-08 20:30 2.94 156 23800 (2008) 52 (1954) 911 73 118 164 178 380 895 964 1530 2230
2026-01-08 19:30 2.93 153 23800 (2008) 52 (1954) 911 73 118 164 178 380 895 964 1530 2230
2026-01-08 18:30 2.93 153 23800 (2008) 52 (1954) 911 73 118 164 178 380 895 964 1530 2230
2026-01-08 17:30 2.94 156 23800 (2008) 52 (1954) 911 73 118 164 178 380 895 964 1530 2230
2026-01-08 16:30 2.94 156 23800 (2008) 52 (1954) 911 73 118 164 178 380 895 964 1530 2230
2026-01-08 15:30 2.94 156 23800 (2008) 52 (1954) 911 73 118 164 178 380 895 964 1530 2230
2026-01-08 14:30 2.93 153 23800 (2008) 52 (1954) 911 73 118 164 178 380 895 964 1530 2230
2026-01-08 13:30 2.93 153 23800 (2008) 52 (1954) 911 73 118 164 178 380 895 964 1530 2230
2026-01-08 12:30 2.93 153 23800 (2008) 52 (1954) 911 73 118 164 178 380 895 964 1530 2230
2026-01-08 11:30 2.93 153 23800 (2008) 52 (1954) 911 73 118 164 178 380 895 964 1530 2230
2026-01-08 10:30 2.92 151 23800 (2008) 52 (1954) 911 73 118 164 178 380 895 964 1530 2230
2026-01-08 09:30 2.91 148 23800 (2008) 52 (1954) 911 73 118 164 178 380 895 964 1530 2230
2026-01-08 08:30 2.91 148 23800 (2008) 52 (1954) 911 73 118 164 178 380 895 964 1530 2230
2026-01-08 07:30 2.91 148 23800 (2008) 52 (1954) 911 73 118 164 178 380 895 964 1530 2230
2026-01-08 06:30 2.91 148 23800 (2008) 52 (1954) 911 73 118 164 178 380 895 964 1530 2230
2026-01-08 05:30 2.91 148 23800 (2008) 52 (1954) 911 73 118 164 178 380 895 964 1530 2230
2026-01-08 04:30 2.91 148 23800 (2008) 52 (1954) 911 73 118 164 178 380 895 964 1530 2230
2026-01-08 03:30 2.91 148 23800 (2008) 52 (1954) 911 73 118 164 178 380 895 964 1530 2230
2026-01-08 02:30 2.90 146 23800 (2008) 52 (1954) 911 73 118 164 178 380 895 964 1530 2230
2026-01-08 01:30 2.90 146 23800 (2008) 52 (1954) 911 73 118 164 178 380 895 964 1530 2230
2026-01-08 00:30 2.90 146 23800 (2008) 52 (1954) 911 73 118 164 178 380 895 964 1530 2230
2026-01-07 23:30 2.90 146 23800 (2008) 52 (1954) 911 73 118 164 178 380 895 964 1530 2230
2026-01-07 22:30 2.91 148 7160 (2005) 52 (1954) 699 66 117 170 180 389 877 1000 1440 2040
2026-01-07 21:30 2.91 148 7160 (2005) 52 (1954) 699 66 117 170 180 389 877 1000 1440 2040
2026-01-07 20:30 2.91 148 7160 (2005) 52 (1954) 699 66 117 170 180 389 877 1000 1440 2040
2026-01-07 19:30 2.91 148 7160 (2005) 52 (1954) 699 66 117 170 180 389 877 1000 1440 2040
2026-01-07 18:30 2.91 148 7160 (2005) 52 (1954) 699 66 117 170 180 389 877 1000 1440 2040
2026-01-07 17:30 2.91 148 7160 (2005) 52 (1954) 699 66 117 170 180 389 877 1000 1440 2040
2026-01-07 16:30 2.91 148 7160 (2005) 52 (1954) 699 66 117 170 180 389 877 1000 1440 2040
2026-01-07 15:30 2.91 148 7160 (2005) 52 (1954) 699 66 117 170 180 389 877 1000 1440 2040
2026-01-07 14:30 2.92 151 7160 (2005) 52 (1954) 699 66 117 170 180 389 877 1000 1440 2040
2026-01-07 13:30 2.91 148 7160 (2005) 52 (1954) 699 66 117 170 180 389 877 1000 1440 2040
2026-01-07 12:30 2.91 148 7160 (2005) 52 (1954) 699 66 117 170 180 389 877 1000 1440 2040
2026-01-07 11:30 2.91 148 7160 (2005) 52 (1954) 699 66 117 170 180 389 877 1000 1440 2040
2026-01-07 10:30 2.91 148 7160 (2005) 52 (1954) 699 66 117 170 180 389 877 1000 1440 2040
2026-01-07 09:30 2.91 148 7160 (2005) 52 (1954) 699 66 117 170 180 389 877 1000 1440 2040
2026-01-07 08:30 2.91 148 7160 (2005) 52 (1954) 699 66 117 170 180 389 877 1000 1440 2040
2026-01-07 07:30 2.90 146 7160 (2005) 52 (1954) 699 66 117 170 180 389 877 1000 1440 2040
2026-01-07 06:30 2.90 146 7160 (2005) 52 (1954) 699 66 117 170 180 389 877 1000 1440 2040
2026-01-07 05:30 2.91 148 7160 (2005) 52 (1954) 699 66 117 170 180 389 877 1000 1440 2040
2026-01-07 04:30 2.90 146 7160 (2005) 52 (1954) 699 66 117 170 180 389 877 1000 1440 2040
2026-01-07 03:30 2.90 146 7160 (2005) 52 (1954) 699 66 117 170 180 389 877 1000 1440 2040
2026-01-07 02:30 2.91 148 7160 (2005) 52 (1954) 699 66 117 170 180 389 877 1000 1440 2040
2026-01-07 01:30 2.91 148 7160 (2005) 52 (1954) 699 66 117 170 180 389 877 1000 1440 2040
2026-01-07 00:30 2.91 148 7160 (2005) 52 (1954) 699 66 117 170 180 389 877 1000 1440 2040
2026-01-06 23:30 2.91 148 7160 (2005) 52 (1954) 699 66 117 170 180 389 877 1000 1440 2040
2026-01-06 22:30 2.91 148 18800 (2005) 52 (1954) 886 73 122 169 182 417 928 1070 1620 2370
2026-01-06 21:30 2.91 148 18800 (2005) 52 (1954) 886 73 122 169 182 417 928 1070 1620 2370
2026-01-06 20:30 2.91 148 18800 (2005) 52 (1954) 886 73 122 169 182 417 928 1070 1620 2370
2026-01-06 19:30 2.91 148 18800 (2005) 52 (1954) 886 73 122 169 182 417 928 1070 1620 2370
2026-01-06 18:30 2.91 148 18800 (2005) 52 (1954) 886 73 122 169 182 417 928 1070 1620 2370
2026-01-06 17:30 2.91 148 18800 (2005) 52 (1954) 886 73 122 169 182 417 928 1070 1620 2370
2026-01-06 16:30 2.91 148 18800 (2005) 52 (1954) 886 73 122 169 182 417 928 1070 1620 2370
2026-01-06 15:30 2.91 148 18800 (2005) 52 (1954) 886 73 122 169 182 417 928 1070 1620 2370
2026-01-06 14:30 2.91 148 18800 (2005) 52 (1954) 886 73 122 169 182 417 928 1070 1620 2370
2026-01-06 13:30 2.91 148 18800 (2005) 52 (1954) 886 73 122 169 182 417 928 1070 1620 2370
2026-01-06 12:30 2.91 148 18800 (2005) 52 (1954) 886 73 122 169 182 417 928 1070 1620 2370
2026-01-06 11:30 2.91 148 18800 (2005) 52 (1954) 886 73 122 169 182 417 928 1070 1620 2370
2026-01-06 10:30 2.91 148 18800 (2005) 52 (1954) 886 73 122 169 182 417 928 1070 1620 2370
2026-01-06 09:30 2.91 148 18800 (2005) 52 (1954) 886 73 122 169 182 417 928 1070 1620 2370
2026-01-06 08:30 2.91 148 18800 (2005) 52 (1954) 886 73 122 169 182 417 928 1070 1620 2370
2026-01-06 07:30 2.91 148 18800 (2005) 52 (1954) 886 73 122 169 182 417 928 1070 1620 2370
2026-01-06 06:30 2.92 151 18800 (2005) 52 (1954) 886 73 122 169 182 417 928 1070 1620 2370
2026-01-06 05:30 2.91 148 18800 (2005) 52 (1954) 886 73 122 169 182 417 928 1070 1620 2370
2026-01-06 04:30 2.91 148 18800 (2005) 52 (1954) 886 73 122 169 182 417 928 1070 1620 2370
2026-01-06 03:30 2.91 148 18800 (2005) 52 (1954) 886 73 122 169 182 417 928 1070 1620 2370
2026-01-06 02:30 2.91 148 18800 (2005) 52 (1954) 886 73 122 169 182 417 928 1070 1620 2370
2026-01-06 01:30 2.91 148 18800 (2005) 52 (1954) 886 73 122 169 182 417 928 1070 1620 2370
2026-01-06 00:30 2.91 148 18800 (2005) 52 (1954) 886 73 122 169 182 417 928 1070 1620 2370
2026-01-05 23:30 2.91 148 18800 (2005) 52 (1954) 886 73 122 169 182 417 928 1070 1620 2370
2026-01-05 22:30 2.91 148 28700 (2005) 53 (1954) 1100 72 119 172 196 445 903 1060 1780 2780
2026-01-05 21:30 2.91 148 28700 (2005) 53 (1954) 1100 72 119 172 196 445 903 1060 1780 2780
2026-01-05 20:30 2.91 148 28700 (2005) 53 (1954) 1100 72 119 172 196 445 903 1060 1780 2780
2026-01-05 19:30 2.92 151 28700 (2005) 53 (1954) 1100 72 119 172 196 445 903 1060 1780 2780
2026-01-05 18:30 2.92 151 28700 (2005) 53 (1954) 1100 72 119 172 196 445 903 1060 1780 2780
2026-01-05 17:30 2.92 151 28700 (2005) 53 (1954) 1100 72 119 172 196 445 903 1060 1780 2780
2026-01-05 16:30 2.92 151 28700 (2005) 53 (1954) 1100 72 119 172 196 445 903 1060 1780 2780
2026-01-05 15:30 2.92 151 28700 (2005) 53 (1954) 1100 72 119 172 196 445 903 1060 1780 2780
2026-01-05 14:30 2.92 151 28700 (2005) 53 (1954) 1100 72 119 172 196 445 903 1060 1780 2780
2026-01-05 13:30 2.92 151 28700 (2005) 53 (1954) 1100 72 119 172 196 445 903 1060 1780 2780
2026-01-05 12:30 2.92 151 28700 (2005) 53 (1954) 1100 72 119 172 196 445 903 1060 1780 2780
2026-01-05 11:30 2.92 151 28700 (2005) 53 (1954) 1100 72 119 172 196 445 903 1060 1780 2780
2026-01-05 10:30 2.92 151 28700 (2005) 53 (1954) 1100 72 119 172 196 445 903 1060 1780 2780
2026-01-05 09:30 2.92 151 28700 (2005) 53 (1954) 1100 72 119 172 196 445 903 1060 1780 2780
2026-01-05 08:30 2.91 148 28700 (2005) 53 (1954) 1100 72 119 172 196 445 903 1060 1780 2780
2026-01-05 07:30 2.92 151 28700 (2005) 53 (1954) 1100 72 119 172 196 445 903 1060 1780 2780
2026-01-05 06:30 2.91 148 28700 (2005) 53 (1954) 1100 72 119 172 196 445 903 1060 1780 2780
2026-01-05 05:30 2.92 151 28700 (2005) 53 (1954) 1100 72 119 172 196 445 903 1060 1780 2780
2026-01-05 04:30 2.92 151 28700 (2005) 53 (1954) 1100 72 119 172 196 445 903 1060 1780 2780
2026-01-05 03:30 2.92 151 28700 (2005) 53 (1954) 1100 72 119 172 196 445 903 1060 1780 2780
2026-01-05 02:30 2.92 151 28700 (2005) 53 (1954) 1100 72 119 172 196 445 903 1060 1780 2780
2026-01-05 01:30 2.92 151 28700 (2005) 53 (1954) 1100 72 119 172 196 445 903 1060 1780 2780
2026-01-05 00:30 2.92 151 28700 (2005) 53 (1954) 1100 72 119 172 196 445 903 1060 1780 2780
2026-01-04 23:30 2.92 151 28700 (2005) 53 (1954) 1100 72 119 172 196 445 903 1060 1780 2780
2026-01-04 22:30 2.92 151 5660 (1950) 53 (1954) 742 71 120 176 196 421 1010 1080 1930 2300
2026-01-04 21:30 2.92 151 5660 (1950) 53 (1954) 742 71 120 176 196 421 1010 1080 1930 2300
2026-01-04 20:30 2.92 151 5660 (1950) 53 (1954) 742 71 120 176 196 421 1010 1080 1930 2300
2026-01-04 19:30 2.92 151 5660 (1950) 53 (1954) 742 71 120 176 196 421 1010 1080 1930 2300
2026-01-04 18:30 2.93 153 5660 (1950) 53 (1954) 742 71 120 176 196 421 1010 1080 1930 2300
2026-01-04 17:30 2.93 153 5660 (1950) 53 (1954) 742 71 120 176 196 421 1010 1080 1930 2300
2026-01-04 16:30 2.93 153 5660 (1950) 53 (1954) 742 71 120 176 196 421 1010 1080 1930 2300
2026-01-04 15:30 2.93 153 5660 (1950) 53 (1954) 742 71 120 176 196 421 1010 1080 1930 2300
2026-01-04 14:30 2.93 153 5660 (1950) 53 (1954) 742 71 120 176 196 421 1010 1080 1930 2300
2026-01-04 13:30 2.93 153 5660 (1950) 53 (1954) 742 71 120 176 196 421 1010 1080 1930 2300
2026-01-04 12:30 2.93 153 5660 (1950) 53 (1954) 742 71 120 176 196 421 1010 1080 1930 2300
2026-01-04 11:30 2.92 151 5660 (1950) 53 (1954) 742 71 120 176 196 421 1010 1080 1930 2300
2026-01-04 10:30 2.93 153 5660 (1950) 53 (1954) 742 71 120 176 196 421 1010 1080 1930 2300
2026-01-04 09:30 2.93 153 5660 (1950) 53 (1954) 742 71 120 176 196 421 1010 1080 1930 2300
2026-01-04 08:30 2.93 153 5660 (1950) 53 (1954) 742 71 120 176 196 421 1010 1080 1930 2300
2026-01-04 07:30 2.93 153 5660 (1950) 53 (1954) 742 71 120 176 196 421 1010 1080 1930 2300
2026-01-04 06:30 2.93 153 5660 (1950) 53 (1954) 742 71 120 176 196 421 1010 1080 1930 2300
2026-01-04 05:30 2.93 153 5660 (1950) 53 (1954) 742 71 120 176 196 421 1010 1080 1930 2300
2026-01-04 04:30 2.93 153 5660 (1950) 53 (1954) 742 71 120 176 196 421 1010 1080 1930 2300
2026-01-04 03:30 2.93 153 5660 (1950) 53 (1954) 742 71 120 176 196 421 1010 1080 1930 2300
2026-01-04 02:30 2.93 153 5660 (1950) 53 (1954) 742 71 120 176 196 421 1010 1080 1930 2300
2026-01-04 01:30 2.93 153 5660 (1950) 53 (1954) 742 71 120 176 196 421 1010 1080 1930 2300
2026-01-04 00:30 2.93 153 5660 (1950) 53 (1954) 742 71 120 176 196 421 1010 1080 1930 2300
2026-01-03 23:30 2.93 153 5660 (1950) 53 (1954) 742 71 120 176 196 421 1010 1080 1930 2300
2026-01-03 22:30 2.94 156 5110 (1985) 53 (1954) 688 71 122 180 198 434 759 1100 1600 2760
2026-01-03 21:30 2.94 156 5110 (1985) 53 (1954) 688 71 122 180 198 434 759 1100 1600 2760
2026-01-03 20:30 2.94 156 5110 (1985) 53 (1954) 688 71 122 180 198 434 759 1100 1600 2760
2026-01-03 19:30 2.94 156 5110 (1985) 53 (1954) 688 71 122 180 198 434 759 1100 1600 2760
2026-01-03 18:30 2.94 156 5110 (1985) 53 (1954) 688 71 122 180 198 434 759 1100 1600 2760
2026-01-03 17:30 2.94 156 5110 (1985) 53 (1954) 688 71 122 180 198 434 759 1100 1600 2760
2026-01-03 16:30 2.94 156 5110 (1985) 53 (1954) 688 71 122 180 198 434 759 1100 1600 2760
2026-01-03 15:30 2.94 156 5110 (1985) 53 (1954) 688 71 122 180 198 434 759 1100 1600 2760
2026-01-03 14:30 2.94 156 5110 (1985) 53 (1954) 688 71 122 180 198 434 759 1100 1600 2760
2026-01-03 13:30 2.93 153 5110 (1985) 53 (1954) 688 71 122 180 198 434 759 1100 1600 2760
2026-01-03 12:30 2.93 153 5110 (1985) 53 (1954) 688 71 122 180 198 434 759 1100 1600 2760
2026-01-03 11:30 2.94 156 5110 (1985) 53 (1954) 688 71 122 180 198 434 759 1100 1600 2760
2026-01-03 10:30 2.93 153 5110 (1985) 53 (1954) 688 71 122 180 198 434 759 1100 1600 2760
2026-01-03 09:30 2.93 153 5110 (1985) 53 (1954) 688 71 122 180 198 434 759 1100 1600 2760
2026-01-03 08:30 2.93 153 5110 (1985) 53 (1954) 688 71 122 180 198 434 759 1100 1600 2760
2026-01-03 07:30 2.93 153 5110 (1985) 53 (1954) 688 71 122 180 198 434 759 1100 1600 2760
2026-01-03 06:30 2.93 153 5110 (1985) 53 (1954) 688 71 122 180 198 434 759 1100 1600 2760
2026-01-03 05:30 2.93 153 5110 (1985) 53 (1954) 688 71 122 180 198 434 759 1100 1600 2760
2026-01-03 04:30 2.93 153 5110 (1985) 53 (1954) 688 71 122 180 198 434 759 1100 1600 2760
2026-01-03 03:30 2.93 153 5110 (1985) 53 (1954) 688 71 122 180 198 434 759 1100 1600 2760
2026-01-03 02:30 2.93 153 5110 (1985) 53 (1954) 688 71 122 180 198 434 759 1100 1600 2760
2026-01-03 01:30 2.92 151 5110 (1985) 53 (1954) 688 71 122 180 198 434 759 1100 1600 2760
2026-01-03 00:30 2.92 151 5110 (1985) 53 (1954) 688 71 122 180 198 434 759 1100 1600 2760
2026-01-02 23:30 2.92 151 5110 (1985) 53 (1954) 688 71 122 180 198 434 759 1100 1600 2760
2026-01-02 22:30 2.92 151 9070 (1985) 53 (1954) 825 74 124 174 192 408 819 1040 1810 4040
2026-01-02 21:30 2.92 151 9070 (1985) 53 (1954) 825 74 124 174 192 408 819 1040 1810 4040
2026-01-02 20:30 2.92 151 9070 (1985) 53 (1954) 825 74 124 174 192 408 819 1040 1810 4040
2026-01-02 19:30 2.92 151 9070 (1985) 53 (1954) 825 74 124 174 192 408 819 1040 1810 4040
2026-01-02 18:30 2.92 151 9070 (1985) 53 (1954) 825 74 124 174 192 408 819 1040 1810 4040
2026-01-02 17:30 2.92 151 9070 (1985) 53 (1954) 825 74 124 174 192 408 819 1040 1810 4040
2026-01-02 16:30 2.92 151 9070 (1985) 53 (1954) 825 74 124 174 192 408 819 1040 1810 4040
2026-01-02 15:30 2.92 151 9070 (1985) 53 (1954) 825 74 124 174 192 408 819 1040 1810 4040
2026-01-02 14:30 2.92 151 9070 (1985) 53 (1954) 825 74 124 174 192 408 819 1040 1810 4040
2026-01-02 13:30 2.92 151 9070 (1985) 53 (1954) 825 74 124 174 192 408 819 1040 1810 4040
2026-01-02 12:30 2.92 151 9070 (1985) 53 (1954) 825 74 124 174 192 408 819 1040 1810 4040
2026-01-02 11:30 2.92 151 9070 (1985) 53 (1954) 825 74 124 174 192 408 819 1040 1810 4040
2026-01-02 10:30 2.92 151 9070 (1985) 53 (1954) 825 74 124 174 192 408 819 1040 1810 4040
2026-01-02 09:30 2.92 151 9070 (1985) 53 (1954) 825 74 124 174 192 408 819 1040 1810 4040
2026-01-02 08:30 2.92 151 9070 (1985) 53 (1954) 825 74 124 174 192 408 819 1040 1810 4040
2026-01-02 07:30 2.92 151 9070 (1985) 53 (1954) 825 74 124 174 192 408 819 1040 1810 4040
2026-01-02 06:30 2.92 151 9070 (1985) 53 (1954) 825 74 124 174 192 408 819 1040 1810 4040
2026-01-02 05:30 2.92 151 9070 (1985) 53 (1954) 825 74 124 174 192 408 819 1040 1810 4040
2026-01-02 04:30 2.92 151 9070 (1985) 53 (1954) 825 74 124 174 192 408 819 1040 1810 4040
2026-01-02 03:30 2.92 151 9070 (1985) 53 (1954) 825 74 124 174 192 408 819 1040 1810 4040
2026-01-02 02:30 2.92 151 9070 (1985) 53 (1954) 825 74 124 174 192 408 819 1040 1810 4040
2026-01-02 01:30 2.92 151 9070 (1985) 53 (1954) 825 74 124 174 192 408 819 1040 1810 4040
2026-01-02 00:30 2.92 151 9070 (1985) 53 (1954) 825 74 124 174 192 408 819 1040 1810 4040
2026-01-01 23:30 2.92 151 9070 (1985) 53 (1954) 825 74 124 174 192 408 819 1040 1810 4040
2026-01-01 22:30 2.92 151 24900 (1985) 55 (1954) 956 79 122 163 199 423 824 1020 1950 2780
2026-01-01 21:30 2.92 151 24900 (1985) 55 (1954) 956 79 122 163 199 423 824 1020 1950 2780
2026-01-01 20:30 2.92 151 24900 (1985) 55 (1954) 956 79 122 163 199 423 824 1020 1950 2780
2026-01-01 19:30 2.92 151 24900 (1985) 55 (1954) 956 79 122 163 199 423 824 1020 1950 2780
2026-01-01 18:30 2.92 151 24900 (1985) 55 (1954) 956 79 122 163 199 423 824 1020 1950 2780
2026-01-01 17:30 2.92 151 24900 (1985) 55 (1954) 956 79 122 163 199 423 824 1020 1950 2780
2026-01-01 16:30 2.92 151 24900 (1985) 55 (1954) 956 79 122 163 199 423 824 1020 1950 2780
2026-01-01 15:30 2.92 151 24900 (1985) 55 (1954) 956 79 122 163 199 423 824 1020 1950 2780
2026-01-01 14:30 2.92 151 24900 (1985) 55 (1954) 956 79 122 163 199 423 824 1020 1950 2780
2026-01-01 13:30 2.92 151 24900 (1985) 55 (1954) 956 79 122 163 199 423 824 1020 1950 2780
2026-01-01 12:30 2.92 151 24900 (1985) 55 (1954) 956 79 122 163 199 423 824 1020 1950 2780
2026-01-01 11:30 2.92 151 24900 (1985) 55 (1954) 956 79 122 163 199 423 824 1020 1950 2780
2026-01-01 10:30 2.92 151 24900 (1985) 55 (1954) 956 79 122 163 199 423 824 1020 1950 2780
2026-01-01 09:30 2.92 151 24900 (1985) 55 (1954) 956 79 122 163 199 423 824 1020 1950 2780
2026-01-01 08:30 2.92 151 24900 (1985) 55 (1954) 956 79 122 163 199 423 824 1020 1950 2780
2026-01-01 07:30 2.92 151 24900 (1985) 55 (1954) 956 79 122 163 199 423 824 1020 1950 2780
2026-01-01 06:30 2.92 151 24900 (1985) 55 (1954) 956 79 122 163 199 423 824 1020 1950 2780
2026-01-01 05:30 2.92 151 24900 (1985) 55 (1954) 956 79 122 163 199 423 824 1020 1950 2780
2026-01-01 04:30 2.92 151 24900 (1985) 55 (1954) 956 79 122 163 199 423 824 1020 1950 2780
2026-01-01 03:30 2.92 151 24900 (1985) 55 (1954) 956 79 122 163 199 423 824 1020 1950 2780
2026-01-01 02:30 2.92 151 24900 (1985) 55 (1954) 956 79 122 163 199 423 824 1020 1950 2780
2026-01-01 01:30 2.92 151 24900 (1985) 55 (1954) 956 79 122 163 199 423 824 1020 1950 2780
2026-01-01 00:30 2.92 151 24900 (1985) 55 (1954) 956 79 122 163 199 423 824 1020 1950 2780
2025-12-31 23:30 2.93 153 24900 (1985) 55 (1954) 956 79 122 163 199 423 824 1020 1950 2780
2025-12-31 22:30 2.93 153 5520 (1985) 55 (1954) 683 71 115 164 204 406 757 872 1500 2710
2025-12-31 21:30 2.93 153 5520 (1985) 55 (1954) 683 71 115 164 204 406 757 872 1500 2710
2025-12-31 20:30 2.93 153 5520 (1985) 55 (1954) 683 71 115 164 204 406 757 872 1500 2710
2025-12-31 19:30 2.93 153 5520 (1985) 55 (1954) 683 71 115 164 204 406 757 872 1500 2710
2025-12-31 18:30 2.93 153 5520 (1985) 55 (1954) 683 71 115 164 204 406 757 872 1500 2710
2025-12-31 17:30 2.93 153 5520 (1985) 55 (1954) 683 71 115 164 204 406 757 872 1500 2710
2025-12-31 16:30 2.93 153 5520 (1985) 55 (1954) 683 71 115 164 204 406 757 872 1500 2710
2025-12-31 15:30 2.93 153 5520 (1985) 55 (1954) 683 71 115 164 204 406 757 872 1500 2710
2025-12-31 14:30 2.93 153 5520 (1985) 55 (1954) 683 71 115 164 204 406 757 872 1500 2710
2025-12-31 13:30 2.93 153 5520 (1985) 55 (1954) 683 71 115 164 204 406 757 872 1500 2710
2025-12-31 12:30 2.93 153 5520 (1985) 55 (1954) 683 71 115 164 204 406 757 872 1500 2710
2025-12-31 11:30 2.93 153 5520 (1985) 55 (1954) 683 71 115 164 204 406 757 872 1500 2710
2025-12-31 10:30 2.92 151 5520 (1985) 55 (1954) 683 71 115 164 204 406 757 872 1500 2710
2025-12-31 09:30 2.92 151 5520 (1985) 55 (1954) 683 71 115 164 204 406 757 872 1500 2710
2025-12-31 08:30 2.93 153 5520 (1985) 55 (1954) 683 71 115 164 204 406 757 872 1500 2710
2025-12-31 07:30 2.92 151 5520 (1985) 55 (1954) 683 71 115 164 204 406 757 872 1500 2710
2025-12-31 06:30 2.92 151 5520 (1985) 55 (1954) 683 71 115 164 204 406 757 872 1500 2710
2025-12-31 05:30 2.93 153 5520 (1985) 55 (1954) 683 71 115 164 204 406 757 872 1500 2710
2025-12-31 04:30 2.93 153 5520 (1985) 55 (1954) 683 71 115 164 204 406 757 872 1500 2710
2025-12-31 03:30 2.93 153 5520 (1985) 55 (1954) 683 71 115 164 204 406 757 872 1500 2710
2025-12-31 02:30 2.93 153 5520 (1985) 55 (1954) 683 71 115 164 204 406 757 872 1500 2710
2025-12-31 01:30 2.93 153 5520 (1985) 55 (1954) 683 71 115 164 204 406 757 872 1500 2710
2025-12-31 00:30 2.93 153 5520 (1985) 55 (1954) 683 71 115 164 204 406 757 872 1500 2710
2025-12-30 23:30 2.93 153 5520 (1985) 55 (1954) 683 71 115 164 204 406 757 872 1500 2710
2025-12-30 22:30 2.93 153 6670 (2016) 55 (1954) 714 79 110 161 199 399 768 937 1790 3060
2025-12-30 21:30 2.93 153 6670 (2016) 55 (1954) 714 79 110 161 199 399 768 937 1790 3060
2025-12-30 20:30 2.93 153 6670 (2016) 55 (1954) 714 79 110 161 199 399 768 937 1790 3060
2025-12-30 19:30 2.93 153 6670 (2016) 55 (1954) 714 79 110 161 199 399 768 937 1790 3060
2025-12-30 18:30 2.93 153 6670 (2016) 55 (1954) 714 79 110 161 199 399 768 937 1790 3060
2025-12-30 17:30 2.94 156 6670 (2016) 55 (1954) 714 79 110 161 199 399 768 937 1790 3060
2025-12-30 16:30 2.94 156 6670 (2016) 55 (1954) 714 79 110 161 199 399 768 937 1790 3060
2025-12-30 15:30 2.94 156 6670 (2016) 55 (1954) 714 79 110 161 199 399 768 937 1790 3060
2025-12-30 14:30 2.94 156 6670 (2016) 55 (1954) 714 79 110 161 199 399 768 937 1790 3060
2025-12-30 13:30 2.94 156 6670 (2016) 55 (1954) 714 79 110 161 199 399 768 937 1790 3060
2025-12-30 12:30 2.93 153 6670 (2016) 55 (1954) 714 79 110 161 199 399 768 937 1790 3060
2025-12-30 11:30 2.93 153 6670 (2016) 55 (1954) 714 79 110 161 199 399 768 937 1790 3060
2025-12-30 10:30 2.93 153 6670 (2016) 55 (1954) 714 79 110 161 199 399 768 937 1790 3060
2025-12-30 09:30 2.93 153 6670 (2016) 55 (1954) 714 79 110 161 199 399 768 937 1790 3060
2025-12-30 08:30 2.93 153 6670 (2016) 55 (1954) 714 79 110 161 199 399 768 937 1790 3060
2025-12-30 07:30 2.93 153 6670 (2016) 55 (1954) 714 79 110 161 199 399 768 937 1790 3060
2025-12-30 06:30 2.93 153 6670 (2016) 55 (1954) 714 79 110 161 199 399 768 937 1790 3060
2025-12-30 05:30 2.93 153 6670 (2016) 55 (1954) 714 79 110 161 199 399 768 937 1790 3060
2025-12-30 04:30 2.93 153 6670 (2016) 55 (1954) 714 79 110 161 199 399 768 937 1790 3060
2025-12-30 03:30 2.93 153 6670 (2016) 55 (1954) 714 79 110 161 199 399 768 937 1790 3060
2025-12-30 02:30 2.94 156 6670 (2016) 55 (1954) 714 79 110 161 199 399 768 937 1790 3060
2025-12-30 01:30 2.94 156 6670 (2016) 55 (1954) 714 79 110 161 199 399 768 937 1790 3060
2025-12-30 00:30 2.94 156 6670 (2016) 55 (1954) 714 79 110 161 199 399 768 937 1790 3060
2025-12-29 23:30 2.94 156 6670 (2016) 55 (1954) 714 79 110 161 199 399 768 937 1790 3060
2025-12-29 22:30 2.94 156 15000 (2016) 55 (1954) 874 77 110 157 188 407 796 991 1540 3840
2025-12-29 21:30 2.94 156 15000 (2016) 55 (1954) 874 77 110 157 188 407 796 991 1540 3840
2025-12-29 20:30 2.94 156 15000 (2016) 55 (1954) 874 77 110 157 188 407 796 991 1540 3840
2025-12-29 19:30 2.94 156 15000 (2016) 55 (1954) 874 77 110 157 188 407 796 991 1540 3840
2025-12-29 18:30 2.95 158 15000 (2016) 55 (1954) 874 77 110 157 188 407 796 991 1540 3840
2025-12-29 17:30 2.94 156 15000 (2016) 55 (1954) 874 77 110 157 188 407 796 991 1540 3840
2025-12-29 16:30 2.94 156 15000 (2016) 55 (1954) 874 77 110 157 188 407 796 991 1540 3840
2025-12-29 15:30 2.95 158 15000 (2016) 55 (1954) 874 77 110 157 188 407 796 991 1540 3840
2025-12-29 14:30 2.94 156 15000 (2016) 55 (1954) 874 77 110 157 188 407 796 991 1540 3840
2025-12-29 13:30 2.95 158 15000 (2016) 55 (1954) 874 77 110 157 188 407 796 991 1540 3840
2025-12-29 12:30 2.95 158 15000 (2016) 55 (1954) 874 77 110 157 188 407 796 991 1540 3840
2025-12-29 11:30 2.95 158 15000 (2016) 55 (1954) 874 77 110 157 188 407 796 991 1540 3840
2025-12-29 10:30 2.94 156 15000 (2016) 55 (1954) 874 77 110 157 188 407 796 991 1540 3840
2025-12-29 09:30 2.95 158 15000 (2016) 55 (1954) 874 77 110 157 188 407 796 991 1540 3840
2025-12-29 08:30 2.94 156 15000 (2016) 55 (1954) 874 77 110 157 188 407 796 991 1540 3840
2025-12-29 07:30 2.94 156 15000 (2016) 55 (1954) 874 77 110 157 188 407 796 991 1540 3840
2025-12-29 06:30 2.94 156 15000 (2016) 55 (1954) 874 77 110 157 188 407 796 991 1540 3840
2025-12-29 05:30 2.94 156 15000 (2016) 55 (1954) 874 77 110 157 188 407 796 991 1540 3840
2025-12-29 04:30 2.95 158 15000 (2016) 55 (1954) 874 77 110 157 188 407 796 991 1540 3840
2025-12-29 03:30 2.95 158 15000 (2016) 55 (1954) 874 77 110 157 188 407 796 991 1540 3840
2025-12-29 02:30 2.95 158 15000 (2016) 55 (1954) 874 77 110 157 188 407 796 991 1540 3840
2025-12-29 01:30 2.95 158 15000 (2016) 55 (1954) 874 77 110 157 188 407 796 991 1540 3840
2025-12-29 00:30 2.95 158 15000 (2016) 55 (1954) 874 77 110 157 188 407 796 991 1540 3840
2025-12-28 23:30 2.95 158 15000 (2016) 55 (1954) 874 77 110 157 188 407 796 991 1540 3840
2025-12-28 22:30 2.96 161 71500 (2016) 55 (1954) 1650 79 110 156 187 430 753 870 1460 6540
2025-12-28 21:30 2.96 161 71500 (2016) 55 (1954) 1650 79 110 156 187 430 753 870 1460 6540
2025-12-28 20:30 2.95 158 71500 (2016) 55 (1954) 1650 79 110 156 187 430 753 870 1460 6540
2025-12-28 19:30 2.95 158 71500 (2016) 55 (1954) 1650 79 110 156 187 430 753 870 1460 6540
2025-12-28 18:30 2.95 158 71500 (2016) 55 (1954) 1650 79 110 156 187 430 753 870 1460 6540
2025-12-28 17:30 2.95 158 71500 (2016) 55 (1954) 1650 79 110 156 187 430 753 870 1460 6540
2025-12-28 16:30 2.96 161 71500 (2016) 55 (1954) 1650 79 110 156 187 430 753 870 1460 6540
2025-12-28 15:30 2.95 158 71500 (2016) 55 (1954) 1650 79 110 156 187 430 753 870 1460 6540
2025-12-28 14:30 2.95 158 71500 (2016) 55 (1954) 1650 79 110 156 187 430 753 870 1460 6540
2025-12-28 13:30 2.96 161 71500 (2016) 55 (1954) 1650 79 110 156 187 430 753 870 1460 6540
2025-12-28 12:30 2.97 163 71500 (2016) 55 (1954) 1650 79 110 156 187 430 753 870 1460 6540
2025-12-28 11:30 2.98 166 71500 (2016) 55 (1954) 1650 79 110 156 187 430 753 870 1460 6540
2025-12-28 10:30 2.98 166 71500 (2016) 55 (1954) 1650 79 110 156 187 430 753 870 1460 6540
2025-12-28 09:30 2.97 163 71500 (2016) 55 (1954) 1650 79 110 156 187 430 753 870 1460 6540
2025-12-28 08:30 2.98 166 71500 (2016) 55 (1954) 1650 79 110 156 187 430 753 870 1460 6540
2025-12-28 07:30 2.97 163 71500 (2016) 55 (1954) 1650 79 110 156 187 430 753 870 1460 6540
2025-12-28 06:30 2.97 163 71500 (2016) 55 (1954) 1650 79 110 156 187 430 753 870 1460 6540
2025-12-28 05:30 2.98 166 71500 (2016) 55 (1954) 1650 79 110 156 187 430 753 870 1460 6540
2025-12-28 04:30 2.98 166 71500 (2016) 55 (1954) 1650 79 110 156 187 430 753 870 1460 6540
2025-12-28 03:30 2.98 166 71500 (2016) 55 (1954) 1650 79 110 156 187 430 753 870 1460 6540
2025-12-28 02:30 2.98 166 71500 (2016) 55 (1954) 1650 79 110 156 187 430 753 870 1460 6540
2025-12-28 01:30 2.98 166 71500 (2016) 55 (1954) 1650 79 110 156 187 430 753 870 1460 6540
2025-12-28 00:30 2.97 163 71500 (2016) 55 (1954) 1650 79 110 156 187 430 753 870 1460 6540
2025-12-27 23:30 2.97 163 71500 (2016) 55 (1954) 1650 79 110 156 187 430 753 870 1460 6540
2025-12-27 22:30 2.97 163 70200 (2016) 55 (1954) 1540 79 94 148 170 403 702 896 1410 2440
2025-12-27 21:30 2.97 163 70200 (2016) 55 (1954) 1540 79 94 148 170 403 702 896 1410 2440
2025-12-27 20:30 2.97 163 70200 (2016) 55 (1954) 1540 79 94 148 170 403 702 896 1410 2440
2025-12-27 19:30 2.97 163 70200 (2016) 55 (1954) 1540 79 94 148 170 403 702 896 1410 2440
2025-12-27 18:30 2.97 163 70200 (2016) 55 (1954) 1540 79 94 148 170 403 702 896 1410 2440
2025-12-27 17:30 2.97 163 70200 (2016) 55 (1954) 1540 79 94 148 170 403 702 896 1410 2440
2025-12-27 16:30 2.97 163 70200 (2016) 55 (1954) 1540 79 94 148 170 403 702 896 1410 2440
2025-12-27 15:30 2.98 166 70200 (2016) 55 (1954) 1540 79 94 148 170 403 702 896 1410 2440
2025-12-27 14:30 2.97 163 70200 (2016) 55 (1954) 1540 79 94 148 170 403 702 896 1410 2440
2025-12-27 13:30 2.97 163 70200 (2016) 55 (1954) 1540 79 94 148 170 403 702 896 1410 2440
2025-12-27 12:30 2.97 163 70200 (2016) 55 (1954) 1540 79 94 148 170 403 702 896 1410 2440
2025-12-27 11:30 2.98 166 70200 (2016) 55 (1954) 1540 79 94 148 170 403 702 896 1410 2440
2025-12-27 10:30 2.98 166 70200 (2016) 55 (1954) 1540 79 94 148 170 403 702 896 1410 2440
2025-12-27 09:30 2.97 163 70200 (2016) 55 (1954) 1540 79 94 148 170 403 702 896 1410 2440
2025-12-27 08:30 2.97 163 70200 (2016) 55 (1954) 1540 79 94 148 170 403 702 896 1410 2440
2025-12-27 07:30 2.97 163 70200 (2016) 55 (1954) 1540 79 94 148 170 403 702 896 1410 2440
2025-12-27 06:30 2.97 163 70200 (2016) 55 (1954) 1540 79 94 148 170 403 702 896 1410 2440
2025-12-27 05:30 2.97 163 70200 (2016) 55 (1954) 1540 79 94 148 170 403 702 896 1410 2440
2025-12-27 04:30 2.97 163 70200 (2016) 55 (1954) 1540 79 94 148 170 403 702 896 1410 2440
2025-12-27 03:30 2.97 163 70200 (2016) 55 (1954) 1540 79 94 148 170 403 702 896 1410 2440
2025-12-27 02:30 2.97 163 70200 (2016) 55 (1954) 1540 79 94 148 170 403 702 896 1410 2440
2025-12-27 01:30 2.97 163 70200 (2016) 55 (1954) 1540 79 94 148 170 403 702 896 1410 2440
2025-12-27 00:30 2.97 163 70200 (2016) 55 (1954) 1540 79 94 148 170 403 702 896 1410 2440
2025-12-26 23:30 2.97 163 70200 (2016) 55 (1954) 1540 79 94 148 170 403 702 896 1410 2440
2025-12-26 22:30 2.97 163 16400 (1988) 55 (1955) 761 68 93 144 170 400 706 880 1420 2550
2025-12-26 21:30 2.97 163 16400 (1988) 55 (1955) 761 68 93 144 170 400 706 880 1420 2550
2025-12-26 20:30 2.98 166 16400 (1988) 55 (1955) 761 68 93 144 170 400 706 880 1420 2550
2025-12-26 19:30 2.98 166 16400 (1988) 55 (1955) 761 68 93 144 170 400 706 880 1420 2550
2025-12-26 18:30 2.98 166 16400 (1988) 55 (1955) 761 68 93 144 170 400 706 880 1420 2550
2025-12-26 17:30 2.98 166 16400 (1988) 55 (1955) 761 68 93 144 170 400 706 880 1420 2550
2025-12-26 16:30 2.98 166 16400 (1988) 55 (1955) 761 68 93 144 170 400 706 880 1420 2550
2025-12-26 15:30 2.98 166 16400 (1988) 55 (1955) 761 68 93 144 170 400 706 880 1420 2550
2025-12-26 14:30 2.98 166 16400 (1988) 55 (1955) 761 68 93 144 170 400 706 880 1420 2550
2025-12-26 13:30 2.98 166 16400 (1988) 55 (1955) 761 68 93 144 170 400 706 880 1420 2550
2025-12-26 12:30 2.97 163 16400 (1988) 55 (1955) 761 68 93 144 170 400 706 880 1420 2550
2025-12-26 11:30 2.98 166 16400 (1988) 55 (1955) 761 68 93 144 170 400 706 880 1420 2550
2025-12-26 10:30 2.98 166 16400 (1988) 55 (1955) 761 68 93 144 170 400 706 880 1420 2550
2025-12-26 09:30 2.98 166 16400 (1988) 55 (1955) 761 68 93 144 170 400 706 880 1420 2550
2025-12-26 08:30 2.98 166 16400 (1988) 55 (1955) 761 68 93 144 170 400 706 880 1420 2550
2025-12-26 07:30 2.98 166 16400 (1988) 55 (1955) 761 68 93 144 170 400 706 880 1420 2550
2025-12-26 06:30 2.98 166 16400 (1988) 55 (1955) 761 68 93 144 170 400 706 880 1420 2550
2025-12-26 05:30 2.98 166 16400 (1988) 55 (1955) 761 68 93 144 170 400 706 880 1420 2550
2025-12-26 04:30 2.98 166 16400 (1988) 55 (1955) 761 68 93 144 170 400 706 880 1420 2550
2025-12-26 03:30 2.98 166 16400 (1988) 55 (1955) 761 68 93 144 170 400 706 880 1420 2550
2025-12-26 02:30 2.98 166 16400 (1988) 55 (1955) 761 68 93 144 170 400 706 880 1420 2550
2025-12-26 01:30 2.98 166 16400 (1988) 55 (1955) 761 68 93 144 170 400 706 880 1420 2550
2025-12-26 00:30 2.98 166 16400 (1988) 55 (1955) 761 68 93 144 170 400 706 880 1420 2550
2025-12-25 23:30 2.98 166 16400 (1988) 55 (1955) 761 68 93 144 170 400 706 880 1420 2550
2025-12-25 22:30 2.98 166 4490 (1988) 57 (1954) 621 67 93 145 175 399 705 809 1440 2530
2025-12-25 21:30 2.98 166 4490 (1988) 57 (1954) 621 67 93 145 175 399 705 809 1440 2530
2025-12-25 20:30 2.98 166 4490 (1988) 57 (1954) 621 67 93 145 175 399 705 809 1440 2530
2025-12-25 19:30 2.99 169 4490 (1988) 57 (1954) 621 67 93 145 175 399 705 809 1440 2530
2025-12-25 18:30 2.98 166 4490 (1988) 57 (1954) 621 67 93 145 175 399 705 809 1440 2530
2025-12-25 17:30 2.98 166 4490 (1988) 57 (1954) 621 67 93 145 175 399 705 809 1440 2530
2025-12-25 16:30 2.98 166 4490 (1988) 57 (1954) 621 67 93 145 175 399 705 809 1440 2530
2025-12-25 15:30 2.99 169 4490 (1988) 57 (1954) 621 67 93 145 175 399 705 809 1440 2530
2025-12-25 14:30 2.98 166 4490 (1988) 57 (1954) 621 67 93 145 175 399 705 809 1440 2530
2025-12-25 13:30 2.98 166 4490 (1988) 57 (1954) 621 67 93 145 175 399 705 809 1440 2530
2025-12-25 12:30 2.98 166 4490 (1988) 57 (1954) 621 67 93 145 175 399 705 809 1440 2530
2025-12-25 11:30 2.98 166 4490 (1988) 57 (1954) 621 67 93 145 175 399 705 809 1440 2530
2025-12-25 10:30 2.98 166 4490 (1988) 57 (1954) 621 67 93 145 175 399 705 809 1440 2530
2025-12-25 09:30 2.98 166 4490 (1988) 57 (1954) 621 67 93 145 175 399 705 809 1440 2530
2025-12-25 08:30 2.98 166 4490 (1988) 57 (1954) 621 67 93 145 175 399 705 809 1440 2530
2025-12-25 07:30 2.98 166 4490 (1988) 57 (1954) 621 67 93 145 175 399 705 809 1440 2530
2025-12-25 06:30 2.98 166 4490 (1988) 57 (1954) 621 67 93 145 175 399 705 809 1440 2530
2025-12-25 05:30 2.98 166 4490 (1988) 57 (1954) 621 67 93 145 175 399 705 809 1440 2530
2025-12-25 04:30 2.98 166 4490 (1988) 57 (1954) 621 67 93 145 175 399 705 809 1440 2530
2025-12-25 03:30 2.98 166 4490 (1988) 57 (1954) 621 67 93 145 175 399 705 809 1440 2530
2025-12-25 02:30 2.98 166 4490 (1988) 57 (1954) 621 67 93 145 175 399 705 809 1440 2530
2025-12-25 01:30 2.98 166 4490 (1988) 57 (1954) 621 67 93 145 175 399 705 809 1440 2530
2025-12-25 00:30 2.98 166 4490 (1988) 57 (1954) 621 67 93 145 175 399 705 809 1440 2530
2025-12-24 23:30 2.98 166 4490 (1988) 57 (1954) 621 67 93 145 175 399 705 809 1440 2530
2025-12-24 22:30 2.98 166 3770 (1985) 55 (1955) 569 63 88 146 172 390 633 803 1320 2150
2025-12-24 21:30 2.98 166 3770 (1985) 55 (1955) 569 63 88 146 172 390 633 803 1320 2150
2025-12-24 20:30 2.98 166 3770 (1985) 55 (1955) 569 63 88 146 172 390 633 803 1320 2150
2025-12-24 19:30 2.98 166 3770 (1985) 55 (1955) 569 63 88 146 172 390 633 803 1320 2150
2025-12-24 18:30 2.98 166 3770 (1985) 55 (1955) 569 63 88 146 172 390 633 803 1320 2150
2025-12-24 17:30 2.98 166 3770 (1985) 55 (1955) 569 63 88 146 172 390 633 803 1320 2150
2025-12-24 16:30 2.98 166 3770 (1985) 55 (1955) 569 63 88 146 172 390 633 803 1320 2150
2025-12-24 15:30 2.98 166 3770 (1985) 55 (1955) 569 63 88 146 172 390 633 803 1320 2150
2025-12-24 14:30 2.99 169 3770 (1985) 55 (1955) 569 63 88 146 172 390 633 803 1320 2150
2025-12-24 13:30 2.99 169 3770 (1985) 55 (1955) 569 63 88 146 172 390 633 803 1320 2150
2025-12-24 12:30 2.98 166 3770 (1985) 55 (1955) 569 63 88 146 172 390 633 803 1320 2150
2025-12-24 11:30 2.99 169 3770 (1985) 55 (1955) 569 63 88 146 172 390 633 803 1320 2150
2025-12-24 10:30 2.99 169 3770 (1985) 55 (1955) 569 63 88 146 172 390 633 803 1320 2150
2025-12-24 09:30 2.99 169 3770 (1985) 55 (1955) 569 63 88 146 172 390 633 803 1320 2150
2025-12-24 08:30 2.98 166 3770 (1985) 55 (1955) 569 63 88 146 172 390 633 803 1320 2150
2025-12-24 07:30 2.98 166 3770 (1985) 55 (1955) 569 63 88 146 172 390 633 803 1320 2150
2025-12-24 06:30 2.98 166 3770 (1985) 55 (1955) 569 63 88 146 172 390 633 803 1320 2150
2025-12-24 05:30 2.98 166 3770 (1985) 55 (1955) 569 63 88 146 172 390 633 803 1320 2150
2025-12-24 04:30 2.98 166 3770 (1985) 55 (1955) 569 63 88 146 172 390 633 803 1320 2150
2025-12-24 03:30 2.98 166 3770 (1985) 55 (1955) 569 63 88 146 172 390 633 803 1320 2150
2025-12-24 02:30 2.98 166 3770 (1985) 55 (1955) 569 63 88 146 172 390 633 803 1320 2150
2025-12-24 01:30 2.99 169 3770 (1985) 55 (1955) 569 63 88 146 172 390 633 803 1320 2150
2025-12-24 00:30 2.98 166 3770 (1985) 55 (1955) 569 63 88 146 172 390 633 803 1320 2150
2025-12-23 23:30 2.98 166 3770 (1985) 55 (1955) 569 63 88 146 172 390 633 803 1320 2150
2025-12-23 22:30 2.98 166 5590 (1985) 50 (1964) 624 68 94 141 164 392 712 825 1270 2510
2025-12-23 21:30 2.98 166 5590 (1985) 50 (1964) 624 68 94 141 164 392 712 825 1270 2510
2025-12-23 20:30 2.98 166 5590 (1985) 50 (1964) 624 68 94 141 164 392 712 825 1270 2510
2025-12-23 19:30 2.98 166 5590 (1985) 50 (1964) 624 68 94 141 164 392 712 825 1270 2510
2025-12-23 18:30 2.98 166 5590 (1985) 50 (1964) 624 68 94 141 164 392 712 825 1270 2510
2025-12-23 17:30 2.98 166 5590 (1985) 50 (1964) 624 68 94 141 164 392 712 825 1270 2510
2025-12-23 16:30 2.98 166 5590 (1985) 50 (1964) 624 68 94 141 164 392 712 825 1270 2510
2025-12-23 15:30 2.99 169 5590 (1985) 50 (1964) 624 68 94 141 164 392 712 825 1270 2510
2025-12-23 14:30 2.98 166 5590 (1985) 50 (1964) 624 68 94 141 164 392 712 825 1270 2510
2025-12-23 13:30 2.99 169 5590 (1985) 50 (1964) 624 68 94 141 164 392 712 825 1270 2510
2025-12-23 12:30 2.98 166 5590 (1985) 50 (1964) 624 68 94 141 164 392 712 825 1270 2510
2025-12-23 11:30 2.99 169 5590 (1985) 50 (1964) 624 68 94 141 164 392 712 825 1270 2510
2025-12-23 10:30 2.98 166 5590 (1985) 50 (1964) 624 68 94 141 164 392 712 825 1270 2510
2025-12-23 09:30 2.98 166 5590 (1985) 50 (1964) 624 68 94 141 164 392 712 825 1270 2510
2025-12-23 08:30 2.98 166 5590 (1985) 50 (1964) 624 68 94 141 164 392 712 825 1270 2510
2025-12-23 07:30 2.98 166 5590 (1985) 50 (1964) 624 68 94 141 164 392 712 825 1270 2510
2025-12-23 06:30 2.98 166 5590 (1985) 50 (1964) 624 68 94 141 164 392 712 825 1270 2510
2025-12-23 05:30 2.98 166 5590 (1985) 50 (1964) 624 68 94 141 164 392 712 825 1270 2510
2025-12-23 04:30 2.98 166 5590 (1985) 50 (1964) 624 68 94 141 164 392 712 825 1270 2510
2025-12-23 03:30 2.98 166 5590 (1985) 50 (1964) 624 68 94 141 164 392 712 825 1270 2510
2025-12-23 02:30 2.98 166 5590 (1985) 50 (1964) 624 68 94 141 164 392 712 825 1270 2510
2025-12-23 01:30 2.98 166 5590 (1985) 50 (1964) 624 68 94 141 164 392 712 825 1270 2510
2025-12-23 00:30 2.98 166 5590 (1985) 50 (1964) 624 68 94 141 164 392 712 825 1270 2510
2025-12-22 23:30 2.98 166 5590 (1985) 50 (1964) 624 68 94 141 164 392 712 825 1270 2510
2025-12-22 22:30 2.98 166 15000 (1985) 50 (1964) 821 66 91 142 165 371 758 898 1380 3430
2025-12-22 21:30 2.98 166 15000 (1985) 50 (1964) 821 66 91 142 165 371 758 898 1380 3430
2025-12-22 20:30 2.98 166 15000 (1985) 50 (1964) 821 66 91 142 165 371 758 898 1380 3430
2025-12-22 19:30 2.98 166 15000 (1985) 50 (1964) 821 66 91 142 165 371 758 898 1380 3430
2025-12-22 18:30 2.98 166 15000 (1985) 50 (1964) 821 66 91 142 165 371 758 898 1380 3430
2025-12-22 17:30 2.98 166 15000 (1985) 50 (1964) 821 66 91 142 165 371 758 898 1380 3430
2025-12-22 16:30 2.99 169 15000 (1985) 50 (1964) 821 66 91 142 165 371 758 898 1380 3430
2025-12-22 15:30 2.99 169 15000 (1985) 50 (1964) 821 66 91 142 165 371 758 898 1380 3430
2025-12-22 14:30 2.99 169 15000 (1985) 50 (1964) 821 66 91 142 165 371 758 898 1380 3430
2025-12-22 13:30 2.99 169 15000 (1985) 50 (1964) 821 66 91 142 165 371 758 898 1380 3430
2025-12-22 12:30 3.00 171 15000 (1985) 50 (1964) 821 66 91 142 165 371 758 898 1380 3430
2025-12-22 11:30 3.00 171 15000 (1985) 50 (1964) 821 66 91 142 165 371 758 898 1380 3430
2025-12-22 10:30 2.99 169 15000 (1985) 50 (1964) 821 66 91 142 165 371 758 898 1380 3430
2025-12-22 09:30 2.99 169 15000 (1985) 50 (1964) 821 66 91 142 165 371 758 898 1380 3430
2025-12-22 08:30 2.99 169 15000 (1985) 50 (1964) 821 66 91 142 165 371 758 898 1380 3430
2025-12-22 07:30 2.99 169 15000 (1985) 50 (1964) 821 66 91 142 165 371 758 898 1380 3430
2025-12-22 06:30 2.99 169 15000 (1985) 50 (1964) 821 66 91 142 165 371 758 898 1380 3430
2025-12-22 05:30 2.99 169 15000 (1985) 50 (1964) 821 66 91 142 165 371 758 898 1380 3430
2025-12-22 04:30 2.99 169 15000 (1985) 50 (1964) 821 66 91 142 165 371 758 898 1380 3430
2025-12-22 03:30 2.99 169 15000 (1985) 50 (1964) 821 66 91 142 165 371 758 898 1380 3430
2025-12-22 02:30 2.99 169 15000 (1985) 50 (1964) 821 66 91 142 165 371 758 898 1380 3430
2025-12-22 01:30 2.99 169 15000 (1985) 50 (1964) 821 66 91 142 165 371 758 898 1380 3430
2025-12-22 00:30 3.00 171 15000 (1985) 50 (1964) 821 66 91 142 165 371 758 898 1380 3430
2025-12-21 23:30 2.99 169 15000 (1985) 50 (1964) 821 66 91 142 165 371 758 898 1380 3430
2025-12-21 22:30 2.99 169 15800 (1985) 55 (1964) 871 65 91 143 166 374 842 1030 1600 2520
2025-12-21 21:30 3.00 171 15800 (1985) 55 (1964) 871 65 91 143 166 374 842 1030 1600 2520
2025-12-21 20:30 3.00 171 15800 (1985) 55 (1964) 871 65 91 143 166 374 842 1030 1600 2520
2025-12-21 19:30 3.00 171 15800 (1985) 55 (1964) 871 65 91 143 166 374 842 1030 1600 2520
2025-12-21 18:30 3.00 171 15800 (1985) 55 (1964) 871 65 91 143 166 374 842 1030 1600 2520
2025-12-21 17:30 3.00 171 15800 (1985) 55 (1964) 871 65 91 143 166 374 842 1030 1600 2520
2025-12-21 16:30 3.00 171 15800 (1985) 55 (1964) 871 65 91 143 166 374 842 1030 1600 2520
2025-12-21 15:30 3.00 171 15800 (1985) 55 (1964) 871 65 91 143 166 374 842 1030 1600 2520
2025-12-21 14:30 3.00 171 15800 (1985) 55 (1964) 871 65 91 143 166 374 842 1030 1600 2520
2025-12-21 13:30 3.00 171 15800 (1985) 55 (1964) 871 65 91 143 166 374 842 1030 1600 2520
2025-12-21 12:30 3.00 171 15800 (1985) 55 (1964) 871 65 91 143 166 374 842 1030 1600 2520
2025-12-21 11:30 3.00 171 15800 (1985) 55 (1964) 871 65 91 143 166 374 842 1030 1600 2520
2025-12-21 10:30 3.00 171 15800 (1985) 55 (1964) 871 65 91 143 166 374 842 1030 1600 2520
2025-12-21 09:30 3.00 171 15800 (1985) 55 (1964) 871 65 91 143 166 374 842 1030 1600 2520
2025-12-21 08:30 3.00 171 15800 (1985) 55 (1964) 871 65 91 143 166 374 842 1030 1600 2520
2025-12-21 07:30 3.00 171 15800 (1985) 55 (1964) 871 65 91 143 166 374 842 1030 1600 2520
2025-12-21 06:30 3.00 171 15800 (1985) 55 (1964) 871 65 91 143 166 374 842 1030 1600 2520
2025-12-21 05:30 3.00 171 15800 (1985) 55 (1964) 871 65 91 143 166 374 842 1030 1600 2520
2025-12-21 04:30 3.00 171 15800 (1985) 55 (1964) 871 65 91 143 166 374 842 1030 1600 2520
2025-12-21 03:30 3.00 171 15800 (1985) 55 (1964) 871 65 91 143 166 374 842 1030 1600 2520
2025-12-21 02:30 3.00 171 15800 (1985) 55 (1964) 871 65 91 143 166 374 842 1030 1600 2520
2025-12-21 01:30 3.01 174 15800 (1985) 55 (1964) 871 65 91 143 166 374 842 1030 1600 2520
2025-12-21 00:30 3.01 174 15800 (1985) 55 (1964) 871 65 91 143 166 374 842 1030 1600 2520
2025-12-20 23:30 3.01 174 15800 (1985) 55 (1964) 871 65 91 143 166 374 842 1030 1600 2520
2025-12-20 22:30 3.01 174 20900 (1988) 55 (1964) 814 67 91 146 166 401 826 1070 1430 2000
2025-12-20 21:30 3.01 174 20900 (1988) 55 (1964) 814 67 91 146 166 401 826 1070 1430 2000
2025-12-20 20:30 3.01 174 20900 (1988) 55 (1964) 814 67 91 146 166 401 826 1070 1430 2000
2025-12-20 19:30 3.01 174 20900 (1988) 55 (1964) 814 67 91 146 166 401 826 1070 1430 2000
2025-12-20 18:30 3.01 174 20900 (1988) 55 (1964) 814 67 91 146 166 401 826 1070 1430 2000
2025-12-20 17:30 3.01 174 20900 (1988) 55 (1964) 814 67 91 146 166 401 826 1070 1430 2000
2025-12-20 16:30 3.01 174 20900 (1988) 55 (1964) 814 67 91 146 166 401 826 1070 1430 2000
2025-12-20 15:30 3.01 174 20900 (1988) 55 (1964) 814 67 91 146 166 401 826 1070 1430 2000
2025-12-20 14:30 3.01 174 20900 (1988) 55 (1964) 814 67 91 146 166 401 826 1070 1430 2000
2025-12-20 13:30 3.01 174 20900 (1988) 55 (1964) 814 67 91 146 166 401 826 1070 1430 2000
2025-12-20 12:30 3.01 174 20900 (1988) 55 (1964) 814 67 91 146 166 401 826 1070 1430 2000
2025-12-20 11:30 3.01 174 20900 (1988) 55 (1964) 814 67 91 146 166 401 826 1070 1430 2000
2025-12-20 10:30 3.01 174 20900 (1988) 55 (1964) 814 67 91 146 166 401 826 1070 1430 2000
2025-12-20 09:30 3.01 174 20900 (1988) 55 (1964) 814 67 91 146 166 401 826 1070 1430 2000
2025-12-20 08:30 3.01 174 20900 (1988) 55 (1964) 814 67 91 146 166 401 826 1070 1430 2000
2025-12-20 07:30 3.01 174 20900 (1988) 55 (1964) 814 67 91 146 166 401 826 1070 1430 2000
2025-12-20 06:30 3.01 174 20900 (1988) 55 (1964) 814 67 91 146 166 401 826 1070 1430 2000
2025-12-20 05:30 3.01 174 20900 (1988) 55 (1964) 814 67 91 146 166 401 826 1070 1430 2000
2025-12-20 04:30 3.01 174 20900 (1988) 55 (1964) 814 67 91 146 166 401 826 1070 1430 2000
2025-12-20 03:30 3.01 174 20900 (1988) 55 (1964) 814 67 91 146 166 401 826 1070 1430 2000
2025-12-20 02:30 3.01 174 20900 (1988) 55 (1964) 814 67 91 146 166 401 826 1070 1430 2000
2025-12-20 01:30 3.02 177 20900 (1988) 55 (1964) 814 67 91 146 166 401 826 1070 1430 2000
2025-12-20 00:30 3.01 174 20900 (1988) 55 (1964) 814 67 91 146 166 401 826 1070 1430 2000
2025-12-19 23:30 3.01 174 20900 (1988) 55 (1964) 814 67 91 146 166 401 826 1070 1430 2000
2025-12-19 22:30 3.01 174 5270 (2022) 58 (1964) 686 68 93 144 167 383 704 985 1390 2990
2025-12-19 21:30 3.01 174 5270 (2022) 58 (1964) 686 68 93 144 167 383 704 985 1390 2990
2025-12-19 20:30 3.01 174 5270 (2022) 58 (1964) 686 68 93 144 167 383 704 985 1390 2990
2025-12-19 19:30 3.02 177 5270 (2022) 58 (1964) 686 68 93 144 167 383 704 985 1390 2990
2025-12-19 18:30 3.02 177 5270 (2022) 58 (1964) 686 68 93 144 167 383 704 985 1390 2990
2025-12-19 17:30 3.02 177 5270 (2022) 58 (1964) 686 68 93 144 167 383 704 985 1390 2990
2025-12-19 16:30 3.02 177 5270 (2022) 58 (1964) 686 68 93 144 167 383 704 985 1390 2990
2025-12-19 15:30 3.02 177 5270 (2022) 58 (1964) 686 68 93 144 167 383 704 985 1390 2990
2025-12-19 14:30 3.02 177 5270 (2022) 58 (1964) 686 68 93 144 167 383 704 985 1390 2990
2025-12-19 13:30 3.02 177 5270 (2022) 58 (1964) 686 68 93 144 167 383 704 985 1390 2990
2025-12-19 12:30 3.02 177 5270 (2022) 58 (1964) 686 68 93 144 167 383 704 985 1390 2990
2025-12-19 11:30 3.02 177 5270 (2022) 58 (1964) 686 68 93 144 167 383 704 985 1390 2990
2025-12-19 10:30 3.02 177 5270 (2022) 58 (1964) 686 68 93 144 167 383 704 985 1390 2990
2025-12-19 09:30 3.02 177 5270 (2022) 58 (1964) 686 68 93 144 167 383 704 985 1390 2990
2025-12-19 08:30 3.01 174 5270 (2022) 58 (1964) 686 68 93 144 167 383 704 985 1390 2990
2025-12-19 07:30 3.02 177 5270 (2022) 58 (1964) 686 68 93 144 167 383 704 985 1390 2990
2025-12-19 06:30 3.02 177 5270 (2022) 58 (1964) 686 68 93 144 167 383 704 985 1390 2990
2025-12-19 05:30 3.02 177 5270 (2022) 58 (1964) 686 68 93 144 167 383 704 985 1390 2990
2025-12-19 04:30 3.02 177 5270 (2022) 58 (1964) 686 68 93 144 167 383 704 985 1390 2990
2025-12-19 03:30 3.02 177 5270 (2022) 58 (1964) 686 68 93 144 167 383 704 985 1390 2990
2025-12-19 02:30 3.02 177 5270 (2022) 58 (1964) 686 68 93 144 167 383 704 985 1390 2990
2025-12-19 01:30 3.02 177 5270 (2022) 58 (1964) 686 68 93 144 167 383 704 985 1390 2990
2025-12-19 00:30 3.02 177 5270 (2022) 58 (1964) 686 68 93 144 167 383 704 985 1390 2990
2025-12-18 23:30 3.02 177 5270 (2022) 58 (1964) 686 68 93 144 167 383 704 985 1390 2990
2025-12-18 22:30 3.03 180 11100 (2022) 60 (1964) 807 68 94 144 167 394 735 996 1650 2940
2025-12-18 21:30 3.03 180 11100 (2022) 60 (1964) 807 68 94 144 167 394 735 996 1650 2940
2025-12-18 20:30 3.02 177 11100 (2022) 60 (1964) 807 68 94 144 167 394 735 996 1650 2940
2025-12-18 19:30 3.02 177 11100 (2022) 60 (1964) 807 68 94 144 167 394 735 996 1650 2940
2025-12-18 18:30 3.03 180 11100 (2022) 60 (1964) 807 68 94 144 167 394 735 996 1650 2940
2025-12-18 17:30 3.03 180 11100 (2022) 60 (1964) 807 68 94 144 167 394 735 996 1650 2940
2025-12-18 16:30 3.02 177 11100 (2022) 60 (1964) 807 68 94 144 167 394 735 996 1650 2940
2025-12-18 15:30 3.03 180 11100 (2022) 60 (1964) 807 68 94 144 167 394 735 996 1650 2940
2025-12-18 14:30 3.03 180 11100 (2022) 60 (1964) 807 68 94 144 167 394 735 996 1650 2940
2025-12-18 13:30 3.03 180 11100 (2022) 60 (1964) 807 68 94 144 167 394 735 996 1650 2940
2025-12-18 12:30 3.03 180 11100 (2022) 60 (1964) 807 68 94 144 167 394 735 996 1650 2940
2025-12-18 11:30 3.02 177 11100 (2022) 60 (1964) 807 68 94 144 167 394 735 996 1650 2940
2025-12-18 10:30 3.03 180 11100 (2022) 60 (1964) 807 68 94 144 167 394 735 996 1650 2940
2025-12-18 09:30 3.04 183 11100 (2022) 60 (1964) 807 68 94 144 167 394 735 996 1650 2940
2025-12-18 08:30 3.04 183 11100 (2022) 60 (1964) 807 68 94 144 167 394 735 996 1650 2940
2025-12-18 07:30 3.05 185 11100 (2022) 60 (1964) 807 68 94 144 167 394 735 996 1650 2940
2025-12-18 06:30 3.04 183 11100 (2022) 60 (1964) 807 68 94 144 167 394 735 996 1650 2940
2025-12-18 05:30 3.05 185 11100 (2022) 60 (1964) 807 68 94 144 167 394 735 996 1650 2940
2025-12-18 04:30 3.05 185 11100 (2022) 60 (1964) 807 68 94 144 167 394 735 996 1650 2940
2025-12-18 03:30 3.05 185 11100 (2022) 60 (1964) 807 68 94 144 167 394 735 996 1650 2940
2025-12-18 02:30 3.04 183 11100 (2022) 60 (1964) 807 68 94 144 167 394 735 996 1650 2940
2025-12-18 01:30 3.04 183 11100 (2022) 60 (1964) 807 68 94 144 167 394 735 996 1650 2940
2025-12-18 00:30 3.04 183 11100 (2022) 60 (1964) 807 68 94 144 167 394 735 996 1650 2940
2025-12-17 23:30 3.04 183 11100 (2022) 60 (1964) 807 68 94 144 167 394 735 996 1650 2940
2025-12-17 22:30 3.04 183 8880 (1993) 60 (1940) 738 64 90 145 171 347 744 853 1750 2440
2025-12-17 21:30 3.04 183 8880 (1993) 60 (1940) 738 64 90 145 171 347 744 853 1750 2440
2025-12-17 20:30 3.04 183 8880 (1993) 60 (1940) 738 64 90 145 171 347 744 853 1750 2440
2025-12-17 19:30 3.04 183 8880 (1993) 60 (1940) 738 64 90 145 171 347 744 853 1750 2440
2025-12-17 18:30 3.04 183 8880 (1993) 60 (1940) 738 64 90 145 171 347 744 853 1750 2440
2025-12-17 17:30 3.04 183 8880 (1993) 60 (1940) 738 64 90 145 171 347 744 853 1750 2440
2025-12-17 16:30 3.04 183 8880 (1993) 60 (1940) 738 64 90 145 171 347 744 853 1750 2440
2025-12-17 15:30 3.04 183 8880 (1993) 60 (1940) 738 64 90 145 171 347 744 853 1750 2440
2025-12-17 14:30 3.04 183 8880 (1993) 60 (1940) 738 64 90 145 171 347 744 853 1750 2440
2025-12-17 13:30 3.04 183 8880 (1993) 60 (1940) 738 64 90 145 171 347 744 853 1750 2440
2025-12-17 12:30 3.04 183 8880 (1993) 60 (1940) 738 64 90 145 171 347 744 853 1750 2440
2025-12-17 11:30 3.04 183 8880 (1993) 60 (1940) 738 64 90 145 171 347 744 853 1750 2440
2025-12-17 10:30 3.03 180 8880 (1993) 60 (1940) 738 64 90 145 171 347 744 853 1750 2440
2025-12-17 09:30 3.03 180 8880 (1993) 60 (1940) 738 64 90 145 171 347 744 853 1750 2440
2025-12-17 08:30 3.03 180 8880 (1993) 60 (1940) 738 64 90 145 171 347 744 853 1750 2440
2025-12-17 07:30 3.03 180 8880 (1993) 60 (1940) 738 64 90 145 171 347 744 853 1750 2440
2025-12-17 06:30 3.03 180 8880 (1993) 60 (1940) 738 64 90 145 171 347 744 853 1750 2440
2025-12-17 05:30 3.03 180 8880 (1993) 60 (1940) 738 64 90 145 171 347 744 853 1750 2440
2025-12-17 04:30 3.04 183 8880 (1993) 60 (1940) 738 64 90 145 171 347 744 853 1750 2440
2025-12-17 03:30 3.04 183 8880 (1993) 60 (1940) 738 64 90 145 171 347 744 853 1750 2440
2025-12-17 02:30 3.04 183 8880 (1993) 60 (1940) 738 64 90 145 171 347 744 853 1750 2440
2025-12-17 01:30 3.03 180 8880 (1993) 60 (1940) 738 64 90 145 171 347 744 853 1750 2440
2025-12-17 00:30 3.04 183 8880 (1993) 60 (1940) 738 64 90 145 171 347 744 853 1750 2440
2025-12-16 23:30 3.04 183 8880 (1993) 60 (1940) 738 64 90 145 171 347 744 853 1750 2440
2025-12-16 22:30 3.04 183 20800 (1993) 62 (1956) 885 71 97 146 176 337 722 816 1930 2670
2025-12-16 21:30 3.04 183 20800 (1993) 62 (1956) 885 71 97 146 176 337 722 816 1930 2670
2025-12-16 20:30 3.04 183 20800 (1993) 62 (1956) 885 71 97 146 176 337 722 816 1930 2670
2025-12-16 19:30 3.04 183 20800 (1993) 62 (1956) 885 71 97 146 176 337 722 816 1930 2670
2025-12-16 18:30 3.04 183 20800 (1993) 62 (1956) 885 71 97 146 176 337 722 816 1930 2670
2025-12-16 17:30 3.04 183 20800 (1993) 62 (1956) 885 71 97 146 176 337 722 816 1930 2670
2025-12-16 16:30 3.04 183 20800 (1993) 62 (1956) 885 71 97 146 176 337 722 816 1930 2670
2025-12-16 15:30 3.05 185 20800 (1993) 62 (1956) 885 71 97 146 176 337 722 816 1930 2670
2025-12-16 14:30 3.04 183 20800 (1993) 62 (1956) 885 71 97 146 176 337 722 816 1930 2670
2025-12-16 13:30 3.05 185 20800 (1993) 62 (1956) 885 71 97 146 176 337 722 816 1930 2670
2025-12-16 12:30 3.04 183 20800 (1993) 62 (1956) 885 71 97 146 176 337 722 816 1930 2670
2025-12-16 11:30 3.04 183 20800 (1993) 62 (1956) 885 71 97 146 176 337 722 816 1930 2670
2025-12-16 10:30 3.05 185 20800 (1993) 62 (1956) 885 71 97 146 176 337 722 816 1930 2670
2025-12-16 09:30 3.05 185 20800 (1993) 62 (1956) 885 71 97 146 176 337 722 816 1930 2670
2025-12-16 08:30 3.04 183 20800 (1993) 62 (1956) 885 71 97 146 176 337 722 816 1930 2670
2025-12-16 07:30 3.04 183 20800 (1993) 62 (1956) 885 71 97 146 176 337 722 816 1930 2670
2025-12-16 06:30 3.04 183 20800 (1993) 62 (1956) 885 71 97 146 176 337 722 816 1930 2670
2025-12-16 05:30 3.04 183 20800 (1993) 62 (1956) 885 71 97 146 176 337 722 816 1930 2670
2025-12-16 04:30 3.04 183 20800 (1993) 62 (1956) 885 71 97 146 176 337 722 816 1930 2670
2025-12-16 03:30 3.04 183 20800 (1993) 62 (1956) 885 71 97 146 176 337 722 816 1930 2670
2025-12-16 02:30 3.04 183 20800 (1993) 62 (1956) 885 71 97 146 176 337 722 816 1930 2670
2025-12-16 01:30 3.04 183 20800 (1993) 62 (1956) 885 71 97 146 176 337 722 816 1930 2670
2025-12-16 00:30 3.04 183 20800 (1993) 62 (1956) 885 71 97 146 176 337 722 816 1930 2670
2025-12-15 23:30 3.05 185 20800 (1993) 62 (1956) 885 71 97 146 176 337 722 816 1930 2670
2025-12-15 22:30 3.04 183 21000 (1993) 62 (1956) 905 73 93 149 182 327 689 806 1660 3790
2025-12-15 21:30 3.05 185 21000 (1993) 62 (1956) 905 73 93 149 182 327 689 806 1660 3790
2025-12-15 20:30 3.05 185 21000 (1993) 62 (1956) 905 73 93 149 182 327 689 806 1660 3790
2025-12-15 19:30 3.05 185 21000 (1993) 62 (1956) 905 73 93 149 182 327 689 806 1660 3790
2025-12-15 18:30 3.05 185 21000 (1993) 62 (1956) 905 73 93 149 182 327 689 806 1660 3790
2025-12-15 17:30 3.05 185 21000 (1993) 62 (1956) 905 73 93 149 182 327 689 806 1660 3790
2025-12-15 16:30 3.05 185 21000 (1993) 62 (1956) 905 73 93 149 182 327 689 806 1660 3790
2025-12-15 15:30 3.05 185 21000 (1993) 62 (1956) 905 73 93 149 182 327 689 806 1660 3790
2025-12-15 14:30 3.05 185 21000 (1993) 62 (1956) 905 73 93 149 182 327 689 806 1660 3790
2025-12-15 13:30 3.05 185 21000 (1993) 62 (1956) 905 73 93 149 182 327 689 806 1660 3790
2025-12-15 12:30 3.06 188 21000 (1993) 62 (1956) 905 73 93 149 182 327 689 806 1660 3790
2025-12-15 11:30 3.06 188 21000 (1993) 62 (1956) 905 73 93 149 182 327 689 806 1660 3790
2025-12-15 10:30 3.06 188 21000 (1993) 62 (1956) 905 73 93 149 182 327 689 806 1660 3790
2025-12-15 09:30 3.06 188 21000 (1993) 62 (1956) 905 73 93 149 182 327 689 806 1660 3790
2025-12-15 08:30 3.06 188 21000 (1993) 62 (1956) 905 73 93 149 182 327 689 806 1660 3790
2025-12-15 07:30 3.06 188 21000 (1993) 62 (1956) 905 73 93 149 182 327 689 806 1660 3790
2025-12-15 06:30 3.06 188 21000 (1993) 62 (1956) 905 73 93 149 182 327 689 806 1660 3790
2025-12-15 05:30 3.06 188 21000 (1993) 62 (1956) 905 73 93 149 182 327 689 806 1660 3790
2025-12-15 04:30 3.06 188 21000 (1993) 62 (1956) 905 73 93 149 182 327 689 806 1660 3790
2025-12-15 03:30 3.06 188 21000 (1993) 62 (1956) 905 73 93 149 182 327 689 806 1660 3790
2025-12-15 02:30 3.06 188 21000 (1993) 62 (1956) 905 73 93 149 182 327 689 806 1660 3790
2025-12-15 01:30 3.06 188 21000 (1993) 62 (1956) 905 73 93 149 182 327 689 806 1660 3790
2025-12-15 00:30 3.06 188 21000 (1993) 62 (1956) 905 73 93 149 182 327 689 806 1660 3790
2025-12-14 23:30 3.06 188 21000 (1993) 62 (1956) 905 73 93 149 182 327 689 806 1660 3790
2025-12-14 22:30 3.07 191 14300 (1985) 64 (1956) 929 74 94 151 172 316 737 879 1520 3570
2025-12-14 21:30 3.07 191 14300 (1985) 64 (1956) 929 74 94 151 172 316 737 879 1520 3570
2025-12-14 20:30 3.07 191 14300 (1985) 64 (1956) 929 74 94 151 172 316 737 879 1520 3570
2025-12-14 19:30 3.07 191 14300 (1985) 64 (1956) 929 74 94 151 172 316 737 879 1520 3570
2025-12-14 18:30 3.07 191 14300 (1985) 64 (1956) 929 74 94 151 172 316 737 879 1520 3570
2025-12-14 17:30 3.07 191 14300 (1985) 64 (1956) 929 74 94 151 172 316 737 879 1520 3570
2025-12-14 16:30 3.07 191 14300 (1985) 64 (1956) 929 74 94 151 172 316 737 879 1520 3570
2025-12-14 15:30 3.08 194 14300 (1985) 64 (1956) 929 74 94 151 172 316 737 879 1520 3570
2025-12-14 14:30 3.08 194 14300 (1985) 64 (1956) 929 74 94 151 172 316 737 879 1520 3570
2025-12-14 13:30 3.07 191 14300 (1985) 64 (1956) 929 74 94 151 172 316 737 879 1520 3570
2025-12-14 12:30 3.07 191 14300 (1985) 64 (1956) 929 74 94 151 172 316 737 879 1520 3570
2025-12-14 11:30 3.07 191 14300 (1985) 64 (1956) 929 74 94 151 172 316 737 879 1520 3570
2025-12-14 10:30 3.07 191 14300 (1985) 64 (1956) 929 74 94 151 172 316 737 879 1520 3570
2025-12-14 09:30 3.07 191 14300 (1985) 64 (1956) 929 74 94 151 172 316 737 879 1520 3570
2025-12-14 08:30 3.07 191 14300 (1985) 64 (1956) 929 74 94 151 172 316 737 879 1520 3570
2025-12-14 07:30 3.07 191 14300 (1985) 64 (1956) 929 74 94 151 172 316 737 879 1520 3570
2025-12-14 06:30 3.08 194 14300 (1985) 64 (1956) 929 74 94 151 172 316 737 879 1520 3570
2025-12-14 05:30 3.08 194 14300 (1985) 64 (1956) 929 74 94 151 172 316 737 879 1520 3570
2025-12-14 04:30 3.08 194 14300 (1985) 64 (1956) 929 74 94 151 172 316 737 879 1520 3570
2025-12-14 03:30 3.08 194 14300 (1985) 64 (1956) 929 74 94 151 172 316 737 879 1520 3570
2025-12-14 02:30 3.08 194 14300 (1985) 64 (1956) 929 74 94 151 172 316 737 879 1520 3570
2025-12-14 01:30 3.09 197 14300 (1985) 64 (1956) 929 74 94 151 172 316 737 879 1520 3570
2025-12-14 00:30 3.09 197 14300 (1985) 64 (1956) 929 74 94 151 172 316 737 879 1520 3570
2025-12-13 23:30 3.09 197 14300 (1985) 64 (1956) 929 74 94 151 172 316 737 879 1520 3570
2025-12-13 22:30 3.09 197 6500 (1947) 64 (1956) 664 76 98 154 165 292 783 918 1630 2400
2025-12-13 21:30 3.09 197 6500 (1947) 64 (1956) 664 76 98 154 165 292 783 918 1630 2400
2025-12-13 20:30 3.09 197 6500 (1947) 64 (1956) 664 76 98 154 165 292 783 918 1630 2400
2025-12-13 19:30 3.09 197 6500 (1947) 64 (1956) 664 76 98 154 165 292 783 918 1630 2400
2025-12-13 18:30 3.09 197 6500 (1947) 64 (1956) 664 76 98 154 165 292 783 918 1630 2400
2025-12-13 17:30 3.10 200 6500 (1947) 64 (1956) 664 76 98 154 165 292 783 918 1630 2400
2025-12-13 16:30 3.10 200 6500 (1947) 64 (1956) 664 76 98 154 165 292 783 918 1630 2400
2025-12-13 15:30 3.10 200 6500 (1947) 64 (1956) 664 76 98 154 165 292 783 918 1630 2400
2025-12-13 14:30 3.10 200 6500 (1947) 64 (1956) 664 76 98 154 165 292 783 918 1630 2400
2025-12-13 13:30 3.11 203 6500 (1947) 64 (1956) 664 76 98 154 165 292 783 918 1630 2400
2025-12-13 12:30 3.11 203 6500 (1947) 64 (1956) 664 76 98 154 165 292 783 918 1630 2400
2025-12-13 11:30 3.11 203 6500 (1947) 64 (1956) 664 76 98 154 165 292 783 918 1630 2400
2025-12-13 10:30 3.11 203 6500 (1947) 64 (1956) 664 76 98 154 165 292 783 918 1630 2400
2025-12-13 09:30 3.11 203 6500 (1947) 64 (1956) 664 76 98 154 165 292 783 918 1630 2400
2025-12-13 08:30 3.11 203 6500 (1947) 64 (1956) 664 76 98 154 165 292 783 918 1630 2400
2025-12-13 07:30 3.11 203 6500 (1947) 64 (1956) 664 76 98 154 165 292 783 918 1630 2400
2025-12-13 06:30 3.11 203 6500 (1947) 64 (1956) 664 76 98 154 165 292 783 918 1630 2400
2025-12-13 05:30 3.12 206 6500 (1947) 64 (1956) 664 76 98 154 165 292 783 918 1630 2400
2025-12-13 04:30 3.12 206 6500 (1947) 64 (1956) 664 76 98 154 165 292 783 918 1630 2400
2025-12-13 03:30 3.12 206 6500 (1947) 64 (1956) 664 76 98 154 165 292 783 918 1630 2400
2025-12-13 02:30 3.12 206 6500 (1947) 64 (1956) 664 76 98 154 165 292 783 918 1630 2400
2025-12-13 01:30 3.13 209 6500 (1947) 64 (1956) 664 76 98 154 165 292 783 918 1630 2400
2025-12-13 00:30 3.13 209 6500 (1947) 64 (1956) 664 76 98 154 165 292 783 918 1630 2400
2025-12-12 23:30 3.13 209 6500 (1947) 64 (1956) 664 76 98 154 165 292 783 918 1630 2400
2025-12-12 22:30 3.13 209 7960 (1947) 64 (1956) 707 75 99 147 168 300 753 893 1460 2610
2025-12-12 21:30 3.13 209 7960 (1947) 64 (1956) 707 75 99 147 168 300 753 893 1460 2610
2025-12-12 20:30 3.13 209 7960 (1947) 64 (1956) 707 75 99 147 168 300 753 893 1460 2610
2025-12-12 19:30 3.13 209 7960 (1947) 64 (1956) 707 75 99 147 168 300 753 893 1460 2610
2025-12-12 18:30 3.14 212 7960 (1947) 64 (1956) 707 75 99 147 168 300 753 893 1460 2610
2025-12-12 17:30 3.14 212 7960 (1947) 64 (1956) 707 75 99 147 168 300 753 893 1460 2610
2025-12-12 16:30 3.14 212 7960 (1947) 64 (1956) 707 75 99 147 168 300 753 893 1460 2610
2025-12-12 15:30 3.14 212 7960 (1947) 64 (1956) 707 75 99 147 168 300 753 893 1460 2610
2025-12-12 14:30 3.14 212 7960 (1947) 64 (1956) 707 75 99 147 168 300 753 893 1460 2610
2025-12-12 13:30 3.14 212 7960 (1947) 64 (1956) 707 75 99 147 168 300 753 893 1460 2610
2025-12-12 12:30 3.14 212 7960 (1947) 64 (1956) 707 75 99 147 168 300 753 893 1460 2610
2025-12-12 11:30 3.14 212 7960 (1947) 64 (1956) 707 75 99 147 168 300 753 893 1460 2610
2025-12-12 10:30 3.13 209 7960 (1947) 64 (1956) 707 75 99 147 168 300 753 893 1460 2610
2025-12-12 09:30 3.14 212 7960 (1947) 64 (1956) 707 75 99 147 168 300 753 893 1460 2610
2025-12-12 08:30 3.14 212 7960 (1947) 64 (1956) 707 75 99 147 168 300 753 893 1460 2610
2025-12-12 07:30 3.14 212 7960 (1947) 64 (1956) 707 75 99 147 168 300 753 893 1460 2610
2025-12-12 06:30 3.14 212 7960 (1947) 64 (1956) 707 75 99 147 168 300 753 893 1460 2610
2025-12-12 05:30 3.14 212 7960 (1947) 64 (1956) 707 75 99 147 168 300 753 893 1460 2610
2025-12-12 04:30 3.15 215 7960 (1947) 64 (1956) 707 75 99 147 168 300 753 893 1460 2610
2025-12-12 03:30 3.15 215 7960 (1947) 64 (1956) 707 75 99 147 168 300 753 893 1460 2610
2025-12-12 02:30 3.15 215 7960 (1947) 64 (1956) 707 75 99 147 168 300 753 893 1460 2610
2025-12-12 01:30 3.15 215 7960 (1947) 64 (1956) 707 75 99 147 168 300 753 893 1460 2610
2025-12-12 00:30 3.15 215 7960 (1947) 64 (1956) 707 75 99 147 168 300 753 893 1460 2610
2025-12-11 23:30 3.15 215 7960 (1947) 64 (1956) 707 75 99 147 168 300 753 893 1460 2610
2025-12-11 22:30 3.15 215 10000 (1947) 59 (1955) 784 74 108 146 175 304 776 924 1660 2450
2025-12-11 21:30 3.15 215 10000 (1947) 59 (1955) 784 74 108 146 175 304 776 924 1660 2450
2025-12-11 20:30 3.15 215 10000 (1947) 59 (1955) 784 74 108 146 175 304 776 924 1660 2450
2025-12-11 19:30 3.15 215 10000 (1947) 59 (1955) 784 74 108 146 175 304 776 924 1660 2450
2025-12-11 18:30 3.16 218 10000 (1947) 59 (1955) 784 74 108 146 175 304 776 924 1660 2450
2025-12-11 17:30 3.16 218 10000 (1947) 59 (1955) 784 74 108 146 175 304 776 924 1660 2450
2025-12-11 16:30 3.17 221 10000 (1947) 59 (1955) 784 74 108 146 175 304 776 924 1660 2450
2025-12-11 15:30 3.17 221 10000 (1947) 59 (1955) 784 74 108 146 175 304 776 924 1660 2450
2025-12-11 14:30 3.17 221 10000 (1947) 59 (1955) 784 74 108 146 175 304 776 924 1660 2450
2025-12-11 13:30 3.18 225 10000 (1947) 59 (1955) 784 74 108 146 175 304 776 924 1660 2450
2025-12-11 12:30 3.18 225 10000 (1947) 59 (1955) 784 74 108 146 175 304 776 924 1660 2450
2025-12-11 11:30 3.17 221 10000 (1947) 59 (1955) 784 74 108 146 175 304 776 924 1660 2450
2025-12-11 10:30 3.17 221 10000 (1947) 59 (1955) 784 74 108 146 175 304 776 924 1660 2450
2025-12-11 09:30 3.16 218 10000 (1947) 59 (1955) 784 74 108 146 175 304 776 924 1660 2450
2025-12-11 08:30 3.16 218 10000 (1947) 59 (1955) 784 74 108 146 175 304 776 924 1660 2450
2025-12-11 07:30 3.17 221 10000 (1947) 59 (1955) 784 74 108 146 175 304 776 924 1660 2450
2025-12-11 06:30 3.17 221 10000 (1947) 59 (1955) 784 74 108 146 175 304 776 924 1660 2450
2025-12-11 05:30 3.17 221 10000 (1947) 59 (1955) 784 74 108 146 175 304 776 924 1660 2450
2025-12-11 04:30 3.17 221 10000 (1947) 59 (1955) 784 74 108 146 175 304 776 924 1660 2450
2025-12-11 03:30 3.17 221 10000 (1947) 59 (1955) 784 74 108 146 175 304 776 924 1660 2450
2025-12-11 02:30 3.17 221 10000 (1947) 59 (1955) 784 74 108 146 175 304 776 924 1660 2450
2025-12-11 01:30 3.17 221 10000 (1947) 59 (1955) 784 74 108 146 175 304 776 924 1660 2450
2025-12-11 00:30 3.17 221 10000 (1947) 59 (1955) 784 74 108 146 175 304 776 924 1660 2450
2025-12-10 23:30 3.17 221 10000 (1947) 59 (1955) 784 74 108 146 175 304 776 924 1660 2450
2025-12-10 22:30 3.18 225 12600 (1947) 55 (1964) 674 74 96 144 170 316 596 784 1410 2150
2025-12-10 21:30 3.18 225 12600 (1947) 55 (1964) 674 74 96 144 170 316 596 784 1410 2150
2025-12-10 20:30 3.18 225 12600 (1947) 55 (1964) 674 74 96 144 170 316 596 784 1410 2150
2025-12-10 19:30 3.18 225 12600 (1947) 55 (1964) 674 74 96 144 170 316 596 784 1410 2150
2025-12-10 18:30 3.19 228 12600 (1947) 55 (1964) 674 74 96 144 170 316 596 784 1410 2150
2025-12-10 17:30 3.19 228 12600 (1947) 55 (1964) 674 74 96 144 170 316 596 784 1410 2150
2025-12-10 16:30 3.19 228 12600 (1947) 55 (1964) 674 74 96 144 170 316 596 784 1410 2150
2025-12-10 15:30 3.19 228 12600 (1947) 55 (1964) 674 74 96 144 170 316 596 784 1410 2150
2025-12-10 14:30 3.18 225 12600 (1947) 55 (1964) 674 74 96 144 170 316 596 784 1410 2150
2025-12-10 13:30 3.18 225 12600 (1947) 55 (1964) 674 74 96 144 170 316 596 784 1410 2150
2025-12-10 12:30 3.18 225 12600 (1947) 55 (1964) 674 74 96 144 170 316 596 784 1410 2150
2025-12-10 11:30 3.18 225 12600 (1947) 55 (1964) 674 74 96 144 170 316 596 784 1410 2150
2025-12-10 10:30 3.18 225 12600 (1947) 55 (1964) 674 74 96 144 170 316 596 784 1410 2150
2025-12-10 09:30 3.17 221 12600 (1947) 55 (1964) 674 74 96 144 170 316 596 784 1410 2150
2025-12-10 08:30 3.18 225 12600 (1947) 55 (1964) 674 74 96 144 170 316 596 784 1410 2150
2025-12-10 07:30 3.17 221 12600 (1947) 55 (1964) 674 74 96 144 170 316 596 784 1410 2150
2025-12-10 06:30 3.18 225 12600 (1947) 55 (1964) 674 74 96 144 170 316 596 784 1410 2150
2025-12-10 05:30 3.18 225 12600 (1947) 55 (1964) 674 74 96 144 170 316 596 784 1410 2150
2025-12-10 04:30 3.18 225 12600 (1947) 55 (1964) 674 74 96 144 170 316 596 784 1410 2150
2025-12-10 03:30 3.18 225 12600 (1947) 55 (1964) 674 74 96 144 170 316 596 784 1410 2150
2025-12-10 02:30 3.18 225 12600 (1947) 55 (1964) 674 74 96 144 170 316 596 784 1410 2150
2025-12-10 01:30 3.18 225 12600 (1947) 55 (1964) 674 74 96 144 170 316 596 784 1410 2150
2025-12-10 00:30 3.18 225 12600 (1947) 55 (1964) 674 74 96 144 170 316 596 784 1410 2150
2025-12-09 23:30 3.19 228 12600 (1947) 55 (1964) 674 74 96 144 170 316 596 784 1410 2150
2025-12-09 22:30 3.18 225 2730 (1974) 51 (1964) 471 74 99 140 150 321 505 596 1120 1620
2025-12-09 21:30 3.19 228 2730 (1974) 51 (1964) 471 74 99 140 150 321 505 596 1120 1620
2025-12-09 20:30 3.18 225 2730 (1974) 51 (1964) 471 74 99 140 150 321 505 596 1120 1620
2025-12-09 19:30 3.18 225 2730 (1974) 51 (1964) 471 74 99 140 150 321 505 596 1120 1620
2025-12-09 18:30 3.19 228 2730 (1974) 51 (1964) 471 74 99 140 150 321 505 596 1120 1620
2025-12-09 17:30 3.19 228 2730 (1974) 51 (1964) 471 74 99 140 150 321 505 596 1120 1620
2025-12-09 16:30 3.19 228 2730 (1974) 51 (1964) 471 74 99 140 150 321 505 596 1120 1620
2025-12-09 15:30 3.19 228 2730 (1974) 51 (1964) 471 74 99 140 150 321 505 596 1120 1620
2025-12-09 14:30 3.20 231 2730 (1974) 51 (1964) 471 74 99 140 150 321 505 596 1120 1620
2025-12-09 13:30 3.19 228 2730 (1974) 51 (1964) 471 74 99 140 150 321 505 596 1120 1620
2025-12-09 12:30 3.19 228 2730 (1974) 51 (1964) 471 74 99 140 150 321 505 596 1120 1620
2025-12-09 11:30 3.19 228 2730 (1974) 51 (1964) 471 74 99 140 150 321 505 596 1120 1620
2025-12-09 10:30 3.20 231 2730 (1974) 51 (1964) 471 74 99 140 150 321 505 596 1120 1620
2025-12-09 09:30 3.19 228 2730 (1974) 51 (1964) 471 74 99 140 150 321 505 596 1120 1620
2025-12-09 07:30 3.19 228 2730 (1974) 51 (1964) 471 74 99 140 150 321 505 596 1120 1620
2025-12-09 06:30 3.19 228 2730 (1974) 51 (1964) 471 74 99 140 150 321 505 596 1120 1620
2025-12-09 05:30 3.19 228 2730 (1974) 51 (1964) 471 74 99 140 150 321 505 596 1120 1620
2025-12-09 04:30 3.19 228 2730 (1974) 51 (1964) 471 74 99 140 150 321 505 596 1120 1620
2025-12-09 03:30 3.20 231 2730 (1974) 51 (1964) 471 74 99 140 150 321 505 596 1120 1620
2025-12-09 02:30 3.20 231 2730 (1974) 51 (1964) 471 74 99 140 150 321 505 596 1120 1620
2025-12-09 01:30 3.20 231 2730 (1974) 51 (1964) 471 74 99 140 150 321 505 596 1120 1620
2025-12-09 00:30 3.20 231 2730 (1974) 51 (1964) 471 74 99 140 150 321 505 596 1120 1620
2025-12-08 23:30 3.20 231 2730 (1974) 51 (1964) 471 74 99 140 150 321 505 596 1120 1620
2025-12-08 22:30 3.20 231 4690 (1974) 52 (1964) 517 76 101 140 153 319 530 631 1220 1820
2025-12-08 21:30 3.20 231 4690 (1974) 52 (1964) 517 76 101 140 153 319 530 631 1220 1820
2025-12-08 20:30 3.20 231 4690 (1974) 52 (1964) 517 76 101 140 153 319 530 631 1220 1820
2025-12-08 19:30 3.21 234 4690 (1974) 52 (1964) 517 76 101 140 153 319 530 631 1220 1820
2025-12-08 18:30 3.21 234 4690 (1974) 52 (1964) 517 76 101 140 153 319 530 631 1220 1820
2025-12-08 17:30 3.21 234 4690 (1974) 52 (1964) 517 76 101 140 153 319 530 631 1220 1820
2025-12-08 16:30 3.21 234 4690 (1974) 52 (1964) 517 76 101 140 153 319 530 631 1220 1820
2025-12-08 15:30 3.21 234 4690 (1974) 52 (1964) 517 76 101 140 153 319 530 631 1220 1820
2025-12-08 14:30 3.22 238 4690 (1974) 52 (1964) 517 76 101 140 153 319 530 631 1220 1820
2025-12-08 13:30 3.22 238 4690 (1974) 52 (1964) 517 76 101 140 153 319 530 631 1220 1820
2025-12-08 12:30 3.22 238 4690 (1974) 52 (1964) 517 76 101 140 153 319 530 631 1220 1820
2025-12-08 11:30 3.22 238 4690 (1974) 52 (1964) 517 76 101 140 153 319 530 631 1220 1820
2025-12-08 10:30 2.35 45 4690 (1974) 52 (1964) 517 76 101 140 153 319 530 631 1220 1820
2025-12-08 09:30 2.30 39 4690 (1974) 52 (1964) 517 76 101 140 153 319 530 631 1220 1820
2025-12-08 08:30 2.27 35 4690 (1974) 52 (1964) 517 76 101 140 153 319 530 631 1220 1820
2025-12-08 07:30 2.26 34 4690 (1974) 52 (1964) 517 76 101 140 153 319 530 631 1220 1820
2025-12-08 06:30 2.30 39 4690 (1974) 52 (1964) 517 76 101 140 153 319 530 631 1220 1820
2025-12-08 05:30 2.34 43 4690 (1974) 52 (1964) 517 76 101 140 153 319 530 631 1220 1820
2025-12-08 04:30 2.35 45 4690 (1974) 52 (1964) 517 76 101 140 153 319 530 631 1220 1820
2025-12-08 03:30 2.37 47 4690 (1974) 52 (1964) 517 76 101 140 153 319 530 631 1220 1820
2025-12-08 02:30 2.40 51 4690 (1974) 52 (1964) 517 76 101 140 153 319 530 631 1220 1820
2025-12-08 01:30 2.42 54 4690 (1974) 52 (1964) 517 76 101 140 153 319 530 631 1220 1820
2025-12-08 00:30 2.43 55 4690 (1974) 52 (1964) 517 76 101 140 153 319 530 631 1220 1820
2025-12-07 23:30 2.47 61 4690 (1974) 52 (1964) 517 76 101 140 153 319 530 631 1220 1820
2025-12-07 22:30 2.51 67 7520 (1974) 52 (1964) 580 76 97 137 147 331 548 668 1170 2250
2025-12-07 21:30 2.55 74 7520 (1974) 52 (1964) 580 76 97 137 147 331 548 668 1170 2250
2025-12-07 20:30 2.58 79 7520 (1974) 52 (1964) 580 76 97 137 147 331 548 668 1170 2250
2025-12-07 19:30 2.65 91 7520 (1974) 52 (1964) 580 76 97 137 147 331 548 668 1170 2250
2025-12-07 18:30 2.72 105 7520 (1974) 52 (1964) 580 76 97 137 147 331 548 668 1170 2250
2025-12-07 17:30 2.81 124 7520 (1974) 52 (1964) 580 76 97 137 147 331 548 668 1170 2250
2025-12-07 16:30 2.89 143 7520 (1974) 52 (1964) 580 76 97 137 147 331 548 668 1170 2250
2025-12-07 15:30 2.98 166 7520 (1974) 52 (1964) 580 76 97 137 147 331 548 668 1170 2250
2025-12-07 14:30 3.07 191 7520 (1974) 52 (1964) 580 76 97 137 147 331 548 668 1170 2250
2025-12-07 13:30 3.16 218 7520 (1974) 52 (1964) 580 76 97 137 147 331 548 668 1170 2250
2025-12-07 12:30 3.18 225 7520 (1974) 52 (1964) 580 76 97 137 147 331 548 668 1170 2250
2025-12-07 11:30 3.22 238 7520 (1974) 52 (1964) 580 76 97 137 147 331 548 668 1170 2250
2025-12-07 10:30 3.22 238 7520 (1974) 52 (1964) 580 76 97 137 147 331 548 668 1170 2250
2025-12-07 09:30 3.25 248 7520 (1974) 52 (1964) 580 76 97 137 147 331 548 668 1170 2250
2025-12-07 08:30 3.26 251 7520 (1974) 52 (1964) 580 76 97 137 147 331 548 668 1170 2250
2025-12-07 07:30 3.26 251 7520 (1974) 52 (1964) 580 76 97 137 147 331 548 668 1170 2250
2025-12-07 06:30 3.26 251 7520 (1974) 52 (1964) 580 76 97 137 147 331 548 668 1170 2250
2025-12-07 05:30 3.26 251 7520 (1974) 52 (1964) 580 76 97 137 147 331 548 668 1170 2250
2025-12-07 04:30 3.26 251 7520 (1974) 52 (1964) 580 76 97 137 147 331 548 668 1170 2250
2025-12-07 03:30 3.26 251 7520 (1974) 52 (1964) 580 76 97 137 147 331 548 668 1170 2250
2025-12-07 02:30 3.27 254 7520 (1974) 52 (1964) 580 76 97 137 147 331 548 668 1170 2250
2025-12-07 01:30 3.27 254 7520 (1974) 52 (1964) 580 76 97 137 147 331 548 668 1170 2250
2025-12-07 00:30 3.27 254 7520 (1974) 52 (1964) 580 76 97 137 147 331 548 668 1170 2250
2025-12-06 23:30 3.27 254 7520 (1974) 52 (1964) 580 76 97 137 147 331 548 668 1170 2250
2025-12-06 22:30 3.27 254 10000 (1974) 52 (1964) 628 76 96 138 149 314 586 662 1190 2220
2025-12-06 21:30 3.27 254 10000 (1974) 52 (1964) 628 76 96 138 149 314 586 662 1190 2220
2025-12-06 20:30 3.27 254 10000 (1974) 52 (1964) 628 76 96 138 149 314 586 662 1190 2220
2025-12-06 19:30 3.27 254 10000 (1974) 52 (1964) 628 76 96 138 149 314 586 662 1190 2220
2025-12-06 18:30 3.28 258 10000 (1974) 52 (1964) 628 76 96 138 149 314 586 662 1190 2220
2025-12-06 17:30 3.28 258 10000 (1974) 52 (1964) 628 76 96 138 149 314 586 662 1190 2220
2025-12-06 16:30 3.28 258 10000 (1974) 52 (1964) 628 76 96 138 149 314 586 662 1190 2220
2025-12-06 15:30 3.28 258 10000 (1974) 52 (1964) 628 76 96 138 149 314 586 662 1190 2220
2025-12-06 14:30 3.28 258 10000 (1974) 52 (1964) 628 76 96 138 149 314 586 662 1190 2220
2025-12-06 13:30 3.28 258 10000 (1974) 52 (1964) 628 76 96 138 149 314 586 662 1190 2220
2025-12-06 12:30 3.28 258 10000 (1974) 52 (1964) 628 76 96 138 149 314 586 662 1190 2220
2025-12-06 11:30 3.28 258 10000 (1974) 52 (1964) 628 76 96 138 149 314 586 662 1190 2220
2025-12-06 10:30 3.28 258 10000 (1974) 52 (1964) 628 76 96 138 149 314 586 662 1190 2220
2025-12-06 09:30 3.27 254 10000 (1974) 52 (1964) 628 76 96 138 149 314 586 662 1190 2220
2025-12-06 08:30 3.27 254 10000 (1974) 52 (1964) 628 76 96 138 149 314 586 662 1190 2220
2025-12-06 07:30 3.27 254 10000 (1974) 52 (1964) 628 76 96 138 149 314 586 662 1190 2220
2025-12-06 06:30 3.28 258 10000 (1974) 52 (1964) 628 76 96 138 149 314 586 662 1190 2220
2025-12-06 05:30 3.28 258 10000 (1974) 52 (1964) 628 76 96 138 149 314 586 662 1190 2220
2025-12-06 04:30 3.28 258 10000 (1974) 52 (1964) 628 76 96 138 149 314 586 662 1190 2220
2025-12-06 03:30 3.28 258 10000 (1974) 52 (1964) 628 76 96 138 149 314 586 662 1190 2220
2025-12-06 02:30 3.28 258 10000 (1974) 52 (1964) 628 76 96 138 149 314 586 662 1190 2220
2025-12-06 01:30 3.28 258 10000 (1974) 52 (1964) 628 76 96 138 149 314 586 662 1190 2220
2025-12-06 00:30 3.28 258 10000 (1974) 52 (1964) 628 76 96 138 149 314 586 662 1190 2220
2025-12-05 23:30 3.28 258 10000 (1974) 52 (1964) 628 76 96 138 149 314 586 662 1190 2220
2025-12-05 22:30 3.28 258 16900 (1974) 52 (1964) 709 75 96 130 152 322 607 701 1130 2210
2025-12-05 21:30 3.29 261 16900 (1974) 52 (1964) 709 75 96 130 152 322 607 701 1130 2210
2025-12-05 20:30 3.29 261 16900 (1974) 52 (1964) 709 75 96 130 152 322 607 701 1130 2210
2025-12-05 19:30 3.29 261 16900 (1974) 52 (1964) 709 75 96 130 152 322 607 701 1130 2210
2025-12-05 18:30 3.29 261 16900 (1974) 52 (1964) 709 75 96 130 152 322 607 701 1130 2210
2025-12-05 17:30 3.29 261 16900 (1974) 52 (1964) 709 75 96 130 152 322 607 701 1130 2210
2025-12-05 16:30 3.29 261 16900 (1974) 52 (1964) 709 75 96 130 152 322 607 701 1130 2210
2025-12-05 15:30 3.29 261 16900 (1974) 52 (1964) 709 75 96 130 152 322 607 701 1130 2210
2025-12-05 14:30 3.29 261 16900 (1974) 52 (1964) 709 75 96 130 152 322 607 701 1130 2210
2025-12-05 13:30 3.29 261 16900 (1974) 52 (1964) 709 75 96 130 152 322 607 701 1130 2210
2025-12-05 12:30 3.28 258 16900 (1974) 52 (1964) 709 75 96 130 152 322 607 701 1130 2210
2025-12-05 11:30 3.28 258 16900 (1974) 52 (1964) 709 75 96 130 152 322 607 701 1130 2210
2025-12-05 10:30 3.28 258 16900 (1974) 52 (1964) 709 75 96 130 152 322 607 701 1130 2210
2025-12-05 09:30 3.28 258 16900 (1974) 52 (1964) 709 75 96 130 152 322 607 701 1130 2210
2025-12-05 08:30 3.27 254 16900 (1974) 52 (1964) 709 75 96 130 152 322 607 701 1130 2210
2025-12-05 07:30 3.28 258 16900 (1974) 52 (1964) 709 75 96 130 152 322 607 701 1130 2210
2025-12-05 06:30 3.28 258 16900 (1974) 52 (1964) 709 75 96 130 152 322 607 701 1130 2210
2025-12-05 05:30 3.29 261 16900 (1974) 52 (1964) 709 75 96 130 152 322 607 701 1130 2210
2025-12-05 04:30 3.30 265 16900 (1974) 52 (1964) 709 75 96 130 152 322 607 701 1130 2210
2025-12-05 03:30 3.31 268 16900 (1974) 52 (1964) 709 75 96 130 152 322 607 701 1130 2210
2025-12-05 02:30 3.31 268 16900 (1974) 52 (1964) 709 75 96 130 152 322 607 701 1130 2210
2025-12-05 01:30 3.31 268 16900 (1974) 52 (1964) 709 75 96 130 152 322 607 701 1130 2210
2025-12-05 00:30 3.31 268 16900 (1974) 52 (1964) 709 75 96 130 152 322 607 701 1130 2210
2025-12-04 23:30 3.32 272 16900 (1974) 52 (1964) 709 75 96 130 152 322 607 701 1130 2210
2025-12-04 22:30 3.32 272 14300 (1974) 52 (1964) 787 76 97 119 143 322 647 696 1290 2400
2025-12-04 21:30 3.32 272 14300 (1974) 52 (1964) 787 76 97 119 143 322 647 696 1290 2400
2025-12-04 20:30 3.32 272 14300 (1974) 52 (1964) 787 76 97 119 143 322 647 696 1290 2400
2025-12-04 19:30 3.32 272 14300 (1974) 52 (1964) 787 76 97 119 143 322 647 696 1290 2400
2025-12-04 18:30 3.33 276 14300 (1974) 52 (1964) 787 76 97 119 143 322 647 696 1290 2400
2025-12-04 17:30 3.33 276 14300 (1974) 52 (1964) 787 76 97 119 143 322 647 696 1290 2400
2025-12-04 16:30 3.33 276 14300 (1974) 52 (1964) 787 76 97 119 143 322 647 696 1290 2400
2025-12-04 15:30 3.33 276 14300 (1974) 52 (1964) 787 76 97 119 143 322 647 696 1290 2400
2025-12-04 14:30 3.33 276 14300 (1974) 52 (1964) 787 76 97 119 143 322 647 696 1290 2400
2025-12-04 13:30 3.33 276 14300 (1974) 52 (1964) 787 76 97 119 143 322 647 696 1290 2400
2025-12-04 12:30 3.33 276 14300 (1974) 52 (1964) 787 76 97 119 143 322 647 696 1290 2400
2025-12-04 11:30 3.33 276 14300 (1974) 52 (1964) 787 76 97 119 143 322 647 696 1290 2400
2025-12-04 10:30 3.33 276 14300 (1974) 52 (1964) 787 76 97 119 143 322 647 696 1290 2400
2025-12-04 09:30 3.33 276 14300 (1974) 52 (1964) 787 76 97 119 143 322 647 696 1290 2400
2025-12-04 08:30 3.33 276 14300 (1974) 52 (1964) 787 76 97 119 143 322 647 696 1290 2400
2025-12-04 07:30 3.33 276 14300 (1974) 52 (1964) 787 76 97 119 143 322 647 696 1290 2400
2025-12-04 06:30 3.34 279 14300 (1974) 52 (1964) 787 76 97 119 143 322 647 696 1290 2400
2025-12-04 05:30 3.34 279 14300 (1974) 52 (1964) 787 76 97 119 143 322 647 696 1290 2400
2025-12-04 04:30 3.34 279 14300 (1974) 52 (1964) 787 76 97 119 143 322 647 696 1290 2400
2025-12-04 03:30 3.34 279 14300 (1974) 52 (1964) 787 76 97 119 143 322 647 696 1290 2400
2025-12-04 02:30 3.34 279 14300 (1974) 52 (1964) 787 76 97 119 143 322 647 696 1290 2400
2025-12-04 01:30 3.34 279 14300 (1974) 52 (1964) 787 76 97 119 143 322 647 696 1290 2400
2025-12-04 00:30 3.34 279 14300 (1974) 52 (1964) 787 76 97 119 143 322 647 696 1290 2400
2025-12-03 23:30 3.34 279 14300 (1974) 52 (1964) 787 76 97 119 143 322 647 696 1290 2400
2025-12-03 22:30 3.35 283 12200 (1983) 51 (1964) 671 75 95 116 142 351 643 766 1420 2480
2025-12-03 21:30 3.34 279 12200 (1983) 51 (1964) 671 75 95 116 142 351 643 766 1420 2480
2025-12-03 20:30 3.35 283 12200 (1983) 51 (1964) 671 75 95 116 142 351 643 766 1420 2480
2025-12-03 19:30 3.35 283 12200 (1983) 51 (1964) 671 75 95 116 142 351 643 766 1420 2480
2025-12-03 18:30 3.35 283 12200 (1983) 51 (1964) 671 75 95 116 142 351 643 766 1420 2480
2025-12-03 17:30 3.35 283 12200 (1983) 51 (1964) 671 75 95 116 142 351 643 766 1420 2480
2025-12-03 16:30 3.35 283 12200 (1983) 51 (1964) 671 75 95 116 142 351 643 766 1420 2480
2025-12-03 15:30 3.35 283 12200 (1983) 51 (1964) 671 75 95 116 142 351 643 766 1420 2480
2025-12-03 14:30 3.35 283 12200 (1983) 51 (1964) 671 75 95 116 142 351 643 766 1420 2480
2025-12-03 13:30 3.35 283 12200 (1983) 51 (1964) 671 75 95 116 142 351 643 766 1420 2480
2025-12-03 12:30 3.35 283 12200 (1983) 51 (1964) 671 75 95 116 142 351 643 766 1420 2480
2025-12-03 11:30 3.35 283 12200 (1983) 51 (1964) 671 75 95 116 142 351 643 766 1420 2480
2025-12-03 10:30 3.35 283 12200 (1983) 51 (1964) 671 75 95 116 142 351 643 766 1420 2480
2025-12-03 09:30 3.35 283 12200 (1983) 51 (1964) 671 75 95 116 142 351 643 766 1420 2480
2025-12-03 08:30 3.35 283 12200 (1983) 51 (1964) 671 75 95 116 142 351 643 766 1420 2480
2025-12-03 07:30 3.35 283 12200 (1983) 51 (1964) 671 75 95 116 142 351 643 766 1420 2480
2025-12-03 06:30 3.35 283 12200 (1983) 51 (1964) 671 75 95 116 142 351 643 766 1420 2480
2025-12-03 05:30 3.36 286 12200 (1983) 51 (1964) 671 75 95 116 142 351 643 766 1420 2480
2025-12-03 04:30 3.36 286 12200 (1983) 51 (1964) 671 75 95 116 142 351 643 766 1420 2480
2025-12-03 03:30 3.36 286 12200 (1983) 51 (1964) 671 75 95 116 142 351 643 766 1420 2480
2025-12-03 02:30 3.36 286 12200 (1983) 51 (1964) 671 75 95 116 142 351 643 766 1420 2480
2025-12-03 01:30 3.36 286 12200 (1983) 51 (1964) 671 75 95 116 142 351 643 766 1420 2480
2025-12-03 00:30 3.36 286 12200 (1983) 51 (1964) 671 75 95 116 142 351 643 766 1420 2480
2025-12-02 23:30 3.36 286 12200 (1983) 51 (1964) 671 75 95 116 142 351 643 766 1420 2480
2025-12-02 22:30 3.37 290 6900 (1986) 51 (1964) 619 73 94 119 132 353 665 807 1310 2090
2025-12-02 21:30 3.37 290 6900 (1986) 51 (1964) 619 73 94 119 132 353 665 807 1310 2090
2025-12-02 20:30 3.37 290 6900 (1986) 51 (1964) 619 73 94 119 132 353 665 807 1310 2090
2025-12-02 19:30 3.37 290 6900 (1986) 51 (1964) 619 73 94 119 132 353 665 807 1310 2090
2025-12-02 18:30 3.37 290 6900 (1986) 51 (1964) 619 73 94 119 132 353 665 807 1310 2090
2025-12-02 17:30 3.37 290 6900 (1986) 51 (1964) 619 73 94 119 132 353 665 807 1310 2090
2025-12-02 16:30 3.38 294 6900 (1986) 51 (1964) 619 73 94 119 132 353 665 807 1310 2090
2025-12-02 15:30 3.38 294 6900 (1986) 51 (1964) 619 73 94 119 132 353 665 807 1310 2090
2025-12-02 14:30 3.38 294 6900 (1986) 51 (1964) 619 73 94 119 132 353 665 807 1310 2090
2025-12-02 13:30 3.38 294 6900 (1986) 51 (1964) 619 73 94 119 132 353 665 807 1310 2090
2025-12-02 12:30 3.38 294 6900 (1986) 51 (1964) 619 73 94 119 132 353 665 807 1310 2090
2025-12-02 11:30 3.38 294 6900 (1986) 51 (1964) 619 73 94 119 132 353 665 807 1310 2090
2025-12-02 10:30 3.38 294 6900 (1986) 51 (1964) 619 73 94 119 132 353 665 807 1310 2090
2025-12-02 09:30 3.38 294 6900 (1986) 51 (1964) 619 73 94 119 132 353 665 807 1310 2090
2025-12-02 08:30 3.38 294 6900 (1986) 51 (1964) 619 73 94 119 132 353 665 807 1310 2090
2025-12-02 07:30 3.38 294 6900 (1986) 51 (1964) 619 73 94 119 132 353 665 807 1310 2090
2025-12-02 06:30 3.38 294 6900 (1986) 51 (1964) 619 73 94 119 132 353 665 807 1310 2090
2025-12-02 05:30 3.38 294 6900 (1986) 51 (1964) 619 73 94 119 132 353 665 807 1310 2090
2025-12-02 04:30 3.38 294 6900 (1986) 51 (1964) 619 73 94 119 132 353 665 807 1310 2090
2025-12-02 03:30 3.38 294 6900 (1986) 51 (1964) 619 73 94 119 132 353 665 807 1310 2090
2025-12-02 02:30 3.38 294 6900 (1986) 51 (1964) 619 73 94 119 132 353 665 807 1310 2090
2025-12-02 01:30 3.39 298 6900 (1986) 51 (1964) 619 73 94 119 132 353 665 807 1310 2090
2025-12-02 00:30 3.39 298 6900 (1986) 51 (1964) 619 73 94 119 132 353 665 807 1310 2090
2025-12-01 23:30 3.39 298 6900 (1986) 51 (1964) 619 73 94 119 132 353 665 807 1310 2090
2025-12-01 22:30 3.39 298 9560 (1986) 53 (1964) 720 71 93 121 134 342 724 835 1810 2640
2025-12-01 21:30 3.40 301 9560 (1986) 53 (1964) 720 71 93 121 134 342 724 835 1810 2640
2025-12-01 20:30 3.40 301 9560 (1986) 53 (1964) 720 71 93 121 134 342 724 835 1810 2640
2025-12-01 19:30 3.40 301 9560 (1986) 53 (1964) 720 71 93 121 134 342 724 835 1810 2640
2025-12-01 18:30 3.40 301 9560 (1986) 53 (1964) 720 71 93 121 134 342 724 835 1810 2640
2025-12-01 17:30 3.40 301 9560 (1986) 53 (1964) 720 71 93 121 134 342 724 835 1810 2640
2025-12-01 16:30 3.40 301 9560 (1986) 53 (1964) 720 71 93 121 134 342 724 835 1810 2640
2025-12-01 15:30 3.40 301 9560 (1986) 53 (1964) 720 71 93 121 134 342 724 835 1810 2640
2025-12-01 14:30 3.41 305 9560 (1986) 53 (1964) 720 71 93 121 134 342 724 835 1810 2640
2025-12-01 13:30 3.41 305 9560 (1986) 53 (1964) 720 71 93 121 134 342 724 835 1810 2640
2025-12-01 12:30 3.41 305 9560 (1986) 53 (1964) 720 71 93 121 134 342 724 835 1810 2640
2025-12-01 11:30 3.41 305 9560 (1986) 53 (1964) 720 71 93 121 134 342 724 835 1810 2640
2025-12-01 10:30 3.42 309 9560 (1986) 53 (1964) 720 71 93 121 134 342 724 835 1810 2640
2025-12-01 09:30 3.41 305 9560 (1986) 53 (1964) 720 71 93 121 134 342 724 835 1810 2640
2025-12-01 08:30 3.42 309 9560 (1986) 53 (1964) 720 71 93 121 134 342 724 835 1810 2640
2025-12-01 07:30 3.42 309 9560 (1986) 53 (1964) 720 71 93 121 134 342 724 835 1810 2640
2025-12-01 06:30 3.42 309 9560 (1986) 53 (1964) 720 71 93 121 134 342 724 835 1810 2640
2025-12-01 05:30 3.42 309 9560 (1986) 53 (1964) 720 71 93 121 134 342 724 835 1810 2640
2025-12-01 04:30 3.42 309 9560 (1986) 53 (1964) 720 71 93 121 134 342 724 835 1810 2640
2025-12-01 03:30 3.43 313 9560 (1986) 53 (1964) 720 71 93 121 134 342 724 835 1810 2640
2025-12-01 02:30 3.43 313 9560 (1986) 53 (1964) 720 71 93 121 134 342 724 835 1810 2640
2025-12-01 01:30 3.43 313 9560 (1986) 53 (1964) 720 71 93 121 134 342 724 835 1810 2640
2025-12-01 00:30 3.43 313 9560 (1986) 53 (1964) 720 71 93 121 134 342 724 835 1810 2640
2025-11-30 23:30 3.43 313 9560 (1986) 53 (1964) 720 71 93 121 134 342 724 835 1810 2640
2025-11-30 22:30 3.43 313 5230 (1997) 53 (1964) 628 72 94 123 139 299 654 866 1580 2840
2025-11-30 21:30 3.43 313 5230 (1997) 53 (1964) 628 72 94 123 139 299 654 866 1580 2840
2025-11-30 20:30 3.44 317 5230 (1997) 53 (1964) 628 72 94 123 139 299 654 866 1580 2840
2025-11-30 19:30 3.44 317 5230 (1997) 53 (1964) 628 72 94 123 139 299 654 866 1580 2840
2025-11-30 18:30 3.44 317 5230 (1997) 53 (1964) 628 72 94 123 139 299 654 866 1580 2840
2025-11-30 17:30 3.44 317 5230 (1997) 53 (1964) 628 72 94 123 139 299 654 866 1580 2840
2025-11-30 16:30 3.44 317 5230 (1997) 53 (1964) 628 72 94 123 139 299 654 866 1580 2840
2025-11-30 15:30 3.44 317 5230 (1997) 53 (1964) 628 72 94 123 139 299 654 866 1580 2840
2025-11-30 14:30 3.45 321 5230 (1997) 53 (1964) 628 72 94 123 139 299 654 866 1580 2840
2025-11-30 13:30 3.44 317 5230 (1997) 53 (1964) 628 72 94 123 139 299 654 866 1580 2840
2025-11-30 12:30 3.45 321 5230 (1997) 53 (1964) 628 72 94 123 139 299 654 866 1580 2840
2025-11-30 11:30 3.44 317 5230 (1997) 53 (1964) 628 72 94 123 139 299 654 866 1580 2840
2025-11-30 10:30 3.45 321 5230 (1997) 53 (1964) 628 72 94 123 139 299 654 866 1580 2840
2025-11-30 09:30 3.45 321 5230 (1997) 53 (1964) 628 72 94 123 139 299 654 866 1580 2840
2025-11-30 08:30 3.45 321 5230 (1997) 53 (1964) 628 72 94 123 139 299 654 866 1580 2840
2025-11-30 07:30 3.45 321 5230 (1997) 53 (1964) 628 72 94 123 139 299 654 866 1580 2840
2025-11-30 06:30 3.45 321 5230 (1997) 53 (1964) 628 72 94 123 139 299 654 866 1580 2840
2025-11-30 05:30 3.45 321 5230 (1997) 53 (1964) 628 72 94 123 139 299 654 866 1580 2840
2025-11-30 04:30 3.45 321 5230 (1997) 53 (1964) 628 72 94 123 139 299 654 866 1580 2840
2025-11-30 03:30 3.45 321 5230 (1997) 53 (1964) 628 72 94 123 139 299 654 866 1580 2840
2025-11-30 02:30 3.45 321 5230 (1997) 53 (1964) 628 72 94 123 139 299 654 866 1580 2840
2025-11-30 01:30 3.45 321 5230 (1997) 53 (1964) 628 72 94 123 139 299 654 866 1580 2840
2025-11-30 00:30 3.45 321 5230 (1997) 53 (1964) 628 72 94 123 139 299 654 866 1580 2840
2025-11-29 23:30 3.46 325 5230 (1997) 53 (1964) 628 72 94 123 139 299 654 866 1580 2840
2025-11-29 22:30 3.46 325 4670 (1969) 56 (1964) 617 72 92 123 135 268 768 856 1400 2530
2025-11-29 21:30 3.46 325 4670 (1969) 56 (1964) 617 72 92 123 135 268 768 856 1400 2530
2025-11-29 20:30 3.46 325 4670 (1969) 56 (1964) 617 72 92 123 135 268 768 856 1400 2530
2025-11-29 19:30 3.46 325 4670 (1969) 56 (1964) 617 72 92 123 135 268 768 856 1400 2530
2025-11-29 18:30 3.46 325 4670 (1969) 56 (1964) 617 72 92 123 135 268 768 856 1400 2530
2025-11-29 17:30 3.46 325 4670 (1969) 56 (1964) 617 72 92 123 135 268 768 856 1400 2530
2025-11-29 16:30 3.45 321 4670 (1969) 56 (1964) 617 72 92 123 135 268 768 856 1400 2530
2025-11-29 15:30 3.46 325 4670 (1969) 56 (1964) 617 72 92 123 135 268 768 856 1400 2530
2025-11-29 14:30 3.47 329 4670 (1969) 56 (1964) 617 72 92 123 135 268 768 856 1400 2530
2025-11-29 13:30 3.47 329 4670 (1969) 56 (1964) 617 72 92 123 135 268 768 856 1400 2530
2025-11-29 12:30 3.47 329 4670 (1969) 56 (1964) 617 72 92 123 135 268 768 856 1400 2530
2025-11-29 11:30 3.47 329 4670 (1969) 56 (1964) 617 72 92 123 135 268 768 856 1400 2530
2025-11-29 10:30 3.47 329 4670 (1969) 56 (1964) 617 72 92 123 135 268 768 856 1400 2530
2025-11-29 09:30 3.47 329 4670 (1969) 56 (1964) 617 72 92 123 135 268 768 856 1400 2530
2025-11-29 08:30 3.47 329 4670 (1969) 56 (1964) 617 72 92 123 135 268 768 856 1400 2530
2025-11-29 07:30 3.48 333 4670 (1969) 56 (1964) 617 72 92 123 135 268 768 856 1400 2530
2025-11-29 06:30 3.48 333 4670 (1969) 56 (1964) 617 72 92 123 135 268 768 856 1400 2530
2025-11-29 05:30 3.48 333 4670 (1969) 56 (1964) 617 72 92 123 135 268 768 856 1400 2530
2025-11-29 04:30 3.48 333 4670 (1969) 56 (1964) 617 72 92 123 135 268 768 856 1400 2530
2025-11-29 03:30 3.48 333 4670 (1969) 56 (1964) 617 72 92 123 135 268 768 856 1400 2530
2025-11-29 02:30 3.48 333 4670 (1969) 56 (1964) 617 72 92 123 135 268 768 856 1400 2530
2025-11-29 01:30 3.48 333 4670 (1969) 56 (1964) 617 72 92 123 135 268 768 856 1400 2530
2025-11-29 00:30 3.48 333 4670 (1969) 56 (1964) 617 72 92 123 135 268 768 856 1400 2530
2025-11-28 23:30 3.47 329 4670 (1969) 56 (1964) 617 72 92 123 135 268 768 856 1400 2530
2025-11-28 22:30 3.47 329 5920 (2016) 57 (1964) 658 72 95 127 136 262 854 934 1550 2430
2025-11-28 21:30 3.48 333 5920 (2016) 57 (1964) 658 72 95 127 136 262 854 934 1550 2430
2025-11-28 20:30 3.48 333 5920 (2016) 57 (1964) 658 72 95 127 136 262 854 934 1550 2430
2025-11-28 19:30 3.48 333 5920 (2016) 57 (1964) 658 72 95 127 136 262 854 934 1550 2430
2025-11-28 18:30 3.48 333 5920 (2016) 57 (1964) 658 72 95 127 136 262 854 934 1550 2430
2025-11-28 17:30 3.48 333 5920 (2016) 57 (1964) 658 72 95 127 136 262 854 934 1550 2430
2025-11-28 16:30 3.49 337 5920 (2016) 57 (1964) 658 72 95 127 136 262 854 934 1550 2430
2025-11-28 15:30 3.49 337 5920 (2016) 57 (1964) 658 72 95 127 136 262 854 934 1550 2430
2025-11-28 14:30 3.49 337 5920 (2016) 57 (1964) 658 72 95 127 136 262 854 934 1550 2430
2025-11-28 13:30 3.49 337 5920 (2016) 57 (1964) 658 72 95 127 136 262 854 934 1550 2430
2025-11-28 12:30 3.49 337 5920 (2016) 57 (1964) 658 72 95 127 136 262 854 934 1550 2430
2025-11-28 11:30 3.49 337 5920 (2016) 57 (1964) 658 72 95 127 136 262 854 934 1550 2430
2025-11-28 10:30 3.49 337 5920 (2016) 57 (1964) 658 72 95 127 136 262 854 934 1550 2430
2025-11-28 09:30 3.49 337 5920 (2016) 57 (1964) 658 72 95 127 136 262 854 934 1550 2430
2025-11-28 08:30 3.50 341 5920 (2016) 57 (1964) 658 72 95 127 136 262 854 934 1550 2430
2025-11-28 07:30 3.50 341 5920 (2016) 57 (1964) 658 72 95 127 136 262 854 934 1550 2430
2025-11-28 06:30 3.50 341 5920 (2016) 57 (1964) 658 72 95 127 136 262 854 934 1550 2430
2025-11-28 05:30 3.50 341 5920 (2016) 57 (1964) 658 72 95 127 136 262 854 934 1550 2430
2025-11-28 04:30 3.50 341 5920 (2016) 57 (1964) 658 72 95 127 136 262 854 934 1550 2430
2025-11-28 03:30 3.50 341 5920 (2016) 57 (1964) 658 72 95 127 136 262 854 934 1550 2430
2025-11-28 02:30 3.51 345 5920 (2016) 57 (1964) 658 72 95 127 136 262 854 934 1550 2430
2025-11-28 01:30 3.51 345 5920 (2016) 57 (1964) 658 72 95 127 136 262 854 934 1550 2430
2025-11-28 00:30 3.51 345 5920 (2016) 57 (1964) 658 72 95 127 136 262 854 934 1550 2430
2025-11-27 23:30 3.52 349 5920 (2016) 57 (1964) 658 72 95 127 136 262 854 934 1550 2430
2025-11-27 22:30 3.52 349 7240 (1974) 61 (1954) 629 74 96 128 132 269 819 1000 1550 2160
2025-11-27 21:30 3.52 349 7240 (1974) 61 (1954) 629 74 96 128 132 269 819 1000 1550 2160
2025-11-27 20:30 3.52 349 7240 (1974) 61 (1954) 629 74 96 128 132 269 819 1000 1550 2160
2025-11-27 19:30 3.53 353 7240 (1974) 61 (1954) 629 74 96 128 132 269 819 1000 1550 2160
2025-11-27 18:30 3.53 353 7240 (1974) 61 (1954) 629 74 96 128 132 269 819 1000 1550 2160
2025-11-27 17:30 3.53 353 7240 (1974) 61 (1954) 629 74 96 128 132 269 819 1000 1550 2160
2025-11-27 16:30 3.54 357 7240 (1974) 61 (1954) 629 74 96 128 132 269 819 1000 1550 2160
2025-11-27 15:30 3.54 357 7240 (1974) 61 (1954) 629 74 96 128 132 269 819 1000 1550 2160
2025-11-27 14:30 3.54 357 7240 (1974) 61 (1954) 629 74 96 128 132 269 819 1000 1550 2160
2025-11-27 13:30 3.54 357 7240 (1974) 61 (1954) 629 74 96 128 132 269 819 1000 1550 2160
2025-11-27 12:30 3.54 357 7240 (1974) 61 (1954) 629 74 96 128 132 269 819 1000 1550 2160
2025-11-27 11:30 3.54 357 7240 (1974) 61 (1954) 629 74 96 128 132 269 819 1000 1550 2160
2025-11-27 10:30 3.54 357 7240 (1974) 61 (1954) 629 74 96 128 132 269 819 1000 1550 2160
2025-11-27 09:30 3.54 357 7240 (1974) 61 (1954) 629 74 96 128 132 269 819 1000 1550 2160
2025-11-27 07:30 361 7240 (1974) 61 (1954) 629 74 96 128 132 269 819 1000 1550 2160
2025-11-27 06:30 3.55 7240 (1974) 61 (1954) 629 74 96 128 132 269 819 1000 1550 2160
2025-11-27 05:30 3.55 361 7240 (1974) 61 (1954) 629 74 96 128 132 269 819 1000 1550 2160
2025-11-27 04:30 3.55 361 7240 (1974) 61 (1954) 629 74 96 128 132 269 819 1000 1550 2160
2025-11-27 03:30 3.56 366 7240 (1974) 61 (1954) 629 74 96 128 132 269 819 1000 1550 2160
2025-11-27 02:30 3.56 366 7240 (1974) 61 (1954) 629 74 96 128 132 269 819 1000 1550 2160
2025-11-27 01:30 3.56 366 7240 (1974) 61 (1954) 629 74 96 128 132 269 819 1000 1550 2160
2025-11-27 00:30 3.56 366 7240 (1974) 61 (1954) 629 74 96 128 132 269 819 1000 1550 2160
2025-11-26 23:30 3.57 370 7240 (1974) 61 (1954) 629 74 96 128 132 269 819 1000 1550 2160
2025-11-26 22:30 3.57 370 14200 (1974) 63 (1954) 723 69 79 129 133 273 664 918 1490 2940
2025-11-26 21:30 3.57 370 14200 (1974) 63 (1954) 723 69 79 129 133 273 664 918 1490 2940
2025-11-26 20:30 3.57 370 14200 (1974) 63 (1954) 723 69 79 129 133 273 664 918 1490 2940
2025-11-26 19:30 3.58 374 14200 (1974) 63 (1954) 723 69 79 129 133 273 664 918 1490 2940
2025-11-26 18:30 3.58 374 14200 (1974) 63 (1954) 723 69 79 129 133 273 664 918 1490 2940
2025-11-26 17:30 3.58 374 14200 (1974) 63 (1954) 723 69 79 129 133 273 664 918 1490 2940
2025-11-26 16:30 3.59 378 14200 (1974) 63 (1954) 723 69 79 129 133 273 664 918 1490 2940
2025-11-26 15:30 3.59 378 14200 (1974) 63 (1954) 723 69 79 129 133 273 664 918 1490 2940
2025-11-26 14:30 3.59 378 14200 (1974) 63 (1954) 723 69 79 129 133 273 664 918 1490 2940
2025-11-26 13:30 3.59 378 14200 (1974) 63 (1954) 723 69 79 129 133 273 664 918 1490 2940
2025-11-26 12:30 3.60 383 14200 (1974) 63 (1954) 723 69 79 129 133 273 664 918 1490 2940
2025-11-26 11:30 3.60 383 14200 (1974) 63 (1954) 723 69 79 129 133 273 664 918 1490 2940
2025-11-26 10:30 3.59 378 14200 (1974) 63 (1954) 723 69 79 129 133 273 664 918 1490 2940
2025-11-26 09:30 3.60 383 14200 (1974) 63 (1954) 723 69 79 129 133 273 664 918 1490 2940
2025-11-26 08:30 3.60 383 14200 (1974) 63 (1954) 723 69 79 129 133 273 664 918 1490 2940
2025-11-26 07:30 3.60 383 14200 (1974) 63 (1954) 723 69 79 129 133 273 664 918 1490 2940
2025-11-26 06:30 3.61 387 14200 (1974) 63 (1954) 723 69 79 129 133 273 664 918 1490 2940
2025-11-26 05:30 3.61 387 14200 (1974) 63 (1954) 723 69 79 129 133 273 664 918 1490 2940
2025-11-26 04:30 3.61 387 14200 (1974) 63 (1954) 723 69 79 129 133 273 664 918 1490 2940
2025-11-26 03:30 3.61 387 14200 (1974) 63 (1954) 723 69 79 129 133 273 664 918 1490 2940
2025-11-26 02:30 3.62 392 14200 (1974) 63 (1954) 723 69 79 129 133 273 664 918 1490 2940
2025-11-26 01:30 3.62 392 14200 (1974) 63 (1954) 723 69 79 129 133 273 664 918 1490 2940
2025-11-26 00:30 3.62 392 14200 (1974) 63 (1954) 723 69 79 129 133 273 664 918 1490 2940
2025-11-25 23:30 3.62 392 14200 (1974) 63 (1954) 723 69 79 129 133 273 664 918 1490 2940
2025-11-25 22:30 3.62 392 32000 (1974) 64 (1956) 923 69 92 130 136 259 640 849 1500 3050
2025-11-25 21:30 3.63 396 32000 (1974) 64 (1956) 923 69 92 130 136 259 640 849 1500 3050
2025-11-25 20:30 3.63 396 32000 (1974) 64 (1956) 923 69 92 130 136 259 640 849 1500 3050
2025-11-25 19:30 3.63 396 32000 (1974) 64 (1956) 923 69 92 130 136 259 640 849 1500 3050
2025-11-25 18:30 3.64 400 32000 (1974) 64 (1956) 923 69 92 130 136 259 640 849 1500 3050
2025-11-25 17:30 3.64 400 32000 (1974) 64 (1956) 923 69 92 130 136 259 640 849 1500 3050
2025-11-25 16:30 3.64 392 32000 (1974) 64 (1956) 923 69 92 130 136 259 640 849 1500 3050
2025-11-25 15:30 3.64 392 32000 (1974) 64 (1956) 923 69 92 130 136 259 640 849 1500 3050
2025-11-25 14:30 3.65 396 32000 (1974) 64 (1956) 923 69 92 130 136 259 640 849 1500 3050
2025-11-25 13:30 3.64 392 32000 (1974) 64 (1956) 923 69 92 130 136 259 640 849 1500 3050
2025-11-25 12:30 3.65 396 32000 (1974) 64 (1956) 923 69 92 130 136 259 640 849 1500 3050
2025-11-25 11:30 3.65 396 32000 (1974) 64 (1956) 923 69 92 130 136 259 640 849 1500 3050
2025-11-25 10:30 3.64 392 32000 (1974) 64 (1956) 923 69 92 130 136 259 640 849 1500 3050
2025-11-25 09:30 3.65 396 32000 (1974) 64 (1956) 923 69 92 130 136 259 640 849 1500 3050
2025-11-25 08:30 3.65 396 32000 (1974) 64 (1956) 923 69 92 130 136 259 640 849 1500 3050
2025-11-25 07:30 3.65 396 32000 (1974) 64 (1956) 923 69 92 130 136 259 640 849 1500 3050
2025-11-25 06:30 3.65 396 32000 (1974) 64 (1956) 923 69 92 130 136 259 640 849 1500 3050
2025-11-25 05:30 3.65 396 32000 (1974) 64 (1956) 923 69 92 130 136 259 640 849 1500 3050
2025-11-25 04:30 3.65 396 32000 (1974) 64 (1956) 923 69 92 130 136 259 640 849 1500 3050
2025-11-25 03:30 3.65 396 32000 (1974) 64 (1956) 923 69 92 130 136 259 640 849 1500 3050
2025-11-25 02:30 3.65 396 32000 (1974) 64 (1956) 923 69 92 130 136 259 640 849 1500 3050
2025-11-25 01:30 3.66 400 32000 (1974) 64 (1956) 923 69 92 130 136 259 640 849 1500 3050
2025-11-25 00:30 3.66 400 32000 (1974) 64 (1956) 923 69 92 130 136 259 640 849 1500 3050
2025-11-24 23:30 3.67 405 32000 (1974) 64 (1956) 923 69 92 130 136 259 640 849 1500 3050
2025-11-24 22:30 3.67 405 7450 (1974) 67 (1956) 619 70 94 126 136 253 635 842 1490 2390
2025-11-24 21:30 3.67 405 7450 (1974) 67 (1956) 619 70 94 126 136 253 635 842 1490 2390
2025-11-24 20:30 3.67 405 7450 (1974) 67 (1956) 619 70 94 126 136 253 635 842 1490 2390
2025-11-24 19:30 3.68 410 7450 (1974) 67 (1956) 619 70 94 126 136 253 635 842 1490 2390
2025-11-24 18:30 3.68 410 7450 (1974) 67 (1956) 619 70 94 126 136 253 635 842 1490 2390
2025-11-24 17:30 3.68 410 7450 (1974) 67 (1956) 619 70 94 126 136 253 635 842 1490 2390
2025-11-24 16:30 3.68 410 7450 (1974) 67 (1956) 619 70 94 126 136 253 635 842 1490 2390
2025-11-24 15:30 3.69 414 7450 (1974) 67 (1956) 619 70 94 126 136 253 635 842 1490 2390
2025-11-24 14:30 3.69 414 7450 (1974) 67 (1956) 619 70 94 126 136 253 635 842 1490 2390
2025-11-24 13:30 3.69 414 7450 (1974) 67 (1956) 619 70 94 126 136 253 635 842 1490 2390
2025-11-24 12:30 3.70 419 7450 (1974) 67 (1956) 619 70 94 126 136 253 635 842 1490 2390
2025-11-24 11:30 3.70 419 7450 (1974) 67 (1956) 619 70 94 126 136 253 635 842 1490 2390
2025-11-24 10:30 3.70 419 7450 (1974) 67 (1956) 619 70 94 126 136 253 635 842 1490 2390
2025-11-24 09:30 3.70 419 7450 (1974) 67 (1956) 619 70 94 126 136 253 635 842 1490 2390
2025-11-24 08:30 3.70 419 7450 (1974) 67 (1956) 619 70 94 126 136 253 635 842 1490 2390
2025-11-24 07:30 3.71 423 7450 (1974) 67 (1956) 619 70 94 126 136 253 635 842 1490 2390
2025-11-24 06:30 3.71 423 7450 (1974) 67 (1956) 619 70 94 126 136 253 635 842 1490 2390
2025-11-24 05:30 3.72 428 7450 (1974) 67 (1956) 619 70 94 126 136 253 635 842 1490 2390
2025-11-24 04:30 3.72 428 7450 (1974) 67 (1956) 619 70 94 126 136 253 635 842 1490 2390
2025-11-24 03:30 3.73 433 7450 (1974) 67 (1956) 619 70 94 126 136 253 635 842 1490 2390
2025-11-24 02:30 3.73 433 7450 (1974) 67 (1956) 619 70 94 126 136 253 635 842 1490 2390
2025-11-24 01:30 3.73 433 7450 (1974) 67 (1956) 619 70 94 126 136 253 635 842 1490 2390
2025-11-24 00:30 3.72 428 7450 (1974) 67 (1956) 619 70 94 126 136 253 635 842 1490 2390
2025-11-23 23:30 3.71 423 7450 (1974) 67 (1956) 619 70 94 126 136 253 635 842 1490 2390
2025-11-23 22:30 3.72 428 10800 (1993) 67 (1956) 633 74 88 129 138 260 696 952 1570 1850
2025-11-23 21:30 3.72 428 10800 (1993) 67 (1956) 633 74 88 129 138 260 696 952 1570 1850
2025-11-23 20:30 3.73 433 10800 (1993) 67 (1956) 633 74 88 129 138 260 696 952 1570 1850
2025-11-23 19:30 3.73 433 10800 (1993) 67 (1956) 633 74 88 129 138 260 696 952 1570 1850
2025-11-23 18:30 3.74 437 10800 (1993) 67 (1956) 633 74 88 129 138 260 696 952 1570 1850
2025-11-23 17:30 3.74 437 10800 (1993) 67 (1956) 633 74 88 129 138 260 696 952 1570 1850
2025-11-23 16:30 3.75 442 10800 (1993) 67 (1956) 633 74 88 129 138 260 696 952 1570 1850
2025-11-23 15:30 3.75 442 10800 (1993) 67 (1956) 633 74 88 129 138 260 696 952 1570 1850
2025-11-23 14:30 3.75 442 10800 (1993) 67 (1956) 633 74 88 129 138 260 696 952 1570 1850
2025-11-23 13:30 3.76 447 10800 (1993) 67 (1956) 633 74 88 129 138 260 696 952 1570 1850
2025-11-23 12:30 3.76 447 10800 (1993) 67 (1956) 633 74 88 129 138 260 696 952 1570 1850
2025-11-23 11:30 3.76 447 10800 (1993) 67 (1956) 633 74 88 129 138 260 696 952 1570 1850
2025-11-23 10:30 3.77 452 10800 (1993) 67 (1956) 633 74 88 129 138 260 696 952 1570 1850
2025-11-23 09:30 3.77 452 10800 (1993) 67 (1956) 633 74 88 129 138 260 696 952 1570 1850
2025-11-23 08:30 3.77 452 10800 (1993) 67 (1956) 633 74 88 129 138 260 696 952 1570 1850
2025-11-23 07:30 3.77 452 10800 (1993) 67 (1956) 633 74 88 129 138 260 696 952 1570 1850
2025-11-23 06:30 3.78 456 10800 (1993) 67 (1956) 633 74 88 129 138 260 696 952 1570 1850
2025-11-23 05:30 3.78 456 10800 (1993) 67 (1956) 633 74 88 129 138 260 696 952 1570 1850
2025-11-23 04:30 3.78 456 10800 (1993) 67 (1956) 633 74 88 129 138 260 696 952 1570 1850
2025-11-23 03:30 3.79 461 10800 (1993) 67 (1956) 633 74 88 129 138 260 696 952 1570 1850
2025-11-23 02:30 3.79 461 10800 (1993) 67 (1956) 633 74 88 129 138 260 696 952 1570 1850
2025-11-23 01:30 3.79 461 10800 (1993) 67 (1956) 633 74 88 129 138 260 696 952 1570 1850
2025-11-23 00:30 3.79 461 10800 (1993) 67 (1956) 633 74 88 129 138 260 696 952 1570 1850
2025-11-22 23:30 3.79 461 10800 (1993) 67 (1956) 633 74 88 129 138 260 696 952 1570 1850
2025-11-22 22:30 3.80 466 11400 (1993) 67 (1956) 655 77 89 116 135 266 685 1090 1600 2110
2025-11-22 21:30 3.80 466 11400 (1993) 67 (1956) 655 77 89 116 135 266 685 1090 1600 2110
2025-11-22 20:30 3.80 466 11400 (1993) 67 (1956) 655 77 89 116 135 266 685 1090 1600 2110
2025-11-22 19:30 3.80 466 11400 (1993) 67 (1956) 655 77 89 116 135 266 685 1090 1600 2110
2025-11-22 18:30 3.80 466 11400 (1993) 67 (1956) 655 77 89 116 135 266 685 1090 1600 2110
2025-11-22 17:30 3.80 466 11400 (1993) 67 (1956) 655 77 89 116 135 266 685 1090 1600 2110
2025-11-22 16:30 3.80 466 11400 (1993) 67 (1956) 655 77 89 116 135 266 685 1090 1600 2110
2025-11-22 15:30 3.79 461 11400 (1993) 67 (1956) 655 77 89 116 135 266 685 1090 1600 2110
2025-11-22 14:30 3.79 461 11400 (1993) 67 (1956) 655 77 89 116 135 266 685 1090 1600 2110
2025-11-22 13:30 3.79 461 11400 (1993) 67 (1956) 655 77 89 116 135 266 685 1090 1600 2110
2025-11-22 12:30 3.78 456 11400 (1993) 67 (1956) 655 77 89 116 135 266 685 1090 1600 2110
2025-11-22 11:30 3.78 456 11400 (1993) 67 (1956) 655 77 89 116 135 266 685 1090 1600 2110
2025-11-22 10:30 3.78 456 11400 (1993) 67 (1956) 655 77 89 116 135 266 685 1090 1600 2110
2025-11-22 09:30 3.77 452 11400 (1993) 67 (1956) 655 77 89 116 135 266 685 1090 1600 2110
2025-11-22 08:30 3.77 452 11400 (1993) 67 (1956) 655 77 89 116 135 266 685 1090 1600 2110
2025-11-22 07:30 3.76 447 11400 (1993) 67 (1956) 655 77 89 116 135 266 685 1090 1600 2110
2025-11-22 06:30 3.76 447 11400 (1993) 67 (1956) 655 77 89 116 135 266 685 1090 1600 2110
2025-11-22 05:30 3.75 442 11400 (1993) 67 (1956) 655 77 89 116 135 266 685 1090 1600 2110
2025-11-22 04:30 3.75 442 11400 (1993) 67 (1956) 655 77 89 116 135 266 685 1090 1600 2110
2025-11-22 03:30 3.74 437 11400 (1993) 67 (1956) 655 77 89 116 135 266 685 1090 1600 2110
2025-11-22 02:30 3.74 437 11400 (1993) 67 (1956) 655 77 89 116 135 266 685 1090 1600 2110
2025-11-22 01:30 3.73 433 11400 (1993) 67 (1956) 655 77 89 116 135 266 685 1090 1600 2110
2025-11-22 00:30 3.72 428 11400 (1993) 67 (1956) 655 77 89 116 135 266 685 1090 1600 2110
2025-11-21 23:30 3.71 423 11400 (1993) 67 (1956) 655 77 89 116 135 266 685 1090 1600 2110
2025-11-21 22:30 3.70 419 6120 (1986) 62 (1964) 596 77 91 122 140 265 639 993 1410 1980
2025-11-21 21:30 3.69 414 6120 (1986) 62 (1964) 596 77 91 122 140 265 639 993 1410 1980
2025-11-21 20:30 3.67 405 6120 (1986) 62 (1964) 596 77 91 122 140 265 639 993 1410 1980
2025-11-21 19:30 3.66 400 6120 (1986) 62 (1964) 596 77 91 122 140 265 639 993 1410 1980
2025-11-21 18:30 3.64 392 6120 (1986) 62 (1964) 596 77 91 122 140 265 639 993 1410 1980
2025-11-21 17:30 3.63 387 6120 (1986) 62 (1964) 596 77 91 122 140 265 639 993 1410 1980
2025-11-21 16:30 3.61 378 6120 (1986) 62 (1964) 596 77 91 122 140 265 639 993 1410 1980
2025-11-21 15:30 3.60 374 6120 (1986) 62 (1964) 596 77 91 122 140 265 639 993 1410 1980
2025-11-21 14:30 3.58 366 6120 (1986) 62 (1964) 596 77 91 122 140 265 639 993 1410 1980
2025-11-21 13:30 3.54 349 6120 (1986) 62 (1964) 596 77 91 122 140 265 639 993 1410 1980
2025-11-21 12:30 3.52 341 6120 (1986) 62 (1964) 596 77 91 122 140 265 639 993 1410 1980
2025-11-21 11:30 3.49 329 6120 (1986) 62 (1964) 596 77 91 122 140 265 639 993 1410 1980
2025-11-21 10:30 3.46 317 6120 (1986) 62 (1964) 596 77 91 122 140 265 639 993 1410 1980
2025-11-21 09:30 3.44 309 6120 (1986) 62 (1964) 596 77 91 122 140 265 639 993 1410 1980
2025-11-21 08:30 3.42 301 6120 (1986) 62 (1964) 596 77 91 122 140 265 639 993 1410 1980
2025-11-21 07:30 3.40 294 6120 (1986) 62 (1964) 596 77 91 122 140 265 639 993 1410 1980
2025-11-21 06:30 3.39 290 6120 (1986) 62 (1964) 596 77 91 122 140 265 639 993 1410 1980
2025-11-21 05:30 3.38 286 6120 (1986) 62 (1964) 596 77 91 122 140 265 639 993 1410 1980
2025-11-21 04:30 3.36 279 6120 (1986) 62 (1964) 596 77 91 122 140 265 639 993 1410 1980
2025-11-21 03:30 3.35 276 6120 (1986) 62 (1964) 596 77 91 122 140 265 639 993 1410 1980
2025-11-21 02:30 3.33 268 6120 (1986) 62 (1964) 596 77 91 122 140 265 639 993 1410 1980
2025-11-21 01:30 3.32 265 6120 (1986) 62 (1964) 596 77 91 122 140 265 639 993 1410 1980
2025-11-21 00:30 3.31 261 6120 (1986) 62 (1964) 596 77 91 122 140 265 639 993 1410 1980
2025-11-20 23:30 3.29 254 6120 (1986) 62 (1964) 596 77 91 122 140 265 639 993 1410 1980
2025-11-20 22:30 3.28 251 12300 (1986) 58 (1964) 612 76 89 109 141 258 649 759 1400 2010
2025-11-20 21:30 3.26 244 12300 (1986) 58 (1964) 612 76 89 109 141 258 649 759 1400 2010
2025-11-20 20:30 3.25 241 12300 (1986) 58 (1964) 612 76 89 109 141 258 649 759 1400 2010
2025-11-20 19:30 3.24 238 12300 (1986) 58 (1964) 612 76 89 109 141 258 649 759 1400 2010
2025-11-20 18:30 3.23 234 12300 (1986) 58 (1964) 612 76 89 109 141 258 649 759 1400 2010
2025-11-20 17:30 3.22 231 12300 (1986) 58 (1964) 612 76 89 109 141 258 649 759 1400 2010
2025-11-20 16:30 3.21 228 12300 (1986) 58 (1964) 612 76 89 109 141 258 649 759 1400 2010
2025-11-20 15:30 3.20 225 12300 (1986) 58 (1964) 612 76 89 109 141 258 649 759 1400 2010
2025-11-20 14:30 3.20 225 12300 (1986) 58 (1964) 612 76 89 109 141 258 649 759 1400 2010
2025-11-20 13:30 3.19 221 12300 (1986) 58 (1964) 612 76 89 109 141 258 649 759 1400 2010
2025-11-20 12:30 3.18 218 12300 (1986) 58 (1964) 612 76 89 109 141 258 649 759 1400 2010
2025-11-20 11:30 3.18 218 12300 (1986) 58 (1964) 612 76 89 109 141 258 649 759 1400 2010
2025-11-20 10:30 3.17 215 12300 (1986) 58 (1964) 612 76 89 109 141 258 649 759 1400 2010
2025-11-20 09:30 3.17 215 12300 (1986) 58 (1964) 612 76 89 109 141 258 649 759 1400 2010
2025-11-20 08:30 3.16 212 12300 (1986) 58 (1964) 612 76 89 109 141 258 649 759 1400 2010
2025-11-20 07:30 3.14 206 12300 (1986) 58 (1964) 612 76 89 109 141 258 649 759 1400 2010
2025-11-20 06:30 3.12 200 12300 (1986) 58 (1964) 612 76 89 109 141 258 649 759 1400 2010
2025-11-20 05:30 3.11 197 12300 (1986) 58 (1964) 612 76 89 109 141 258 649 759 1400 2010
2025-11-20 04:30 3.13 203 12300 (1986) 58 (1964) 612 76 89 109 141 258 649 759 1400 2010
2025-11-20 03:30 3.08 188 12300 (1986) 58 (1964) 612 76 89 109 141 258 649 759 1400 2010
2025-11-20 02:30 3.07 185 12300 (1986) 58 (1964) 612 76 89 109 141 258 649 759 1400 2010
2025-11-20 01:30 3.07 185 12300 (1986) 58 (1964) 612 76 89 109 141 258 649 759 1400 2010
2025-11-20 00:30 3.06 183 12300 (1986) 58 (1964) 612 76 89 109 141 258 649 759 1400 2010
2025-11-19 23:30 3.06 183 12300 (1986) 58 (1964) 612 76 89 109 141 258 649 759 1400 2010
2025-11-19 22:30 3.06 183 23700 (1986) 51 (1964) 767 73 87 108 139 253 558 752 1710 2070
2025-11-19 21:30 3.06 183 23700 (1986) 51 (1964) 767 73 87 108 139 253 558 752 1710 2070
2025-11-19 20:30 3.06 183 23700 (1986) 51 (1964) 767 73 87 108 139 253 558 752 1710 2070
2025-11-19 19:30 3.06 183 23700 (1986) 51 (1964) 767 73 87 108 139 253 558 752 1710 2070
2025-11-19 18:30 3.06 183 23700 (1986) 51 (1964) 767 73 87 108 139 253 558 752 1710 2070
2025-11-19 17:30 3.06 183 23700 (1986) 51 (1964) 767 73 87 108 139 253 558 752 1710 2070
2025-11-19 16:30 3.06 183 23700 (1986) 51 (1964) 767 73 87 108 139 253 558 752 1710 2070
2025-11-19 15:30 3.06 183 23700 (1986) 51 (1964) 767 73 87 108 139 253 558 752 1710 2070
2025-11-19 14:30 3.07 185 23700 (1986) 51 (1964) 767 73 87 108 139 253 558 752 1710 2070
2025-11-19 13:30 3.07 185 23700 (1986) 51 (1964) 767 73 87 108 139 253 558 752 1710 2070
2025-11-19 12:30 3.07 185 23700 (1986) 51 (1964) 767 73 87 108 139 253 558 752 1710 2070
2025-11-19 11:30 3.07 185 23700 (1986) 51 (1964) 767 73 87 108 139 253 558 752 1710 2070
2025-11-19 10:30 3.07 185 23700 (1986) 51 (1964) 767 73 87 108 139 253 558 752 1710 2070
2025-11-19 09:30 3.07 185 23700 (1986) 51 (1964) 767 73 87 108 139 253 558 752 1710 2070
2025-11-19 08:30 3.07 185 23700 (1986) 51 (1964) 767 73 87 108 139 253 558 752 1710 2070
2025-11-19 07:30 3.08 188 23700 (1986) 51 (1964) 767 73 87 108 139 253 558 752 1710 2070
2025-11-19 06:30 3.08 188 23700 (1986) 51 (1964) 767 73 87 108 139 253 558 752 1710 2070
2025-11-19 05:30 3.08 188 23700 (1986) 51 (1964) 767 73 87 108 139 253 558 752 1710 2070
2025-11-19 04:30 3.09 191 23700 (1986) 51 (1964) 767 73 87 108 139 253 558 752 1710 2070
2025-11-19 03:30 3.09 191 23700 (1986) 51 (1964) 767 73 87 108 139 253 558 752 1710 2070
2025-11-19 02:30 3.09 191 23700 (1986) 51 (1964) 767 73 87 108 139 253 558 752 1710 2070
2025-11-19 01:30 3.10 194 23700 (1986) 51 (1964) 767 73 87 108 139 253 558 752 1710 2070
2025-11-19 00:30 3.10 194 23700 (1986) 51 (1964) 767 73 87 108 139 253 558 752 1710 2070
2025-11-18 23:30 3.10 194 23700 (1986) 51 (1964) 767 73 87 108 139 253 558 752 1710 2070
2025-11-18 22:30 3.11 197 9810 (1986) 46 (1964) 682 77 90 112 134 235 601 783 1700 3330
2025-11-18 21:30 3.11 197 9810 (1986) 46 (1964) 682 77 90 112 134 235 601 783 1700 3330
2025-11-18 20:30 3.12 200 9810 (1986) 46 (1964) 682 77 90 112 134 235 601 783 1700 3330
2025-11-18 19:30 3.12 200 9810 (1986) 46 (1964) 682 77 90 112 134 235 601 783 1700 3330
2025-11-18 18:30 3.12 200 9810 (1986) 46 (1964) 682 77 90 112 134 235 601 783 1700 3330
2025-11-18 17:30 3.13 203 9810 (1986) 46 (1964) 682 77 90 112 134 235 601 783 1700 3330
2025-11-18 16:30 3.13 203 9810 (1986) 46 (1964) 682 77 90 112 134 235 601 783 1700 3330
2025-11-18 15:30 3.13 203 9810 (1986) 46 (1964) 682 77 90 112 134 235 601 783 1700 3330
2025-11-18 14:30 3.14 206 9810 (1986) 46 (1964) 682 77 90 112 134 235 601 783 1700 3330
2025-11-18 13:30 3.14 206 9810 (1986) 46 (1964) 682 77 90 112 134 235 601 783 1700 3330
2025-11-18 12:30 3.14 206 9810 (1986) 46 (1964) 682 77 90 112 134 235 601 783 1700 3330
2025-11-18 11:30 3.15 209 9810 (1986) 46 (1964) 682 77 90 112 134 235 601 783 1700 3330
2025-11-18 10:30 3.15 209 9810 (1986) 46 (1964) 682 77 90 112 134 235 601 783 1700 3330
2025-11-18 09:30 3.15 209 9810 (1986) 46 (1964) 682 77 90 112 134 235 601 783 1700 3330
2025-11-18 08:30 3.14 206 9810 (1986) 46 (1964) 682 77 90 112 134 235 601 783 1700 3330
2025-11-18 07:30 3.14 206 9810 (1986) 46 (1964) 682 77 90 112 134 235 601 783 1700 3330
2025-11-18 06:30 3.14 206 9810 (1986) 46 (1964) 682 77 90 112 134 235 601 783 1700 3330
2025-11-18 05:30 3.14 206 9810 (1986) 46 (1964) 682 77 90 112 134 235 601 783 1700 3330
2025-11-18 04:30 3.14 206 9810 (1986) 46 (1964) 682 77 90 112 134 235 601 783 1700 3330
2025-11-18 03:30 3.15 209 9810 (1986) 46 (1964) 682 77 90 112 134 235 601 783 1700 3330
2025-11-18 02:30 3.15 209 9810 (1986) 46 (1964) 682 77 90 112 134 235 601 783 1700 3330
2025-11-18 01:30 3.15 209 9810 (1986) 46 (1964) 682 77 90 112 134 235 601 783 1700 3330
2025-11-18 00:30 3.15 209 9810 (1986) 46 (1964) 682 77 90 112 134 235 601 783 1700 3330
2025-11-17 23:30 3.14 206 9810 (1986) 46 (1964) 682 77 90 112 134 235 601 783 1700 3330
2025-11-17 22:30 3.14 206 5560 (1994) 46 (1964) 597 73 91 109 128 234 525 736 1220 3510
2025-11-17 21:30 3.14 206 5560 (1994) 46 (1964) 597 73 91 109 128 234 525 736 1220 3510
2025-11-17 20:30 3.14 206 5560 (1994) 46 (1964) 597 73 91 109 128 234 525 736 1220 3510
2025-11-17 19:30 3.14 206 5560 (1994) 46 (1964) 597 73 91 109 128 234 525 736 1220 3510
2025-11-17 18:30 3.14 206 5560 (1994) 46 (1964) 597 73 91 109 128 234 525 736 1220 3510
2025-11-17 17:30 3.14 206 5560 (1994) 46 (1964) 597 73 91 109 128 234 525 736 1220 3510
2025-11-17 16:30 3.15 209 5560 (1994) 46 (1964) 597 73 91 109 128 234 525 736 1220 3510
2025-11-17 15:30 3.15 209 5560 (1994) 46 (1964) 597 73 91 109 128 234 525 736 1220 3510
2025-11-17 14:30 3.15 209 5560 (1994) 46 (1964) 597 73 91 109 128 234 525 736 1220 3510
2025-11-17 13:30 3.15 209 5560 (1994) 46 (1964) 597 73 91 109 128 234 525 736 1220 3510
2025-11-17 12:30 3.15 209 5560 (1994) 46 (1964) 597 73 91 109 128 234 525 736 1220 3510
2025-11-17 11:30 3.15 209 5560 (1994) 46 (1964) 597 73 91 109 128 234 525 736 1220 3510
2025-11-17 10:30 3.15 209 5560 (1994) 46 (1964) 597 73 91 109 128 234 525 736 1220 3510
2025-11-17 09:30 3.15 209 5560 (1994) 46 (1964) 597 73 91 109 128 234 525 736 1220 3510
2025-11-17 08:30 3.15 209 5560 (1994) 46 (1964) 597 73 91 109 128 234 525 736 1220 3510
2025-11-17 07:30 3.15 209 5560 (1994) 46 (1964) 597 73 91 109 128 234 525 736 1220 3510
2025-11-17 06:30 3.15 209 5560 (1994) 46 (1964) 597 73 91 109 128 234 525 736 1220 3510
2025-11-17 05:30 3.15 209 5560 (1994) 46 (1964) 597 73 91 109 128 234 525 736 1220 3510
2025-11-17 04:30 3.15 209 5560 (1994) 46 (1964) 597 73 91 109 128 234 525 736 1220 3510
2025-11-17 03:30 3.15 209 5560 (1994) 46 (1964) 597 73 91 109 128 234 525 736 1220 3510
2025-11-17 02:30 3.15 209 5560 (1994) 46 (1964) 597 73 91 109 128 234 525 736 1220 3510
2025-11-17 01:30 3.15 209 5560 (1994) 46 (1964) 597 73 91 109 128 234 525 736 1220 3510
2025-11-17 00:30 3.15 209 5560 (1994) 46 (1964) 597 73 91 109 128 234 525 736 1220 3510
2025-11-16 23:30 3.15 209 5560 (1994) 46 (1964) 597 73 91 109 128 234 525 736 1220 3510
2025-11-16 22:30 3.15 209 8450 (1986) 47 (1964) 599 69 85 113 127 230 437 685 1180 2710
2025-11-16 21:30 3.16 212 8450 (1986) 47 (1964) 599 69 85 113 127 230 437 685 1180 2710
2025-11-16 20:30 3.16 212 8450 (1986) 47 (1964) 599 69 85 113 127 230 437 685 1180 2710
2025-11-16 19:30 3.16 212 8450 (1986) 47 (1964) 599 69 85 113 127 230 437 685 1180 2710
2025-11-16 18:30 3.16 212 8450 (1986) 47 (1964) 599 69 85 113 127 230 437 685 1180 2710
2025-11-16 17:30 3.16 212 8450 (1986) 47 (1964) 599 69 85 113 127 230 437 685 1180 2710
2025-11-16 16:30 3.17 215 8450 (1986) 47 (1964) 599 69 85 113 127 230 437 685 1180 2710
2025-11-16 15:30 3.17 215 8450 (1986) 47 (1964) 599 69 85 113 127 230 437 685 1180 2710
2025-11-16 14:30 3.16 212 8450 (1986) 47 (1964) 599 69 85 113 127 230 437 685 1180 2710
2025-11-16 13:30 3.17 215 8450 (1986) 47 (1964) 599 69 85 113 127 230 437 685 1180 2710
2025-11-16 12:30 3.16 212 8450 (1986) 47 (1964) 599 69 85 113 127 230 437 685 1180 2710
2025-11-16 11:30 3.17 215 8450 (1986) 47 (1964) 599 69 85 113 127 230 437 685 1180 2710
2025-11-16 10:30 3.16 212 8450 (1986) 47 (1964) 599 69 85 113 127 230 437 685 1180 2710
2025-11-16 09:30 1.09 8450 (1986) 47 (1964) 599 69 85 113 127 230 437 685 1180 2710
2025-11-16 05:30 1.00 8450 (1986) 47 (1964) 599 69 85 113 127 230 437 685 1180 2710
2025-11-16 04:30 1.09 8450 (1986) 47 (1964) 599 69 85 113 127 230 437 685 1180 2710
2025-11-16 03:30 1.19 8450 (1986) 47 (1964) 599 69 85 113 127 230 437 685 1180 2710
2025-11-16 02:30 1.31 8450 (1986) 47 (1964) 599 69 85 113 127 230 437 685 1180 2710
2025-11-16 01:30 1.43 8450 (1986) 47 (1964) 599 69 85 113 127 230 437 685 1180 2710
2025-11-16 00:45 8450 (1986) 47 (1964) 599 69 85 113 127 230 437 685 1180 2710
2025-11-16 00:30 1.63 8450 (1986) 47 (1964) 599 69 85 113 127 230 437 685 1180 2710
2025-11-15 23:30 1.69 1 8450 (1986) 47 (1964) 599 69 85 113 127 230 437 685 1180 2710
2025-11-15 22:30 1.84 5 10200 (1994) 45 (1964) 608 66 79 110 118 213 470 597 1160 1930
2025-11-15 21:30 1.99 11 10200 (1994) 45 (1964) 608 66 79 110 118 213 470 597 1160 1930
2025-11-15 20:30 2.17 24 10200 (1994) 45 (1964) 608 66 79 110 118 213 470 597 1160 1930
2025-11-15 19:30 2.37 45 10200 (1994) 45 (1964) 608 66 79 110 118 213 470 597 1160 1930
2025-11-15 18:30 2.59 77 10200 (1994) 45 (1964) 608 66 79 110 118 213 470 597 1160 1930
2025-11-15 17:30 2.81 120 10200 (1994) 45 (1964) 608 66 79 110 118 213 470 597 1160 1930
2025-11-15 16:30 3.09 191 10200 (1994) 45 (1964) 608 66 79 110 118 213 470 597 1160 1930
2025-11-15 15:30 3.16 212 10200 (1994) 45 (1964) 608 66 79 110 118 213 470 597 1160 1930
2025-11-15 14:30 3.14 206 10200 (1994) 45 (1964) 608 66 79 110 118 213 470 597 1160 1930
2025-11-15 13:30 3.16 212 10200 (1994) 45 (1964) 608 66 79 110 118 213 470 597 1160 1930
2025-11-15 12:30 3.17 215 10200 (1994) 45 (1964) 608 66 79 110 118 213 470 597 1160 1930
2025-11-15 11:30 2.93 148 10200 (1994) 45 (1964) 608 66 79 110 118 213 470 597 1160 1930
2025-11-15 10:30 2.67 91 10200 (1994) 45 (1964) 608 66 79 110 118 213 470 597 1160 1930
2025-11-15 09:30 2.43 52 10200 (1994) 45 (1964) 608 66 79 110 118 213 470 597 1160 1930
2025-11-15 08:30 2.22 28 10200 (1994) 45 (1964) 608 66 79 110 118 213 470 597 1160 1930
2025-11-15 07:30 2.15 22 10200 (1994) 45 (1964) 608 66 79 110 118 213 470 597 1160 1930
2025-11-15 06:30 2.16 23 10200 (1994) 45 (1964) 608 66 79 110 118 213 470 597 1160 1930
2025-11-15 05:30 2.18 25 10200 (1994) 45 (1964) 608 66 79 110 118 213 470 597 1160 1930
2025-11-15 04:30 2.21 27 10200 (1994) 45 (1964) 608 66 79 110 118 213 470 597 1160 1930
2025-11-15 03:30 2.24 30 10200 (1994) 45 (1964) 608 66 79 110 118 213 470 597 1160 1930
2025-11-15 02:30 2.26 32 10200 (1994) 45 (1964) 608 66 79 110 118 213 470 597 1160 1930
2025-11-15 01:30 2.31 38 10200 (1994) 45 (1964) 608 66 79 110 118 213 470 597 1160 1930
2025-11-15 00:30 2.37 45 10200 (1994) 45 (1964) 608 66 79 110 118 213 470 597 1160 1930
2025-11-14 23:30 2.43 52 10200 (1994) 45 (1964) 608 66 79 110 118 213 470 597 1160 1930
2025-11-14 22:30 2.49 61 8230 (1994) 44 (1964) 640 65 78 108 118 220 496 571 1340 2390
2025-11-14 21:30 2.59 77 8230 (1994) 44 (1964) 640 65 78 108 118 220 496 571 1340 2390
2025-11-14 20:30 2.72 101 8230 (1994) 44 (1964) 640 65 78 108 118 220 496 571 1340 2390
2025-11-14 19:30 2.87 133 8230 (1994) 44 (1964) 640 65 78 108 118 220 496 571 1340 2390
2025-11-14 18:30 3.01 169 8230 (1994) 44 (1964) 640 65 78 108 118 220 496 571 1340 2390
2025-11-14 17:30 3.17 215 8230 (1994) 44 (1964) 640 65 78 108 118 220 496 571 1340 2390
2025-11-14 16:30 3.19 221 8230 (1994) 44 (1964) 640 65 78 108 118 220 496 571 1340 2390
2025-11-14 15:30 3.20 225 8230 (1994) 44 (1964) 640 65 78 108 118 220 496 571 1340 2390
2025-11-14 14:30 3.19 221 8230 (1994) 44 (1964) 640 65 78 108 118 220 496 571 1340 2390
2025-11-14 13:30 3.19 221 8230 (1994) 44 (1964) 640 65 78 108 118 220 496 571 1340 2390
2025-11-14 12:30 3.19 221 8230 (1994) 44 (1964) 640 65 78 108 118 220 496 571 1340 2390
2025-11-14 11:30 3.20 225 8230 (1994) 44 (1964) 640 65 78 108 118 220 496 571 1340 2390
2025-11-14 10:30 3.20 225 8230 (1994) 44 (1964) 640 65 78 108 118 220 496 571 1340 2390
2025-11-14 09:30 3.20 225 8230 (1994) 44 (1964) 640 65 78 108 118 220 496 571 1340 2390
2025-11-14 08:30 3.19 221 8230 (1994) 44 (1964) 640 65 78 108 118 220 496 571 1340 2390
2025-11-14 07:30 3.19 221 8230 (1994) 44 (1964) 640 65 78 108 118 220 496 571 1340 2390
2025-11-14 06:30 3.19 221 8230 (1994) 44 (1964) 640 65 78 108 118 220 496 571 1340 2390
2025-11-14 05:30 3.19 221 8230 (1994) 44 (1964) 640 65 78 108 118 220 496 571 1340 2390
2025-11-14 04:30 3.19 221 8230 (1994) 44 (1964) 640 65 78 108 118 220 496 571 1340 2390
2025-11-14 03:30 3.19 221 8230 (1994) 44 (1964) 640 65 78 108 118 220 496 571 1340 2390
2025-11-14 02:30 3.19 221 8230 (1994) 44 (1964) 640 65 78 108 118 220 496 571 1340 2390
2025-11-14 01:30 3.19 221 8230 (1994) 44 (1964) 640 65 78 108 118 220 496 571 1340 2390
2025-11-14 00:30 3.19 221 8230 (1994) 44 (1964) 640 65 78 108 118 220 496 571 1340 2390
2025-11-13 23:30 3.19 221 8230 (1994) 44 (1964) 640 65 78 108 118 220 496 571 1340 2390
2025-11-13 22:30 3.19 221 4160 (1993) 44 (1964) 536 65 78 108 118 206 497 605 1430 2910
2025-11-13 21:30 3.19 221 4160 (1993) 44 (1964) 536 65 78 108 118 206 497 605 1430 2910
2025-11-13 20:30 3.19 221 4160 (1993) 44 (1964) 536 65 78 108 118 206 497 605 1430 2910
2025-11-13 19:30 3.19 221 4160 (1993) 44 (1964) 536 65 78 108 118 206 497 605 1430 2910
2025-11-13 18:30 3.19 221 4160 (1993) 44 (1964) 536 65 78 108 118 206 497 605 1430 2910
2025-11-13 17:30 3.19 221 4160 (1993) 44 (1964) 536 65 78 108 118 206 497 605 1430 2910
2025-11-13 16:30 3.20 225 4160 (1993) 44 (1964) 536 65 78 108 118 206 497 605 1430 2910
2025-11-13 15:30 3.20 225 4160 (1993) 44 (1964) 536 65 78 108 118 206 497 605 1430 2910
2025-11-13 14:30 3.20 225 4160 (1993) 44 (1964) 536 65 78 108 118 206 497 605 1430 2910
2025-11-13 13:30 3.20 225 4160 (1993) 44 (1964) 536 65 78 108 118 206 497 605 1430 2910
2025-11-13 12:30 3.20 225 4160 (1993) 44 (1964) 536 65 78 108 118 206 497 605 1430 2910
2025-11-13 11:30 3.20 225 4160 (1993) 44 (1964) 536 65 78 108 118 206 497 605 1430 2910
2025-11-13 10:30 3.19 221 4160 (1993) 44 (1964) 536 65 78 108 118 206 497 605 1430 2910
2025-11-13 09:30 3.20 225 4160 (1993) 44 (1964) 536 65 78 108 118 206 497 605 1430 2910
2025-11-13 08:30 3.19 221 4160 (1993) 44 (1964) 536 65 78 108 118 206 497 605 1430 2910
2025-11-13 07:30 3.20 225 4160 (1993) 44 (1964) 536 65 78 108 118 206 497 605 1430 2910
2025-11-13 06:30 3.20 225 4160 (1993) 44 (1964) 536 65 78 108 118 206 497 605 1430 2910
2025-11-13 05:30 3.20 225 4160 (1993) 44 (1964) 536 65 78 108 118 206 497 605 1430 2910
2025-11-13 04:30 3.20 225 4160 (1993) 44 (1964) 536 65 78 108 118 206 497 605 1430 2910
2025-11-13 03:30 3.20 225 4160 (1993) 44 (1964) 536 65 78 108 118 206 497 605 1430 2910
2025-11-13 02:30 3.20 225 4160 (1993) 44 (1964) 536 65 78 108 118 206 497 605 1430 2910
2025-11-13 01:30 3.20 225 4160 (1993) 44 (1964) 536 65 78 108 118 206 497 605 1430 2910
2025-11-13 00:30 3.20 225 4160 (1993) 44 (1964) 536 65 78 108 118 206 497 605 1430 2910
2025-11-12 23:30 3.20 225 4160 (1993) 44 (1964) 536 65 78 108 118 206 497 605 1430 2910
2025-11-12 22:30 3.20 225 3830 (1975) 44 (1964) 498 66 74 109 120 203 525 654 1390 1950
2025-11-12 21:30 3.21 228 3830 (1975) 44 (1964) 498 66 74 109 120 203 525 654 1390 1950
2025-11-12 20:30 3.21 228 3830 (1975) 44 (1964) 498 66 74 109 120 203 525 654 1390 1950
2025-11-12 19:30 3.21 228 3830 (1975) 44 (1964) 498 66 74 109 120 203 525 654 1390 1950
2025-11-12 18:30 3.21 228 3830 (1975) 44 (1964) 498 66 74 109 120 203 525 654 1390 1950
2025-11-12 17:30 3.22 231 3830 (1975) 44 (1964) 498 66 74 109 120 203 525 654 1390 1950
2025-11-12 16:30 3.22 231 3830 (1975) 44 (1964) 498 66 74 109 120 203 525 654 1390 1950
2025-11-12 15:30 3.22 231 3830 (1975) 44 (1964) 498 66 74 109 120 203 525 654 1390 1950
2025-11-12 14:30 3.22 231 3830 (1975) 44 (1964) 498 66 74 109 120 203 525 654 1390 1950
2025-11-12 13:30 3.22 231 3830 (1975) 44 (1964) 498 66 74 109 120 203 525 654 1390 1950
2025-11-12 12:30 3.22 231 3830 (1975) 44 (1964) 498 66 74 109 120 203 525 654 1390 1950
2025-11-12 11:30 3.22 231 3830 (1975) 44 (1964) 498 66 74 109 120 203 525 654 1390 1950
2025-11-12 10:30 3.22 231 3830 (1975) 44 (1964) 498 66 74 109 120 203 525 654 1390 1950
2025-11-12 09:30 3.22 231 3830 (1975) 44 (1964) 498 66 74 109 120 203 525 654 1390 1950
2025-11-12 08:30 3.22 231 3830 (1975) 44 (1964) 498 66 74 109 120 203 525 654 1390 1950
2025-11-12 07:30 3.22 231 3830 (1975) 44 (1964) 498 66 74 109 120 203 525 654 1390 1950
2025-11-12 06:30 3.22 231 3830 (1975) 44 (1964) 498 66 74 109 120 203 525 654 1390 1950
2025-11-12 05:30 3.22 231 3830 (1975) 44 (1964) 498 66 74 109 120 203 525 654 1390 1950
2025-11-12 04:30 3.22 231 3830 (1975) 44 (1964) 498 66 74 109 120 203 525 654 1390 1950
2025-11-12 03:30 3.22 231 3830 (1975) 44 (1964) 498 66 74 109 120 203 525 654 1390 1950
2025-11-12 02:30 3.22 231 3830 (1975) 44 (1964) 498 66 74 109 120 203 525 654 1390 1950
2025-11-12 01:30 3.22 231 3830 (1975) 44 (1964) 498 66 74 109 120 203 525 654 1390 1950
2025-11-12 00:30 3.23 234 3830 (1975) 44 (1964) 498 66 74 109 120 203 525 654 1390 1950
2025-11-11 23:30 3.23 234 3830 (1975) 44 (1964) 498 66 74 109 120 203 525 654 1390 1950
2025-11-11 22:30 3.23 234 4860 (1975) 43 (1964) 511 66 81 107 116 204 535 614 1350 2550
2025-11-11 21:30 3.23 234 4860 (1975) 43 (1964) 511 66 81 107 116 204 535 614 1350 2550
2025-11-11 20:30 3.23 234 4860 (1975) 43 (1964) 511 66 81 107 116 204 535 614 1350 2550
2025-11-11 19:30 3.23 234 4860 (1975) 43 (1964) 511 66 81 107 116 204 535 614 1350 2550
2025-11-11 18:30 3.23 234 4860 (1975) 43 (1964) 511 66 81 107 116 204 535 614 1350 2550
2025-11-11 17:30 3.23 234 4860 (1975) 43 (1964) 511 66 81 107 116 204 535 614 1350 2550
2025-11-11 16:30 3.24 238 4860 (1975) 43 (1964) 511 66 81 107 116 204 535 614 1350 2550
2025-11-11 15:30 3.25 241 4860 (1975) 43 (1964) 511 66 81 107 116 204 535 614 1350 2550
2025-11-11 14:30 3.25 241 4860 (1975) 43 (1964) 511 66 81 107 116 204 535 614 1350 2550
2025-11-11 13:30 3.25 241 4860 (1975) 43 (1964) 511 66 81 107 116 204 535 614 1350 2550
2025-11-11 12:30 3.25 241 4860 (1975) 43 (1964) 511 66 81 107 116 204 535 614 1350 2550
2025-11-11 11:30 3.25 241 4860 (1975) 43 (1964) 511 66 81 107 116 204 535 614 1350 2550
2025-11-11 10:30 3.25 241 4860 (1975) 43 (1964) 511 66 81 107 116 204 535 614 1350 2550
2025-11-11 09:30 3.25 241 4860 (1975) 43 (1964) 511 66 81 107 116 204 535 614 1350 2550
2025-11-11 08:30 3.25 241 4860 (1975) 43 (1964) 511 66 81 107 116 204 535 614 1350 2550
2025-11-11 07:30 3.25 241 4860 (1975) 43 (1964) 511 66 81 107 116 204 535 614 1350 2550
2025-11-11 06:30 3.25 241 4860 (1975) 43 (1964) 511 66 81 107 116 204 535 614 1350 2550
2025-11-11 05:30 3.25 241 4860 (1975) 43 (1964) 511 66 81 107 116 204 535 614 1350 2550
2025-11-11 04:30 3.25 241 4860 (1975) 43 (1964) 511 66 81 107 116 204 535 614 1350 2550
2025-11-11 03:30 3.25 241 4860 (1975) 43 (1964) 511 66 81 107 116 204 535 614 1350 2550
2025-11-11 02:30 3.25 241 4860 (1975) 43 (1964) 511 66 81 107 116 204 535 614 1350 2550
2025-11-11 01:30 3.25 241 4860 (1975) 43 (1964) 511 66 81 107 116 204 535 614 1350 2550
2025-11-11 00:30 3.25 241 4860 (1975) 43 (1964) 511 66 81 107 116 204 535 614 1350 2550
2025-11-10 23:30 3.25 241 4860 (1975) 43 (1964) 511 66 81 107 116 204 535 614 1350 2550
2025-11-10 22:30 3.25 241 4790 (1995) 43 (1964) 544 59 76 103 122 201 500 631 1370 2650
2025-11-10 21:30 3.26 244 4790 (1995) 43 (1964) 544 59 76 103 122 201 500 631 1370 2650
2025-11-10 20:30 3.26 244 4790 (1995) 43 (1964) 544 59 76 103 122 201 500 631 1370 2650
2025-11-10 19:30 3.26 244 4790 (1995) 43 (1964) 544 59 76 103 122 201 500 631 1370 2650
2025-11-10 18:30 3.26 244 4790 (1995) 43 (1964) 544 59 76 103 122 201 500 631 1370 2650
2025-11-10 17:30 3.26 244 4790 (1995) 43 (1964) 544 59 76 103 122 201 500 631 1370 2650
2025-11-10 16:30 3.26 244 4790 (1995) 43 (1964) 544 59 76 103 122 201 500 631 1370 2650
2025-11-10 15:30 3.26 244 4790 (1995) 43 (1964) 544 59 76 103 122 201 500 631 1370 2650
2025-11-10 14:30 3.26 244 4790 (1995) 43 (1964) 544 59 76 103 122 201 500 631 1370 2650
2025-11-10 13:30 3.26 244 4790 (1995) 43 (1964) 544 59 76 103 122 201 500 631 1370 2650
2025-11-10 12:30 3.26 244 4790 (1995) 43 (1964) 544 59 76 103 122 201 500 631 1370 2650
2025-11-10 11:30 3.26 244 4790 (1995) 43 (1964) 544 59 76 103 122 201 500 631 1370 2650
2025-11-10 10:30 3.26 244 4790 (1995) 43 (1964) 544 59 76 103 122 201 500 631 1370 2650
2025-11-10 09:30 3.27 248 4790 (1995) 43 (1964) 544 59 76 103 122 201 500 631 1370 2650
2025-11-10 08:30 3.27 248 4790 (1995) 43 (1964) 544 59 76 103 122 201 500 631 1370 2650
2025-11-10 07:30 3.27 248 4790 (1995) 43 (1964) 544 59 76 103 122 201 500 631 1370 2650
2025-11-10 06:30 3.27 248 4790 (1995) 43 (1964) 544 59 76 103 122 201 500 631 1370 2650
2025-11-10 05:30 3.27 248 4790 (1995) 43 (1964) 544 59 76 103 122 201 500 631 1370 2650
2025-11-10 04:30 3.27 248 4790 (1995) 43 (1964) 544 59 76 103 122 201 500 631 1370 2650
2025-11-10 03:30 3.27 248 4790 (1995) 43 (1964) 544 59 76 103 122 201 500 631 1370 2650
2025-11-10 02:30 3.28 251 4790 (1995) 43 (1964) 544 59 76 103 122 201 500 631 1370 2650
2025-11-10 01:30 3.28 251 4790 (1995) 43 (1964) 544 59 76 103 122 201 500 631 1370 2650
2025-11-10 00:30 3.28 251 4790 (1995) 43 (1964) 544 59 76 103 122 201 500 631 1370 2650
2025-11-09 23:30 3.28 251 4790 (1995) 43 (1964) 544 59 76 103 122 201 500 631 1370 2650
2025-11-09 22:30 3.28 251 5390 (2020) 43 (1964) 587 65 73 101 113 201 487 715 1390 3820
2025-11-09 21:30 3.29 254 5390 (2020) 43 (1964) 587 65 73 101 113 201 487 715 1390 3820
2025-11-09 20:30 3.29 254 5390 (2020) 43 (1964) 587 65 73 101 113 201 487 715 1390 3820
2025-11-09 19:30 3.29 254 5390 (2020) 43 (1964) 587 65 73 101 113 201 487 715 1390 3820
2025-11-09 18:30 3.29 254 5390 (2020) 43 (1964) 587 65 73 101 113 201 487 715 1390 3820
2025-11-09 17:30 3.29 254 5390 (2020) 43 (1964) 587 65 73 101 113 201 487 715 1390 3820
2025-11-09 16:30 3.29 254 5390 (2020) 43 (1964) 587 65 73 101 113 201 487 715 1390 3820
2025-11-09 15:30 3.29 254 5390 (2020) 43 (1964) 587 65 73 101 113 201 487 715 1390 3820
2025-11-09 14:30 3.29 254 5390 (2020) 43 (1964) 587 65 73 101 113 201 487 715 1390 3820
2025-11-09 13:30 3.30 258 5390 (2020) 43 (1964) 587 65 73 101 113 201 487 715 1390 3820
2025-11-09 12:30 3.29 254 5390 (2020) 43 (1964) 587 65 73 101 113 201 487 715 1390 3820
2025-11-09 11:30 3.30 258 5390 (2020) 43 (1964) 587 65 73 101 113 201 487 715 1390 3820
2025-11-09 10:30 3.30 258 5390 (2020) 43 (1964) 587 65 73 101 113 201 487 715 1390 3820
2025-11-09 09:30 3.30 258 5390 (2020) 43 (1964) 587 65 73 101 113 201 487 715 1390 3820
2025-11-09 08:30 3.30 258 5390 (2020) 43 (1964) 587 65 73 101 113 201 487 715 1390 3820
2025-11-09 07:30 3.30 258 5390 (2020) 43 (1964) 587 65 73 101 113 201 487 715 1390 3820
2025-11-09 06:30 3.30 258 5390 (2020) 43 (1964) 587 65 73 101 113 201 487 715 1390 3820
2025-11-09 05:30 3.30 258 5390 (2020) 43 (1964) 587 65 73 101 113 201 487 715 1390 3820
2025-11-09 04:30 3.30 258 5390 (2020) 43 (1964) 587 65 73 101 113 201 487 715 1390 3820
2025-11-09 03:30 3.30 258 5390 (2020) 43 (1964) 587 65 73 101 113 201 487 715 1390 3820
2025-11-09 02:30 3.31 261 5390 (2020) 43 (1964) 587 65 73 101 113 201 487 715 1390 3820
2025-11-09 01:30 3.31 261 5390 (2020) 43 (1964) 587 65 73 101 113 201 487 715 1390 3820
2025-11-09 00:30 3.31 261 5390 (2020) 43 (1964) 587 65 73 101 113 201 487 715 1390 3820
2025-11-08 23:30 3.31 261 5390 (2020) 43 (1964) 587 65 73 101 113 201 487 715 1390 3820
2025-11-08 22:30 3.31 261 11200 (2020) 43 (1964) 688 67 75 101 115 195 507 816 1320 2740
2025-11-08 21:30 3.31 261 11200 (2020) 43 (1964) 688 67 75 101 115 195 507 816 1320 2740
2025-11-08 20:30 3.31 261 11200 (2020) 43 (1964) 688 67 75 101 115 195 507 816 1320 2740
2025-11-08 19:30 3.30 258 11200 (2020) 43 (1964) 688 67 75 101 115 195 507 816 1320 2740
2025-11-08 18:30 3.30 258 11200 (2020) 43 (1964) 688 67 75 101 115 195 507 816 1320 2740
2025-11-08 17:30 3.30 258 11200 (2020) 43 (1964) 688 67 75 101 115 195 507 816 1320 2740
2025-11-08 16:30 3.31 261 11200 (2020) 43 (1964) 688 67 75 101 115 195 507 816 1320 2740
2025-11-08 15:30 3.31 261 11200 (2020) 43 (1964) 688 67 75 101 115 195 507 816 1320 2740
2025-11-08 14:30 3.32 265 11200 (2020) 43 (1964) 688 67 75 101 115 195 507 816 1320 2740
2025-11-08 13:30 3.31 261 11200 (2020) 43 (1964) 688 67 75 101 115 195 507 816 1320 2740
2025-11-08 12:30 3.32 265 11200 (2020) 43 (1964) 688 67 75 101 115 195 507 816 1320 2740
2025-11-08 11:30 3.31 261 11200 (2020) 43 (1964) 688 67 75 101 115 195 507 816 1320 2740
2025-11-08 10:30 3.31 261 11200 (2020) 43 (1964) 688 67 75 101 115 195 507 816 1320 2740
2025-11-08 09:30 3.31 261 11200 (2020) 43 (1964) 688 67 75 101 115 195 507 816 1320 2740
2025-11-08 08:30 3.31 261 11200 (2020) 43 (1964) 688 67 75 101 115 195 507 816 1320 2740
2025-11-08 07:30 3.32 265 11200 (2020) 43 (1964) 688 67 75 101 115 195 507 816 1320 2740
2025-11-08 06:30 3.32 265 11200 (2020) 43 (1964) 688 67 75 101 115 195 507 816 1320 2740
2025-11-08 05:30 3.32 265 11200 (2020) 43 (1964) 688 67 75 101 115 195 507 816 1320 2740
2025-11-08 04:30 3.32 265 11200 (2020) 43 (1964) 688 67 75 101 115 195 507 816 1320 2740
2025-11-08 03:30 3.32 265 11200 (2020) 43 (1964) 688 67 75 101 115 195 507 816 1320 2740
2025-11-08 02:30 3.33 268 11200 (2020) 43 (1964) 688 67 75 101 115 195 507 816 1320 2740
2025-11-08 01:30 3.33 268 11200 (2020) 43 (1964) 688 67 75 101 115 195 507 816 1320 2740
2025-11-08 00:30 3.33 268 11200 (2020) 43 (1964) 688 67 75 101 115 195 507 816 1320 2740
2025-11-07 23:30 3.33 268 11200 (2020) 43 (1964) 688 67 75 101 115 195 507 816 1320 2740

A total of 4082 rows are displayed for years 1940 through 2025.